GEFSNGP_prec_meanprecacc_006.txt.gz
Total_Precipitation_Accumulation
0.31 0.20 0.12 0.08 0.10 0.22 0.33 0.27 0.15 0.06 0.02 0.01 0.00 0.00 0.00 0.00 0.00 0.00 0.00 0.00 0.00 0.00 0.00 0.00 0.00 0.00 0.00 0.00 0.00 0.00 0.00 0.00 0.00 0.00 0.00 0.00 0.00 0.00 0.00 0.00 0.00 0.00 0.00 0.00
0.23 0.08 0.05 0.07 0.10 0.18 0.25 0.21 0.14 0.06 0.02 0.01 0.00 0.00 0.00 0.00 0.00 0.00 0.00 0.00 0.00 0.00 0.00 0.00 0.00 0.00 0.00 0.00 0.00 0.00 0.00 0.00 0.00 0.00 0.00 0.00 0.00 0.00 0.00 0.00 0.00 0.00 0.00 0.00
0.18 0.07 0.06 0.07 0.07 0.13 0.18 0.14 0.10 0.06 0.02 0.00 0.00 0.00 0.00 0.00 0.00 0.00 0.00 0.00 0.00 0.00 0.00 0.00 0.00 0.00 0.00 0.00 0.00 0.00 0.00 0.00 0.00 0.00 0.00 0.00 0.00 0.00 0.00 0.00 0.00 0.00 0.00 0.00
0.07 0.04 0.04 0.02 0.02 0.03 0.06 0.06 0.04 0.02 0.01 0.00 0.00 0.00 0.00 0.00 0.00 0.00 0.00 0.00 0.00 0.00 0.00 0.00 0.00 0.00 0.00 0.00 0.00 0.00 0.00 0.00 0.00 0.00 0.00 0.00 0.00 0.00 0.00 0.00 0.00 0.00 0.00 0.00
0.01 0.00 0.00 0.00 0.00 0.00 0.00 0.01 0.01 0.00 0.00 0.00 0.00 0.00 0.00 0.00 0.00 0.00 0.00 0.00 0.00 0.00 0.00 0.00 0.00 0.00 0.00 0.00 0.00 0.00 0.00 0.00 0.00 0.00 0.00 0.00 0.00 0.00 0.00 0.00 0.00 0.00 0.00 0.00
0.00 0.00 0.00 0.00 0.00 0.00 0.00 0.00 0.00 0.00 0.00 0.00 0.00 0.00 0.00 0.00 0.00 0.00 0.00 0.00 0.00 0.00 0.00 0.00 0.00 0.00 0.00 0.00 0.00 0.00 0.00 0.00 0.00 0.00 0.00 0.00 0.00 0.00 0.00 0.00 0.00 0.00 0.00 0.00
0.00 0.00 0.00 0.00 0.00 0.00 0.00 0.00 0.00 0.00 0.00 0.00 0.00 0.00 0.00 0.00 0.00 0.00 0.00 0.00 0.00 0.00 0.00 0.00 0.00 0.00 0.00 0.00 0.00 0.00 0.00 0.00 0.00 0.00 0.00 0.00 0.00 0.00 0.00 0.00 0.00 0.00 0.00 0.00
0.00 0.00 0.00 0.00 0.00 0.00 0.00 0.00 0.00 0.00 0.00 0.00 0.00 0.00 0.00 0.00 0.00 0.00 0.00 0.00 0.00 0.00 0.00 0.00 0.00 0.00 0.00 0.00 0.00 0.00 0.00 0.00 0.00 0.00 0.00 0.00 0.00 0.00 0.00 0.00 0.00 0.00 0.00 0.00
0.00 0.00 0.00 0.00 0.00 0.00 0.00 0.00 0.00 0.00 0.00 0.00 0.00 0.00 0.00 0.00 0.00 0.00 0.00 0.00 0.00 0.00 0.00 0.00 0.00 0.00 0.00 0.00 0.00 0.00 0.00 0.00 0.00 0.00 0.00 0.00 0.00 0.00 0.00 0.00 0.00 0.00 0.00 0.00
0.00 0.00 0.00 0.00 0.00 0.00 0.00 0.00 0.00 0.00 0.00 0.00 0.00 0.00 0.00 0.00 0.00 0.00 0.00 0.00 0.00 0.00 0.00 0.00 0.00 0.00 0.00 0.00 0.00 0.00 0.00 0.00 0.00 0.00 0.00 0.00 0.00 0.00 0.00 0.00 0.00 0.00 0.00 0.00
0.00 0.00 0.00 0.00 0.00 0.00 0.00 0.00 0.00 0.00 0.00 0.00 0.00 0.00 0.00 0.00 0.00 0.00 0.00 0.00 0.00 0.00 0.00 0.00 0.00 0.00 0.00 0.00 0.00 0.00 0.00 0.00 0.00 0.00 0.00 0.00 0.00 0.00 0.00 0.00 0.00 0.00 0.00 0.00
0.00 0.00 0.00 0.00 0.00 0.00 0.00 0.00 0.00 0.00 0.00 0.00 0.00 0.00 0.00 0.00 0.00 0.00 0.00 0.00 0.00 0.00 0.00 0.00 0.00 0.00 0.00 0.00 0.00 0.00 0.00 0.00 0.00 0.00 0.00 0.00 0.00 0.00 0.00 0.00 0.00 0.00 0.00 0.00
0.00 0.00 0.00 0.00 0.00 0.00 0.00 0.00 0.00 0.00 0.00 0.00 0.00 0.00 0.00 0.00 0.00 0.00 0.00 0.00 0.00 0.00 0.00 0.00 0.00 0.00 0.00 0.00 0.00 0.00 0.00 0.00 0.00 0.00 0.00 0.00 0.00 0.00 0.00 0.00 0.00 0.00 0.00 0.00
0.00 0.00 0.00 0.00 0.00 0.00 0.00 0.00 0.00 0.00 0.00 0.00 0.00 0.00 0.00 0.00 0.00 0.00 0.00 0.00 0.00 0.00 0.00 0.00 0.00 0.00 0.00 0.00 0.00 0.00 0.00 0.00 0.00 0.00 0.00 0.00 0.00 0.00 0.00 0.00 0.00 0.00 0.00 0.00
0.00 0.00 0.00 0.00 0.00 0.00 0.00 0.00 0.00 0.00 0.00 0.00 0.00 0.00 0.00 0.00 0.00 0.00 0.00 0.00 0.00 0.00 0.00 0.00 0.00 0.00 0.00 0.00 0.00 0.00 0.00 0.00 0.00 0.00 0.00 0.00 0.00 0.00 0.00 0.00 0.00 0.00 0.00 0.00
0.00 0.00 0.00 0.00 0.00 0.00 0.00 0.00 0.00 0.00 0.00 0.00 0.00 0.00 0.00 0.00 0.00 0.00 0.00 0.00 0.00 0.00 0.00 0.00 0.00 0.00 0.00 0.00 0.00 0.00 0.00 0.00 0.00 0.00 0.00 0.00 0.00 0.00 0.00 0.00 0.00 0.00 0.00 0.00
0.00 0.00 0.00 0.00 0.00 0.00 0.00 0.00 0.00 0.00 0.00 0.00 0.00 0.00 0.00 0.00 0.00 0.00 0.00 0.00 0.00 0.00 0.00 0.00 0.00 0.00 0.00 0.00 0.00 0.00 0.00 0.00 0.00 0.00 0.00 0.00 0.00 0.00 0.00 0.00 0.00 0.00 0.00 0.00
0.00 0.00 0.00 0.00 0.00 0.00 0.00 0.00 0.00 0.00 0.00 0.00 0.00 0.00 0.00 0.00 0.00 0.00 0.00 0.00 0.00 0.00 0.00 0.00 0.00 0.00 0.00 0.00 0.00 0.00 0.00 0.00 0.00 0.00 0.00 0.00 0.00 0.00 0.00 0.00 0.00 0.00 0.00 0.00
0.00 0.00 0.00 0.00 0.00 0.00 0.00 0.00 0.00 0.00 0.00 0.00 0.00 0.00 0.00 0.00 0.00 0.00 0.00 0.00 0.00 0.00 0.00 0.00 0.00 0.00 0.00 0.00 0.00 0.00 0.00 0.00 0.00 0.00 0.00 0.00 0.00 0.00 0.00 0.00 0.00 0.00 0.00 0.00
0.00 0.00 0.00 0.00 0.00 0.00 0.00 0.00 0.00 0.00 0.00 0.00 0.00 0.00 0.00 0.00 0.00 0.00 0.00 0.00 0.00 0.00 0.00 0.00 0.00 0.00 0.00 0.00 0.00 0.00 0.00 0.00 0.00 0.00 0.00 0.00 0.00 0.00 0.00 0.00 0.00 0.00 0.00 0.00
0.00 0.00 0.00 0.00 0.00 0.00 0.00 0.00 0.00 0.00 0.00 0.00 0.00 0.00 0.00 0.00 0.00 0.00 0.00 0.00 0.00 0.00 0.00 0.00 0.00 0.00 0.00 0.00 0.00 0.00 0.00 0.00 0.00 0.00 0.00 0.00 0.00 0.00 0.00 0.00 0.00 0.00 0.00 0.00
0.00 0.00 0.00 0.00 0.00 0.00 0.00 0.00 0.00 0.00 0.00 0.00 0.00 0.00 0.00 0.00 0.00 0.00 0.00 0.00 0.00 0.00 0.00 0.00 0.00 0.00 0.00 0.00 0.00 0.00 0.00 0.00 0.00 0.00 0.00 0.00 0.00 0.00 0.00 0.00 0.00 0.00 0.00 0.00
0.00 0.00 0.00 0.00 0.00 0.00 0.00 0.00 0.00 0.00 0.00 0.00 0.00 0.00 0.00 0.00 0.00 0.00 0.00 0.00 0.00 0.00 0.00 0.00 0.00 0.00 0.00 0.00 0.00 0.00 0.00 0.00 0.00 0.00 0.00 0.00 0.00 0.00 0.00 0.00 0.00 0.00 0.00 0.01
0.00 0.00 0.00 0.00 0.00 0.00 0.00 0.00 0.00 0.00 0.00 0.00 0.00 0.00 0.00 0.00 0.00 0.00 0.00 0.00 0.00 0.00 0.00 0.00 0.00 0.00 0.00 0.00 0.00 0.00 0.00 0.00 0.00 0.00 0.00 0.00 0.00 0.00 0.00 0.00 0.00 0.00 0.00 0.00
0.00 0.00 0.00 0.00 0.00 0.00 0.00 0.00 0.00 0.00 0.00 0.00 0.00 0.00 0.00 0.00 0.00 0.00 0.00 0.00 0.00 0.00 0.00 0.00 0.00 0.00 0.00 0.00 0.00 0.00 0.00 0.00 0.00 0.00 0.00 0.00 0.00 0.00 0.00 0.00 0.00 0.00 0.00 0.00
0.00 0.00 0.00 0.00 0.00 0.00 0.00 0.00 0.00 0.00 0.00 0.00 0.00 0.00 0.00 0.00 0.00 0.00 0.00 0.00 0.00 0.00 0.00 0.00 0.00 0.00 0.00 0.00 0.00 0.00 0.00 0.00 0.00 0.00 0.00 0.00 0.00 0.00 0.00 0.00 0.00 0.00 0.00 0.00
0.00 0.00 0.00 0.00 0.00 0.00 0.00 0.00 0.00 0.00 0.00 0.00 0.00 0.00 0.00 0.00 0.00 0.00 0.00 0.00 0.00 0.00 0.00 0.00 0.00 0.00 0.00 0.00 0.00 0.00 0.00 0.00 0.00 0.00 0.00 0.00 0.00 0.00 0.00 0.00 0.00 0.00 0.00 0.00

GEFSNGP_prec_meanprecacc_012.txt.gz
Total_Precipitation_Accumulation
0.48 0.38 0.35 0.26 0.19 0.28 0.37 0.29 0.16 0.07 0.04 0.03 0.02 0.02 0.02 0.01 0.01 0.00 0.00 0.00 0.00 0.00 0.00 0.00 0.00 0.00 0.00 0.00 0.00 0.00 0.00 0.00 0.00 0.00 0.00 0.00 0.00 0.00 0.00 0.00 0.00 0.00 0.00 0.00
0.52 0.28 0.21 0.19 0.15 0.22 0.28 0.23 0.16 0.08 0.05 0.03 0.02 0.02 0.01 0.01 0.00 0.00 0.00 0.00 0.00 0.00 0.00 0.00 0.00 0.00 0.00 0.00 0.00 0.00 0.00 0.00 0.00 0.00 0.00 0.00 0.00 0.00 0.00 0.00 0.00 0.00 0.00 0.00
0.51 0.29 0.24 0.21 0.14 0.17 0.22 0.17 0.12 0.08 0.05 0.02 0.01 0.01 0.00 0.00 0.00 0.00 0.00 0.00 0.00 0.00 0.00 0.00 0.00 0.00 0.00 0.00 0.00 0.00 0.00 0.00 0.00 0.00 0.00 0.00 0.00 0.00 0.00 0.00 0.00 0.00 0.00 0.00
0.37 0.34 0.31 0.17 0.10 0.11 0.13 0.11 0.07 0.05 0.02 0.01 0.01 0.01 0.01 0.01 0.00 0.00 0.00 0.00 0.00 0.00 0.00 0.00 0.00 0.00 0.00 0.00 0.00 0.00 0.00 0.00 0.00 0.00 0.00 0.00 0.00 0.00 0.00 0.00 0.00 0.00 0.00 0.00
0.16 0.15 0.11 0.05 0.05 0.05 0.06 0.05 0.03 0.02 0.01 0.01 0.01 0.01 0.01 0.01 0.01 0.00 0.00 0.00 0.00 0.00 0.00 0.00 0.00 0.00 0.00 0.00 0.00 0.00 0.00 0.00 0.00 0.00 0.00 0.00 0.00 0.00 0.00 0.00 0.00 0.00 0.00 0.00
0.02 0.02 0.02 0.01 0.01 0.01 0.01 0.01 0.00 0.00 0.00 0.00 0.00 0.01 0.01 0.01 0.01 0.00 0.00 0.00 0.00 0.00 0.00 0.00 0.00 0.00 0.00 0.00 0.00 0.00 0.00 0.00 0.00 0.00 0.00 0.00 0.00 0.00 0.00 0.00 0.00 0.00 0.00 0.00
0.00 0.00 0.00 0.00 0.00 0.00 0.00 0.00 0.00 0.00 0.00 0.00 0.00 0.01 0.01 0.01 0.01 0.00 0.00 0.00 0.00 0.00 0.00 0.00 0.00 0.00 0.00 0.00 0.00 0.00 0.00 0.00 0.00 0.00 0.00 0.00 0.00 0.00 0.00 0.00 0.00 0.00 0.00 0.00
0.00 0.00 0.00 0.00 0.00 0.00 0.00 0.00 0.00 0.00 0.00 0.00 0.00 0.00 0.00 0.00 0.00 0.00 0.00 0.00 0.00 0.00 0.00 0.00 0.00 0.00 0.00 0.00 0.00 0.00 0.00 0.00 0.00 0.00 0.00 0.00 0.00 0.00 0.00 0.00 0.00 0.00 0.00 0.00
0.00 0.00 0.00 0.00 0.00 0.00 0.00 0.00 0.00 0.00 0.00 0.00 0.00 0.00 0.00 0.00 0.00 0.00 0.00 0.00 0.00 0.00 0.00 0.00 0.00 0.00 0.00 0.00 0.00 0.00 0.00 0.00 0.00 0.00 0.00 0.00 0.00 0.00 0.00 0.00 0.00 0.00 0.00 0.00
0.00 0.00 0.00 0.00 0.00 0.00 0.00 0.00 0.00 0.00 0.00 0.00 0.00 0.00 0.00 0.00 0.00 0.00 0.00 0.00 0.00 0.00 0.00 0.00 0.00 0.00 0.00 0.00 0.00 0.00 0.00 0.00 0.00 0.00 0.00 0.00 0.00 0.00 0.00 0.00 0.00 0.00 0.00 0.00
0.00 0.00 0.00 0.00 0.00 0.00 0.00 0.00 0.00 0.00 0.00 0.00 0.00 0.00 0.00 0.00 0.00 0.00 0.00 0.00 0.00 0.00 0.00 0.00 0.00 0.00 0.00 0.00 0.00 0.00 0.00 0.00 0.00 0.00 0.00 0.00 0.00 0.00 0.00 0.00 0.00 0.00 0.00 0.00
0.00 0.00 0.00 0.00 0.00 0.00 0.00 0.00 0.00 0.00 0.00 0.00 0.00 0.00 0.00 0.00 0.00 0.00 0.00 0.00 0.00 0.00 0.00 0.00 0.00 0.00 0.00 0.00 0.00 0.00 0.00 0.00 0.00 0.00 0.00 0.00 0.00 0.00 0.00 0.00 0.00 0.00 0.00 0.00
0.00 0.00 0.00 0.00 0.00 0.00 0.00 0.00 0.00 0.00 0.00 0.00 0.00 0.00 0.00 0.00 0.00 0.00 0.00 0.00 0.00 0.00 0.00 0.00 0.00 0.00 0.00 0.00 0.00 0.00 0.00 0.00 0.00 0.00 0.00 0.00 0.00 0.00 0.00 0.00 0.00 0.00 0.00 0.00
0.00 0.00 0.00 0.00 0.00 0.00 0.00 0.00 0.00 0.00 0.00 0.00 0.00 0.00 0.00 0.00 0.00 0.00 0.00 0.00 0.00 0.00 0.00 0.00 0.00 0.00 0.00 0.00 0.00 0.00 0.00 0.00 0.00 0.00 0.00 0.00 0.00 0.00 0.00 0.00 0.00 0.00 0.00 0.00
0.00 0.00 0.00 0.00 0.00 0.00 0.00 0.00 0.00 0.00 0.00 0.00 0.00 0.00 0.00 0.00 0.00 0.00 0.00 0.00 0.00 0.00 0.00 0.00 0.00 0.00 0.00 0.00 0.00 0.00 0.00 0.00 0.00 0.00 0.00 0.00 0.00 0.00 0.00 0.00 0.00 0.00 0.00 0.00
0.00 0.00 0.00 0.00 0.00 0.00 0.00 0.00 0.00 0.00 0.00 0.00 0.00 0.00 0.00 0.00 0.00 0.00 0.00 0.00 0.00 0.00 0.00 0.00 0.00 0.00 0.00 0.00 0.00 0.00 0.00 0.00 0.00 0.00 0.00 0.00 0.00 0.00 0.00 0.00 0.00 0.00 0.00 0.00
0.00 0.00 0.00 0.00 0.00 0.00 0.00 0.00 0.00 0.00 0.00 0.00 0.00 0.00 0.00 0.00 0.00 0.00 0.00 0.00 0.00 0.00 0.00 0.00 0.00 0.00 0.00 0.00 0.00 0.00 0.00 0.00 0.00 0.00 0.00 0.00 0.00 0.00 0.00 0.00 0.00 0.00 0.00 0.00
0.00 0.00 0.00 0.00 0.00 0.00 0.00 0.00 0.00 0.00 0.00 0.00 0.00 0.00 0.00 0.00 0.00 0.00 0.00 0.00 0.00 0.00 0.00 0.00 0.00 0.00 0.00 0.00 0.00 0.00 0.00 0.00 0.00 0.00 0.00 0.00 0.00 0.00 0.00 0.00 0.00 0.00 0.00 0.00
0.00 0.00 0.00 0.00 0.00 0.00 0.00 0.00 0.00 0.00 0.00 0.00 0.00 0.00 0.00 0.00 0.00 0.00 0.00 0.00 0.00 0.00 0.00 0.00 0.00 0.00 0.00 0.00 0.00 0.00 0.00 0.00 0.00 0.00 0.00 0.00 0.00 0.00 0.00 0.00 0.00 0.00 0.00 0.00
0.00 0.00 0.00 0.00 0.00 0.00 0.00 0.00 0.00 0.00 0.00 0.00 0.00 0.00 0.00 0.00 0.00 0.00 0.00 0.00 0.00 0.00 0.00 0.00 0.00 0.00 0.00 0.00 0.00 0.00 0.00 0.00 0.00 0.00 0.00 0.00 0.00 0.00 0.00 0.00 0.00 0.00 0.00 0.00
0.00 0.00 0.00 0.00 0.00 0.00 0.00 0.00 0.00 0.00 0.00 0.00 0.00 0.00 0.00 0.00 0.00 0.00 0.00 0.00 0.00 0.00 0.00 0.00 0.00 0.00 0.00 0.00 0.00 0.00 0.00 0.00 0.00 0.00 0.00 0.00 0.00 0.00 0.00 0.00 0.00 0.00 0.00 0.00
0.00 0.00 0.00 0.00 0.00 0.00 0.00 0.00 0.00 0.00 0.00 0.00 0.00 0.00 0.00 0.00 0.00 0.00 0.00 0.00 0.00 0.00 0.00 0.00 0.00 0.00 0.00 0.00 0.00 0.00 0.00 0.00 0.00 0.00 0.00 0.00 0.00 0.00 0.00 0.00 0.00 0.00 0.00 0.00
0.00 0.00 0.00 0.00 0.00 0.00 0.00 0.00 0.00 0.00 0.00 0.00 0.00 0.00 0.00 0.00 0.00 0.00 0.00 0.00 0.00 0.00 0.00 0.00 0.00 0.00 0.00 0.00 0.00 0.00 0.00 0.00 0.00 0.00 0.00 0.00 0.00 0.00 0.00 0.00 0.00 0.00 0.01 0.01
0.00 0.00 0.00 0.00 0.00 0.00 0.00 0.00 0.00 0.00 0.00 0.00 0.00 0.00 0.00 0.00 0.00 0.00 0.00 0.00 0.00 0.00 0.00 0.00 0.00 0.00 0.00 0.00 0.00 0.00 0.00 0.00 0.00 0.00 0.00 0.00 0.00 0.00 0.00 0.00 0.00 0.01 0.01 0.01
0.00 0.00 0.00 0.00 0.00 0.00 0.00 0.00 0.00 0.00 0.00 0.00 0.00 0.00 0.00 0.00 0.00 0.00 0.00 0.00 0.00 0.00 0.00 0.00 0.00 0.00 0.00 0.00 0.00 0.00 0.00 0.00 0.00 0.00 0.00 0.00 0.00 0.00 0.00 0.00 0.01 0.01 0.01 0.01
0.00 0.00 0.00 0.00 0.00 0.00 0.00 0.00 0.00 0.00 0.00 0.00 0.00 0.00 0.00 0.00 0.00 0.00 0.00 0.00 0.00 0.00 0.00 0.00 0.00 0.00 0.00 0.00 0.00 0.00 0.00 0.00 0.00 0.00 0.00 0.00 0.00 0.00 0.00 0.00 0.00 0.01 0.01 0.01
0.00 0.00 0.00 0.00 0.00 0.00 0.00 0.00 0.00 0.00 0.00 0.00 0.00 0.00 0.00 0.00 0.00 0.00 0.00 0.00 0.00 0.00 0.00 0.00 0.00 0.00 0.00 0.00 0.00 0.00 0.00 0.00 0.00 0.00 0.00 0.00 0.00 0.00 0.00 0.00 0.01 0.01 0.01 0.00

GEFSNGP_prec_meanprecacc_018.txt.gz
Total_Precipitation_Accumulation
0.51 0.43 0.49 0.43 0.31 0.40 0.56 0.40 0.21 0.08 0.04 0.04 0.04 0.06 0.07 0.06 0.03 0.01 0.01 0.00 0.00 0.00 0.00 0.00 0.00 0.01 0.02 0.03 0.01 0.01 0.00 0.00 0.00 0.00 0.00 0.00 0.00 0.00 0.00 0.00 0.00 0.00 0.00 0.00
0.56 0.33 0.33 0.32 0.22 0.29 0.35 0.27 0.19 0.09 0.07 0.05 0.07 0.11 0.12 0.08 0.04 0.02 0.01 0.00 0.00 0.00 0.00 0.00 0.00 0.01 0.03 0.03 0.02 0.01 0.00 0.00 0.00 0.00 0.00 0.00 0.00 0.00 0.00 0.00 0.00 0.00 0.00 0.00
0.58 0.32 0.33 0.29 0.18 0.21 0.25 0.19 0.14 0.10 0.07 0.05 0.07 0.11 0.11 0.07 0.03 0.02 0.01 0.00 0.00 0.00 0.00 0.00 0.01 0.03 0.03 0.02 0.01 0.00 0.00 0.00 0.00 0.00 0.00 0.00 0.00 0.00 0.00 0.00 0.00 0.00 0.00 0.00
0.47 0.42 0.45 0.26 0.14 0.13 0.15 0.12 0.08 0.06 0.03 0.03 0.06 0.06 0.05 0.03 0.02 0.01 0.01 0.00 0.00 0.00 0.00 0.00 0.01 0.01 0.01 0.01 0.00 0.00 0.00 0.00 0.00 0.00 0.00 0.00 0.00 0.00 0.00 0.00 0.00 0.00 0.00 0.00
0.28 0.26 0.20 0.11 0.09 0.08 0.09 0.07 0.03 0.03 0.02 0.02 0.02 0.03 0.03 0.02 0.02 0.01 0.00 0.00 0.00 0.00 0.00 0.00 0.00 0.00 0.00 0.00 0.00 0.00 0.00 0.00 0.00 0.00 0.00 0.00 0.00 0.00 0.00 0.00 0.00 0.00 0.00 0.00
0.09 0.09 0.06 0.04 0.02 0.02 0.04 0.04 0.01 0.01 0.01 0.01 0.01 0.03 0.02 0.01 0.01 0.00 0.00 0.00 0.00 0.00 0.00 0.00 0.00 0.00 0.00 0.00 0.00 0.00 0.00 0.00 0.00 0.00 0.00 0.00 0.00 0.00 0.00 0.00 0.00 0.00 0.00 0.00
0.02 0.02 0.01 0.01 0.00 0.00 0.01 0.01 0.00 0.01 0.01 0.01 0.02 0.02 0.01 0.01 0.01 0.01 0.00 0.00 0.00 0.00 0.00 0.00 0.00 0.00 0.00 0.00 0.00 0.00 0.00 0.00 0.00 0.00 0.00 0.00 0.00 0.00 0.00 0.00 0.00 0.00 0.00 0.00
0.00 0.00 0.00 0.00 0.00 0.00 0.00 0.00 0.00 0.00 0.01 0.02 0.02 0.01 0.01 0.01 0.00 0.01 0.00 0.00 0.00 0.00 0.00 0.00 0.00 0.00 0.00 0.00 0.00 0.00 0.00 0.00 0.00 0.00 0.00 0.00 0.00 0.00 0.00 0.00 0.00 0.00 0.00 0.00
0.00 0.00 0.00 0.00 0.00 0.00 0.00 0.00 0.00 0.00 0.00 0.01 0.01 0.01 0.01 0.01 0.00 0.00 0.00 0.00 0.00 0.00 0.00 0.00 0.00 0.00 0.00 0.00 0.00 0.00 0.00 0.00 0.00 0.00 0.00 0.00 0.00 0.00 0.00 0.00 0.00 0.00 0.00 0.00
0.00 0.00 0.00 0.00 0.00 0.00 0.00 0.00 0.00 0.00 0.00 0.00 0.00 0.00 0.00 0.00 0.00 0.00 0.00 0.00 0.00 0.00 0.00 0.00 0.00 0.00 0.00 0.00 0.00 0.00 0.00 0.00 0.00 0.00 0.00 0.00 0.00 0.00 0.00 0.00 0.00 0.00 0.00 0.00
0.00 0.00 0.00 0.00 0.00 0.00 0.00 0.00 0.00 0.00 0.00 0.00 0.00 0.00 0.00 0.00 0.00 0.00 0.00 0.00 0.00 0.00 0.00 0.00 0.00 0.00 0.00 0.00 0.00 0.00 0.00 0.00 0.00 0.00 0.00 0.00 0.00 0.00 0.00 0.00 0.00 0.00 0.00 0.00
0.00 0.00 0.00 0.00 0.00 0.00 0.00 0.00 0.00 0.00 0.00 0.00 0.00 0.00 0.00 0.00 0.00 0.00 0.00 0.00 0.00 0.00 0.00 0.00 0.00 0.00 0.00 0.00 0.00 0.00 0.00 0.00 0.00 0.00 0.00 0.00 0.00 0.00 0.00 0.00 0.00 0.00 0.00 0.00
0.00 0.00 0.00 0.00 0.00 0.00 0.00 0.00 0.00 0.00 0.00 0.00 0.00 0.00 0.00 0.00 0.00 0.00 0.00 0.00 0.00 0.00 0.00 0.00 0.00 0.00 0.00 0.00 0.00 0.00 0.00 0.00 0.00 0.00 0.00 0.00 0.00 0.00 0.00 0.00 0.00 0.00 0.00 0.00
0.00 0.00 0.00 0.00 0.00 0.00 0.00 0.00 0.00 0.00 0.00 0.00 0.00 0.00 0.00 0.00 0.00 0.00 0.00 0.00 0.00 0.00 0.00 0.00 0.00 0.00 0.00 0.00 0.00 0.00 0.00 0.00 0.00 0.00 0.00 0.00 0.00 0.00 0.00 0.00 0.00 0.00 0.00 0.00
0.00 0.00 0.00 0.00 0.00 0.00 0.00 0.00 0.00 0.00 0.00 0.00 0.00 0.00 0.00 0.00 0.00 0.00 0.00 0.00 0.00 0.00 0.00 0.00 0.00 0.00 0.00 0.00 0.00 0.00 0.00 0.00 0.00 0.00 0.00 0.00 0.00 0.00 0.00 0.00 0.00 0.00 0.00 0.00
0.00 0.00 0.00 0.00 0.00 0.00 0.00 0.00 0.00 0.00 0.00 0.00 0.00 0.00 0.00 0.00 0.00 0.00 0.00 0.00 0.00 0.00 0.00 0.00 0.00 0.00 0.00 0.00 0.00 0.00 0.00 0.00 0.00 0.00 0.00 0.00 0.00 0.00 0.00 0.00 0.00 0.00 0.00 0.00
0.00 0.00 0.00 0.00 0.00 0.00 0.00 0.00 0.00 0.00 0.00 0.00 0.00 0.00 0.00 0.00 0.00 0.00 0.00 0.00 0.00 0.00 0.00 0.00 0.00 0.00 0.00 0.00 0.00 0.00 0.00 0.00 0.00 0.00 0.00 0.00 0.00 0.00 0.00 0.00 0.00 0.00 0.00 0.00
0.00 0.00 0.00 0.00 0.00 0.00 0.00 0.00 0.00 0.00 0.00 0.00 0.00 0.00 0.00 0.00 0.00 0.00 0.00 0.00 0.00 0.00 0.00 0.00 0.00 0.00 0.00 0.00 0.00 0.00 0.00 0.00 0.00 0.00 0.00 0.00 0.00 0.00 0.00 0.00 0.00 0.00 0.00 0.00
0.00 0.00 0.00 0.00 0.00 0.00 0.00 0.00 0.00 0.00 0.00 0.00 0.00 0.00 0.00 0.00 0.00 0.00 0.00 0.00 0.00 0.00 0.00 0.00 0.00 0.00 0.00 0.00 0.00 0.00 0.00 0.00 0.00 0.00 0.00 0.00 0.00 0.00 0.00 0.00 0.00 0.00 0.00 0.00
0.00 0.00 0.00 0.00 0.00 0.00 0.00 0.00 0.00 0.00 0.00 0.00 0.00 0.00 0.00 0.00 0.00 0.00 0.00 0.00 0.00 0.00 0.00 0.00 0.00 0.00 0.00 0.00 0.00 0.00 0.00 0.00 0.00 0.00 0.00 0.00 0.00 0.00 0.00 0.00 0.00 0.00 0.00 0.00
0.00 0.00 0.00 0.00 0.00 0.00 0.00 0.00 0.00 0.00 0.00 0.00 0.00 0.00 0.00 0.00 0.00 0.00 0.00 0.00 0.00 0.00 0.00 0.00 0.00 0.00 0.00 0.00 0.00 0.00 0.00 0.00 0.00 0.00 0.00 0.00 0.00 0.00 0.00 0.00 0.00 0.00 0.00 0.00
0.00 0.00 0.00 0.00 0.00 0.00 0.00 0.00 0.00 0.00 0.00 0.00 0.00 0.00 0.00 0.00 0.00 0.00 0.00 0.00 0.00 0.00 0.00 0.00 0.00 0.00 0.00 0.00 0.00 0.00 0.00 0.00 0.00 0.00 0.00 0.00 0.00 0.00 0.00 0.00 0.00 0.00 0.00 0.01
0.00 0.00 0.00 0.00 0.00 0.00 0.00 0.00 0.00 0.00 0.00 0.00 0.00 0.00 0.00 0.00 0.00 0.00 0.00 0.00 0.00 0.00 0.00 0.00 0.00 0.00 0.00 0.00 0.00 0.00 0.00 0.00 0.00 0.00 0.00 0.00 0.00 0.00 0.00 0.00 0.00 0.00 0.01 0.01
0.00 0.00 0.00 0.00 0.00 0.00 0.00 0.00 0.00 0.00 0.00 0.00 0.00 0.00 0.00 0.00 0.00 0.00 0.00 0.00 0.00 0.00 0.00 0.00 0.00 0.00 0.00 0.00 0.00 0.00 0.00 0.00 0.00 0.00 0.00 0.00 0.00 0.00 0.00 0.00 0.00 0.01 0.01 0.01
0.00 0.00 0.00 0.00 0.00 0.00 0.00 0.00 0.00 0.00 0.00 0.00 0.00 0.00 0.00 0.00 0.00 0.00 0.00 0.00 0.00 0.00 0.00 0.00 0.00 0.00 0.00 0.00 0.00 0.00 0.00 0.00 0.00 0.00 0.00 0.00 0.00 0.00 0.00 0.00 0.01 0.01 0.01 0.01
0.00 0.00 0.00 0.00 0.00 0.00 0.00 0.00 0.00 0.00 0.00 0.00 0.00 0.00 0.00 0.00 0.00 0.00 0.00 0.00 0.00 0.00 0.00 0.00 0.00 0.00 0.00 0.00 0.00 0.00 0.00 0.00 0.00 0.00 0.00 0.00 0.00 0.00 0.00 0.00 0.00 0.01 0.01 0.01
0.00 0.00 0.00 0.00 0.00 0.00 0.00 0.00 0.00 0.00 0.00 0.00 0.00 0.00 0.00 0.00 0.00 0.00 0.00 0.00 0.00 0.00 0.00 0.00 0.00 0.00 0.00 0.00 0.00 0.00 0.00 0.00 0.00 0.00 0.00 0.00 0.00 0.00 0.00 0.01 0.01 0.01 0.01 0.01

GEFSNGP_prec_meanprecacc_024.txt.gz
Total_Precipitation_Accumulation
0.51 0.43 0.49 0.43 0.32 0.43 0.66 0.51 0.32 0.11 0.05 0.05 0.06 0.10 0.12 0.10 0.07 0.04 0.03 0.02 0.01 0.01 0.01 0.01 0.01 0.02 0.04 0.03 0.02 0.03 0.03 0.03 0.04 0.05 0.05 0.03 0.02 0.01 0.00 0.00 0.00 0.00 0.00 0.00
0.56 0.33 0.33 0.32 0.23 0.30 0.38 0.31 0.24 0.13 0.10 0.08 0.11 0.16 0.17 0.13 0.09 0.06 0.04 0.02 0.01 0.01 0.01 0.01 0.01 0.02 0.03 0.05 0.04 0.04 0.05 0.05 0.05 0.06 0.05 0.03 0.01 0.00 0.00 0.00 0.00 0.00 0.00 0.00
0.59 0.32 0.33 0.30 0.19 0.24 0.28 0.21 0.18 0.16 0.12 0.08 0.13 0.18 0.22 0.16 0.09 0.05 0.04 0.03 0.02 0.01 0.01 0.01 0.01 0.03 0.06 0.07 0.06 0.06 0.07 0.07 0.06 0.05 0.04 0.02 0.01 0.00 0.00 0.00 0.00 0.00 0.00 0.00
0.49 0.43 0.46 0.27 0.16 0.17 0.19 0.16 0.12 0.11 0.07 0.08 0.12 0.13 0.13 0.13 0.09 0.06 0.03 0.02 0.01 0.01 0.01 0.01 0.02 0.04 0.06 0.08 0.08 0.08 0.08 0.07 0.05 0.04 0.03 0.02 0.01 0.00 0.00 0.00 0.00 0.00 0.00 0.00
0.31 0.29 0.21 0.11 0.10 0.12 0.15 0.12 0.07 0.06 0.05 0.04 0.05 0.12 0.12 0.09 0.08 0.06 0.04 0.03 0.02 0.01 0.02 0.02 0.03 0.05 0.07 0.09 0.10 0.10 0.09 0.08 0.06 0.03 0.02 0.02 0.01 0.01 0.00 0.00 0.00 0.00 0.00 0.00
0.14 0.12 0.07 0.05 0.03 0.04 0.07 0.09 0.03 0.03 0.03 0.03 0.03 0.07 0.10 0.11 0.11 0.10 0.08 0.05 0.04 0.03 0.03 0.04 0.05 0.06 0.09 0.12 0.14 0.15 0.14 0.10 0.07 0.04 0.02 0.01 0.00 0.00 0.00 0.00 0.00 0.00 0.00 0.00
0.05 0.04 0.01 0.01 0.00 0.01 0.02 0.04 0.02 0.03 0.03 0.03 0.03 0.03 0.04 0.06 0.09 0.09 0.08 0.07 0.07 0.07 0.07 0.07 0.07 0.09 0.13 0.14 0.13 0.11 0.08 0.05 0.03 0.01 0.00 0.00 0.00 0.00 0.00 0.00 0.00 0.00 0.00 0.00
0.01 0.01 0.01 0.01 0.00 0.00 0.00 0.00 0.00 0.01 0.02 0.03 0.03 0.02 0.02 0.02 0.04 0.04 0.04 0.05 0.07 0.08 0.08 0.07 0.07 0.07 0.07 0.06 0.05 0.03 0.01 0.01 0.00 0.00 0.00 0.00 0.00 0.00 0.00 0.00 0.00 0.00 0.00 0.00
0.00 0.00 0.00 0.00 0.00 0.00 0.00 0.00 0.00 0.00 0.01 0.02 0.02 0.03 0.03 0.02 0.01 0.01 0.01 0.01 0.01 0.02 0.02 0.02 0.02 0.01 0.01 0.01 0.00 0.00 0.00 0.00 0.00 0.00 0.00 0.00 0.00 0.00 0.00 0.00 0.00 0.00 0.00 0.00
0.00 0.00 0.00 0.00 0.00 0.00 0.00 0.00 0.00 0.00 0.00 0.00 0.01 0.01 0.01 0.01 0.01 0.01 0.01 0.00 0.00 0.00 0.00 0.00 0.00 0.00 0.00 0.00 0.00 0.00 0.00 0.00 0.00 0.00 0.00 0.00 0.00 0.00 0.00 0.00 0.00 0.00 0.00 0.00
0.00 0.00 0.00 0.00 0.00 0.00 0.00 0.00 0.00 0.00 0.00 0.00 0.00 0.00 0.00 0.00 0.00 0.00 0.00 0.00 0.00 0.00 0.00 0.00 0.00 0.00 0.00 0.00 0.00 0.00 0.00 0.00 0.00 0.00 0.00 0.00 0.00 0.00 0.00 0.00 0.00 0.00 0.00 0.00
0.00 0.00 0.00 0.00 0.00 0.00 0.00 0.00 0.00 0.00 0.00 0.00 0.00 0.00 0.00 0.00 0.00 0.00 0.00 0.00 0.00 0.00 0.00 0.00 0.00 0.00 0.00 0.00 0.00 0.00 0.00 0.00 0.00 0.00 0.00 0.00 0.00 0.00 0.00 0.00 0.00 0.00 0.00 0.00
0.00 0.00 0.00 0.00 0.00 0.00 0.00 0.00 0.00 0.00 0.00 0.00 0.00 0.00 0.00 0.00 0.00 0.00 0.00 0.00 0.00 0.00 0.00 0.00 0.00 0.00 0.00 0.00 0.00 0.00 0.00 0.00 0.00 0.00 0.00 0.00 0.00 0.00 0.00 0.00 0.00 0.00 0.00 0.00
0.00 0.00 0.00 0.00 0.00 0.00 0.00 0.00 0.00 0.00 0.00 0.00 0.00 0.00 0.00 0.00 0.00 0.00 0.00 0.00 0.00 0.00 0.00 0.00 0.00 0.00 0.00 0.00 0.00 0.00 0.00 0.00 0.00 0.00 0.00 0.00 0.00 0.00 0.00 0.00 0.00 0.00 0.00 0.00
0.00 0.00 0.00 0.00 0.00 0.00 0.00 0.00 0.00 0.00 0.00 0.00 0.00 0.00 0.00 0.00 0.00 0.00 0.00 0.00 0.00 0.00 0.00 0.00 0.00 0.00 0.00 0.00 0.00 0.00 0.00 0.00 0.00 0.00 0.00 0.00 0.00 0.00 0.00 0.00 0.00 0.00 0.00 0.00
0.00 0.00 0.00 0.00 0.00 0.00 0.00 0.00 0.00 0.00 0.00 0.00 0.00 0.00 0.00 0.00 0.00 0.00 0.00 0.00 0.00 0.00 0.00 0.00 0.00 0.00 0.00 0.00 0.00 0.00 0.00 0.00 0.00 0.00 0.00 0.00 0.00 0.00 0.00 0.00 0.00 0.00 0.00 0.00
0.00 0.00 0.00 0.00 0.00 0.00 0.00 0.00 0.00 0.00 0.00 0.00 0.00 0.00 0.00 0.00 0.00 0.00 0.00 0.00 0.00 0.00 0.00 0.00 0.00 0.00 0.00 0.00 0.00 0.00 0.00 0.00 0.00 0.00 0.00 0.00 0.00 0.00 0.00 0.00 0.00 0.00 0.00 0.00
0.00 0.00 0.00 0.00 0.00 0.00 0.00 0.00 0.00 0.00 0.00 0.00 0.00 0.00 0.00 0.00 0.00 0.00 0.00 0.00 0.00 0.00 0.00 0.00 0.00 0.00 0.00 0.00 0.00 0.00 0.00 0.00 0.00 0.00 0.00 0.00 0.00 0.00 0.00 0.00 0.00 0.00 0.00 0.00
0.00 0.00 0.00 0.00 0.00 0.00 0.00 0.00 0.00 0.00 0.00 0.00 0.00 0.00 0.00 0.00 0.00 0.00 0.00 0.00 0.00 0.00 0.00 0.00 0.00 0.00 0.00 0.00 0.00 0.00 0.00 0.00 0.00 0.00 0.00 0.00 0.00 0.00 0.00 0.00 0.00 0.00 0.00 0.00
0.00 0.00 0.00 0.00 0.00 0.00 0.00 0.00 0.01 0.01 0.00 0.00 0.00 0.00 0.00 0.00 0.00 0.00 0.00 0.00 0.00 0.00 0.00 0.00 0.00 0.00 0.00 0.00 0.00 0.00 0.00 0.00 0.00 0.00 0.00 0.00 0.00 0.00 0.00 0.00 0.00 0.00 0.00 0.00
0.00 0.00 0.00 0.00 0.00 0.00 0.00 0.00 0.01 0.01 0.00 0.00 0.00 0.00 0.00 0.00 0.00 0.00 0.00 0.00 0.00 0.00 0.00 0.00 0.00 0.00 0.00 0.00 0.00 0.00 0.00 0.00 0.00 0.00 0.00 0.00 0.00 0.00 0.00 0.00 0.00 0.00 0.00 0.00
0.00 0.00 0.00 0.00 0.00 0.00 0.00 0.00 0.00 0.00 0.00 0.00 0.00 0.00 0.00 0.00 0.00 0.00 0.00 0.00 0.00 0.00 0.00 0.00 0.00 0.00 0.00 0.00 0.00 0.00 0.00 0.00 0.00 0.00 0.00 0.00 0.00 0.00 0.00 0.00 0.00 0.00 0.00 0.01
0.00 0.00 0.00 0.00 0.00 0.00 0.00 0.00 0.00 0.00 0.00 0.00 0.00 0.00 0.00 0.00 0.00 0.00 0.00 0.00 0.00 0.00 0.00 0.00 0.00 0.00 0.00 0.00 0.00 0.00 0.00 0.00 0.00 0.00 0.00 0.00 0.00 0.00 0.00 0.00 0.00 0.00 0.01 0.01
0.00 0.00 0.00 0.00 0.00 0.00 0.00 0.00 0.00 0.00 0.00 0.00 0.00 0.00 0.00 0.00 0.00 0.00 0.00 0.00 0.00 0.00 0.00 0.00 0.00 0.00 0.00 0.00 0.00 0.00 0.00 0.00 0.00 0.00 0.00 0.00 0.00 0.00 0.00 0.00 0.00 0.01 0.01 0.01
0.00 0.00 0.00 0.00 0.00 0.00 0.00 0.00 0.00 0.00 0.00 0.00 0.00 0.00 0.00 0.00 0.00 0.00 0.00 0.00 0.00 0.00 0.00 0.00 0.00 0.00 0.00 0.00 0.00 0.00 0.00 0.00 0.00 0.00 0.00 0.00 0.00 0.00 0.00 0.00 0.01 0.01 0.01 0.01
0.00 0.00 0.00 0.00 0.00 0.00 0.00 0.00 0.00 0.00 0.00 0.00 0.00 0.00 0.00 0.00 0.00 0.00 0.00 0.00 0.00 0.00 0.00 0.00 0.00 0.00 0.00 0.00 0.00 0.00 0.00 0.00 0.00 0.00 0.00 0.00 0.00 0.00 0.00 0.00 0.00 0.01 0.01 0.01
0.00 0.00 0.00 0.00 0.00 0.00 0.00 0.00 0.00 0.00 0.00 0.00 0.00 0.00 0.00 0.00 0.00 0.00 0.00 0.00 0.00 0.00 0.00 0.00 0.00 0.00 0.00 0.00 0.00 0.00 0.00 0.00 0.00 0.00 0.00 0.00 0.00 0.00 0.00 0.01 0.01 0.01 0.01 0.01

GEFSNGP_prec_meanprecacc_030.txt.gz
Total_Precipitation_Accumulation
0.51 0.43 0.49 0.43 0.32 0.43 0.66 0.52 0.34 0.12 0.05 0.05 0.07 0.12 0.14 0.11 0.08 0.05 0.04 0.03 0.02 0.02 0.03 0.03 0.03 0.04 0.06 0.07 0.07 0.09 0.11 0.10 0.10 0.10 0.09 0.08 0.07 0.06 0.04 0.03 0.02 0.02 0.02 0.02
0.56 0.33 0.33 0.32 0.23 0.30 0.39 0.31 0.24 0.14 0.11 0.08 0.12 0.18 0.20 0.15 0.10 0.07 0.05 0.03 0.02 0.02 0.03 0.03 0.03 0.04 0.06 0.09 0.10 0.12 0.13 0.12 0.10 0.10 0.09 0.07 0.06 0.05 0.03 0.03 0.03 0.03 0.03 0.03
0.59 0.32 0.33 0.30 0.19 0.24 0.28 0.22 0.19 0.18 0.13 0.09 0.14 0.20 0.25 0.19 0.11 0.07 0.05 0.04 0.03 0.03 0.03 0.03 0.03 0.06 0.10 0.14 0.14 0.15 0.15 0.12 0.10 0.09 0.08 0.06 0.06 0.07 0.08 0.09 0.09 0.09 0.09 0.08
0.49 0.43 0.46 0.27 0.16 0.17 0.20 0.16 0.12 0.12 0.07 0.08 0.13 0.15 0.16 0.17 0.14 0.09 0.04 0.03 0.02 0.02 0.02 0.03 0.04 0.06 0.10 0.16 0.18 0.18 0.17 0.13 0.09 0.08 0.10 0.13 0.16 0.18 0.19 0.20 0.20 0.18 0.15 0.12
0.32 0.29 0.21 0.11 0.10 0.12 0.15 0.12 0.07 0.06 0.05 0.04 0.06 0.13 0.15 0.13 0.14 0.11 0.06 0.03 0.03 0.03 0.03 0.04 0.05 0.06 0.10 0.15 0.19 0.19 0.18 0.17 0.17 0.18 0.21 0.25 0.30 0.31 0.29 0.25 0.21 0.16 0.11 0.07
0.17 0.14 0.07 0.05 0.03 0.04 0.07 0.09 0.03 0.03 0.03 0.03 0.03 0.08 0.11 0.14 0.18 0.18 0.14 0.08 0.05 0.05 0.05 0.07 0.09 0.13 0.18 0.23 0.29 0.34 0.37 0.39 0.38 0.37 0.38 0.37 0.35 0.31 0.25 0.19 0.13 0.08 0.04 0.02
0.08 0.06 0.01 0.01 0.00 0.01 0.02 0.04 0.02 0.03 0.03 0.03 0.03 0.04 0.05 0.09 0.14 0.17 0.19 0.18 0.16 0.15 0.16 0.17 0.19 0.26 0.34 0.39 0.45 0.49 0.49 0.52 0.50 0.44 0.38 0.30 0.22 0.15 0.09 0.05 0.03 0.01 0.01 0.00
0.02 0.02 0.01 0.01 0.00 0.00 0.00 0.00 0.00 0.01 0.02 0.03 0.03 0.02 0.02 0.04 0.08 0.10 0.13 0.18 0.22 0.25 0.25 0.25 0.29 0.35 0.41 0.44 0.45 0.41 0.35 0.30 0.25 0.18 0.13 0.08 0.04 0.02 0.01 0.01 0.00 0.00 0.00 0.00
0.00 0.00 0.00 0.00 0.00 0.00 0.00 0.00 0.00 0.00 0.01 0.02 0.02 0.03 0.03 0.02 0.02 0.03 0.03 0.05 0.09 0.14 0.17 0.17 0.18 0.20 0.21 0.19 0.16 0.12 0.09 0.05 0.03 0.02 0.01 0.01 0.00 0.00 0.00 0.00 0.00 0.00 0.00 0.00
0.00 0.00 0.00 0.00 0.00 0.00 0.00 0.00 0.00 0.00 0.00 0.00 0.01 0.01 0.01 0.01 0.01 0.02 0.02 0.01 0.01 0.02 0.02 0.02 0.02 0.02 0.02 0.02 0.01 0.01 0.00 0.00 0.00 0.00 0.00 0.00 0.00 0.00 0.00 0.00 0.00 0.00 0.00 0.00
0.00 0.00 0.00 0.00 0.00 0.00 0.00 0.00 0.00 0.00 0.00 0.00 0.00 0.00 0.00 0.00 0.00 0.00 0.00 0.00 0.00 0.00 0.00 0.00 0.00 0.00 0.00 0.00 0.00 0.00 0.00 0.00 0.00 0.00 0.00 0.00 0.00 0.00 0.00 0.00 0.00 0.00 0.00 0.00
0.00 0.00 0.00 0.00 0.00 0.00 0.00 0.00 0.00 0.00 0.00 0.00 0.00 0.00 0.00 0.00 0.00 0.00 0.00 0.00 0.00 0.01 0.01 0.01 0.00 0.00 0.00 0.00 0.00 0.00 0.00 0.00 0.00 0.00 0.00 0.00 0.00 0.00 0.00 0.00 0.00 0.00 0.00 0.00
0.00 0.00 0.00 0.00 0.00 0.00 0.00 0.00 0.00 0.00 0.00 0.00 0.00 0.00 0.00 0.00 0.00 0.00 0.00 0.00 0.00 0.01 0.01 0.01 0.00 0.00 0.00 0.00 0.00 0.00 0.00 0.00 0.00 0.00 0.00 0.00 0.00 0.00 0.00 0.00 0.00 0.00 0.00 0.00
0.00 0.00 0.00 0.00 0.00 0.00 0.00 0.00 0.00 0.00 0.00 0.00 0.00 0.00 0.00 0.00 0.00 0.00 0.00 0.00 0.00 0.01 0.01 0.00 0.00 0.00 0.00 0.00 0.00 0.00 0.00 0.00 0.00 0.00 0.00 0.00 0.00 0.00 0.00 0.00 0.00 0.00 0.00 0.00
0.00 0.00 0.00 0.00 0.00 0.00 0.00 0.00 0.00 0.00 0.00 0.00 0.00 0.00 0.00 0.00 0.00 0.00 0.00 0.00 0.00 0.00 0.00 0.00 0.00 0.00 0.00 0.00 0.00 0.00 0.00 0.00 0.00 0.00 0.00 0.00 0.00 0.00 0.00 0.00 0.00 0.00 0.00 0.00
0.00 0.00 0.00 0.00 0.00 0.00 0.00 0.00 0.00 0.00 0.00 0.00 0.00 0.00 0.00 0.00 0.00 0.00 0.00 0.00 0.00 0.00 0.00 0.00 0.00 0.00 0.00 0.00 0.00 0.00 0.00 0.00 0.00 0.00 0.00 0.00 0.00 0.00 0.00 0.00 0.00 0.00 0.00 0.00
0.00 0.00 0.00 0.00 0.00 0.00 0.00 0.00 0.00 0.00 0.00 0.00 0.00 0.00 0.00 0.00 0.00 0.00 0.00 0.00 0.00 0.00 0.00 0.00 0.00 0.00 0.00 0.00 0.00 0.00 0.00 0.00 0.00 0.00 0.00 0.00 0.00 0.00 0.00 0.00 0.00 0.00 0.00 0.00
0.00 0.00 0.00 0.00 0.00 0.00 0.00 0.00 0.00 0.00 0.00 0.00 0.00 0.00 0.00 0.00 0.00 0.00 0.00 0.00 0.00 0.00 0.00 0.00 0.00 0.00 0.00 0.00 0.00 0.00 0.00 0.00 0.00 0.00 0.00 0.00 0.00 0.00 0.00 0.00 0.00 0.00 0.00 0.00
0.00 0.00 0.00 0.00 0.00 0.00 0.00 0.00 0.00 0.00 0.00 0.00 0.00 0.00 0.00 0.00 0.00 0.00 0.00 0.00 0.00 0.00 0.00 0.00 0.00 0.00 0.00 0.00 0.00 0.00 0.00 0.00 0.00 0.00 0.00 0.00 0.00 0.00 0.00 0.00 0.00 0.00 0.00 0.00
0.00 0.00 0.00 0.00 0.00 0.01 0.01 0.01 0.01 0.01 0.01 0.01 0.01 0.01 0.00 0.00 0.00 0.00 0.00 0.00 0.00 0.00 0.00 0.00 0.00 0.00 0.00 0.00 0.00 0.00 0.00 0.00 0.00 0.00 0.00 0.00 0.00 0.00 0.00 0.00 0.00 0.00 0.00 0.00
0.01 0.01 0.01 0.01 0.01 0.01 0.02 0.02 0.02 0.03 0.02 0.02 0.01 0.01 0.00 0.00 0.00 0.00 0.00 0.00 0.00 0.00 0.00 0.00 0.00 0.00 0.00 0.00 0.00 0.00 0.00 0.00 0.00 0.00 0.00 0.00 0.00 0.00 0.00 0.00 0.00 0.00 0.00 0.00
0.01 0.01 0.02 0.02 0.02 0.03 0.03 0.03 0.03 0.03 0.03 0.03 0.02 0.01 0.00 0.00 0.00 0.00 0.00 0.00 0.00 0.00 0.00 0.00 0.00 0.00 0.00 0.00 0.00 0.00 0.00 0.00 0.00 0.00 0.00 0.00 0.00 0.00 0.00 0.00 0.00 0.00 0.00 0.01
0.01 0.01 0.02 0.02 0.02 0.03 0.03 0.03 0.03 0.03 0.02 0.02 0.02 0.01 0.00 0.00 0.00 0.00 0.00 0.00 0.00 0.00 0.00 0.00 0.00 0.00 0.00 0.00 0.00 0.00 0.00 0.00 0.00 0.00 0.00 0.00 0.00 0.00 0.00 0.00 0.00 0.00 0.01 0.01
0.00 0.00 0.01 0.01 0.01 0.02 0.02 0.02 0.02 0.02 0.02 0.02 0.02 0.01 0.00 0.00 0.00 0.00 0.00 0.00 0.00 0.00 0.00 0.00 0.00 0.00 0.00 0.00 0.00 0.00 0.00 0.00 0.00 0.00 0.00 0.00 0.00 0.00 0.00 0.00 0.00 0.01 0.01 0.01
0.00 0.00 0.00 0.00 0.00 0.01 0.01 0.01 0.01 0.01 0.01 0.01 0.01 0.01 0.00 0.00 0.00 0.00 0.00 0.00 0.00 0.00 0.00 0.00 0.00 0.00 0.00 0.00 0.00 0.00 0.00 0.00 0.00 0.00 0.00 0.00 0.00 0.00 0.00 0.00 0.01 0.01 0.01 0.01
0.00 0.00 0.00 0.00 0.00 0.00 0.00 0.00 0.01 0.01 0.01 0.01 0.01 0.01 0.00 0.00 0.00 0.00 0.00 0.00 0.00 0.00 0.00 0.00 0.00 0.00 0.00 0.00 0.00 0.00 0.00 0.00 0.00 0.00 0.00 0.00 0.00 0.00 0.00 0.00 0.00 0.01 0.01 0.01
0.00 0.00 0.00 0.00 0.00 0.00 0.00 0.00 0.00 0.00 0.00 0.00 0.01 0.01 0.01 0.01 0.00 0.00 0.00 0.00 0.00 0.00 0.00 0.00 0.00 0.00 0.00 0.00 0.00 0.00 0.00 0.00 0.00 0.00 0.00 0.00 0.00 0.00 0.00 0.01 0.01 0.01 0.01 0.01

GEFSNGP_prec_meanprecacc_036.txt.gz
Total_Precipitation_Accumulation
0.51 0.43 0.49 0.43 0.32 0.43 0.66 0.52 0.34 0.12 0.05 0.05 0.07 0.12 0.14 0.11 0.08 0.05 0.04 0.03 0.02 0.03 0.03 0.04 0.04 0.06 0.08 0.09 0.10 0.11 0.13 0.13 0.13 0.13 0.13 0.12 0.11 0.09 0.07 0.05 0.04 0.03 0.03 0.04
0.56 0.33 0.33 0.32 0.23 0.30 0.39 0.32 0.24 0.14 0.11 0.08 0.12 0.18 0.20 0.15 0.10 0.07 0.05 0.03 0.02 0.03 0.04 0.05 0.05 0.06 0.08 0.11 0.12 0.14 0.15 0.14 0.13 0.13 0.13 0.11 0.10 0.08 0.07 0.06 0.05 0.06 0.07 0.08
0.59 0.32 0.33 0.30 0.19 0.24 0.28 0.22 0.19 0.18 0.13 0.09 0.14 0.20 0.25 0.19 0.12 0.07 0.05 0.04 0.03 0.03 0.03 0.04 0.04 0.08 0.13 0.16 0.15 0.16 0.17 0.15 0.13 0.14 0.14 0.12 0.11 0.13 0.15 0.15 0.15 0.16 0.17 0.18
0.50 0.43 0.46 0.27 0.16 0.17 0.20 0.16 0.12 0.12 0.07 0.08 0.13 0.15 0.16 0.17 0.14 0.09 0.05 0.03 0.02 0.02 0.03 0.03 0.04 0.08 0.15 0.21 0.23 0.26 0.28 0.25 0.20 0.21 0.24 0.26 0.29 0.31 0.32 0.34 0.35 0.35 0.33 0.31
0.33 0.29 0.21 0.11 0.10 0.12 0.15 0.12 0.07 0.06 0.05 0.04 0.06 0.13 0.15 0.13 0.14 0.11 0.06 0.04 0.03 0.03 0.03 0.04 0.05 0.08 0.13 0.21 0.28 0.33 0.36 0.38 0.37 0.38 0.42 0.44 0.48 0.49 0.48 0.48 0.44 0.40 0.36 0.31
0.19 0.15 0.07 0.05 0.03 0.04 0.08 0.09 0.03 0.03 0.03 0.03 0.03 0.08 0.11 0.14 0.18 0.18 0.14 0.08 0.05 0.05 0.06 0.08 0.10 0.14 0.21 0.29 0.37 0.44 0.47 0.52 0.52 0.52 0.53 0.53 0.51 0.49 0.45 0.41 0.36 0.29 0.23 0.19
0.10 0.08 0.01 0.01 0.01 0.01 0.03 0.04 0.02 0.03 0.03 0.03 0.03 0.04 0.05 0.09 0.14 0.17 0.19 0.18 0.16 0.16 0.17 0.19 0.22 0.29 0.38 0.44 0.53 0.58 0.58 0.61 0.62 0.57 0.53 0.47 0.38 0.30 0.24 0.20 0.15 0.12 0.09 0.06
0.03 0.03 0.01 0.01 0.00 0.00 0.00 0.00 0.00 0.01 0.02 0.03 0.03 0.02 0.02 0.04 0.08 0.10 0.13 0.18 0.22 0.25 0.26 0.27 0.31 0.39 0.46 0.52 0.54 0.50 0.45 0.41 0.37 0.31 0.26 0.21 0.16 0.12 0.09 0.07 0.05 0.04 0.03 0.02
0.00 0.00 0.00 0.00 0.00 0.00 0.00 0.00 0.00 0.00 0.01 0.02 0.02 0.03 0.03 0.02 0.02 0.03 0.04 0.05 0.09 0.15 0.18 0.18 0.19 0.22 0.24 0.23 0.21 0.17 0.14 0.11 0.10 0.09 0.07 0.07 0.05 0.03 0.02 0.01 0.01 0.00 0.00 0.00
0.00 0.00 0.00 0.00 0.00 0.00 0.00 0.00 0.00 0.00 0.00 0.00 0.01 0.01 0.01 0.01 0.01 0.02 0.02 0.01 0.01 0.02 0.02 0.02 0.02 0.02 0.02 0.02 0.02 0.02 0.01 0.01 0.01 0.01 0.01 0.01 0.00 0.00 0.00 0.00 0.00 0.00 0.00 0.00
0.00 0.00 0.00 0.00 0.00 0.00 0.00 0.00 0.00 0.00 0.00 0.00 0.00 0.00 0.00 0.00 0.01 0.01 0.00 0.00 0.00 0.00 0.00 0.00 0.00 0.00 0.00 0.00 0.00 0.00 0.00 0.00 0.00 0.00 0.00 0.00 0.00 0.00 0.00 0.00 0.00 0.00 0.00 0.00
0.00 0.00 0.00 0.00 0.00 0.00 0.00 0.00 0.00 0.00 0.00 0.00 0.00 0.00 0.00 0.00 0.00 0.00 0.00 0.01 0.01 0.01 0.01 0.01 0.00 0.00 0.00 0.00 0.00 0.00 0.00 0.00 0.00 0.00 0.00 0.00 0.00 0.00 0.00 0.00 0.00 0.00 0.00 0.00
0.00 0.00 0.00 0.00 0.00 0.00 0.00 0.00 0.00 0.00 0.00 0.00 0.00 0.00 0.00 0.00 0.00 0.00 0.00 0.00 0.01 0.01 0.01 0.01 0.00 0.00 0.00 0.00 0.00 0.00 0.00 0.00 0.00 0.00 0.00 0.00 0.00 0.00 0.00 0.00 0.00 0.00 0.00 0.00
0.00 0.00 0.00 0.00 0.00 0.00 0.00 0.00 0.00 0.00 0.00 0.00 0.00 0.00 0.00 0.00 0.00 0.00 0.01 0.01 0.01 0.01 0.01 0.01 0.00 0.00 0.00 0.00 0.00 0.00 0.00 0.00 0.00 0.00 0.00 0.00 0.00 0.00 0.00 0.00 0.00 0.00 0.00 0.00
0.00 0.00 0.00 0.00 0.00 0.00 0.00 0.00 0.00 0.00 0.00 0.00 0.00 0.00 0.00 0.00 0.00 0.00 0.01 0.01 0.01 0.01 0.00 0.00 0.00 0.00 0.00 0.00 0.00 0.00 0.00 0.00 0.00 0.00 0.00 0.00 0.00 0.00 0.00 0.00 0.00 0.00 0.00 0.00
0.00 0.00 0.00 0.00 0.00 0.00 0.00 0.00 0.00 0.00 0.00 0.00 0.00 0.00 0.00 0.00 0.00 0.00 0.00 0.00 0.00 0.00 0.00 0.00 0.00 0.00 0.00 0.00 0.00 0.00 0.00 0.00 0.00 0.00 0.00 0.00 0.00 0.00 0.00 0.00 0.00 0.00 0.00 0.00
0.00 0.00 0.00 0.00 0.00 0.00 0.00 0.00 0.00 0.00 0.00 0.00 0.00 0.00 0.00 0.00 0.00 0.00 0.00 0.00 0.00 0.00 0.00 0.00 0.00 0.00 0.00 0.00 0.00 0.00 0.00 0.00 0.00 0.00 0.00 0.00 0.00 0.00 0.00 0.00 0.00 0.00 0.00 0.00
0.00 0.00 0.00 0.00 0.00 0.00 0.00 0.00 0.00 0.00 0.00 0.00 0.00 0.00 0.00 0.00 0.00 0.00 0.00 0.00 0.00 0.00 0.00 0.00 0.00 0.00 0.00 0.00 0.00 0.00 0.00 0.00 0.00 0.00 0.00 0.00 0.00 0.00 0.00 0.00 0.00 0.00 0.00 0.00
0.00 0.00 0.00 0.00 0.00 0.00 0.00 0.00 0.00 0.00 0.01 0.01 0.00 0.00 0.00 0.00 0.00 0.00 0.00 0.00 0.00 0.00 0.00 0.00 0.00 0.00 0.00 0.00 0.00 0.00 0.00 0.00 0.00 0.00 0.00 0.00 0.00 0.00 0.00 0.00 0.00 0.00 0.00 0.00
0.01 0.01 0.01 0.01 0.01 0.01 0.01 0.01 0.01 0.01 0.01 0.02 0.02 0.02 0.01 0.01 0.00 0.00 0.00 0.00 0.00 0.00 0.00 0.00 0.00 0.00 0.00 0.00 0.00 0.00 0.00 0.00 0.00 0.00 0.00 0.00 0.00 0.00 0.00 0.00 0.00 0.00 0.00 0.00
0.02 0.02 0.03 0.03 0.03 0.03 0.03 0.03 0.03 0.04 0.04 0.04 0.04 0.04 0.03 0.02 0.01 0.01 0.00 0.00 0.00 0.00 0.00 0.00 0.00 0.00 0.00 0.00 0.00 0.00 0.00 0.00 0.00 0.00 0.00 0.00 0.00 0.00 0.00 0.00 0.00 0.00 0.00 0.00
0.03 0.04 0.05 0.05 0.05 0.05 0.05 0.06 0.06 0.06 0.06 0.06 0.06 0.05 0.04 0.03 0.02 0.01 0.00 0.00 0.00 0.00 0.00 0.00 0.00 0.00 0.00 0.00 0.00 0.00 0.00 0.00 0.00 0.00 0.00 0.00 0.00 0.00 0.00 0.00 0.00 0.00 0.00 0.01
0.01 0.03 0.04 0.04 0.04 0.05 0.05 0.06 0.07 0.07 0.07 0.07 0.07 0.06 0.05 0.03 0.02 0.01 0.01 0.00 0.00 0.00 0.00 0.00 0.00 0.00 0.00 0.00 0.00 0.00 0.00 0.00 0.00 0.00 0.00 0.00 0.00 0.00 0.00 0.00 0.00 0.00 0.01 0.01
0.00 0.00 0.01 0.02 0.02 0.03 0.04 0.05 0.06 0.06 0.07 0.08 0.07 0.06 0.04 0.03 0.01 0.01 0.00 0.00 0.00 0.00 0.00 0.00 0.00 0.00 0.00 0.00 0.00 0.00 0.00 0.00 0.00 0.00 0.00 0.00 0.00 0.00 0.00 0.00 0.00 0.01 0.01 0.01
0.00 0.00 0.00 0.00 0.01 0.02 0.03 0.03 0.04 0.05 0.06 0.07 0.06 0.04 0.03 0.02 0.02 0.01 0.01 0.00 0.00 0.00 0.00 0.00 0.00 0.00 0.00 0.00 0.00 0.00 0.00 0.00 0.00 0.00 0.00 0.00 0.00 0.00 0.00 0.00 0.01 0.01 0.01 0.01
0.00 0.00 0.00 0.00 0.00 0.00 0.01 0.01 0.02 0.04 0.04 0.04 0.05 0.04 0.03 0.02 0.02 0.02 0.02 0.01 0.01 0.00 0.00 0.00 0.00 0.00 0.00 0.00 0.00 0.00 0.00 0.00 0.00 0.00 0.00 0.00 0.00 0.00 0.00 0.00 0.00 0.01 0.01 0.01
0.00 0.00 0.00 0.00 0.00 0.00 0.00 0.00 0.01 0.01 0.02 0.03 0.04 0.04 0.04 0.04 0.03 0.03 0.02 0.02 0.01 0.01 0.01 0.00 0.00 0.00 0.00 0.00 0.00 0.00 0.00 0.00 0.00 0.00 0.00 0.00 0.00 0.00 0.00 0.01 0.01 0.01 0.01 0.01

GEFSNGP_prec_meanprecacc_042.txt.gz
Total_Precipitation_Accumulation
0.51 0.43 0.49 0.43 0.32 0.43 0.66 0.52 0.34 0.12 0.05 0.05 0.07 0.12 0.14 0.11 0.08 0.05 0.04 0.03 0.02 0.03 0.03 0.04 0.04 0.06 0.08 0.10 0.10 0.11 0.13 0.13 0.14 0.14 0.14 0.13 0.12 0.11 0.09 0.07 0.06 0.06 0.06 0.07
0.56 0.33 0.33 0.32 0.23 0.30 0.39 0.32 0.24 0.14 0.11 0.08 0.12 0.18 0.20 0.15 0.10 0.07 0.05 0.03 0.02 0.03 0.04 0.05 0.05 0.06 0.08 0.11 0.12 0.14 0.16 0.15 0.15 0.15 0.14 0.13 0.11 0.10 0.09 0.08 0.09 0.11 0.12 0.13
0.59 0.32 0.33 0.30 0.19 0.24 0.28 0.22 0.19 0.18 0.13 0.09 0.14 0.20 0.25 0.19 0.12 0.07 0.05 0.04 0.03 0.03 0.03 0.04 0.04 0.08 0.13 0.16 0.15 0.16 0.17 0.15 0.15 0.15 0.16 0.14 0.13 0.15 0.20 0.23 0.24 0.27 0.28 0.29
0.50 0.43 0.46 0.27 0.16 0.17 0.20 0.16 0.12 0.12 0.07 0.08 0.13 0.15 0.16 0.17 0.14 0.09 0.05 0.03 0.02 0.02 0.03 0.03 0.04 0.08 0.15 0.21 0.24 0.27 0.29 0.25 0.21 0.22 0.26 0.30 0.35 0.38 0.43 0.50 0.54 0.56 0.56 0.52
0.33 0.30 0.21 0.11 0.10 0.12 0.15 0.12 0.07 0.06 0.05 0.04 0.06 0.13 0.15 0.13 0.14 0.11 0.06 0.04 0.03 0.03 0.03 0.04 0.05 0.08 0.13 0.22 0.28 0.33 0.37 0.39 0.39 0.41 0.48 0.53 0.60 0.65 0.66 0.72 0.70 0.66 0.62 0.56
0.19 0.15 0.07 0.05 0.03 0.04 0.08 0.10 0.03 0.03 0.03 0.03 0.03 0.08 0.11 0.14 0.18 0.18 0.14 0.08 0.05 0.05 0.06 0.08 0.10 0.14 0.21 0.29 0.38 0.44 0.48 0.54 0.55 0.57 0.60 0.62 0.62 0.62 0.60 0.60 0.56 0.49 0.43 0.36
0.12 0.09 0.01 0.01 0.01 0.01 0.04 0.05 0.02 0.03 0.03 0.03 0.03 0.04 0.05 0.09 0.14 0.17 0.19 0.18 0.16 0.16 0.17 0.19 0.22 0.29 0.38 0.45 0.53 0.58 0.59 0.63 0.64 0.60 0.58 0.54 0.47 0.40 0.36 0.32 0.28 0.24 0.20 0.16
0.03 0.04 0.01 0.01 0.01 0.01 0.01 0.01 0.00 0.01 0.02 0.03 0.03 0.02 0.02 0.04 0.08 0.10 0.13 0.18 0.22 0.25 0.26 0.27 0.31 0.39 0.46 0.52 0.55 0.51 0.46 0.42 0.39 0.34 0.29 0.26 0.22 0.18 0.15 0.13 0.11 0.09 0.07 0.06
0.00 0.00 0.00 0.00 0.00 0.00 0.00 0.00 0.00 0.00 0.01 0.02 0.02 0.03 0.03 0.02 0.02 0.03 0.04 0.05 0.09 0.15 0.18 0.18 0.19 0.22 0.24 0.23 0.21 0.18 0.15 0.12 0.11 0.10 0.09 0.09 0.08 0.06 0.05 0.04 0.03 0.02 0.01 0.01
0.00 0.00 0.00 0.00 0.00 0.00 0.00 0.00 0.00 0.00 0.01 0.00 0.01 0.01 0.01 0.01 0.01 0.02 0.02 0.01 0.01 0.02 0.02 0.02 0.02 0.02 0.02 0.02 0.02 0.02 0.01 0.01 0.01 0.01 0.01 0.01 0.01 0.00 0.00 0.00 0.00 0.00 0.00 0.00
0.00 0.00 0.00 0.00 0.00 0.00 0.00 0.00 0.00 0.00 0.00 0.00 0.00 0.00 0.00 0.00 0.01 0.01 0.00 0.00 0.00 0.00 0.00 0.00 0.00 0.00 0.00 0.00 0.00 0.00 0.00 0.00 0.00 0.00 0.00 0.00 0.00 0.00 0.00 0.00 0.00 0.00 0.00 0.00
0.00 0.00 0.00 0.00 0.00 0.00 0.00 0.00 0.00 0.00 0.00 0.00 0.00 0.00 0.00 0.00 0.00 0.00 0.00 0.01 0.01 0.01 0.01 0.01 0.00 0.00 0.00 0.00 0.00 0.00 0.00 0.00 0.00 0.00 0.00 0.00 0.00 0.00 0.00 0.00 0.00 0.00 0.00 0.00
0.00 0.00 0.00 0.00 0.00 0.00 0.00 0.00 0.00 0.00 0.00 0.00 0.00 0.00 0.00 0.00 0.00 0.00 0.00 0.00 0.01 0.02 0.01 0.01 0.01 0.00 0.00 0.00 0.00 0.00 0.00 0.00 0.00 0.00 0.00 0.00 0.00 0.00 0.00 0.00 0.00 0.00 0.00 0.00
0.00 0.00 0.00 0.00 0.00 0.00 0.00 0.00 0.00 0.00 0.00 0.00 0.00 0.00 0.00 0.00 0.00 0.00 0.01 0.01 0.01 0.01 0.01 0.01 0.00 0.00 0.00 0.00 0.00 0.00 0.00 0.00 0.00 0.00 0.00 0.00 0.00 0.00 0.00 0.00 0.00 0.00 0.00 0.00
0.00 0.00 0.00 0.00 0.00 0.00 0.00 0.00 0.00 0.00 0.00 0.00 0.00 0.00 0.00 0.00 0.00 0.00 0.01 0.01 0.01 0.01 0.01 0.00 0.00 0.00 0.00 0.00 0.00 0.00 0.00 0.00 0.00 0.00 0.00 0.00 0.00 0.00 0.00 0.00 0.00 0.00 0.00 0.00
0.00 0.00 0.00 0.00 0.00 0.00 0.00 0.00 0.00 0.00 0.00 0.00 0.00 0.00 0.00 0.00 0.00 0.00 0.00 0.00 0.00 0.01 0.01 0.01 0.00 0.00 0.00 0.00 0.00 0.00 0.00 0.00 0.00 0.00 0.00 0.00 0.00 0.00 0.00 0.00 0.00 0.00 0.00 0.00
0.00 0.00 0.00 0.00 0.00 0.00 0.00 0.00 0.00 0.00 0.00 0.00 0.00 0.00 0.00 0.00 0.00 0.00 0.00 0.00 0.00 0.00 0.00 0.00 0.00 0.00 0.00 0.00 0.00 0.00 0.00 0.00 0.00 0.00 0.00 0.00 0.00 0.00 0.00 0.00 0.00 0.00 0.00 0.00
0.00 0.00 0.00 0.00 0.00 0.00 0.00 0.00 0.00 0.00 0.00 0.00 0.00 0.00 0.00 0.00 0.00 0.00 0.01 0.01 0.00 0.00 0.00 0.00 0.00 0.00 0.00 0.00 0.00 0.00 0.00 0.00 0.00 0.00 0.00 0.00 0.00 0.00 0.00 0.00 0.00 0.00 0.00 0.00
0.01 0.01 0.00 0.00 0.00 0.00 0.00 0.00 0.00 0.00 0.01 0.01 0.01 0.01 0.01 0.00 0.00 0.00 0.01 0.01 0.01 0.00 0.00 0.00 0.00 0.00 0.00 0.00 0.00 0.00 0.00 0.00 0.00 0.00 0.00 0.00 0.00 0.00 0.00 0.00 0.00 0.00 0.00 0.00
0.01 0.02 0.02 0.02 0.02 0.02 0.02 0.02 0.02 0.02 0.02 0.02 0.02 0.02 0.02 0.01 0.01 0.01 0.01 0.01 0.01 0.01 0.00 0.00 0.00 0.00 0.00 0.00 0.00 0.00 0.00 0.00 0.00 0.00 0.00 0.00 0.00 0.00 0.00 0.00 0.00 0.00 0.00 0.00
0.03 0.03 0.04 0.05 0.05 0.05 0.05 0.05 0.05 0.05 0.04 0.04 0.04 0.05 0.04 0.04 0.02 0.02 0.02 0.02 0.02 0.01 0.01 0.00 0.00 0.00 0.00 0.00 0.00 0.00 0.00 0.00 0.00 0.00 0.00 0.00 0.00 0.00 0.00 0.00 0.00 0.00 0.00 0.00
0.04 0.05 0.06 0.07 0.07 0.07 0.07 0.08 0.07 0.07 0.07 0.08 0.08 0.07 0.06 0.05 0.04 0.03 0.03 0.02 0.02 0.01 0.01 0.00 0.00 0.00 0.00 0.00 0.00 0.00 0.00 0.00 0.00 0.00 0.00 0.00 0.00 0.00 0.00 0.00 0.00 0.00 0.00 0.01
0.02 0.03 0.05 0.06 0.06 0.07 0.07 0.09 0.09 0.09 0.09 0.09 0.10 0.09 0.07 0.06 0.05 0.04 0.04 0.03 0.02 0.01 0.01 0.01 0.01 0.00 0.00 0.00 0.00 0.00 0.00 0.00 0.00 0.00 0.00 0.00 0.00 0.00 0.00 0.00 0.00 0.00 0.01 0.01
0.00 0.00 0.01 0.02 0.03 0.04 0.05 0.06 0.07 0.08 0.09 0.10 0.09 0.08 0.07 0.06 0.05 0.04 0.03 0.03 0.02 0.01 0.01 0.01 0.01 0.00 0.00 0.00 0.00 0.00 0.00 0.00 0.00 0.00 0.00 0.00 0.00 0.00 0.00 0.00 0.00 0.01 0.01 0.01
0.00 0.00 0.00 0.00 0.01 0.02 0.03 0.04 0.05 0.06 0.07 0.08 0.08 0.06 0.05 0.05 0.05 0.05 0.04 0.03 0.02 0.02 0.01 0.01 0.01 0.01 0.00 0.00 0.00 0.00 0.00 0.00 0.00 0.00 0.00 0.00 0.00 0.00 0.00 0.00 0.01 0.01 0.01 0.01
0.00 0.00 0.00 0.00 0.00 0.00 0.01 0.01 0.03 0.04 0.05 0.05 0.07 0.06 0.05 0.05 0.05 0.05 0.05 0.04 0.03 0.03 0.02 0.02 0.01 0.01 0.01 0.01 0.00 0.00 0.00 0.00 0.00 0.00 0.00 0.00 0.00 0.00 0.00 0.00 0.00 0.01 0.01 0.01
0.00 0.00 0.00 0.00 0.00 0.00 0.00 0.00 0.01 0.02 0.03 0.04 0.05 0.06 0.07 0.07 0.07 0.06 0.05 0.04 0.04 0.04 0.03 0.02 0.02 0.02 0.01 0.01 0.00 0.00 0.00 0.00 0.00 0.00 0.00 0.00 0.00 0.00 0.00 0.01 0.01 0.01 0.01 0.01

GEFSNGP_prec_meanprecacc_048.txt.gz
Total_Precipitation_Accumulation
0.51 0.43 0.49 0.43 0.32 0.43 0.66 0.52 0.34 0.12 0.05 0.05 0.07 0.12 0.14 0.11 0.08 0.05 0.04 0.03 0.02 0.03 0.03 0.04 0.04 0.06 0.08 0.10 0.10 0.11 0.13 0.13 0.14 0.14 0.14 0.14 0.13 0.11 0.09 0.08 0.07 0.07 0.07 0.08
0.56 0.33 0.33 0.32 0.23 0.30 0.39 0.32 0.24 0.14 0.11 0.08 0.12 0.18 0.20 0.15 0.10 0.07 0.05 0.03 0.02 0.03 0.04 0.05 0.05 0.06 0.08 0.11 0.12 0.14 0.16 0.15 0.15 0.15 0.14 0.13 0.11 0.10 0.09 0.09 0.10 0.12 0.13 0.16
0.59 0.32 0.33 0.30 0.19 0.24 0.28 0.22 0.19 0.18 0.13 0.09 0.14 0.20 0.25 0.19 0.12 0.07 0.05 0.04 0.03 0.03 0.03 0.04 0.04 0.08 0.13 0.16 0.15 0.16 0.17 0.15 0.15 0.15 0.16 0.15 0.13 0.15 0.20 0.23 0.25 0.28 0.30 0.32
0.50 0.43 0.47 0.27 0.16 0.17 0.20 0.16 0.12 0.12 0.07 0.08 0.13 0.15 0.16 0.17 0.14 0.09 0.05 0.03 0.02 0.02 0.03 0.03 0.04 0.08 0.15 0.21 0.24 0.27 0.29 0.25 0.21 0.22 0.26 0.30 0.35 0.38 0.44 0.51 0.55 0.57 0.58 0.56
0.34 0.30 0.21 0.11 0.10 0.12 0.15 0.12 0.07 0.06 0.05 0.04 0.06 0.13 0.15 0.13 0.14 0.11 0.06 0.04 0.03 0.03 0.03 0.04 0.05 0.08 0.13 0.22 0.28 0.33 0.37 0.39 0.39 0.41 0.48 0.53 0.60 0.65 0.66 0.72 0.71 0.67 0.65 0.60
0.20 0.16 0.07 0.05 0.03 0.04 0.08 0.10 0.03 0.03 0.03 0.03 0.03 0.08 0.12 0.14 0.18 0.18 0.14 0.08 0.05 0.05 0.06 0.08 0.10 0.14 0.21 0.29 0.38 0.44 0.48 0.54 0.55 0.57 0.60 0.62 0.62 0.62 0.60 0.60 0.57 0.50 0.45 0.39
0.13 0.10 0.01 0.01 0.01 0.01 0.04 0.06 0.02 0.03 0.03 0.03 0.03 0.04 0.05 0.09 0.14 0.17 0.19 0.18 0.16 0.16 0.17 0.19 0.22 0.29 0.38 0.45 0.53 0.58 0.59 0.63 0.64 0.60 0.58 0.54 0.47 0.40 0.36 0.32 0.28 0.25 0.22 0.18
0.04 0.05 0.01 0.01 0.01 0.01 0.02 0.01 0.00 0.01 0.03 0.03 0.03 0.02 0.02 0.04 0.08 0.10 0.13 0.18 0.22 0.25 0.26 0.27 0.31 0.39 0.46 0.52 0.55 0.51 0.46 0.42 0.39 0.34 0.29 0.26 0.22 0.18 0.16 0.13 0.11 0.10 0.08 0.06
0.00 0.01 0.00 0.00 0.00 0.00 0.01 0.01 0.00 0.01 0.01 0.02 0.02 0.03 0.03 0.02 0.02 0.03 0.04 0.05 0.09 0.15 0.18 0.18 0.19 0.22 0.24 0.23 0.21 0.18 0.15 0.12 0.11 0.10 0.09 0.09 0.08 0.06 0.05 0.04 0.03 0.02 0.01 0.01
0.00 0.00 0.00 0.00 0.00 0.00 0.00 0.01 0.01 0.01 0.01 0.01 0.01 0.01 0.01 0.01 0.01 0.02 0.02 0.01 0.01 0.02 0.02 0.02 0.02 0.02 0.02 0.02 0.02 0.02 0.01 0.01 0.01 0.01 0.01 0.01 0.01 0.00 0.00 0.00 0.00 0.00 0.00 0.00
0.00 0.00 0.00 0.00 0.00 0.00 0.00 0.00 0.00 0.00 0.00 0.00 0.00 0.00 0.00 0.00 0.01 0.01 0.00 0.00 0.00 0.00 0.00 0.00 0.00 0.00 0.00 0.00 0.00 0.00 0.00 0.00 0.00 0.00 0.00 0.00 0.00 0.00 0.00 0.00 0.00 0.00 0.00 0.00
0.01 0.00 0.00 0.00 0.00 0.00 0.00 0.00 0.00 0.00 0.00 0.00 0.00 0.00 0.00 0.00 0.00 0.00 0.00 0.01 0.01 0.01 0.01 0.01 0.00 0.00 0.00 0.00 0.00 0.00 0.00 0.00 0.00 0.00 0.00 0.00 0.00 0.00 0.00 0.00 0.00 0.00 0.00 0.00
0.00 0.00 0.00 0.00 0.00 0.00 0.00 0.00 0.00 0.00 0.00 0.00 0.00 0.00 0.00 0.00 0.00 0.00 0.00 0.00 0.01 0.02 0.01 0.01 0.01 0.00 0.00 0.00 0.00 0.00 0.00 0.00 0.00 0.00 0.00 0.00 0.00 0.00 0.00 0.00 0.00 0.00 0.00 0.00
0.00 0.00 0.00 0.00 0.00 0.00 0.00 0.00 0.00 0.00 0.00 0.00 0.00 0.00 0.00 0.00 0.00 0.00 0.01 0.01 0.01 0.01 0.01 0.01 0.00 0.00 0.00 0.00 0.00 0.00 0.00 0.00 0.00 0.00 0.00 0.00 0.00 0.00 0.00 0.00 0.00 0.00 0.00 0.00
0.00 0.00 0.00 0.00 0.00 0.00 0.00 0.00 0.00 0.00 0.00 0.00 0.00 0.00 0.00 0.00 0.00 0.00 0.01 0.01 0.01 0.01 0.01 0.01 0.00 0.00 0.00 0.00 0.00 0.00 0.00 0.00 0.00 0.00 0.00 0.00 0.00 0.00 0.00 0.00 0.00 0.00 0.00 0.00
0.00 0.00 0.00 0.00 0.00 0.00 0.00 0.00 0.00 0.00 0.00 0.00 0.00 0.00 0.00 0.00 0.00 0.00 0.00 0.00 0.00 0.01 0.01 0.01 0.01 0.01 0.00 0.00 0.00 0.00 0.00 0.00 0.00 0.00 0.00 0.00 0.00 0.00 0.00 0.00 0.00 0.00 0.00 0.00
0.01 0.00 0.00 0.00 0.00 0.00 0.00 0.00 0.00 0.00 0.00 0.00 0.00 0.00 0.00 0.00 0.00 0.00 0.00 0.00 0.00 0.00 0.01 0.01 0.01 0.01 0.01 0.00 0.00 0.00 0.00 0.00 0.00 0.00 0.00 0.00 0.00 0.00 0.00 0.00 0.00 0.00 0.00 0.00
0.01 0.01 0.00 0.00 0.00 0.00 0.00 0.00 0.00 0.00 0.00 0.00 0.00 0.00 0.00 0.00 0.00 0.00 0.01 0.01 0.00 0.00 0.00 0.01 0.01 0.01 0.01 0.01 0.00 0.00 0.00 0.00 0.00 0.00 0.00 0.00 0.00 0.00 0.00 0.00 0.00 0.00 0.00 0.00
0.01 0.01 0.01 0.00 0.00 0.00 0.00 0.00 0.00 0.01 0.01 0.01 0.01 0.01 0.01 0.00 0.00 0.00 0.01 0.01 0.01 0.01 0.01 0.01 0.02 0.01 0.01 0.01 0.01 0.01 0.00 0.00 0.00 0.00 0.00 0.00 0.00 0.00 0.00 0.00 0.00 0.00 0.00 0.00
0.02 0.02 0.02 0.02 0.02 0.02 0.02 0.02 0.02 0.02 0.02 0.02 0.02 0.02 0.02 0.01 0.01 0.01 0.01 0.02 0.02 0.02 0.02 0.02 0.02 0.02 0.01 0.01 0.01 0.01 0.01 0.00 0.00 0.00 0.00 0.00 0.00 0.00 0.00 0.00 0.00 0.00 0.00 0.00
0.03 0.03 0.04 0.05 0.06 0.06 0.06 0.06 0.05 0.05 0.05 0.05 0.05 0.05 0.05 0.04 0.03 0.02 0.02 0.03 0.03 0.03 0.02 0.03 0.02 0.01 0.02 0.01 0.02 0.01 0.01 0.01 0.00 0.00 0.00 0.00 0.00 0.00 0.00 0.00 0.00 0.00 0.00 0.00
0.04 0.05 0.06 0.07 0.07 0.07 0.08 0.08 0.08 0.08 0.08 0.08 0.09 0.08 0.07 0.06 0.05 0.04 0.03 0.03 0.03 0.04 0.03 0.02 0.02 0.02 0.02 0.02 0.02 0.01 0.01 0.01 0.00 0.00 0.00 0.00 0.00 0.00 0.00 0.00 0.00 0.00 0.00 0.01
0.02 0.04 0.05 0.06 0.07 0.07 0.08 0.09 0.10 0.10 0.10 0.10 0.11 0.10 0.08 0.07 0.06 0.05 0.06 0.06 0.04 0.04 0.03 0.03 0.04 0.04 0.04 0.03 0.02 0.01 0.01 0.01 0.00 0.00 0.00 0.00 0.00 0.00 0.00 0.00 0.00 0.00 0.01 0.01
0.01 0.01 0.01 0.02 0.03 0.05 0.06 0.07 0.08 0.09 0.10 0.11 0.10 0.09 0.08 0.08 0.07 0.06 0.05 0.06 0.05 0.05 0.04 0.05 0.06 0.06 0.05 0.03 0.02 0.02 0.01 0.01 0.00 0.00 0.00 0.00 0.00 0.00 0.00 0.00 0.00 0.01 0.01 0.01
0.00 0.00 0.00 0.00 0.01 0.02 0.03 0.04 0.05 0.06 0.07 0.09 0.09 0.08 0.06 0.06 0.07 0.07 0.06 0.05 0.05 0.05 0.05 0.06 0.06 0.05 0.04 0.03 0.02 0.02 0.01 0.01 0.00 0.00 0.00 0.00 0.00 0.00 0.00 0.00 0.01 0.01 0.01 0.01
0.00 0.00 0.00 0.00 0.00 0.00 0.01 0.01 0.03 0.04 0.05 0.05 0.07 0.07 0.06 0.06 0.06 0.07 0.07 0.06 0.06 0.06 0.06 0.06 0.05 0.05 0.04 0.03 0.02 0.01 0.01 0.01 0.01 0.00 0.00 0.00 0.00 0.00 0.00 0.00 0.01 0.01 0.01 0.01
0.00 0.00 0.00 0.00 0.00 0.00 0.00 0.00 0.01 0.02 0.03 0.04 0.05 0.06 0.07 0.07 0.08 0.07 0.06 0.06 0.07 0.07 0.06 0.06 0.05 0.05 0.04 0.03 0.02 0.02 0.01 0.01 0.01 0.00 0.00 0.00 0.00 0.00 0.00 0.01 0.01 0.01 0.01 0.01

GEFSNGP_prec_meanprecacc_054.txt.gz
Total_Precipitation_Accumulation
0.51 0.43 0.49 0.43 0.32 0.43 0.66 0.52 0.35 0.12 0.05 0.05 0.07 0.12 0.14 0.11 0.08 0.05 0.04 0.03 0.02 0.03 0.03 0.04 0.04 0.06 0.08 0.10 0.10 0.11 0.13 0.13 0.14 0.14 0.14 0.14 0.13 0.11 0.09 0.08 0.07 0.07 0.07 0.08
0.56 0.33 0.33 0.32 0.23 0.30 0.39 0.32 0.24 0.14 0.11 0.08 0.12 0.18 0.20 0.15 0.10 0.07 0.05 0.03 0.02 0.03 0.04 0.05 0.05 0.06 0.08 0.11 0.12 0.14 0.16 0.15 0.15 0.15 0.14 0.13 0.11 0.10 0.09 0.09 0.10 0.12 0.13 0.16
0.59 0.32 0.33 0.30 0.19 0.24 0.28 0.22 0.19 0.18 0.13 0.09 0.14 0.20 0.25 0.19 0.12 0.07 0.05 0.04 0.03 0.03 0.03 0.04 0.04 0.08 0.13 0.16 0.15 0.16 0.17 0.15 0.15 0.15 0.16 0.15 0.13 0.15 0.20 0.23 0.25 0.28 0.30 0.32
0.50 0.43 0.47 0.27 0.16 0.17 0.20 0.16 0.12 0.12 0.07 0.08 0.13 0.15 0.16 0.17 0.14 0.09 0.05 0.03 0.02 0.02 0.03 0.03 0.04 0.08 0.15 0.21 0.24 0.27 0.29 0.25 0.21 0.22 0.26 0.30 0.35 0.38 0.44 0.51 0.55 0.57 0.58 0.56
0.34 0.30 0.21 0.11 0.10 0.12 0.15 0.12 0.07 0.06 0.05 0.04 0.06 0.13 0.15 0.13 0.14 0.11 0.06 0.04 0.03 0.03 0.03 0.04 0.05 0.08 0.13 0.22 0.28 0.33 0.37 0.39 0.39 0.41 0.48 0.53 0.60 0.65 0.66 0.72 0.71 0.67 0.65 0.60
0.21 0.16 0.07 0.05 0.03 0.04 0.08 0.10 0.03 0.03 0.03 0.03 0.03 0.08 0.12 0.14 0.18 0.18 0.14 0.08 0.05 0.05 0.06 0.08 0.10 0.14 0.21 0.29 0.38 0.44 0.48 0.54 0.55 0.57 0.60 0.62 0.62 0.62 0.60 0.60 0.57 0.50 0.45 0.39
0.13 0.10 0.01 0.01 0.01 0.01 0.05 0.06 0.02 0.03 0.03 0.03 0.03 0.04 0.05 0.09 0.14 0.17 0.19 0.18 0.16 0.16 0.17 0.19 0.22 0.29 0.38 0.45 0.53 0.58 0.59 0.63 0.64 0.60 0.58 0.54 0.47 0.40 0.36 0.32 0.28 0.25 0.22 0.18
0.04 0.05 0.01 0.01 0.01 0.01 0.02 0.01 0.01 0.01 0.03 0.03 0.03 0.02 0.02 0.04 0.08 0.10 0.13 0.18 0.22 0.25 0.26 0.27 0.31 0.39 0.46 0.52 0.55 0.51 0.46 0.42 0.39 0.34 0.29 0.26 0.22 0.18 0.16 0.13 0.11 0.10 0.08 0.06
0.00 0.01 0.00 0.00 0.00 0.00 0.01 0.01 0.01 0.01 0.02 0.02 0.03 0.03 0.03 0.03 0.03 0.03 0.04 0.05 0.09 0.15 0.18 0.18 0.19 0.22 0.24 0.23 0.21 0.18 0.15 0.12 0.11 0.10 0.09 0.09 0.08 0.06 0.05 0.04 0.03 0.02 0.01 0.01
0.00 0.00 0.00 0.00 0.00 0.00 0.01 0.01 0.01 0.01 0.01 0.01 0.02 0.02 0.02 0.02 0.02 0.03 0.03 0.02 0.01 0.02 0.03 0.03 0.02 0.02 0.02 0.02 0.02 0.02 0.01 0.01 0.01 0.01 0.01 0.01 0.01 0.00 0.00 0.00 0.00 0.00 0.00 0.00
0.00 0.00 0.00 0.00 0.00 0.00 0.00 0.00 0.01 0.01 0.01 0.01 0.01 0.01 0.01 0.01 0.01 0.01 0.01 0.01 0.01 0.01 0.01 0.01 0.01 0.00 0.00 0.00 0.00 0.00 0.00 0.00 0.00 0.00 0.00 0.00 0.00 0.00 0.00 0.00 0.00 0.00 0.00 0.00
0.01 0.00 0.00 0.00 0.00 0.00 0.00 0.00 0.00 0.01 0.01 0.00 0.00 0.00 0.01 0.00 0.00 0.01 0.01 0.01 0.01 0.02 0.02 0.01 0.01 0.00 0.00 0.00 0.00 0.00 0.00 0.00 0.00 0.00 0.00 0.00 0.00 0.00 0.00 0.00 0.00 0.00 0.00 0.00
0.01 0.00 0.00 0.00 0.00 0.00 0.00 0.00 0.01 0.00 0.00 0.00 0.00 0.00 0.00 0.00 0.00 0.00 0.00 0.01 0.01 0.02 0.01 0.01 0.01 0.00 0.00 0.00 0.00 0.00 0.00 0.00 0.00 0.00 0.00 0.00 0.00 0.00 0.00 0.00 0.00 0.00 0.00 0.00
0.00 0.00 0.00 0.00 0.00 0.00 0.00 0.00 0.00 0.00 0.00 0.00 0.00 0.00 0.00 0.00 0.00 0.00 0.01 0.01 0.01 0.01 0.01 0.01 0.00 0.00 0.00 0.00 0.00 0.00 0.00 0.00 0.00 0.00 0.00 0.00 0.00 0.00 0.00 0.00 0.00 0.00 0.00 0.00
0.00 0.00 0.00 0.00 0.00 0.00 0.00 0.00 0.00 0.00 0.00 0.00 0.00 0.00 0.00 0.00 0.00 0.00 0.01 0.01 0.01 0.01 0.01 0.01 0.00 0.00 0.00 0.00 0.00 0.00 0.00 0.00 0.00 0.00 0.00 0.00 0.00 0.00 0.00 0.00 0.00 0.00 0.00 0.00
0.01 0.01 0.01 0.01 0.00 0.00 0.00 0.00 0.00 0.00 0.00 0.00 0.00 0.00 0.00 0.00 0.00 0.00 0.00 0.00 0.00 0.01 0.01 0.01 0.01 0.01 0.01 0.01 0.01 0.01 0.01 0.01 0.01 0.00 0.00 0.00 0.00 0.00 0.00 0.00 0.00 0.00 0.00 0.00
0.03 0.02 0.02 0.02 0.01 0.00 0.01 0.01 0.01 0.01 0.01 0.00 0.00 0.00 0.00 0.00 0.00 0.00 0.00 0.00 0.00 0.00 0.01 0.01 0.01 0.01 0.01 0.01 0.01 0.01 0.01 0.01 0.01 0.01 0.00 0.00 0.00 0.00 0.00 0.00 0.00 0.00 0.00 0.00
0.04 0.04 0.03 0.02 0.02 0.01 0.01 0.01 0.01 0.00 0.00 0.00 0.00 0.00 0.00 0.00 0.00 0.00 0.01 0.01 0.01 0.01 0.01 0.01 0.01 0.02 0.02 0.02 0.02 0.01 0.01 0.01 0.01 0.01 0.01 0.01 0.01 0.00 0.00 0.00 0.00 0.00 0.00 0.00
0.05 0.05 0.05 0.03 0.02 0.02 0.02 0.02 0.01 0.01 0.01 0.01 0.01 0.01 0.01 0.01 0.00 0.01 0.01 0.01 0.01 0.01 0.02 0.02 0.03 0.03 0.03 0.03 0.04 0.02 0.02 0.02 0.02 0.02 0.02 0.01 0.01 0.01 0.00 0.00 0.00 0.00 0.00 0.00
0.07 0.08 0.08 0.06 0.04 0.03 0.03 0.02 0.02 0.02 0.03 0.03 0.03 0.02 0.02 0.02 0.01 0.01 0.01 0.02 0.02 0.02 0.02 0.02 0.03 0.03 0.03 0.04 0.04 0.03 0.02 0.02 0.02 0.03 0.03 0.02 0.01 0.01 0.01 0.00 0.00 0.00 0.00 0.00
0.10 0.09 0.08 0.08 0.08 0.07 0.07 0.06 0.06 0.06 0.06 0.05 0.05 0.05 0.05 0.04 0.03 0.03 0.02 0.03 0.03 0.03 0.03 0.03 0.03 0.02 0.03 0.03 0.05 0.04 0.03 0.03 0.04 0.04 0.04 0.03 0.02 0.01 0.01 0.00 0.00 0.00 0.00 0.00
0.08 0.08 0.08 0.09 0.08 0.08 0.09 0.09 0.08 0.08 0.08 0.09 0.09 0.08 0.07 0.06 0.05 0.04 0.04 0.03 0.04 0.04 0.04 0.03 0.03 0.03 0.04 0.05 0.05 0.05 0.05 0.05 0.05 0.05 0.05 0.03 0.02 0.01 0.01 0.00 0.00 0.00 0.00 0.01
0.05 0.06 0.07 0.08 0.08 0.08 0.09 0.10 0.11 0.10 0.10 0.10 0.11 0.10 0.09 0.07 0.06 0.06 0.06 0.06 0.05 0.05 0.04 0.04 0.05 0.07 0.07 0.07 0.06 0.07 0.07 0.06 0.06 0.05 0.04 0.03 0.02 0.01 0.01 0.00 0.00 0.00 0.01 0.01
0.03 0.03 0.03 0.04 0.04 0.05 0.06 0.07 0.08 0.09 0.10 0.11 0.11 0.10 0.09 0.08 0.07 0.07 0.06 0.07 0.06 0.06 0.05 0.06 0.08 0.08 0.08 0.07 0.07 0.07 0.07 0.06 0.05 0.05 0.03 0.02 0.01 0.01 0.00 0.00 0.01 0.01 0.01 0.01
0.02 0.01 0.01 0.01 0.01 0.02 0.03 0.04 0.05 0.06 0.08 0.09 0.09 0.08 0.07 0.06 0.07 0.08 0.07 0.06 0.06 0.06 0.06 0.07 0.08 0.08 0.08 0.07 0.07 0.06 0.06 0.05 0.04 0.03 0.02 0.01 0.01 0.00 0.00 0.00 0.01 0.01 0.01 0.01
0.01 0.00 0.00 0.00 0.00 0.00 0.01 0.01 0.03 0.04 0.05 0.06 0.07 0.07 0.06 0.06 0.06 0.07 0.07 0.06 0.06 0.07 0.07 0.07 0.08 0.08 0.07 0.07 0.06 0.05 0.04 0.03 0.03 0.02 0.01 0.01 0.01 0.01 0.00 0.00 0.01 0.01 0.01 0.01
0.01 0.00 0.00 0.00 0.00 0.00 0.00 0.00 0.01 0.02 0.03 0.04 0.05 0.06 0.07 0.07 0.08 0.07 0.07 0.06 0.07 0.08 0.07 0.07 0.07 0.07 0.07 0.06 0.05 0.04 0.03 0.02 0.02 0.01 0.01 0.01 0.01 0.01 0.01 0.01 0.01 0.01 0.01 0.01

GEFSNGP_prec_meanprecacc_060.txt.gz
Total_Precipitation_Accumulation
0.51 0.43 0.49 0.43 0.32 0.43 0.66 0.52 0.35 0.12 0.05 0.05 0.07 0.12 0.14 0.11 0.08 0.05 0.04 0.03 0.02 0.03 0.03 0.04 0.04 0.06 0.08 0.10 0.10 0.11 0.13 0.13 0.14 0.14 0.14 0.14 0.13 0.11 0.09 0.08 0.07 0.07 0.07 0.08
0.56 0.33 0.33 0.32 0.23 0.30 0.39 0.32 0.24 0.14 0.11 0.08 0.12 0.18 0.20 0.15 0.10 0.07 0.05 0.03 0.02 0.03 0.04 0.05 0.05 0.06 0.08 0.11 0.12 0.14 0.16 0.15 0.15 0.15 0.14 0.13 0.11 0.10 0.09 0.09 0.10 0.12 0.13 0.16
0.59 0.32 0.33 0.30 0.19 0.24 0.28 0.22 0.19 0.18 0.13 0.09 0.14 0.20 0.25 0.19 0.12 0.07 0.05 0.04 0.03 0.03 0.03 0.04 0.04 0.08 0.13 0.16 0.15 0.16 0.17 0.15 0.15 0.15 0.16 0.15 0.13 0.15 0.20 0.23 0.25 0.28 0.30 0.32
0.50 0.43 0.47 0.27 0.16 0.17 0.20 0.16 0.12 0.12 0.07 0.08 0.13 0.15 0.16 0.17 0.14 0.09 0.05 0.03 0.02 0.02 0.03 0.03 0.04 0.08 0.15 0.21 0.24 0.27 0.29 0.25 0.21 0.22 0.26 0.30 0.35 0.38 0.44 0.51 0.55 0.57 0.58 0.56
0.34 0.30 0.21 0.11 0.10 0.12 0.15 0.12 0.07 0.06 0.05 0.04 0.06 0.13 0.15 0.13 0.14 0.11 0.06 0.04 0.03 0.03 0.03 0.04 0.05 0.08 0.13 0.22 0.28 0.33 0.37 0.39 0.39 0.41 0.48 0.53 0.60 0.65 0.66 0.72 0.71 0.67 0.65 0.60
0.21 0.16 0.07 0.05 0.03 0.04 0.08 0.10 0.03 0.03 0.03 0.03 0.03 0.08 0.12 0.14 0.18 0.18 0.14 0.08 0.05 0.05 0.06 0.08 0.10 0.14 0.21 0.29 0.38 0.44 0.48 0.54 0.55 0.57 0.60 0.62 0.62 0.62 0.60 0.60 0.57 0.50 0.45 0.39
0.14 0.11 0.01 0.01 0.01 0.01 0.05 0.06 0.02 0.03 0.03 0.03 0.03 0.04 0.05 0.09 0.14 0.17 0.19 0.18 0.16 0.16 0.17 0.19 0.22 0.29 0.38 0.45 0.53 0.58 0.59 0.63 0.64 0.60 0.58 0.54 0.47 0.40 0.36 0.32 0.28 0.25 0.22 0.18
0.05 0.06 0.01 0.01 0.01 0.01 0.02 0.01 0.01 0.01 0.03 0.03 0.03 0.02 0.02 0.04 0.08 0.10 0.13 0.18 0.23 0.26 0.26 0.27 0.32 0.39 0.46 0.52 0.55 0.51 0.46 0.42 0.39 0.34 0.29 0.26 0.22 0.18 0.16 0.13 0.11 0.10 0.08 0.06
0.00 0.01 0.00 0.00 0.00 0.00 0.01 0.01 0.01 0.01 0.02 0.03 0.03 0.03 0.03 0.03 0.03 0.04 0.05 0.06 0.10 0.15 0.18 0.19 0.20 0.22 0.24 0.23 0.21 0.18 0.15 0.12 0.11 0.10 0.09 0.09 0.08 0.06 0.05 0.04 0.03 0.02 0.01 0.01
0.00 0.00 0.00 0.00 0.00 0.00 0.01 0.01 0.02 0.01 0.01 0.02 0.02 0.03 0.03 0.02 0.03 0.04 0.04 0.04 0.03 0.03 0.03 0.03 0.03 0.03 0.03 0.02 0.02 0.02 0.01 0.01 0.01 0.01 0.01 0.01 0.01 0.00 0.00 0.00 0.00 0.00 0.00 0.00
0.01 0.00 0.00 0.00 0.00 0.00 0.00 0.00 0.01 0.02 0.02 0.02 0.02 0.02 0.02 0.02 0.02 0.02 0.03 0.03 0.03 0.03 0.03 0.03 0.02 0.01 0.01 0.01 0.00 0.00 0.00 0.00 0.00 0.00 0.00 0.00 0.00 0.00 0.00 0.00 0.00 0.00 0.00 0.00
0.02 0.01 0.01 0.01 0.00 0.00 0.00 0.00 0.01 0.01 0.01 0.01 0.01 0.01 0.01 0.01 0.01 0.01 0.02 0.03 0.03 0.04 0.04 0.04 0.03 0.02 0.01 0.01 0.00 0.00 0.00 0.00 0.00 0.00 0.00 0.00 0.00 0.00 0.00 0.00 0.00 0.00 0.00 0.00
0.01 0.00 0.00 0.00 0.00 0.00 0.00 0.01 0.01 0.01 0.01 0.01 0.01 0.01 0.01 0.01 0.01 0.01 0.01 0.02 0.02 0.03 0.03 0.03 0.02 0.02 0.02 0.01 0.01 0.01 0.00 0.00 0.00 0.00 0.00 0.00 0.00 0.00 0.00 0.00 0.00 0.00 0.00 0.00
0.01 0.01 0.01 0.00 0.00 0.00 0.00 0.00 0.00 0.01 0.01 0.01 0.00 0.00 0.00 0.01 0.01 0.01 0.01 0.02 0.02 0.02 0.02 0.02 0.01 0.01 0.02 0.01 0.01 0.01 0.01 0.01 0.01 0.00 0.00 0.01 0.01 0.01 0.00 0.00 0.00 0.00 0.00 0.00
0.01 0.00 0.01 0.01 0.00 0.00 0.00 0.00 0.00 0.00 0.00 0.00 0.00 0.00 0.00 0.00 0.00 0.00 0.01 0.01 0.01 0.02 0.01 0.01 0.01 0.01 0.01 0.02 0.02 0.02 0.02 0.01 0.01 0.01 0.01 0.01 0.01 0.01 0.01 0.00 0.00 0.00 0.00 0.00
0.01 0.01 0.01 0.02 0.02 0.01 0.01 0.01 0.01 0.00 0.00 0.00 0.00 0.00 0.00 0.00 0.00 0.00 0.01 0.01 0.01 0.01 0.02 0.02 0.02 0.02 0.02 0.02 0.02 0.02 0.02 0.03 0.03 0.02 0.02 0.01 0.01 0.01 0.01 0.01 0.00 0.00 0.00 0.00
0.05 0.04 0.03 0.03 0.03 0.03 0.03 0.02 0.02 0.02 0.01 0.01 0.00 0.00 0.00 0.00 0.00 0.00 0.01 0.01 0.01 0.01 0.01 0.01 0.02 0.02 0.02 0.02 0.03 0.03 0.03 0.04 0.05 0.03 0.02 0.02 0.02 0.01 0.01 0.01 0.01 0.00 0.00 0.00
0.07 0.07 0.06 0.05 0.04 0.04 0.04 0.03 0.02 0.02 0.01 0.01 0.00 0.00 0.00 0.00 0.00 0.00 0.01 0.01 0.01 0.01 0.01 0.01 0.02 0.02 0.02 0.03 0.03 0.03 0.03 0.04 0.04 0.04 0.04 0.03 0.03 0.02 0.02 0.01 0.01 0.01 0.00 0.00
0.07 0.08 0.08 0.07 0.06 0.06 0.06 0.05 0.04 0.03 0.02 0.01 0.01 0.01 0.01 0.01 0.01 0.01 0.01 0.01 0.01 0.02 0.02 0.02 0.03 0.03 0.03 0.04 0.05 0.04 0.04 0.05 0.05 0.05 0.05 0.05 0.05 0.03 0.02 0.02 0.01 0.01 0.01 0.00
0.10 0.10 0.11 0.10 0.08 0.07 0.07 0.06 0.05 0.05 0.04 0.04 0.04 0.03 0.02 0.02 0.02 0.01 0.02 0.02 0.02 0.02 0.02 0.03 0.03 0.03 0.03 0.04 0.06 0.04 0.04 0.04 0.05 0.05 0.06 0.05 0.05 0.04 0.03 0.02 0.02 0.01 0.01 0.01
0.12 0.11 0.11 0.12 0.11 0.10 0.09 0.09 0.08 0.08 0.07 0.06 0.06 0.06 0.06 0.05 0.03 0.03 0.03 0.03 0.03 0.03 0.03 0.04 0.03 0.02 0.03 0.04 0.06 0.05 0.05 0.05 0.06 0.07 0.07 0.07 0.06 0.05 0.04 0.03 0.03 0.02 0.02 0.01
0.10 0.11 0.11 0.11 0.11 0.10 0.10 0.10 0.10 0.10 0.09 0.09 0.09 0.09 0.07 0.07 0.05 0.04 0.04 0.04 0.04 0.05 0.04 0.03 0.03 0.04 0.05 0.06 0.06 0.06 0.07 0.07 0.08 0.09 0.08 0.08 0.07 0.06 0.05 0.04 0.04 0.03 0.02 0.02
0.08 0.09 0.10 0.11 0.11 0.10 0.11 0.12 0.12 0.11 0.11 0.11 0.11 0.11 0.09 0.08 0.07 0.06 0.07 0.06 0.05 0.05 0.04 0.04 0.06 0.07 0.08 0.08 0.07 0.08 0.09 0.09 0.09 0.09 0.08 0.07 0.06 0.05 0.05 0.04 0.03 0.03 0.02 0.02
0.06 0.06 0.06 0.06 0.06 0.07 0.08 0.08 0.09 0.10 0.11 0.12 0.11 0.10 0.09 0.08 0.08 0.07 0.06 0.07 0.06 0.06 0.06 0.06 0.09 0.09 0.09 0.09 0.08 0.09 0.09 0.09 0.09 0.08 0.07 0.06 0.05 0.04 0.04 0.03 0.03 0.02 0.02 0.01
0.03 0.03 0.02 0.02 0.03 0.03 0.04 0.05 0.06 0.07 0.08 0.10 0.09 0.08 0.07 0.07 0.08 0.08 0.07 0.06 0.06 0.07 0.07 0.08 0.09 0.09 0.09 0.08 0.09 0.09 0.08 0.08 0.07 0.07 0.05 0.05 0.04 0.03 0.02 0.02 0.02 0.02 0.01 0.01
0.02 0.02 0.01 0.01 0.01 0.01 0.01 0.02 0.03 0.04 0.05 0.06 0.07 0.07 0.06 0.06 0.07 0.07 0.07 0.07 0.06 0.07 0.08 0.08 0.08 0.08 0.08 0.08 0.08 0.07 0.06 0.06 0.06 0.05 0.04 0.03 0.03 0.02 0.02 0.01 0.01 0.01 0.01 0.01
0.01 0.01 0.01 0.01 0.01 0.01 0.01 0.01 0.01 0.02 0.03 0.04 0.05 0.06 0.07 0.07 0.08 0.07 0.07 0.07 0.07 0.08 0.07 0.07 0.07 0.08 0.08 0.07 0.07 0.06 0.05 0.04 0.04 0.04 0.03 0.03 0.02 0.02 0.02 0.02 0.02 0.02 0.02 0.01

GEFSNGP_prec_meanprecacc_066.txt.gz
Total_Precipitation_Accumulation
0.51 0.43 0.49 0.43 0.32 0.43 0.67 0.53 0.35 0.12 0.05 0.05 0.07 0.12 0.14 0.11 0.08 0.05 0.04 0.03 0.02 0.03 0.03 0.04 0.04 0.06 0.08 0.10 0.10 0.11 0.13 0.13 0.14 0.14 0.14 0.14 0.13 0.11 0.09 0.08 0.07 0.07 0.07 0.08
0.56 0.33 0.33 0.32 0.23 0.30 0.39 0.32 0.24 0.14 0.11 0.08 0.12 0.18 0.20 0.15 0.10 0.07 0.05 0.03 0.02 0.03 0.04 0.05 0.05 0.06 0.08 0.11 0.12 0.14 0.16 0.15 0.15 0.15 0.14 0.13 0.11 0.10 0.09 0.09 0.10 0.12 0.13 0.16
0.59 0.32 0.33 0.30 0.19 0.24 0.28 0.22 0.19 0.18 0.13 0.09 0.14 0.20 0.25 0.19 0.12 0.07 0.05 0.04 0.03 0.03 0.03 0.04 0.04 0.08 0.13 0.16 0.15 0.16 0.17 0.15 0.15 0.15 0.16 0.15 0.13 0.15 0.20 0.23 0.25 0.28 0.30 0.32
0.50 0.43 0.47 0.27 0.16 0.17 0.20 0.16 0.12 0.12 0.07 0.08 0.13 0.15 0.16 0.17 0.14 0.09 0.05 0.03 0.02 0.02 0.03 0.03 0.04 0.08 0.15 0.21 0.24 0.27 0.29 0.25 0.21 0.22 0.26 0.31 0.35 0.38 0.44 0.51 0.55 0.57 0.58 0.56
0.35 0.30 0.21 0.11 0.10 0.12 0.15 0.12 0.07 0.06 0.05 0.04 0.06 0.13 0.15 0.13 0.14 0.11 0.06 0.04 0.03 0.03 0.03 0.04 0.05 0.08 0.13 0.22 0.28 0.33 0.37 0.39 0.39 0.41 0.48 0.53 0.60 0.65 0.66 0.72 0.72 0.67 0.65 0.60
0.22 0.17 0.07 0.05 0.03 0.04 0.08 0.10 0.03 0.03 0.03 0.03 0.03 0.08 0.12 0.14 0.18 0.18 0.14 0.08 0.05 0.05 0.06 0.08 0.10 0.14 0.21 0.29 0.38 0.44 0.49 0.54 0.55 0.57 0.60 0.62 0.63 0.62 0.60 0.60 0.58 0.50 0.45 0.39
0.16 0.12 0.01 0.01 0.01 0.01 0.05 0.06 0.02 0.03 0.03 0.03 0.03 0.04 0.05 0.09 0.14 0.17 0.19 0.18 0.16 0.16 0.17 0.19 0.22 0.29 0.38 0.45 0.53 0.58 0.59 0.63 0.64 0.60 0.58 0.54 0.47 0.40 0.36 0.32 0.28 0.25 0.22 0.18
0.05 0.07 0.02 0.01 0.01 0.01 0.02 0.01 0.01 0.01 0.03 0.03 0.03 0.03 0.02 0.04 0.08 0.10 0.13 0.18 0.23 0.26 0.27 0.27 0.32 0.40 0.47 0.52 0.55 0.51 0.46 0.42 0.39 0.34 0.29 0.26 0.22 0.18 0.16 0.13 0.11 0.10 0.08 0.06
0.01 0.01 0.00 0.00 0.00 0.00 0.01 0.01 0.01 0.01 0.02 0.03 0.03 0.03 0.04 0.03 0.03 0.04 0.05 0.06 0.10 0.15 0.18 0.19 0.20 0.23 0.25 0.24 0.22 0.18 0.15 0.13 0.11 0.10 0.09 0.09 0.08 0.07 0.05 0.04 0.03 0.02 0.01 0.01
0.01 0.00 0.00 0.00 0.00 0.00 0.01 0.01 0.02 0.02 0.02 0.02 0.02 0.03 0.03 0.03 0.03 0.04 0.05 0.04 0.04 0.04 0.04 0.04 0.04 0.04 0.04 0.04 0.03 0.03 0.02 0.02 0.02 0.02 0.01 0.01 0.01 0.01 0.00 0.00 0.00 0.00 0.00 0.00
0.03 0.02 0.01 0.01 0.00 0.01 0.00 0.01 0.01 0.02 0.02 0.02 0.02 0.02 0.02 0.02 0.02 0.03 0.04 0.04 0.04 0.05 0.05 0.04 0.04 0.03 0.03 0.03 0.02 0.02 0.02 0.02 0.01 0.01 0.01 0.00 0.00 0.00 0.00 0.00 0.00 0.00 0.00 0.00
0.05 0.03 0.02 0.02 0.01 0.01 0.01 0.01 0.01 0.02 0.02 0.02 0.02 0.02 0.02 0.02 0.02 0.02 0.02 0.03 0.04 0.05 0.06 0.06 0.05 0.04 0.04 0.03 0.03 0.03 0.02 0.02 0.02 0.02 0.01 0.01 0.01 0.00 0.01 0.00 0.01 0.00 0.00 0.00
0.02 0.01 0.01 0.01 0.01 0.00 0.00 0.01 0.01 0.01 0.01 0.02 0.02 0.01 0.01 0.02 0.02 0.01 0.02 0.02 0.03 0.04 0.04 0.04 0.04 0.04 0.04 0.03 0.03 0.03 0.03 0.03 0.03 0.02 0.01 0.01 0.01 0.01 0.01 0.01 0.01 0.01 0.01 0.01
0.01 0.01 0.01 0.01 0.01 0.00 0.01 0.01 0.01 0.02 0.02 0.02 0.02 0.01 0.01 0.01 0.01 0.01 0.02 0.02 0.02 0.02 0.02 0.02 0.02 0.02 0.03 0.04 0.03 0.03 0.03 0.03 0.03 0.02 0.02 0.02 0.02 0.02 0.01 0.01 0.01 0.01 0.01 0.01
0.02 0.02 0.01 0.01 0.01 0.01 0.00 0.00 0.00 0.00 0.00 0.00 0.01 0.01 0.01 0.01 0.01 0.01 0.01 0.01 0.02 0.02 0.02 0.02 0.01 0.01 0.02 0.03 0.03 0.03 0.04 0.04 0.04 0.04 0.03 0.03 0.03 0.03 0.02 0.02 0.01 0.01 0.01 0.01
0.03 0.02 0.02 0.03 0.03 0.02 0.01 0.01 0.01 0.01 0.01 0.01 0.01 0.01 0.01 0.01 0.01 0.01 0.01 0.01 0.01 0.01 0.02 0.02 0.03 0.03 0.03 0.03 0.03 0.03 0.04 0.06 0.06 0.05 0.05 0.05 0.04 0.03 0.03 0.02 0.02 0.02 0.01 0.01
0.07 0.06 0.04 0.05 0.04 0.04 0.04 0.04 0.04 0.03 0.03 0.02 0.02 0.01 0.01 0.01 0.01 0.01 0.01 0.01 0.01 0.01 0.01 0.02 0.02 0.03 0.03 0.03 0.04 0.04 0.04 0.06 0.08 0.06 0.04 0.04 0.04 0.04 0.04 0.03 0.03 0.02 0.02 0.02
0.09 0.09 0.08 0.07 0.06 0.06 0.06 0.06 0.05 0.04 0.03 0.02 0.02 0.01 0.01 0.01 0.01 0.01 0.01 0.01 0.01 0.01 0.01 0.02 0.02 0.03 0.03 0.04 0.04 0.04 0.04 0.05 0.06 0.06 0.06 0.06 0.06 0.06 0.05 0.04 0.03 0.02 0.02 0.02
0.08 0.09 0.10 0.08 0.08 0.08 0.08 0.08 0.06 0.05 0.04 0.03 0.03 0.02 0.02 0.01 0.01 0.01 0.01 0.01 0.01 0.02 0.02 0.02 0.04 0.04 0.04 0.05 0.06 0.05 0.05 0.06 0.06 0.06 0.07 0.07 0.08 0.06 0.05 0.04 0.03 0.03 0.03 0.03
0.10 0.11 0.12 0.11 0.09 0.09 0.09 0.08 0.08 0.07 0.06 0.05 0.05 0.04 0.03 0.03 0.02 0.02 0.02 0.02 0.03 0.03 0.03 0.03 0.04 0.04 0.04 0.05 0.07 0.05 0.05 0.05 0.06 0.07 0.07 0.08 0.07 0.06 0.06 0.05 0.04 0.04 0.04 0.03
0.13 0.12 0.12 0.13 0.13 0.12 0.11 0.11 0.10 0.10 0.09 0.08 0.07 0.07 0.07 0.06 0.04 0.03 0.03 0.03 0.04 0.03 0.03 0.04 0.03 0.03 0.04 0.05 0.07 0.06 0.06 0.06 0.08 0.08 0.09 0.09 0.09 0.08 0.07 0.06 0.05 0.05 0.05 0.04
0.11 0.12 0.12 0.13 0.12 0.12 0.12 0.12 0.12 0.12 0.11 0.11 0.10 0.09 0.08 0.07 0.06 0.05 0.04 0.04 0.04 0.05 0.04 0.04 0.03 0.04 0.05 0.06 0.07 0.07 0.08 0.09 0.10 0.10 0.10 0.10 0.09 0.08 0.07 0.07 0.06 0.06 0.05 0.05
0.09 0.10 0.12 0.13 0.12 0.12 0.12 0.13 0.13 0.13 0.12 0.12 0.13 0.12 0.10 0.09 0.07 0.06 0.07 0.07 0.06 0.05 0.05 0.05 0.06 0.08 0.08 0.08 0.08 0.09 0.10 0.10 0.10 0.10 0.10 0.09 0.08 0.07 0.07 0.06 0.06 0.05 0.05 0.04
0.06 0.06 0.07 0.07 0.08 0.08 0.09 0.10 0.11 0.11 0.12 0.13 0.12 0.11 0.10 0.09 0.09 0.07 0.07 0.07 0.07 0.06 0.06 0.07 0.09 0.10 0.10 0.09 0.09 0.10 0.10 0.10 0.10 0.09 0.09 0.08 0.07 0.06 0.06 0.05 0.05 0.04 0.04 0.03
0.04 0.03 0.03 0.04 0.04 0.05 0.06 0.07 0.08 0.08 0.09 0.11 0.10 0.09 0.08 0.07 0.08 0.09 0.08 0.07 0.07 0.07 0.07 0.08 0.09 0.10 0.10 0.09 0.10 0.10 0.09 0.09 0.08 0.08 0.07 0.06 0.05 0.05 0.04 0.04 0.04 0.04 0.03 0.03
0.02 0.02 0.02 0.02 0.02 0.02 0.03 0.03 0.05 0.06 0.06 0.07 0.08 0.08 0.07 0.07 0.07 0.07 0.07 0.07 0.07 0.08 0.08 0.08 0.08 0.09 0.09 0.08 0.08 0.08 0.07 0.07 0.07 0.06 0.05 0.05 0.04 0.04 0.04 0.03 0.03 0.03 0.03 0.02
0.01 0.01 0.01 0.01 0.01 0.02 0.02 0.02 0.02 0.03 0.04 0.05 0.06 0.08 0.08 0.08 0.08 0.08 0.07 0.07 0.07 0.08 0.07 0.07 0.07 0.08 0.08 0.07 0.07 0.06 0.05 0.05 0.05 0.05 0.04 0.04 0.04 0.04 0.03 0.03 0.03 0.03 0.03 0.02

GEFSNGP_prec_meanprecacc_072.txt.gz
Total_Precipitation_Accumulation
0.52 0.43 0.49 0.43 0.32 0.44 0.67 0.53 0.36 0.12 0.05 0.05 0.07 0.12 0.14 0.11 0.08 0.05 0.04 0.03 0.02 0.03 0.03 0.04 0.04 0.06 0.08 0.10 0.10 0.12 0.13 0.13 0.14 0.14 0.14 0.14 0.13 0.11 0.09 0.08 0.07 0.07 0.07 0.08
0.58 0.33 0.33 0.32 0.23 0.30 0.39 0.32 0.25 0.14 0.11 0.08 0.12 0.18 0.20 0.15 0.10 0.07 0.05 0.03 0.02 0.03 0.04 0.05 0.05 0.06 0.08 0.11 0.12 0.14 0.16 0.15 0.15 0.15 0.14 0.13 0.11 0.10 0.09 0.09 0.10 0.12 0.13 0.16
0.60 0.33 0.33 0.30 0.20 0.24 0.28 0.22 0.19 0.18 0.13 0.09 0.14 0.20 0.25 0.19 0.12 0.07 0.05 0.04 0.03 0.03 0.03 0.04 0.04 0.08 0.13 0.16 0.15 0.16 0.17 0.15 0.15 0.15 0.16 0.15 0.13 0.15 0.20 0.23 0.25 0.28 0.30 0.32
0.52 0.44 0.47 0.27 0.16 0.17 0.20 0.16 0.13 0.12 0.07 0.08 0.13 0.15 0.16 0.17 0.14 0.09 0.05 0.03 0.02 0.02 0.03 0.03 0.04 0.08 0.15 0.21 0.24 0.27 0.29 0.25 0.21 0.22 0.26 0.31 0.35 0.38 0.44 0.51 0.55 0.57 0.58 0.56
0.37 0.31 0.21 0.11 0.10 0.12 0.15 0.12 0.07 0.06 0.05 0.04 0.06 0.13 0.15 0.13 0.14 0.11 0.06 0.04 0.03 0.03 0.03 0.04 0.05 0.08 0.13 0.22 0.28 0.33 0.37 0.39 0.39 0.41 0.48 0.53 0.60 0.65 0.67 0.72 0.72 0.68 0.65 0.60
0.24 0.18 0.08 0.05 0.03 0.04 0.08 0.10 0.03 0.03 0.03 0.03 0.03 0.08 0.12 0.14 0.18 0.18 0.14 0.08 0.05 0.05 0.06 0.08 0.10 0.14 0.21 0.29 0.38 0.44 0.49 0.54 0.55 0.57 0.60 0.62 0.63 0.63 0.60 0.60 0.58 0.50 0.45 0.39
0.18 0.13 0.02 0.01 0.01 0.01 0.05 0.07 0.02 0.03 0.04 0.03 0.04 0.04 0.05 0.09 0.14 0.17 0.19 0.18 0.16 0.16 0.17 0.19 0.22 0.29 0.38 0.45 0.53 0.58 0.59 0.63 0.64 0.61 0.58 0.54 0.47 0.40 0.36 0.32 0.28 0.25 0.22 0.18
0.07 0.09 0.03 0.01 0.01 0.01 0.02 0.01 0.01 0.02 0.03 0.03 0.03 0.03 0.02 0.04 0.08 0.10 0.13 0.18 0.23 0.26 0.27 0.27 0.32 0.40 0.47 0.52 0.55 0.51 0.46 0.42 0.39 0.34 0.29 0.26 0.22 0.18 0.16 0.13 0.11 0.10 0.08 0.06
0.03 0.03 0.01 0.01 0.01 0.01 0.01 0.02 0.01 0.02 0.02 0.03 0.03 0.04 0.04 0.03 0.03 0.04 0.05 0.06 0.10 0.15 0.18 0.19 0.20 0.23 0.25 0.24 0.22 0.18 0.15 0.13 0.11 0.10 0.10 0.09 0.08 0.07 0.05 0.04 0.03 0.02 0.01 0.01
0.03 0.02 0.01 0.01 0.00 0.01 0.01 0.02 0.02 0.02 0.02 0.02 0.03 0.03 0.03 0.03 0.04 0.04 0.05 0.04 0.04 0.04 0.04 0.04 0.04 0.04 0.04 0.04 0.03 0.03 0.03 0.03 0.03 0.02 0.02 0.02 0.01 0.01 0.01 0.01 0.00 0.00 0.00 0.00
0.06 0.04 0.03 0.02 0.01 0.01 0.01 0.01 0.02 0.02 0.02 0.03 0.03 0.03 0.03 0.02 0.03 0.03 0.04 0.04 0.04 0.05 0.05 0.05 0.04 0.04 0.04 0.03 0.03 0.03 0.03 0.02 0.02 0.02 0.02 0.02 0.02 0.01 0.01 0.01 0.01 0.01 0.00 0.00
0.07 0.04 0.03 0.03 0.02 0.02 0.02 0.01 0.01 0.02 0.02 0.02 0.02 0.03 0.03 0.03 0.03 0.02 0.02 0.03 0.04 0.05 0.06 0.06 0.06 0.05 0.05 0.05 0.04 0.04 0.04 0.04 0.04 0.03 0.03 0.03 0.02 0.02 0.02 0.02 0.01 0.01 0.01 0.01
0.02 0.01 0.01 0.01 0.01 0.01 0.01 0.01 0.02 0.02 0.02 0.02 0.02 0.02 0.02 0.03 0.03 0.02 0.02 0.02 0.03 0.04 0.04 0.04 0.05 0.05 0.05 0.05 0.04 0.04 0.04 0.04 0.05 0.04 0.04 0.04 0.03 0.02 0.02 0.02 0.02 0.02 0.02 0.01
0.01 0.01 0.01 0.01 0.01 0.01 0.01 0.01 0.02 0.03 0.03 0.03 0.02 0.02 0.02 0.02 0.02 0.02 0.03 0.03 0.03 0.03 0.03 0.03 0.02 0.03 0.04 0.04 0.04 0.04 0.04 0.04 0.04 0.04 0.04 0.04 0.04 0.03 0.03 0.02 0.02 0.02 0.02 0.02
0.02 0.02 0.02 0.02 0.01 0.01 0.01 0.01 0.01 0.01 0.01 0.01 0.01 0.02 0.02 0.02 0.02 0.02 0.02 0.02 0.02 0.03 0.02 0.02 0.02 0.02 0.03 0.03 0.04 0.04 0.05 0.05 0.05 0.05 0.05 0.05 0.05 0.04 0.04 0.03 0.03 0.02 0.02 0.02
0.03 0.03 0.03 0.03 0.03 0.02 0.02 0.02 0.02 0.02 0.01 0.02 0.02 0.02 0.02 0.02 0.02 0.02 0.02 0.02 0.02 0.02 0.03 0.03 0.03 0.03 0.03 0.03 0.04 0.04 0.05 0.07 0.08 0.07 0.07 0.07 0.06 0.06 0.05 0.04 0.04 0.04 0.03 0.03
0.07 0.06 0.05 0.05 0.05 0.04 0.04 0.05 0.05 0.04 0.04 0.03 0.03 0.02 0.02 0.02 0.02 0.02 0.01 0.01 0.01 0.02 0.02 0.02 0.03 0.04 0.04 0.04 0.05 0.05 0.06 0.08 0.10 0.08 0.06 0.05 0.06 0.06 0.06 0.06 0.05 0.04 0.03 0.04
0.09 0.09 0.08 0.07 0.07 0.07 0.07 0.07 0.06 0.05 0.04 0.04 0.03 0.02 0.02 0.02 0.02 0.02 0.01 0.01 0.01 0.02 0.02 0.02 0.03 0.03 0.03 0.04 0.05 0.05 0.06 0.07 0.08 0.07 0.07 0.07 0.08 0.08 0.07 0.06 0.05 0.05 0.04 0.05
0.09 0.10 0.10 0.09 0.08 0.09 0.09 0.08 0.07 0.06 0.05 0.04 0.04 0.04 0.03 0.03 0.02 0.02 0.02 0.02 0.02 0.02 0.03 0.03 0.04 0.04 0.04 0.05 0.06 0.06 0.06 0.07 0.07 0.08 0.08 0.09 0.10 0.08 0.06 0.06 0.05 0.05 0.05 0.05
0.10 0.11 0.12 0.11 0.10 0.09 0.10 0.09 0.09 0.08 0.07 0.06 0.06 0.05 0.05 0.04 0.04 0.04 0.03 0.04 0.04 0.03 0.03 0.03 0.04 0.04 0.04 0.05 0.07 0.05 0.05 0.06 0.07 0.08 0.09 0.09 0.09 0.08 0.07 0.06 0.06 0.06 0.06 0.06
0.13 0.12 0.13 0.14 0.14 0.13 0.12 0.12 0.11 0.11 0.10 0.09 0.08 0.08 0.08 0.07 0.05 0.05 0.04 0.05 0.05 0.04 0.03 0.04 0.03 0.03 0.04 0.05 0.07 0.06 0.06 0.07 0.08 0.09 0.10 0.10 0.10 0.10 0.09 0.08 0.08 0.07 0.07 0.06
0.11 0.12 0.13 0.13 0.13 0.13 0.13 0.13 0.13 0.13 0.12 0.12 0.11 0.11 0.09 0.08 0.07 0.06 0.06 0.05 0.05 0.06 0.05 0.04 0.04 0.04 0.05 0.07 0.07 0.07 0.08 0.09 0.10 0.11 0.12 0.12 0.11 0.10 0.09 0.09 0.08 0.08 0.07 0.07
0.09 0.10 0.12 0.13 0.13 0.12 0.13 0.14 0.14 0.13 0.13 0.13 0.14 0.14 0.12 0.10 0.09 0.08 0.09 0.08 0.06 0.06 0.06 0.05 0.07 0.08 0.09 0.09 0.08 0.09 0.10 0.11 0.11 0.11 0.11 0.10 0.10 0.09 0.08 0.08 0.07 0.07 0.07 0.06
0.06 0.06 0.07 0.08 0.08 0.09 0.10 0.10 0.11 0.12 0.13 0.14 0.14 0.13 0.12 0.11 0.10 0.09 0.08 0.09 0.08 0.07 0.07 0.07 0.10 0.11 0.11 0.10 0.10 0.11 0.11 0.11 0.11 0.10 0.10 0.09 0.08 0.07 0.07 0.07 0.06 0.06 0.06 0.05
0.04 0.03 0.03 0.04 0.05 0.05 0.06 0.07 0.08 0.09 0.10 0.12 0.11 0.10 0.09 0.09 0.09 0.10 0.09 0.08 0.07 0.08 0.08 0.09 0.10 0.10 0.10 0.10 0.10 0.10 0.10 0.09 0.09 0.09 0.08 0.07 0.06 0.06 0.05 0.05 0.05 0.05 0.05 0.04
0.02 0.02 0.02 0.02 0.02 0.02 0.03 0.04 0.05 0.07 0.08 0.08 0.09 0.09 0.08 0.08 0.08 0.09 0.09 0.08 0.08 0.08 0.08 0.08 0.09 0.09 0.09 0.09 0.09 0.08 0.07 0.07 0.07 0.07 0.06 0.06 0.05 0.05 0.05 0.05 0.04 0.04 0.04 0.04
0.01 0.01 0.01 0.01 0.01 0.02 0.02 0.02 0.03 0.04 0.05 0.06 0.08 0.08 0.09 0.09 0.09 0.09 0.08 0.08 0.08 0.09 0.08 0.08 0.08 0.08 0.08 0.08 0.07 0.06 0.06 0.05 0.05 0.05 0.05 0.05 0.05 0.04 0.04 0.04 0.04 0.04 0.04 0.04

GEFSNGP_prec_meanprecacc_078.txt.gz
Total_Precipitation_Accumulation
0.53 0.43 0.49 0.44 0.33 0.44 0.67 0.53 0.36 0.13 0.06 0.06 0.07 0.12 0.14 0.11 0.08 0.05 0.04 0.03 0.02 0.03 0.03 0.04 0.04 0.06 0.08 0.10 0.10 0.12 0.13 0.13 0.14 0.14 0.14 0.14 0.13 0.11 0.09 0.08 0.07 0.07 0.07 0.08
0.59 0.33 0.34 0.33 0.23 0.31 0.39 0.32 0.25 0.14 0.11 0.08 0.12 0.18 0.20 0.15 0.10 0.07 0.05 0.03 0.02 0.03 0.04 0.05 0.05 0.06 0.08 0.11 0.12 0.14 0.16 0.15 0.15 0.15 0.14 0.13 0.11 0.10 0.09 0.09 0.10 0.12 0.13 0.16
0.62 0.33 0.34 0.30 0.20 0.24 0.29 0.22 0.19 0.18 0.13 0.09 0.14 0.20 0.25 0.19 0.12 0.07 0.05 0.04 0.03 0.03 0.03 0.04 0.04 0.08 0.13 0.16 0.15 0.17 0.17 0.15 0.15 0.16 0.16 0.15 0.13 0.15 0.20 0.23 0.25 0.28 0.30 0.32
0.54 0.45 0.48 0.28 0.17 0.17 0.20 0.16 0.13 0.12 0.07 0.08 0.13 0.15 0.16 0.17 0.14 0.09 0.05 0.03 0.02 0.02 0.03 0.03 0.04 0.08 0.15 0.21 0.24 0.27 0.29 0.25 0.21 0.22 0.26 0.31 0.35 0.38 0.44 0.51 0.55 0.57 0.58 0.56
0.38 0.32 0.22 0.12 0.10 0.12 0.15 0.12 0.07 0.06 0.05 0.04 0.06 0.13 0.15 0.13 0.14 0.11 0.06 0.04 0.03 0.03 0.03 0.04 0.05 0.08 0.13 0.22 0.28 0.33 0.37 0.39 0.39 0.41 0.48 0.53 0.60 0.65 0.67 0.72 0.72 0.68 0.65 0.60
0.26 0.19 0.08 0.05 0.03 0.04 0.08 0.10 0.03 0.03 0.03 0.03 0.03 0.08 0.12 0.14 0.18 0.18 0.14 0.08 0.05 0.05 0.06 0.08 0.10 0.14 0.21 0.29 0.38 0.44 0.49 0.54 0.55 0.57 0.60 0.62 0.63 0.63 0.60 0.60 0.58 0.50 0.45 0.39
0.19 0.15 0.02 0.01 0.01 0.01 0.05 0.07 0.02 0.03 0.04 0.03 0.04 0.04 0.05 0.09 0.14 0.17 0.19 0.18 0.16 0.16 0.17 0.19 0.22 0.29 0.38 0.45 0.53 0.58 0.59 0.63 0.64 0.61 0.58 0.54 0.47 0.40 0.36 0.32 0.28 0.25 0.22 0.18
0.07 0.10 0.04 0.02 0.01 0.02 0.02 0.01 0.01 0.02 0.03 0.03 0.03 0.03 0.03 0.04 0.08 0.10 0.13 0.18 0.23 0.26 0.27 0.27 0.32 0.40 0.47 0.52 0.55 0.51 0.46 0.42 0.39 0.34 0.30 0.26 0.22 0.18 0.16 0.13 0.11 0.10 0.08 0.06
0.04 0.05 0.03 0.02 0.02 0.01 0.02 0.02 0.02 0.02 0.02 0.03 0.03 0.04 0.04 0.03 0.04 0.05 0.05 0.06 0.10 0.15 0.18 0.19 0.20 0.23 0.25 0.24 0.22 0.19 0.15 0.13 0.11 0.10 0.10 0.09 0.08 0.07 0.05 0.04 0.03 0.02 0.01 0.01
0.04 0.03 0.02 0.02 0.01 0.02 0.02 0.02 0.02 0.02 0.02 0.02 0.03 0.04 0.04 0.04 0.04 0.05 0.05 0.05 0.04 0.04 0.04 0.04 0.04 0.04 0.04 0.04 0.04 0.03 0.03 0.03 0.03 0.03 0.03 0.02 0.02 0.02 0.01 0.01 0.01 0.01 0.00 0.00
0.06 0.05 0.03 0.03 0.02 0.02 0.02 0.02 0.02 0.03 0.03 0.03 0.03 0.03 0.03 0.03 0.03 0.04 0.04 0.05 0.05 0.05 0.05 0.05 0.04 0.04 0.04 0.04 0.03 0.03 0.03 0.03 0.03 0.03 0.03 0.03 0.02 0.02 0.02 0.02 0.02 0.01 0.01 0.01
0.07 0.04 0.03 0.03 0.02 0.02 0.02 0.01 0.02 0.02 0.02 0.02 0.03 0.03 0.03 0.03 0.03 0.03 0.03 0.03 0.04 0.05 0.06 0.06 0.06 0.05 0.05 0.05 0.04 0.04 0.04 0.04 0.04 0.04 0.04 0.04 0.03 0.03 0.03 0.03 0.03 0.03 0.02 0.01
0.02 0.01 0.01 0.01 0.01 0.01 0.01 0.01 0.02 0.02 0.02 0.03 0.03 0.03 0.02 0.03 0.03 0.03 0.03 0.03 0.03 0.04 0.04 0.05 0.05 0.05 0.06 0.06 0.05 0.05 0.05 0.06 0.06 0.06 0.05 0.05 0.05 0.04 0.04 0.05 0.05 0.04 0.03 0.03
0.01 0.01 0.01 0.01 0.01 0.01 0.01 0.01 0.02 0.03 0.03 0.03 0.02 0.02 0.02 0.02 0.02 0.02 0.03 0.03 0.03 0.03 0.03 0.03 0.03 0.03 0.04 0.05 0.05 0.05 0.05 0.06 0.06 0.06 0.06 0.07 0.07 0.06 0.05 0.05 0.04 0.04 0.04 0.05
0.02 0.02 0.02 0.02 0.01 0.01 0.01 0.01 0.01 0.01 0.01 0.01 0.01 0.02 0.02 0.02 0.02 0.02 0.03 0.03 0.03 0.03 0.03 0.02 0.03 0.03 0.04 0.05 0.05 0.06 0.06 0.06 0.06 0.06 0.07 0.07 0.07 0.07 0.06 0.05 0.05 0.04 0.04 0.05
0.03 0.03 0.03 0.03 0.03 0.02 0.02 0.02 0.02 0.02 0.02 0.02 0.02 0.03 0.03 0.03 0.03 0.03 0.03 0.03 0.03 0.03 0.04 0.04 0.04 0.04 0.04 0.04 0.05 0.06 0.07 0.10 0.10 0.08 0.08 0.08 0.08 0.07 0.07 0.06 0.06 0.05 0.05 0.05
0.07 0.06 0.05 0.05 0.05 0.04 0.04 0.05 0.05 0.05 0.04 0.04 0.03 0.03 0.03 0.03 0.03 0.03 0.03 0.02 0.02 0.03 0.03 0.04 0.04 0.05 0.05 0.05 0.06 0.06 0.07 0.10 0.13 0.10 0.07 0.07 0.08 0.08 0.08 0.08 0.07 0.06 0.05 0.07
0.09 0.09 0.08 0.07 0.07 0.07 0.07 0.07 0.06 0.05 0.05 0.04 0.04 0.03 0.03 0.03 0.03 0.03 0.03 0.02 0.03 0.03 0.03 0.04 0.04 0.05 0.05 0.05 0.06 0.06 0.07 0.08 0.09 0.09 0.09 0.09 0.11 0.10 0.10 0.09 0.07 0.07 0.06 0.08
0.09 0.10 0.10 0.09 0.08 0.09 0.09 0.09 0.07 0.06 0.05 0.05 0.05 0.05 0.04 0.04 0.03 0.03 0.03 0.04 0.04 0.04 0.04 0.04 0.06 0.06 0.05 0.06 0.08 0.07 0.07 0.09 0.09 0.10 0.10 0.12 0.12 0.10 0.08 0.08 0.07 0.07 0.07 0.07
0.10 0.11 0.12 0.11 0.10 0.09 0.10 0.10 0.09 0.08 0.07 0.07 0.07 0.06 0.06 0.05 0.05 0.05 0.05 0.05 0.05 0.05 0.05 0.05 0.05 0.05 0.05 0.06 0.08 0.07 0.06 0.07 0.08 0.09 0.10 0.11 0.11 0.10 0.09 0.08 0.08 0.08 0.08 0.08
0.13 0.12 0.13 0.14 0.14 0.13 0.12 0.12 0.11 0.11 0.10 0.09 0.09 0.09 0.08 0.07 0.06 0.05 0.05 0.06 0.06 0.05 0.05 0.06 0.05 0.05 0.05 0.06 0.08 0.07 0.07 0.08 0.09 0.10 0.11 0.11 0.12 0.11 0.11 0.10 0.10 0.09 0.09 0.08
0.11 0.12 0.13 0.13 0.13 0.13 0.13 0.13 0.13 0.13 0.12 0.12 0.12 0.11 0.10 0.09 0.08 0.07 0.07 0.07 0.06 0.07 0.07 0.06 0.05 0.06 0.07 0.08 0.08 0.08 0.09 0.10 0.11 0.12 0.13 0.13 0.12 0.11 0.10 0.10 0.10 0.09 0.09 0.08
0.09 0.10 0.12 0.13 0.13 0.12 0.13 0.14 0.14 0.14 0.13 0.14 0.14 0.14 0.13 0.11 0.10 0.09 0.09 0.09 0.07 0.07 0.07 0.07 0.08 0.10 0.10 0.10 0.10 0.10 0.11 0.12 0.12 0.12 0.12 0.11 0.11 0.10 0.10 0.09 0.08 0.08 0.08 0.07
0.06 0.06 0.07 0.08 0.08 0.09 0.10 0.10 0.11 0.12 0.13 0.14 0.14 0.13 0.13 0.12 0.11 0.09 0.09 0.09 0.09 0.08 0.08 0.09 0.11 0.12 0.12 0.11 0.11 0.12 0.12 0.12 0.12 0.11 0.10 0.10 0.09 0.08 0.08 0.08 0.08 0.07 0.07 0.06
0.04 0.03 0.03 0.04 0.05 0.05 0.06 0.07 0.08 0.09 0.10 0.12 0.12 0.10 0.10 0.10 0.10 0.10 0.10 0.09 0.08 0.09 0.09 0.10 0.11 0.11 0.12 0.11 0.11 0.11 0.11 0.10 0.10 0.10 0.09 0.08 0.07 0.07 0.06 0.06 0.06 0.06 0.06 0.05
0.02 0.02 0.02 0.02 0.02 0.02 0.03 0.04 0.05 0.07 0.08 0.08 0.09 0.09 0.09 0.09 0.09 0.09 0.09 0.09 0.09 0.10 0.10 0.10 0.10 0.10 0.11 0.10 0.10 0.09 0.08 0.08 0.08 0.07 0.06 0.06 0.06 0.06 0.05 0.05 0.05 0.05 0.05 0.05
0.01 0.01 0.01 0.01 0.01 0.02 0.02 0.02 0.03 0.04 0.05 0.07 0.08 0.09 0.10 0.10 0.10 0.09 0.09 0.09 0.09 0.10 0.09 0.09 0.09 0.09 0.09 0.09 0.08 0.07 0.06 0.06 0.06 0.06 0.05 0.05 0.05 0.05 0.05 0.05 0.05 0.05 0.05 0.05

GEFSNGP_prec_meanprecacc_084.txt.gz
Total_Precipitation_Accumulation
0.53 0.44 0.50 0.45 0.33 0.44 0.68 0.55 0.37 0.15 0.07 0.06 0.08 0.12 0.14 0.11 0.08 0.05 0.04 0.03 0.02 0.03 0.03 0.04 0.04 0.06 0.08 0.10 0.10 0.12 0.13 0.13 0.14 0.14 0.14 0.14 0.13 0.12 0.10 0.08 0.07 0.07 0.07 0.09
0.59 0.34 0.34 0.33 0.24 0.31 0.39 0.32 0.25 0.15 0.11 0.08 0.12 0.18 0.20 0.15 0.10 0.07 0.05 0.03 0.02 0.03 0.04 0.05 0.05 0.06 0.08 0.11 0.12 0.14 0.16 0.15 0.15 0.15 0.14 0.13 0.11 0.10 0.09 0.09 0.10 0.12 0.13 0.16
0.62 0.33 0.34 0.31 0.20 0.25 0.29 0.22 0.19 0.19 0.13 0.09 0.14 0.21 0.25 0.19 0.12 0.07 0.05 0.04 0.03 0.03 0.03 0.04 0.04 0.08 0.13 0.16 0.15 0.17 0.17 0.15 0.15 0.16 0.16 0.15 0.13 0.15 0.20 0.23 0.25 0.28 0.30 0.32
0.54 0.46 0.49 0.28 0.17 0.17 0.20 0.16 0.13 0.12 0.08 0.09 0.13 0.15 0.16 0.17 0.14 0.09 0.05 0.03 0.02 0.02 0.03 0.03 0.04 0.08 0.15 0.21 0.24 0.27 0.29 0.25 0.21 0.22 0.26 0.31 0.35 0.38 0.44 0.51 0.55 0.57 0.59 0.56
0.38 0.33 0.22 0.12 0.10 0.12 0.15 0.13 0.07 0.06 0.05 0.05 0.06 0.13 0.15 0.13 0.14 0.11 0.06 0.04 0.03 0.03 0.03 0.04 0.05 0.08 0.13 0.22 0.28 0.33 0.37 0.39 0.39 0.41 0.48 0.53 0.60 0.65 0.67 0.72 0.72 0.68 0.65 0.60
0.26 0.19 0.08 0.05 0.03 0.04 0.08 0.11 0.04 0.03 0.03 0.03 0.03 0.08 0.12 0.14 0.18 0.18 0.14 0.08 0.05 0.05 0.06 0.08 0.10 0.14 0.21 0.29 0.38 0.44 0.49 0.54 0.55 0.57 0.60 0.62 0.63 0.63 0.60 0.60 0.58 0.50 0.45 0.39
0.19 0.15 0.02 0.01 0.01 0.01 0.05 0.07 0.03 0.04 0.04 0.03 0.04 0.04 0.05 0.09 0.15 0.17 0.19 0.18 0.16 0.16 0.17 0.19 0.22 0.29 0.38 0.45 0.53 0.58 0.59 0.63 0.64 0.61 0.58 0.54 0.47 0.40 0.36 0.33 0.28 0.25 0.22 0.18
0.08 0.11 0.04 0.02 0.01 0.02 0.02 0.01 0.01 0.02 0.03 0.03 0.03 0.03 0.03 0.05 0.09 0.11 0.14 0.19 0.23 0.26 0.27 0.27 0.32 0.40 0.47 0.52 0.55 0.51 0.46 0.42 0.39 0.34 0.30 0.27 0.23 0.20 0.17 0.15 0.13 0.11 0.08 0.07
0.04 0.05 0.03 0.02 0.02 0.01 0.02 0.02 0.02 0.02 0.03 0.03 0.04 0.04 0.04 0.04 0.04 0.05 0.06 0.07 0.11 0.16 0.19 0.19 0.21 0.23 0.25 0.24 0.22 0.19 0.16 0.13 0.12 0.11 0.11 0.10 0.10 0.09 0.07 0.06 0.05 0.04 0.03 0.02
0.04 0.03 0.02 0.02 0.01 0.02 0.02 0.02 0.02 0.02 0.02 0.02 0.03 0.04 0.04 0.04 0.04 0.05 0.06 0.05 0.05 0.05 0.05 0.05 0.04 0.05 0.05 0.04 0.04 0.04 0.04 0.04 0.04 0.04 0.04 0.04 0.03 0.03 0.02 0.02 0.02 0.01 0.01 0.01
0.06 0.05 0.03 0.03 0.02 0.02 0.02 0.02 0.03 0.03 0.03 0.03 0.03 0.03 0.04 0.03 0.04 0.04 0.05 0.05 0.05 0.06 0.06 0.05 0.05 0.04 0.04 0.04 0.04 0.04 0.04 0.04 0.04 0.05 0.05 0.05 0.04 0.04 0.03 0.03 0.03 0.02 0.01 0.01
0.07 0.04 0.03 0.03 0.02 0.02 0.02 0.02 0.02 0.02 0.03 0.03 0.03 0.03 0.04 0.04 0.04 0.04 0.04 0.04 0.05 0.06 0.07 0.07 0.06 0.06 0.06 0.05 0.05 0.05 0.05 0.06 0.06 0.06 0.06 0.05 0.05 0.05 0.06 0.05 0.05 0.05 0.03 0.02
0.02 0.01 0.01 0.01 0.01 0.01 0.01 0.01 0.02 0.02 0.02 0.03 0.03 0.03 0.03 0.03 0.04 0.04 0.04 0.04 0.05 0.06 0.06 0.06 0.06 0.06 0.07 0.07 0.06 0.06 0.06 0.07 0.08 0.08 0.08 0.08 0.08 0.07 0.07 0.08 0.09 0.07 0.06 0.05
0.01 0.01 0.01 0.01 0.01 0.01 0.01 0.01 0.02 0.03 0.03 0.03 0.02 0.02 0.02 0.03 0.03 0.03 0.04 0.05 0.05 0.05 0.05 0.04 0.04 0.05 0.06 0.07 0.07 0.06 0.06 0.08 0.08 0.08 0.08 0.09 0.09 0.09 0.08 0.07 0.07 0.06 0.07 0.08
0.02 0.02 0.02 0.02 0.01 0.01 0.01 0.01 0.01 0.01 0.01 0.01 0.02 0.02 0.03 0.03 0.03 0.03 0.03 0.03 0.04 0.04 0.04 0.04 0.04 0.04 0.05 0.06 0.07 0.07 0.08 0.08 0.09 0.09 0.09 0.10 0.10 0.10 0.09 0.08 0.07 0.06 0.07 0.08
0.03 0.03 0.03 0.03 0.03 0.02 0.02 0.02 0.02 0.02 0.02 0.02 0.02 0.03 0.04 0.04 0.03 0.03 0.03 0.03 0.03 0.04 0.05 0.05 0.05 0.05 0.06 0.06 0.07 0.08 0.09 0.12 0.13 0.12 0.11 0.11 0.11 0.11 0.10 0.09 0.08 0.07 0.07 0.07
0.07 0.06 0.05 0.05 0.05 0.04 0.04 0.05 0.05 0.05 0.04 0.04 0.03 0.03 0.03 0.03 0.03 0.03 0.03 0.03 0.03 0.03 0.04 0.04 0.05 0.06 0.07 0.07 0.08 0.09 0.10 0.13 0.17 0.14 0.11 0.10 0.11 0.12 0.12 0.11 0.10 0.08 0.07 0.09
0.09 0.09 0.08 0.07 0.07 0.07 0.07 0.07 0.06 0.05 0.05 0.04 0.04 0.03 0.03 0.03 0.03 0.03 0.03 0.03 0.03 0.04 0.04 0.05 0.05 0.06 0.06 0.07 0.08 0.09 0.10 0.12 0.13 0.13 0.12 0.14 0.15 0.15 0.14 0.12 0.10 0.09 0.08 0.10
0.09 0.10 0.10 0.09 0.08 0.09 0.09 0.09 0.07 0.06 0.05 0.05 0.05 0.05 0.04 0.04 0.04 0.04 0.04 0.04 0.04 0.05 0.05 0.05 0.07 0.07 0.07 0.09 0.11 0.10 0.11 0.12 0.13 0.13 0.13 0.16 0.17 0.14 0.13 0.12 0.11 0.10 0.09 0.10
0.10 0.11 0.12 0.11 0.10 0.09 0.10 0.10 0.09 0.08 0.07 0.07 0.07 0.06 0.06 0.05 0.05 0.05 0.05 0.05 0.06 0.06 0.05 0.06 0.07 0.07 0.07 0.08 0.11 0.10 0.10 0.11 0.12 0.13 0.14 0.15 0.15 0.14 0.13 0.12 0.12 0.11 0.11 0.10
0.13 0.12 0.13 0.14 0.14 0.13 0.12 0.12 0.11 0.11 0.10 0.09 0.09 0.09 0.08 0.07 0.06 0.05 0.06 0.06 0.06 0.06 0.06 0.06 0.06 0.06 0.07 0.08 0.10 0.09 0.10 0.11 0.13 0.14 0.15 0.15 0.15 0.15 0.14 0.13 0.12 0.12 0.12 0.11
0.11 0.12 0.13 0.13 0.13 0.13 0.13 0.13 0.13 0.13 0.12 0.12 0.12 0.11 0.10 0.09 0.08 0.07 0.07 0.07 0.06 0.08 0.07 0.06 0.06 0.07 0.09 0.10 0.10 0.10 0.11 0.12 0.14 0.15 0.15 0.15 0.15 0.14 0.13 0.13 0.12 0.11 0.11 0.11
0.09 0.10 0.12 0.13 0.13 0.12 0.13 0.14 0.14 0.14 0.13 0.14 0.14 0.14 0.13 0.11 0.10 0.09 0.10 0.09 0.07 0.08 0.07 0.07 0.09 0.11 0.12 0.11 0.11 0.12 0.13 0.14 0.14 0.14 0.14 0.14 0.13 0.13 0.12 0.11 0.11 0.10 0.10 0.09
0.06 0.06 0.07 0.08 0.08 0.09 0.10 0.10 0.11 0.12 0.13 0.15 0.14 0.13 0.13 0.12 0.11 0.10 0.09 0.10 0.09 0.09 0.09 0.09 0.12 0.13 0.13 0.13 0.13 0.14 0.14 0.14 0.14 0.14 0.13 0.12 0.11 0.11 0.10 0.10 0.09 0.09 0.08 0.08
0.04 0.03 0.03 0.04 0.05 0.05 0.06 0.07 0.08 0.09 0.10 0.12 0.12 0.11 0.10 0.10 0.11 0.11 0.10 0.09 0.09 0.09 0.10 0.11 0.12 0.12 0.13 0.13 0.13 0.13 0.13 0.13 0.13 0.12 0.11 0.11 0.09 0.09 0.08 0.08 0.08 0.07 0.07 0.06
0.02 0.02 0.02 0.02 0.02 0.02 0.03 0.04 0.05 0.07 0.08 0.08 0.09 0.09 0.09 0.09 0.09 0.10 0.10 0.09 0.09 0.10 0.10 0.11 0.11 0.11 0.12 0.11 0.12 0.11 0.10 0.10 0.10 0.10 0.09 0.08 0.08 0.07 0.07 0.06 0.06 0.06 0.06 0.06
0.01 0.01 0.01 0.01 0.01 0.02 0.02 0.02 0.03 0.04 0.05 0.07 0.08 0.09 0.10 0.10 0.10 0.10 0.09 0.09 0.09 0.10 0.10 0.10 0.10 0.11 0.11 0.10 0.09 0.08 0.08 0.08 0.08 0.08 0.07 0.07 0.07 0.07 0.06 0.06 0.06 0.06 0.05 0.05

GEFSNGP_prec_meanprecacc_090.txt.gz
Total_Precipitation_Accumulation
0.53 0.44 0.50 0.46 0.34 0.45 0.68 0.55 0.38 0.16 0.08 0.07 0.09 0.13 0.15 0.12 0.08 0.05 0.04 0.03 0.02 0.03 0.03 0.04 0.04 0.06 0.08 0.10 0.10 0.12 0.13 0.13 0.14 0.14 0.14 0.14 0.13 0.12 0.10 0.08 0.07 0.07 0.08 0.09
0.59 0.34 0.34 0.34 0.25 0.32 0.40 0.33 0.26 0.16 0.12 0.09 0.13 0.18 0.20 0.15 0.11 0.07 0.05 0.03 0.02 0.03 0.04 0.05 0.05 0.06 0.08 0.11 0.13 0.14 0.16 0.15 0.15 0.15 0.14 0.13 0.11 0.10 0.09 0.09 0.10 0.12 0.13 0.16
0.62 0.33 0.34 0.31 0.20 0.25 0.30 0.23 0.20 0.19 0.14 0.10 0.14 0.21 0.25 0.19 0.12 0.07 0.05 0.04 0.03 0.03 0.03 0.04 0.04 0.08 0.13 0.16 0.15 0.17 0.17 0.15 0.15 0.16 0.16 0.15 0.13 0.15 0.20 0.23 0.25 0.28 0.30 0.32
0.54 0.46 0.49 0.28 0.17 0.18 0.20 0.17 0.14 0.13 0.08 0.09 0.14 0.15 0.17 0.17 0.14 0.09 0.05 0.03 0.02 0.02 0.03 0.03 0.04 0.08 0.15 0.21 0.24 0.27 0.29 0.25 0.21 0.22 0.26 0.31 0.35 0.38 0.44 0.51 0.55 0.57 0.59 0.56
0.38 0.33 0.22 0.12 0.10 0.12 0.15 0.13 0.07 0.07 0.05 0.05 0.06 0.13 0.15 0.13 0.14 0.11 0.06 0.04 0.03 0.03 0.03 0.04 0.05 0.08 0.13 0.22 0.28 0.33 0.37 0.39 0.39 0.41 0.48 0.53 0.60 0.65 0.67 0.73 0.72 0.68 0.65 0.60
0.26 0.19 0.08 0.05 0.03 0.04 0.08 0.11 0.04 0.03 0.03 0.03 0.03 0.08 0.12 0.15 0.18 0.18 0.14 0.08 0.05 0.05 0.06 0.08 0.10 0.14 0.21 0.29 0.38 0.44 0.49 0.54 0.55 0.57 0.60 0.62 0.63 0.63 0.60 0.60 0.58 0.51 0.45 0.40
0.19 0.15 0.02 0.01 0.01 0.01 0.05 0.08 0.03 0.04 0.04 0.03 0.04 0.04 0.05 0.09 0.15 0.17 0.19 0.18 0.17 0.16 0.18 0.20 0.22 0.29 0.38 0.45 0.53 0.58 0.59 0.63 0.64 0.61 0.58 0.54 0.47 0.40 0.37 0.33 0.29 0.25 0.22 0.19
0.08 0.11 0.04 0.02 0.01 0.02 0.02 0.01 0.01 0.02 0.03 0.04 0.03 0.03 0.03 0.05 0.09 0.11 0.15 0.19 0.23 0.27 0.27 0.28 0.33 0.40 0.47 0.53 0.55 0.51 0.46 0.42 0.39 0.34 0.30 0.27 0.23 0.20 0.18 0.16 0.14 0.12 0.10 0.08
0.04 0.05 0.03 0.02 0.02 0.01 0.02 0.02 0.02 0.02 0.03 0.03 0.04 0.04 0.04 0.04 0.04 0.05 0.06 0.08 0.12 0.17 0.20 0.20 0.22 0.24 0.26 0.25 0.22 0.19 0.16 0.14 0.12 0.11 0.11 0.11 0.10 0.10 0.09 0.08 0.07 0.06 0.04 0.03
0.04 0.03 0.03 0.02 0.01 0.02 0.02 0.02 0.03 0.02 0.02 0.02 0.03 0.04 0.04 0.04 0.05 0.05 0.06 0.05 0.05 0.06 0.06 0.06 0.06 0.06 0.06 0.05 0.05 0.04 0.04 0.05 0.05 0.05 0.05 0.05 0.05 0.05 0.05 0.04 0.05 0.05 0.05 0.04
0.06 0.05 0.03 0.03 0.02 0.02 0.02 0.02 0.03 0.03 0.03 0.03 0.03 0.03 0.04 0.04 0.04 0.05 0.05 0.06 0.06 0.07 0.07 0.07 0.06 0.06 0.06 0.05 0.04 0.04 0.05 0.05 0.06 0.06 0.07 0.07 0.07 0.06 0.07 0.07 0.08 0.07 0.06 0.05
0.07 0.04 0.03 0.03 0.02 0.02 0.02 0.02 0.02 0.02 0.03 0.03 0.03 0.04 0.04 0.04 0.04 0.04 0.04 0.05 0.06 0.07 0.08 0.09 0.08 0.07 0.07 0.06 0.06 0.06 0.06 0.07 0.07 0.07 0.08 0.08 0.08 0.08 0.10 0.09 0.10 0.09 0.08 0.07
0.02 0.01 0.01 0.01 0.01 0.01 0.01 0.01 0.02 0.02 0.02 0.03 0.03 0.03 0.03 0.03 0.04 0.04 0.04 0.04 0.05 0.06 0.07 0.07 0.07 0.08 0.08 0.08 0.07 0.07 0.08 0.09 0.10 0.11 0.11 0.11 0.11 0.11 0.11 0.13 0.14 0.13 0.11 0.10
0.01 0.01 0.01 0.01 0.01 0.01 0.01 0.01 0.02 0.03 0.03 0.03 0.02 0.02 0.02 0.03 0.03 0.03 0.04 0.05 0.05 0.06 0.06 0.06 0.06 0.06 0.08 0.08 0.08 0.09 0.09 0.10 0.11 0.10 0.11 0.12 0.13 0.12 0.12 0.12 0.12 0.12 0.12 0.15
0.02 0.02 0.02 0.02 0.01 0.01 0.01 0.01 0.01 0.01 0.01 0.01 0.02 0.02 0.03 0.03 0.03 0.03 0.03 0.04 0.05 0.05 0.05 0.05 0.05 0.05 0.07 0.08 0.08 0.09 0.10 0.11 0.12 0.12 0.12 0.13 0.14 0.15 0.14 0.13 0.13 0.12 0.13 0.16
0.03 0.03 0.03 0.03 0.03 0.02 0.02 0.02 0.02 0.02 0.02 0.02 0.02 0.03 0.04 0.04 0.03 0.04 0.04 0.04 0.04 0.04 0.05 0.06 0.06 0.06 0.06 0.07 0.08 0.09 0.10 0.14 0.16 0.15 0.15 0.15 0.14 0.15 0.14 0.14 0.13 0.13 0.12 0.14
0.07 0.06 0.05 0.05 0.05 0.04 0.04 0.05 0.05 0.05 0.04 0.04 0.03 0.03 0.03 0.03 0.03 0.03 0.03 0.03 0.03 0.03 0.04 0.05 0.06 0.07 0.07 0.08 0.09 0.10 0.11 0.15 0.20 0.17 0.13 0.13 0.15 0.16 0.16 0.15 0.14 0.12 0.11 0.14
0.09 0.09 0.08 0.07 0.07 0.07 0.07 0.07 0.06 0.05 0.05 0.04 0.04 0.03 0.03 0.03 0.03 0.03 0.03 0.03 0.03 0.04 0.04 0.05 0.06 0.06 0.07 0.08 0.09 0.10 0.11 0.13 0.15 0.15 0.15 0.16 0.18 0.18 0.18 0.16 0.14 0.13 0.12 0.15
0.09 0.10 0.10 0.09 0.08 0.09 0.09 0.09 0.07 0.06 0.05 0.05 0.05 0.05 0.04 0.04 0.04 0.04 0.04 0.04 0.04 0.05 0.05 0.05 0.07 0.08 0.08 0.09 0.11 0.11 0.12 0.13 0.14 0.15 0.16 0.19 0.20 0.17 0.16 0.16 0.15 0.14 0.14 0.15
0.10 0.11 0.12 0.11 0.10 0.09 0.10 0.10 0.09 0.08 0.07 0.07 0.07 0.06 0.06 0.05 0.05 0.05 0.05 0.05 0.06 0.06 0.05 0.06 0.07 0.07 0.08 0.09 0.11 0.10 0.11 0.13 0.14 0.15 0.16 0.17 0.18 0.17 0.16 0.15 0.15 0.15 0.15 0.15
0.13 0.12 0.13 0.14 0.14 0.13 0.12 0.12 0.11 0.11 0.10 0.09 0.09 0.09 0.08 0.07 0.06 0.05 0.06 0.06 0.06 0.06 0.06 0.06 0.06 0.06 0.07 0.09 0.11 0.10 0.10 0.12 0.14 0.15 0.17 0.18 0.18 0.18 0.17 0.17 0.16 0.16 0.15 0.15
0.11 0.12 0.13 0.13 0.13 0.13 0.13 0.13 0.13 0.13 0.12 0.12 0.12 0.11 0.10 0.09 0.08 0.07 0.07 0.07 0.07 0.08 0.07 0.06 0.06 0.07 0.09 0.11 0.11 0.11 0.12 0.14 0.15 0.17 0.18 0.18 0.18 0.18 0.17 0.17 0.16 0.15 0.15 0.14
0.09 0.10 0.12 0.13 0.13 0.12 0.13 0.14 0.14 0.14 0.13 0.14 0.14 0.14 0.13 0.11 0.10 0.10 0.10 0.09 0.08 0.08 0.08 0.07 0.09 0.11 0.12 0.12 0.12 0.13 0.14 0.15 0.16 0.16 0.16 0.16 0.16 0.16 0.15 0.15 0.15 0.14 0.14 0.13
0.06 0.06 0.07 0.08 0.08 0.09 0.10 0.10 0.11 0.12 0.13 0.15 0.14 0.14 0.13 0.12 0.11 0.10 0.09 0.10 0.09 0.09 0.09 0.09 0.12 0.13 0.14 0.13 0.13 0.15 0.15 0.15 0.15 0.15 0.15 0.14 0.14 0.13 0.13 0.13 0.13 0.12 0.12 0.11
0.04 0.03 0.03 0.04 0.05 0.05 0.06 0.07 0.08 0.09 0.10 0.12 0.12 0.11 0.10 0.10 0.11 0.11 0.10 0.09 0.09 0.10 0.10 0.11 0.12 0.13 0.13 0.13 0.14 0.14 0.14 0.14 0.14 0.14 0.13 0.12 0.12 0.11 0.10 0.10 0.10 0.10 0.09 0.09
0.02 0.02 0.02 0.02 0.02 0.02 0.03 0.04 0.05 0.07 0.08 0.08 0.09 0.09 0.09 0.09 0.09 0.10 0.10 0.09 0.09 0.10 0.11 0.11 0.11 0.12 0.12 0.12 0.12 0.12 0.11 0.11 0.11 0.11 0.10 0.10 0.10 0.10 0.09 0.09 0.09 0.09 0.08 0.08
0.01 0.01 0.01 0.01 0.01 0.02 0.02 0.02 0.03 0.04 0.05 0.07 0.08 0.09 0.10 0.10 0.10 0.10 0.09 0.09 0.10 0.10 0.10 0.10 0.11 0.11 0.11 0.11 0.10 0.09 0.09 0.09 0.09 0.09 0.09 0.09 0.09 0.09 0.09 0.08 0.08 0.08 0.08 0.07

GEFSNGP_prec_meanprecacc_096.txt.gz
Total_Precipitation_Accumulation
0.54 0.44 0.51 0.46 0.35 0.45 0.69 0.56 0.39 0.18 0.11 0.10 0.11 0.15 0.16 0.13 0.08 0.05 0.04 0.03 0.02 0.03 0.04 0.04 0.04 0.06 0.08 0.10 0.10 0.12 0.14 0.14 0.15 0.15 0.15 0.16 0.16 0.14 0.11 0.09 0.09 0.09 0.09 0.10
0.59 0.34 0.34 0.34 0.25 0.33 0.41 0.33 0.27 0.16 0.13 0.10 0.14 0.20 0.22 0.16 0.11 0.07 0.05 0.03 0.02 0.03 0.04 0.05 0.05 0.06 0.08 0.11 0.13 0.14 0.16 0.15 0.15 0.15 0.15 0.14 0.13 0.11 0.10 0.10 0.11 0.13 0.14 0.17
0.63 0.34 0.34 0.31 0.21 0.26 0.30 0.23 0.20 0.20 0.14 0.10 0.15 0.22 0.26 0.20 0.12 0.07 0.05 0.04 0.03 0.03 0.03 0.04 0.04 0.08 0.13 0.16 0.15 0.17 0.17 0.15 0.15 0.16 0.17 0.15 0.15 0.17 0.21 0.25 0.26 0.29 0.31 0.33
0.55 0.46 0.49 0.28 0.17 0.18 0.20 0.17 0.14 0.13 0.08 0.09 0.14 0.15 0.17 0.17 0.14 0.09 0.05 0.03 0.02 0.02 0.03 0.03 0.04 0.08 0.15 0.21 0.24 0.27 0.29 0.25 0.21 0.22 0.27 0.31 0.35 0.39 0.45 0.53 0.57 0.59 0.60 0.57
0.39 0.33 0.22 0.12 0.10 0.12 0.15 0.13 0.07 0.07 0.05 0.05 0.06 0.13 0.15 0.13 0.14 0.11 0.06 0.04 0.03 0.03 0.03 0.04 0.05 0.08 0.13 0.22 0.28 0.33 0.37 0.39 0.39 0.41 0.48 0.53 0.60 0.65 0.67 0.73 0.73 0.69 0.66 0.61
0.27 0.19 0.08 0.05 0.03 0.04 0.08 0.11 0.04 0.03 0.03 0.03 0.03 0.08 0.12 0.15 0.18 0.18 0.14 0.08 0.05 0.05 0.06 0.08 0.10 0.14 0.21 0.29 0.38 0.44 0.49 0.54 0.55 0.57 0.60 0.62 0.63 0.63 0.61 0.61 0.58 0.51 0.46 0.40
0.20 0.15 0.02 0.01 0.01 0.01 0.05 0.08 0.03 0.04 0.04 0.03 0.04 0.04 0.05 0.09 0.15 0.17 0.19 0.18 0.17 0.16 0.18 0.20 0.22 0.29 0.38 0.45 0.53 0.58 0.59 0.63 0.64 0.61 0.58 0.54 0.47 0.41 0.37 0.33 0.29 0.26 0.23 0.20
0.08 0.11 0.04 0.02 0.01 0.02 0.02 0.01 0.01 0.02 0.03 0.04 0.03 0.03 0.03 0.05 0.09 0.11 0.15 0.19 0.23 0.27 0.27 0.28 0.33 0.40 0.47 0.53 0.55 0.52 0.46 0.42 0.39 0.34 0.30 0.27 0.23 0.20 0.18 0.17 0.15 0.13 0.11 0.09
0.04 0.05 0.03 0.02 0.02 0.01 0.02 0.02 0.02 0.02 0.03 0.03 0.04 0.04 0.04 0.04 0.04 0.05 0.06 0.08 0.12 0.17 0.20 0.20 0.22 0.24 0.26 0.25 0.23 0.20 0.16 0.14 0.13 0.12 0.11 0.11 0.11 0.10 0.09 0.09 0.08 0.08 0.07 0.07
0.04 0.03 0.03 0.02 0.01 0.02 0.02 0.02 0.03 0.02 0.02 0.02 0.03 0.04 0.04 0.04 0.05 0.05 0.06 0.05 0.05 0.06 0.06 0.06 0.06 0.06 0.06 0.06 0.06 0.06 0.06 0.06 0.06 0.07 0.07 0.07 0.06 0.06 0.06 0.06 0.06 0.07 0.07 0.07
0.06 0.05 0.03 0.03 0.02 0.02 0.02 0.02 0.03 0.03 0.03 0.03 0.03 0.03 0.04 0.04 0.04 0.05 0.05 0.06 0.06 0.07 0.07 0.07 0.07 0.06 0.06 0.06 0.06 0.06 0.06 0.07 0.08 0.09 0.09 0.09 0.10 0.10 0.11 0.10 0.11 0.11 0.10 0.10
0.07 0.04 0.03 0.03 0.02 0.02 0.02 0.02 0.02 0.02 0.03 0.03 0.03 0.04 0.04 0.04 0.04 0.04 0.04 0.05 0.06 0.07 0.09 0.09 0.08 0.08 0.08 0.07 0.07 0.08 0.08 0.09 0.09 0.10 0.11 0.11 0.12 0.12 0.13 0.13 0.14 0.14 0.13 0.12
0.02 0.01 0.01 0.01 0.01 0.01 0.01 0.01 0.02 0.02 0.02 0.03 0.03 0.03 0.03 0.03 0.04 0.04 0.04 0.04 0.05 0.06 0.07 0.08 0.08 0.08 0.09 0.09 0.09 0.10 0.11 0.12 0.13 0.14 0.14 0.15 0.15 0.15 0.15 0.17 0.19 0.18 0.16 0.15
0.01 0.01 0.01 0.01 0.01 0.01 0.01 0.01 0.02 0.03 0.03 0.03 0.02 0.02 0.02 0.03 0.03 0.03 0.04 0.05 0.05 0.06 0.06 0.06 0.06 0.07 0.08 0.09 0.10 0.11 0.12 0.13 0.14 0.14 0.15 0.16 0.17 0.16 0.16 0.16 0.17 0.16 0.17 0.21
0.02 0.02 0.02 0.02 0.01 0.01 0.01 0.01 0.01 0.01 0.01 0.01 0.02 0.02 0.03 0.03 0.03 0.03 0.03 0.04 0.05 0.05 0.05 0.05 0.05 0.06 0.07 0.08 0.09 0.10 0.12 0.13 0.14 0.14 0.14 0.15 0.17 0.18 0.17 0.17 0.16 0.16 0.17 0.21
0.03 0.03 0.03 0.03 0.03 0.02 0.02 0.02 0.02 0.02 0.02 0.02 0.02 0.03 0.04 0.04 0.03 0.04 0.04 0.04 0.04 0.04 0.05 0.06 0.06 0.06 0.07 0.07 0.08 0.09 0.11 0.16 0.18 0.17 0.17 0.16 0.16 0.17 0.17 0.17 0.16 0.16 0.16 0.18
0.07 0.06 0.05 0.05 0.05 0.04 0.04 0.05 0.05 0.05 0.04 0.04 0.03 0.03 0.03 0.03 0.03 0.03 0.03 0.03 0.03 0.03 0.04 0.05 0.06 0.07 0.07 0.08 0.09 0.10 0.12 0.16 0.21 0.18 0.15 0.15 0.17 0.18 0.18 0.18 0.17 0.15 0.14 0.18
0.09 0.09 0.08 0.07 0.07 0.07 0.07 0.07 0.06 0.05 0.05 0.04 0.04 0.03 0.03 0.03 0.03 0.03 0.03 0.03 0.03 0.04 0.04 0.05 0.06 0.06 0.07 0.08 0.09 0.10 0.12 0.13 0.15 0.15 0.16 0.18 0.20 0.20 0.20 0.19 0.17 0.16 0.15 0.19
0.09 0.10 0.10 0.09 0.08 0.09 0.09 0.09 0.07 0.06 0.05 0.05 0.05 0.05 0.04 0.04 0.04 0.04 0.04 0.04 0.04 0.05 0.05 0.05 0.07 0.08 0.08 0.09 0.12 0.11 0.12 0.14 0.15 0.15 0.16 0.19 0.21 0.18 0.18 0.18 0.17 0.17 0.16 0.18
0.10 0.11 0.12 0.11 0.10 0.09 0.10 0.10 0.09 0.08 0.07 0.07 0.07 0.06 0.06 0.05 0.05 0.05 0.05 0.05 0.06 0.06 0.05 0.06 0.07 0.07 0.08 0.09 0.12 0.11 0.11 0.13 0.14 0.16 0.17 0.18 0.19 0.18 0.17 0.18 0.18 0.18 0.18 0.18
0.13 0.12 0.13 0.14 0.14 0.13 0.12 0.12 0.11 0.11 0.10 0.09 0.09 0.09 0.08 0.07 0.06 0.05 0.06 0.06 0.06 0.06 0.06 0.07 0.06 0.06 0.07 0.09 0.11 0.11 0.11 0.13 0.15 0.16 0.18 0.19 0.20 0.19 0.19 0.19 0.19 0.19 0.19 0.19
0.11 0.12 0.13 0.13 0.13 0.13 0.13 0.13 0.13 0.13 0.12 0.12 0.12 0.11 0.10 0.09 0.08 0.07 0.07 0.07 0.07 0.08 0.08 0.07 0.06 0.08 0.10 0.12 0.12 0.12 0.13 0.14 0.16 0.18 0.19 0.20 0.20 0.19 0.18 0.19 0.19 0.19 0.19 0.19
0.09 0.10 0.12 0.13 0.13 0.12 0.13 0.14 0.14 0.14 0.13 0.14 0.14 0.14 0.13 0.11 0.10 0.10 0.10 0.09 0.08 0.08 0.08 0.07 0.09 0.12 0.13 0.13 0.13 0.14 0.15 0.16 0.17 0.18 0.18 0.18 0.18 0.17 0.17 0.17 0.17 0.17 0.18 0.17
0.06 0.06 0.07 0.08 0.08 0.09 0.10 0.10 0.11 0.12 0.13 0.15 0.14 0.14 0.13 0.12 0.11 0.10 0.09 0.10 0.09 0.09 0.09 0.10 0.13 0.14 0.15 0.14 0.14 0.16 0.16 0.17 0.17 0.16 0.16 0.15 0.15 0.15 0.15 0.15 0.15 0.15 0.15 0.14
0.04 0.03 0.03 0.04 0.05 0.05 0.06 0.07 0.08 0.09 0.10 0.12 0.12 0.11 0.10 0.10 0.11 0.11 0.10 0.09 0.09 0.10 0.10 0.11 0.12 0.13 0.14 0.14 0.15 0.15 0.15 0.15 0.16 0.16 0.15 0.14 0.13 0.13 0.12 0.12 0.12 0.12 0.12 0.12
0.02 0.02 0.02 0.02 0.02 0.02 0.03 0.04 0.05 0.07 0.08 0.08 0.09 0.09 0.09 0.09 0.09 0.10 0.10 0.09 0.09 0.11 0.11 0.11 0.11 0.12 0.13 0.13 0.13 0.13 0.12 0.12 0.12 0.12 0.12 0.12 0.11 0.11 0.11 0.10 0.10 0.10 0.10 0.10
0.01 0.01 0.01 0.01 0.01 0.02 0.02 0.02 0.03 0.04 0.05 0.07 0.08 0.09 0.10 0.10 0.10 0.10 0.09 0.09 0.10 0.11 0.10 0.10 0.11 0.12 0.12 0.12 0.11 0.10 0.10 0.10 0.10 0.10 0.10 0.10 0.10 0.11 0.10 0.10 0.10 0.10 0.10 0.09

GEFSNGP_prec_meanprecacc_102.txt.gz
Total_Precipitation_Accumulation
0.54 0.45 0.51 0.47 0.36 0.46 0.69 0.56 0.41 0.23 0.17 0.18 0.19 0.22 0.23 0.18 0.12 0.08 0.07 0.06 0.04 0.05 0.07 0.07 0.07 0.09 0.11 0.13 0.12 0.14 0.17 0.17 0.18 0.19 0.20 0.21 0.21 0.20 0.18 0.18 0.19 0.21 0.21 0.21
0.60 0.34 0.35 0.35 0.26 0.33 0.41 0.34 0.28 0.18 0.17 0.14 0.17 0.23 0.25 0.18 0.12 0.07 0.06 0.04 0.03 0.03 0.05 0.06 0.06 0.07 0.09 0.12 0.13 0.15 0.17 0.16 0.16 0.17 0.17 0.16 0.16 0.15 0.14 0.14 0.15 0.19 0.23 0.26
0.63 0.34 0.34 0.32 0.21 0.26 0.30 0.24 0.21 0.21 0.16 0.11 0.16 0.23 0.27 0.20 0.12 0.07 0.05 0.04 0.04 0.04 0.03 0.04 0.04 0.08 0.13 0.16 0.15 0.17 0.17 0.15 0.15 0.16 0.18 0.17 0.17 0.20 0.25 0.28 0.29 0.33 0.36 0.39
0.56 0.46 0.49 0.29 0.17 0.18 0.20 0.17 0.14 0.13 0.08 0.09 0.14 0.16 0.17 0.17 0.14 0.09 0.05 0.03 0.03 0.02 0.03 0.03 0.04 0.08 0.15 0.21 0.24 0.27 0.29 0.25 0.21 0.22 0.27 0.32 0.36 0.41 0.48 0.56 0.60 0.63 0.64 0.62
0.39 0.33 0.22 0.12 0.10 0.12 0.15 0.13 0.07 0.07 0.05 0.05 0.06 0.13 0.15 0.13 0.14 0.11 0.06 0.04 0.03 0.03 0.03 0.04 0.05 0.08 0.13 0.22 0.28 0.33 0.37 0.39 0.39 0.41 0.48 0.53 0.61 0.67 0.69 0.76 0.76 0.73 0.71 0.67
0.27 0.20 0.08 0.05 0.03 0.04 0.08 0.11 0.04 0.03 0.03 0.03 0.03 0.08 0.12 0.15 0.18 0.18 0.14 0.08 0.05 0.05 0.06 0.08 0.10 0.14 0.21 0.29 0.38 0.44 0.49 0.54 0.56 0.57 0.60 0.62 0.63 0.63 0.62 0.62 0.60 0.54 0.49 0.44
0.20 0.15 0.02 0.01 0.01 0.01 0.05 0.08 0.03 0.04 0.04 0.03 0.04 0.04 0.05 0.09 0.15 0.17 0.19 0.18 0.17 0.16 0.18 0.20 0.22 0.29 0.38 0.45 0.53 0.58 0.59 0.63 0.64 0.61 0.58 0.54 0.47 0.41 0.37 0.34 0.30 0.27 0.25 0.22
0.08 0.11 0.04 0.02 0.01 0.02 0.02 0.01 0.01 0.02 0.03 0.04 0.03 0.03 0.03 0.05 0.09 0.11 0.15 0.19 0.23 0.27 0.27 0.28 0.33 0.40 0.47 0.53 0.55 0.52 0.46 0.43 0.39 0.34 0.30 0.27 0.23 0.21 0.19 0.17 0.16 0.14 0.12 0.11
0.04 0.05 0.03 0.02 0.02 0.01 0.02 0.02 0.02 0.02 0.03 0.03 0.04 0.04 0.04 0.04 0.04 0.05 0.06 0.08 0.12 0.17 0.20 0.20 0.22 0.24 0.26 0.25 0.23 0.20 0.16 0.14 0.13 0.12 0.11 0.11 0.11 0.10 0.10 0.10 0.09 0.09 0.09 0.08
0.04 0.03 0.03 0.02 0.01 0.02 0.02 0.02 0.03 0.02 0.02 0.02 0.03 0.04 0.04 0.04 0.05 0.05 0.06 0.05 0.05 0.06 0.06 0.06 0.06 0.06 0.06 0.06 0.06 0.06 0.06 0.06 0.07 0.07 0.07 0.07 0.07 0.07 0.07 0.07 0.08 0.08 0.09 0.09
0.06 0.05 0.03 0.03 0.02 0.02 0.02 0.02 0.03 0.03 0.03 0.03 0.03 0.03 0.04 0.04 0.04 0.05 0.05 0.06 0.06 0.07 0.07 0.07 0.07 0.06 0.06 0.06 0.06 0.06 0.06 0.07 0.08 0.09 0.10 0.10 0.11 0.11 0.12 0.12 0.12 0.13 0.12 0.12
0.07 0.04 0.03 0.03 0.02 0.02 0.02 0.02 0.02 0.02 0.03 0.03 0.03 0.04 0.04 0.04 0.04 0.04 0.04 0.05 0.06 0.07 0.09 0.09 0.08 0.08 0.08 0.08 0.08 0.08 0.09 0.09 0.10 0.11 0.12 0.12 0.13 0.13 0.15 0.15 0.16 0.17 0.16 0.15
0.02 0.01 0.01 0.01 0.01 0.01 0.01 0.01 0.02 0.02 0.02 0.03 0.03 0.03 0.03 0.03 0.04 0.04 0.04 0.04 0.05 0.06 0.07 0.08 0.08 0.08 0.09 0.09 0.10 0.10 0.11 0.13 0.14 0.15 0.15 0.16 0.16 0.17 0.17 0.19 0.21 0.20 0.19 0.18
0.01 0.01 0.01 0.01 0.01 0.01 0.01 0.01 0.02 0.03 0.03 0.03 0.02 0.02 0.02 0.03 0.03 0.03 0.04 0.05 0.05 0.06 0.06 0.06 0.06 0.07 0.08 0.09 0.10 0.11 0.12 0.14 0.15 0.15 0.16 0.18 0.18 0.18 0.18 0.19 0.19 0.18 0.19 0.24
0.02 0.02 0.02 0.02 0.01 0.01 0.01 0.01 0.01 0.01 0.01 0.01 0.02 0.02 0.03 0.03 0.03 0.03 0.03 0.04 0.05 0.05 0.05 0.05 0.05 0.06 0.07 0.08 0.09 0.10 0.12 0.13 0.15 0.15 0.16 0.18 0.19 0.20 0.20 0.19 0.19 0.19 0.20 0.24
0.03 0.03 0.03 0.03 0.03 0.02 0.02 0.02 0.02 0.02 0.02 0.02 0.02 0.03 0.04 0.04 0.03 0.04 0.04 0.04 0.04 0.04 0.05 0.06 0.06 0.06 0.07 0.07 0.08 0.10 0.11 0.16 0.19 0.18 0.18 0.18 0.18 0.19 0.19 0.19 0.18 0.18 0.19 0.21
0.07 0.06 0.05 0.05 0.05 0.04 0.04 0.05 0.05 0.05 0.04 0.04 0.03 0.03 0.03 0.03 0.03 0.03 0.03 0.03 0.03 0.03 0.04 0.05 0.06 0.07 0.07 0.08 0.09 0.10 0.12 0.16 0.21 0.19 0.16 0.17 0.19 0.20 0.20 0.20 0.19 0.18 0.16 0.20
0.09 0.09 0.08 0.07 0.07 0.07 0.07 0.07 0.06 0.05 0.05 0.04 0.04 0.03 0.03 0.03 0.03 0.03 0.03 0.03 0.03 0.04 0.04 0.05 0.06 0.06 0.07 0.08 0.09 0.11 0.12 0.14 0.16 0.16 0.17 0.19 0.21 0.22 0.22 0.21 0.19 0.18 0.17 0.20
0.09 0.10 0.10 0.09 0.08 0.09 0.09 0.09 0.07 0.06 0.05 0.05 0.05 0.05 0.04 0.04 0.04 0.04 0.04 0.04 0.04 0.05 0.05 0.05 0.08 0.08 0.08 0.09 0.12 0.12 0.13 0.14 0.15 0.16 0.17 0.21 0.23 0.20 0.19 0.20 0.19 0.19 0.18 0.20
0.10 0.11 0.12 0.11 0.10 0.09 0.10 0.10 0.09 0.08 0.07 0.07 0.07 0.06 0.06 0.05 0.05 0.05 0.05 0.05 0.06 0.06 0.06 0.06 0.07 0.07 0.08 0.09 0.12 0.11 0.12 0.14 0.15 0.16 0.18 0.19 0.20 0.19 0.19 0.19 0.20 0.20 0.20 0.20
0.13 0.12 0.13 0.14 0.14 0.13 0.12 0.12 0.11 0.11 0.10 0.09 0.09 0.09 0.08 0.07 0.06 0.05 0.06 0.06 0.06 0.06 0.06 0.07 0.06 0.06 0.08 0.10 0.12 0.11 0.12 0.14 0.16 0.17 0.19 0.20 0.21 0.21 0.20 0.20 0.20 0.21 0.21 0.21
0.11 0.12 0.13 0.13 0.13 0.13 0.13 0.13 0.13 0.13 0.12 0.12 0.12 0.11 0.10 0.09 0.08 0.07 0.07 0.07 0.07 0.08 0.08 0.07 0.06 0.08 0.11 0.13 0.13 0.12 0.13 0.15 0.17 0.19 0.21 0.21 0.22 0.21 0.20 0.20 0.21 0.20 0.20 0.21
0.09 0.10 0.12 0.13 0.13 0.12 0.13 0.14 0.14 0.14 0.13 0.14 0.14 0.14 0.13 0.11 0.10 0.10 0.10 0.09 0.08 0.08 0.08 0.07 0.09 0.12 0.14 0.14 0.13 0.14 0.16 0.17 0.18 0.19 0.19 0.19 0.19 0.19 0.19 0.19 0.18 0.18 0.19 0.19
0.06 0.07 0.07 0.08 0.08 0.09 0.10 0.10 0.11 0.12 0.13 0.15 0.14 0.14 0.13 0.12 0.11 0.10 0.09 0.10 0.09 0.10 0.09 0.10 0.13 0.15 0.15 0.15 0.14 0.16 0.17 0.17 0.18 0.18 0.17 0.17 0.16 0.16 0.16 0.16 0.16 0.16 0.16 0.16
0.04 0.03 0.03 0.04 0.05 0.05 0.06 0.07 0.08 0.09 0.10 0.12 0.12 0.11 0.10 0.10 0.11 0.11 0.10 0.09 0.09 0.10 0.10 0.11 0.12 0.13 0.14 0.14 0.15 0.16 0.16 0.16 0.17 0.17 0.16 0.15 0.14 0.14 0.13 0.13 0.14 0.13 0.13 0.13
0.02 0.02 0.02 0.02 0.02 0.02 0.03 0.04 0.05 0.07 0.08 0.08 0.09 0.09 0.09 0.09 0.09 0.10 0.10 0.09 0.09 0.11 0.11 0.11 0.11 0.12 0.13 0.13 0.14 0.13 0.13 0.13 0.13 0.13 0.13 0.13 0.13 0.13 0.12 0.12 0.12 0.12 0.12 0.11
0.01 0.01 0.01 0.01 0.01 0.02 0.02 0.02 0.03 0.04 0.05 0.07 0.08 0.09 0.10 0.10 0.10 0.10 0.09 0.09 0.10 0.11 0.10 0.10 0.11 0.12 0.12 0.12 0.11 0.11 0.10 0.11 0.11 0.11 0.11 0.11 0.12 0.12 0.12 0.12 0.12 0.11 0.11 0.11

GEFSNGP_prec_meanprecacc_108.txt.gz
Total_Precipitation_Accumulation
0.56 0.47 0.53 0.50 0.39 0.48 0.70 0.57 0.43 0.28 0.25 0.28 0.28 0.31 0.31 0.25 0.20 0.14 0.13 0.11 0.10 0.11 0.13 0.13 0.14 0.16 0.19 0.22 0.24 0.26 0.28 0.29 0.30 0.31 0.33 0.35 0.34 0.34 0.34 0.35 0.36 0.38 0.38 0.38
0.60 0.35 0.36 0.37 0.29 0.35 0.43 0.35 0.29 0.21 0.22 0.19 0.21 0.26 0.27 0.20 0.13 0.09 0.08 0.06 0.05 0.06 0.08 0.09 0.09 0.10 0.12 0.16 0.18 0.20 0.22 0.22 0.22 0.23 0.23 0.24 0.24 0.24 0.24 0.26 0.30 0.34 0.38 0.42
0.63 0.34 0.35 0.34 0.24 0.28 0.32 0.26 0.22 0.22 0.18 0.13 0.17 0.23 0.27 0.20 0.12 0.07 0.05 0.05 0.04 0.04 0.04 0.05 0.06 0.09 0.14 0.17 0.17 0.18 0.19 0.17 0.17 0.19 0.21 0.20 0.20 0.24 0.29 0.33 0.37 0.42 0.46 0.50
0.56 0.47 0.50 0.31 0.19 0.19 0.22 0.18 0.15 0.13 0.09 0.09 0.14 0.16 0.17 0.17 0.14 0.09 0.05 0.03 0.03 0.02 0.03 0.03 0.05 0.09 0.15 0.22 0.24 0.28 0.30 0.26 0.22 0.23 0.28 0.33 0.38 0.42 0.50 0.58 0.62 0.66 0.69 0.69
0.39 0.33 0.23 0.13 0.11 0.12 0.16 0.14 0.08 0.07 0.05 0.05 0.06 0.13 0.15 0.13 0.14 0.11 0.06 0.04 0.03 0.03 0.03 0.04 0.05 0.08 0.13 0.22 0.29 0.34 0.37 0.40 0.39 0.42 0.48 0.53 0.61 0.67 0.69 0.76 0.77 0.74 0.73 0.70
0.27 0.20 0.09 0.06 0.03 0.04 0.08 0.11 0.04 0.03 0.03 0.03 0.03 0.08 0.12 0.15 0.18 0.18 0.14 0.08 0.05 0.05 0.06 0.08 0.10 0.14 0.21 0.29 0.38 0.44 0.49 0.54 0.56 0.57 0.60 0.62 0.63 0.63 0.62 0.62 0.60 0.54 0.50 0.45
0.20 0.15 0.02 0.01 0.01 0.01 0.05 0.08 0.03 0.04 0.04 0.03 0.04 0.04 0.05 0.09 0.15 0.17 0.19 0.18 0.17 0.16 0.18 0.20 0.22 0.29 0.38 0.45 0.53 0.58 0.59 0.63 0.64 0.61 0.58 0.54 0.47 0.41 0.37 0.34 0.31 0.27 0.25 0.23
0.08 0.11 0.04 0.02 0.01 0.02 0.02 0.01 0.01 0.02 0.03 0.04 0.03 0.03 0.03 0.05 0.09 0.11 0.15 0.19 0.23 0.27 0.27 0.28 0.33 0.40 0.47 0.53 0.55 0.52 0.46 0.43 0.39 0.34 0.30 0.27 0.23 0.21 0.19 0.17 0.16 0.15 0.13 0.11
0.04 0.05 0.03 0.02 0.02 0.01 0.02 0.02 0.02 0.02 0.03 0.03 0.04 0.04 0.04 0.04 0.04 0.05 0.06 0.08 0.12 0.17 0.20 0.20 0.22 0.24 0.26 0.25 0.23 0.20 0.16 0.14 0.13 0.12 0.11 0.11 0.11 0.11 0.10 0.10 0.10 0.09 0.09 0.09
0.04 0.03 0.03 0.02 0.01 0.02 0.02 0.02 0.03 0.02 0.02 0.02 0.03 0.04 0.04 0.04 0.05 0.05 0.06 0.05 0.05 0.06 0.06 0.06 0.06 0.06 0.06 0.06 0.06 0.06 0.06 0.06 0.07 0.07 0.07 0.07 0.07 0.07 0.07 0.07 0.08 0.09 0.10 0.10
0.06 0.05 0.03 0.03 0.02 0.02 0.02 0.02 0.03 0.03 0.03 0.03 0.03 0.03 0.04 0.04 0.04 0.05 0.05 0.06 0.06 0.07 0.07 0.07 0.07 0.06 0.06 0.06 0.06 0.06 0.06 0.07 0.08 0.09 0.10 0.11 0.11 0.11 0.12 0.12 0.13 0.14 0.13 0.13
0.07 0.04 0.03 0.03 0.02 0.02 0.02 0.02 0.02 0.02 0.03 0.03 0.03 0.04 0.04 0.04 0.04 0.04 0.04 0.05 0.06 0.07 0.09 0.09 0.08 0.08 0.08 0.08 0.08 0.08 0.09 0.09 0.10 0.11 0.12 0.12 0.13 0.13 0.15 0.15 0.17 0.18 0.17 0.17
0.02 0.01 0.01 0.01 0.01 0.01 0.01 0.01 0.02 0.02 0.02 0.03 0.03 0.03 0.03 0.03 0.04 0.04 0.04 0.04 0.05 0.06 0.07 0.08 0.08 0.08 0.09 0.09 0.10 0.10 0.11 0.13 0.14 0.15 0.15 0.16 0.17 0.17 0.17 0.19 0.21 0.21 0.20 0.20
0.01 0.01 0.01 0.01 0.01 0.01 0.01 0.01 0.02 0.03 0.03 0.03 0.02 0.02 0.02 0.03 0.03 0.03 0.04 0.05 0.05 0.06 0.06 0.06 0.06 0.07 0.08 0.09 0.10 0.11 0.12 0.14 0.16 0.15 0.16 0.18 0.19 0.19 0.19 0.20 0.19 0.18 0.20 0.25
0.02 0.02 0.02 0.02 0.01 0.01 0.01 0.01 0.01 0.01 0.01 0.01 0.02 0.02 0.03 0.03 0.03 0.03 0.03 0.04 0.05 0.05 0.05 0.05 0.05 0.06 0.07 0.08 0.09 0.10 0.12 0.13 0.15 0.15 0.16 0.18 0.19 0.20 0.20 0.20 0.20 0.19 0.21 0.24
0.03 0.03 0.03 0.03 0.03 0.02 0.02 0.02 0.02 0.02 0.02 0.02 0.02 0.03 0.04 0.04 0.03 0.04 0.04 0.04 0.04 0.04 0.05 0.06 0.06 0.06 0.07 0.07 0.08 0.10 0.11 0.16 0.19 0.18 0.18 0.18 0.19 0.20 0.20 0.20 0.19 0.19 0.19 0.22
0.07 0.06 0.05 0.05 0.05 0.04 0.04 0.05 0.05 0.05 0.04 0.04 0.03 0.03 0.03 0.03 0.03 0.03 0.03 0.03 0.03 0.03 0.04 0.05 0.06 0.07 0.07 0.08 0.09 0.10 0.12 0.16 0.21 0.19 0.16 0.17 0.19 0.21 0.22 0.22 0.21 0.19 0.17 0.21
0.09 0.09 0.08 0.07 0.07 0.07 0.07 0.07 0.06 0.05 0.05 0.04 0.04 0.03 0.03 0.03 0.03 0.03 0.03 0.03 0.03 0.04 0.04 0.05 0.06 0.06 0.07 0.08 0.09 0.11 0.12 0.14 0.16 0.16 0.17 0.19 0.22 0.23 0.23 0.22 0.21 0.20 0.18 0.21
0.09 0.10 0.10 0.09 0.08 0.09 0.09 0.09 0.07 0.06 0.05 0.05 0.05 0.05 0.04 0.04 0.04 0.04 0.04 0.04 0.04 0.05 0.05 0.05 0.08 0.08 0.08 0.09 0.12 0.12 0.13 0.15 0.16 0.16 0.17 0.21 0.23 0.20 0.20 0.21 0.21 0.20 0.20 0.21
0.10 0.11 0.12 0.11 0.10 0.09 0.10 0.10 0.09 0.08 0.07 0.07 0.07 0.06 0.06 0.05 0.05 0.05 0.05 0.05 0.06 0.06 0.06 0.06 0.07 0.07 0.08 0.09 0.12 0.12 0.12 0.14 0.15 0.16 0.18 0.20 0.21 0.20 0.19 0.20 0.21 0.21 0.21 0.22
0.13 0.12 0.13 0.14 0.14 0.13 0.12 0.12 0.11 0.11 0.10 0.09 0.09 0.09 0.08 0.07 0.06 0.05 0.06 0.06 0.06 0.06 0.06 0.07 0.06 0.06 0.08 0.11 0.13 0.12 0.12 0.14 0.16 0.18 0.20 0.21 0.22 0.21 0.21 0.21 0.21 0.22 0.22 0.22
0.11 0.12 0.13 0.13 0.13 0.13 0.13 0.13 0.13 0.13 0.12 0.12 0.12 0.11 0.10 0.09 0.08 0.07 0.07 0.07 0.07 0.08 0.08 0.07 0.06 0.08 0.11 0.13 0.13 0.12 0.13 0.15 0.17 0.20 0.21 0.22 0.22 0.22 0.21 0.21 0.22 0.21 0.21 0.22
0.09 0.10 0.12 0.13 0.13 0.12 0.13 0.14 0.14 0.14 0.13 0.14 0.14 0.14 0.13 0.11 0.10 0.10 0.10 0.09 0.08 0.08 0.08 0.07 0.10 0.13 0.15 0.14 0.13 0.14 0.16 0.17 0.18 0.19 0.20 0.20 0.20 0.20 0.20 0.20 0.19 0.20 0.20 0.20
0.07 0.07 0.07 0.08 0.08 0.09 0.10 0.10 0.11 0.12 0.13 0.15 0.14 0.14 0.13 0.12 0.11 0.10 0.09 0.10 0.09 0.10 0.09 0.10 0.13 0.15 0.16 0.15 0.14 0.16 0.17 0.18 0.18 0.18 0.18 0.17 0.17 0.17 0.17 0.17 0.17 0.17 0.17 0.17
0.04 0.04 0.04 0.04 0.05 0.05 0.06 0.07 0.08 0.09 0.10 0.12 0.12 0.11 0.10 0.10 0.11 0.11 0.10 0.09 0.09 0.10 0.10 0.11 0.12 0.13 0.14 0.14 0.15 0.16 0.16 0.16 0.17 0.18 0.17 0.16 0.15 0.15 0.14 0.14 0.15 0.15 0.14 0.14
0.02 0.02 0.02 0.02 0.02 0.02 0.03 0.04 0.05 0.07 0.08 0.09 0.10 0.09 0.09 0.09 0.09 0.10 0.10 0.09 0.09 0.11 0.11 0.11 0.11 0.12 0.13 0.13 0.14 0.13 0.13 0.13 0.13 0.14 0.13 0.13 0.13 0.14 0.13 0.13 0.13 0.13 0.13 0.13
0.02 0.02 0.02 0.01 0.01 0.02 0.02 0.02 0.03 0.04 0.05 0.07 0.08 0.09 0.10 0.10 0.10 0.10 0.09 0.09 0.10 0.11 0.10 0.10 0.11 0.12 0.12 0.12 0.12 0.11 0.11 0.11 0.11 0.11 0.11 0.12 0.12 0.13 0.13 0.13 0.13 0.13 0.12 0.12

GEFSNGP_prec_meanprecacc_114.txt.gz
Total_Precipitation_Accumulation
0.58 0.49 0.55 0.52 0.40 0.48 0.70 0.57 0.45 0.32 0.30 0.33 0.32 0.34 0.34 0.29 0.23 0.18 0.16 0.15 0.15 0.15 0.16 0.17 0.19 0.23 0.26 0.30 0.33 0.37 0.39 0.40 0.40 0.40 0.43 0.45 0.44 0.43 0.43 0.44 0.44 0.44 0.45 0.46
0.61 0.36 0.37 0.38 0.30 0.36 0.44 0.36 0.30 0.23 0.26 0.23 0.24 0.28 0.30 0.23 0.16 0.11 0.10 0.09 0.08 0.08 0.10 0.12 0.12 0.14 0.18 0.24 0.28 0.30 0.33 0.35 0.37 0.36 0.36 0.36 0.36 0.35 0.34 0.35 0.37 0.40 0.43 0.48
0.64 0.34 0.35 0.36 0.26 0.29 0.34 0.26 0.22 0.24 0.20 0.15 0.18 0.24 0.29 0.22 0.13 0.08 0.07 0.06 0.05 0.05 0.06 0.06 0.08 0.12 0.18 0.22 0.22 0.24 0.25 0.24 0.25 0.27 0.29 0.29 0.30 0.33 0.38 0.42 0.44 0.49 0.52 0.56
0.56 0.47 0.51 0.33 0.21 0.20 0.23 0.19 0.15 0.14 0.10 0.10 0.15 0.16 0.17 0.18 0.15 0.09 0.05 0.04 0.03 0.03 0.03 0.04 0.06 0.10 0.17 0.24 0.26 0.29 0.32 0.29 0.25 0.26 0.31 0.36 0.42 0.47 0.55 0.62 0.66 0.70 0.74 0.75
0.39 0.34 0.24 0.14 0.12 0.13 0.16 0.15 0.09 0.07 0.06 0.05 0.06 0.13 0.15 0.13 0.14 0.12 0.06 0.04 0.03 0.03 0.03 0.04 0.06 0.08 0.14 0.22 0.29 0.34 0.38 0.40 0.40 0.42 0.49 0.54 0.63 0.70 0.71 0.78 0.78 0.76 0.74 0.72
0.27 0.20 0.09 0.07 0.04 0.04 0.08 0.12 0.05 0.04 0.04 0.03 0.03 0.08 0.12 0.15 0.18 0.18 0.14 0.08 0.05 0.05 0.06 0.08 0.10 0.14 0.21 0.29 0.38 0.45 0.49 0.55 0.56 0.57 0.61 0.62 0.63 0.64 0.63 0.63 0.60 0.54 0.50 0.46
0.20 0.15 0.03 0.02 0.01 0.01 0.05 0.08 0.03 0.04 0.04 0.03 0.04 0.04 0.05 0.09 0.15 0.18 0.19 0.19 0.17 0.16 0.18 0.20 0.22 0.29 0.38 0.45 0.53 0.58 0.59 0.63 0.64 0.61 0.58 0.54 0.47 0.41 0.37 0.34 0.31 0.27 0.25 0.24
0.08 0.11 0.04 0.02 0.01 0.02 0.02 0.01 0.01 0.02 0.03 0.04 0.03 0.03 0.03 0.05 0.09 0.11 0.15 0.19 0.23 0.27 0.27 0.28 0.33 0.40 0.47 0.53 0.55 0.52 0.46 0.43 0.39 0.34 0.30 0.27 0.23 0.21 0.19 0.17 0.16 0.15 0.13 0.12
0.04 0.05 0.03 0.02 0.02 0.01 0.02 0.02 0.02 0.02 0.03 0.03 0.04 0.04 0.04 0.04 0.04 0.05 0.06 0.08 0.12 0.17 0.20 0.20 0.22 0.24 0.26 0.25 0.23 0.20 0.16 0.14 0.13 0.12 0.11 0.11 0.11 0.11 0.10 0.10 0.10 0.09 0.09 0.09
0.04 0.03 0.03 0.02 0.01 0.02 0.02 0.02 0.03 0.02 0.02 0.02 0.03 0.04 0.04 0.04 0.05 0.05 0.06 0.05 0.05 0.06 0.06 0.06 0.06 0.06 0.06 0.06 0.06 0.06 0.06 0.06 0.07 0.07 0.07 0.07 0.07 0.07 0.07 0.08 0.08 0.09 0.10 0.10
0.06 0.05 0.03 0.03 0.02 0.02 0.02 0.02 0.03 0.03 0.03 0.03 0.03 0.03 0.04 0.04 0.04 0.05 0.05 0.06 0.06 0.07 0.07 0.07 0.07 0.06 0.06 0.06 0.06 0.06 0.06 0.07 0.08 0.09 0.10 0.11 0.11 0.11 0.12 0.12 0.14 0.15 0.14 0.14
0.07 0.04 0.03 0.03 0.02 0.02 0.02 0.02 0.02 0.02 0.03 0.03 0.03 0.04 0.04 0.04 0.04 0.04 0.04 0.05 0.06 0.07 0.09 0.09 0.08 0.08 0.08 0.08 0.08 0.08 0.09 0.09 0.10 0.11 0.12 0.12 0.13 0.13 0.15 0.15 0.17 0.18 0.17 0.17
0.02 0.01 0.01 0.01 0.01 0.01 0.01 0.01 0.02 0.02 0.02 0.03 0.03 0.03 0.03 0.03 0.04 0.04 0.04 0.04 0.05 0.06 0.07 0.08 0.08 0.08 0.09 0.09 0.10 0.10 0.11 0.13 0.14 0.15 0.15 0.16 0.17 0.17 0.17 0.19 0.21 0.21 0.20 0.20
0.01 0.01 0.01 0.01 0.01 0.01 0.01 0.01 0.02 0.03 0.03 0.03 0.02 0.02 0.02 0.03 0.03 0.03 0.04 0.05 0.05 0.06 0.06 0.06 0.06 0.07 0.08 0.09 0.10 0.11 0.12 0.14 0.16 0.15 0.16 0.18 0.19 0.19 0.19 0.20 0.20 0.18 0.20 0.25
0.02 0.02 0.02 0.02 0.01 0.01 0.01 0.01 0.01 0.01 0.01 0.01 0.02 0.02 0.03 0.03 0.03 0.03 0.03 0.04 0.05 0.05 0.05 0.05 0.05 0.06 0.07 0.08 0.09 0.10 0.12 0.13 0.15 0.15 0.16 0.18 0.19 0.21 0.20 0.20 0.20 0.20 0.21 0.24
0.03 0.03 0.03 0.03 0.03 0.02 0.02 0.02 0.02 0.02 0.02 0.02 0.02 0.03 0.04 0.04 0.03 0.04 0.04 0.04 0.04 0.04 0.05 0.06 0.06 0.06 0.07 0.07 0.08 0.10 0.11 0.16 0.19 0.18 0.18 0.18 0.19 0.20 0.20 0.20 0.20 0.19 0.20 0.22
0.07 0.06 0.05 0.05 0.05 0.04 0.04 0.05 0.05 0.05 0.04 0.04 0.03 0.03 0.03 0.03 0.03 0.03 0.03 0.03 0.03 0.03 0.04 0.05 0.06 0.07 0.07 0.08 0.09 0.10 0.12 0.16 0.21 0.19 0.16 0.17 0.19 0.21 0.22 0.22 0.21 0.19 0.17 0.22
0.09 0.09 0.08 0.07 0.07 0.07 0.07 0.07 0.06 0.05 0.05 0.04 0.04 0.03 0.03 0.03 0.03 0.03 0.03 0.03 0.03 0.04 0.04 0.05 0.06 0.06 0.07 0.08 0.10 0.11 0.12 0.14 0.16 0.16 0.17 0.19 0.22 0.23 0.24 0.23 0.21 0.20 0.18 0.22
0.09 0.10 0.10 0.09 0.08 0.09 0.09 0.09 0.07 0.06 0.05 0.05 0.05 0.05 0.04 0.04 0.04 0.04 0.04 0.04 0.04 0.05 0.05 0.05 0.08 0.08 0.08 0.09 0.12 0.12 0.13 0.15 0.16 0.16 0.17 0.21 0.23 0.20 0.20 0.21 0.21 0.20 0.21 0.22
0.10 0.11 0.12 0.11 0.10 0.09 0.10 0.10 0.09 0.08 0.07 0.07 0.07 0.06 0.06 0.05 0.05 0.05 0.05 0.05 0.06 0.06 0.06 0.06 0.07 0.07 0.08 0.09 0.13 0.12 0.12 0.14 0.15 0.16 0.18 0.20 0.21 0.20 0.20 0.20 0.21 0.22 0.22 0.22
0.13 0.12 0.13 0.14 0.14 0.13 0.12 0.12 0.11 0.11 0.10 0.09 0.09 0.09 0.08 0.07 0.06 0.05 0.06 0.06 0.06 0.06 0.06 0.07 0.06 0.06 0.08 0.11 0.13 0.12 0.12 0.14 0.16 0.18 0.20 0.21 0.22 0.22 0.21 0.21 0.21 0.22 0.23 0.23
0.11 0.12 0.13 0.13 0.13 0.13 0.13 0.13 0.13 0.13 0.12 0.12 0.12 0.11 0.10 0.09 0.08 0.07 0.07 0.07 0.07 0.08 0.08 0.07 0.06 0.08 0.12 0.14 0.13 0.13 0.14 0.15 0.18 0.20 0.21 0.22 0.23 0.22 0.21 0.21 0.22 0.22 0.22 0.23
0.09 0.10 0.12 0.13 0.13 0.12 0.13 0.14 0.14 0.14 0.14 0.14 0.15 0.14 0.13 0.11 0.10 0.10 0.11 0.10 0.09 0.09 0.08 0.08 0.10 0.13 0.15 0.14 0.13 0.14 0.16 0.17 0.18 0.19 0.20 0.20 0.20 0.20 0.20 0.20 0.20 0.20 0.21 0.21
0.07 0.07 0.07 0.08 0.08 0.09 0.10 0.11 0.11 0.12 0.14 0.15 0.14 0.14 0.14 0.13 0.12 0.11 0.10 0.11 0.10 0.10 0.09 0.10 0.13 0.15 0.16 0.15 0.14 0.16 0.17 0.18 0.18 0.18 0.18 0.17 0.17 0.17 0.18 0.18 0.18 0.18 0.18 0.18
0.04 0.04 0.04 0.04 0.05 0.06 0.06 0.07 0.08 0.10 0.11 0.12 0.12 0.11 0.11 0.11 0.12 0.12 0.11 0.10 0.09 0.10 0.10 0.11 0.12 0.13 0.14 0.14 0.15 0.16 0.16 0.16 0.17 0.18 0.17 0.16 0.15 0.15 0.15 0.14 0.15 0.15 0.15 0.15
0.02 0.02 0.02 0.02 0.02 0.03 0.03 0.04 0.06 0.07 0.08 0.09 0.10 0.10 0.09 0.09 0.10 0.11 0.10 0.10 0.09 0.11 0.11 0.11 0.11 0.12 0.13 0.13 0.14 0.13 0.13 0.13 0.13 0.14 0.13 0.13 0.14 0.14 0.13 0.13 0.13 0.13 0.13 0.13
0.02 0.02 0.02 0.01 0.02 0.02 0.02 0.03 0.03 0.04 0.06 0.07 0.09 0.10 0.10 0.11 0.11 0.10 0.09 0.09 0.10 0.11 0.10 0.10 0.11 0.12 0.12 0.12 0.12 0.11 0.11 0.11 0.11 0.11 0.12 0.12 0.12 0.13 0.13 0.13 0.13 0.13 0.13 0.12

GEFSNGP_prec_meanprecacc_120.txt.gz
Total_Precipitation_Accumulation
0.60 0.50 0.55 0.53 0.41 0.49 0.71 0.58 0.47 0.33 0.31 0.35 0.33 0.35 0.35 0.30 0.25 0.20 0.17 0.17 0.16 0.16 0.18 0.19 0.21 0.26 0.30 0.34 0.39 0.43 0.43 0.43 0.44 0.44 0.46 0.48 0.47 0.47 0.47 0.48 0.49 0.49 0.50 0.50
0.62 0.36 0.37 0.38 0.31 0.37 0.44 0.36 0.31 0.24 0.27 0.24 0.25 0.29 0.31 0.24 0.18 0.13 0.12 0.10 0.09 0.09 0.11 0.13 0.14 0.16 0.21 0.27 0.32 0.34 0.37 0.38 0.40 0.40 0.39 0.39 0.39 0.38 0.37 0.38 0.41 0.44 0.48 0.52
0.64 0.34 0.35 0.37 0.28 0.30 0.34 0.27 0.23 0.25 0.22 0.16 0.19 0.25 0.30 0.23 0.15 0.10 0.08 0.08 0.07 0.07 0.07 0.07 0.09 0.14 0.20 0.24 0.25 0.27 0.28 0.29 0.29 0.30 0.33 0.34 0.36 0.39 0.44 0.49 0.50 0.54 0.58 0.62
0.56 0.47 0.52 0.35 0.22 0.21 0.23 0.20 0.16 0.15 0.11 0.11 0.15 0.17 0.18 0.18 0.15 0.10 0.06 0.04 0.04 0.04 0.04 0.05 0.07 0.12 0.19 0.27 0.29 0.31 0.34 0.33 0.30 0.30 0.36 0.42 0.48 0.54 0.63 0.70 0.73 0.77 0.81 0.82
0.40 0.34 0.24 0.15 0.12 0.13 0.17 0.16 0.09 0.08 0.06 0.05 0.07 0.13 0.16 0.14 0.14 0.12 0.07 0.04 0.04 0.04 0.04 0.05 0.07 0.09 0.15 0.24 0.31 0.35 0.40 0.43 0.43 0.46 0.53 0.59 0.68 0.77 0.79 0.85 0.85 0.82 0.80 0.78
0.27 0.20 0.10 0.07 0.04 0.04 0.09 0.13 0.05 0.04 0.04 0.03 0.03 0.08 0.12 0.15 0.18 0.18 0.14 0.08 0.06 0.06 0.07 0.09 0.11 0.15 0.22 0.30 0.39 0.45 0.50 0.56 0.57 0.58 0.62 0.64 0.65 0.67 0.67 0.66 0.64 0.58 0.54 0.50
0.20 0.16 0.03 0.02 0.01 0.01 0.06 0.08 0.03 0.04 0.04 0.03 0.04 0.04 0.05 0.09 0.15 0.18 0.19 0.19 0.17 0.16 0.18 0.20 0.23 0.30 0.39 0.46 0.54 0.59 0.60 0.63 0.64 0.61 0.59 0.55 0.48 0.41 0.38 0.35 0.32 0.28 0.26 0.24
0.08 0.11 0.04 0.02 0.01 0.02 0.02 0.01 0.01 0.02 0.03 0.04 0.03 0.03 0.03 0.05 0.09 0.11 0.15 0.19 0.23 0.27 0.27 0.28 0.33 0.40 0.47 0.53 0.56 0.52 0.46 0.43 0.39 0.34 0.30 0.27 0.23 0.21 0.19 0.17 0.16 0.15 0.13 0.12
0.04 0.05 0.03 0.02 0.02 0.01 0.02 0.02 0.02 0.02 0.03 0.03 0.04 0.04 0.04 0.04 0.04 0.05 0.06 0.08 0.12 0.17 0.20 0.20 0.22 0.24 0.26 0.25 0.23 0.20 0.16 0.14 0.13 0.12 0.11 0.11 0.11 0.11 0.10 0.10 0.10 0.09 0.09 0.09
0.04 0.03 0.03 0.02 0.01 0.02 0.02 0.02 0.03 0.02 0.02 0.02 0.03 0.04 0.04 0.04 0.05 0.05 0.06 0.05 0.05 0.06 0.06 0.06 0.06 0.06 0.06 0.06 0.06 0.06 0.06 0.06 0.07 0.07 0.07 0.07 0.07 0.07 0.07 0.08 0.08 0.09 0.10 0.10
0.06 0.05 0.03 0.03 0.02 0.02 0.02 0.02 0.03 0.03 0.03 0.03 0.03 0.03 0.04 0.04 0.04 0.05 0.05 0.06 0.06 0.07 0.07 0.07 0.07 0.06 0.06 0.06 0.06 0.06 0.06 0.07 0.08 0.09 0.10 0.11 0.11 0.11 0.12 0.12 0.14 0.15 0.14 0.15
0.07 0.04 0.03 0.03 0.02 0.02 0.02 0.02 0.02 0.02 0.03 0.03 0.03 0.04 0.04 0.04 0.04 0.04 0.04 0.05 0.06 0.07 0.09 0.09 0.08 0.08 0.08 0.08 0.08 0.08 0.09 0.09 0.10 0.11 0.12 0.12 0.13 0.13 0.15 0.15 0.17 0.18 0.18 0.18
0.02 0.01 0.01 0.01 0.01 0.01 0.01 0.01 0.02 0.02 0.02 0.03 0.03 0.03 0.03 0.03 0.04 0.04 0.04 0.04 0.05 0.06 0.07 0.08 0.08 0.08 0.09 0.09 0.10 0.10 0.11 0.13 0.14 0.15 0.15 0.16 0.17 0.17 0.17 0.19 0.21 0.21 0.20 0.20
0.01 0.01 0.01 0.01 0.01 0.01 0.01 0.01 0.02 0.03 0.03 0.03 0.02 0.02 0.02 0.03 0.03 0.03 0.04 0.05 0.05 0.06 0.06 0.06 0.06 0.07 0.08 0.09 0.10 0.11 0.12 0.14 0.16 0.15 0.16 0.18 0.19 0.19 0.19 0.20 0.20 0.18 0.20 0.25
0.02 0.02 0.02 0.02 0.01 0.01 0.01 0.01 0.01 0.01 0.01 0.01 0.02 0.02 0.03 0.03 0.03 0.03 0.03 0.04 0.05 0.05 0.05 0.05 0.05 0.06 0.07 0.08 0.09 0.10 0.12 0.13 0.15 0.15 0.16 0.18 0.19 0.21 0.20 0.20 0.20 0.20 0.21 0.24
0.03 0.03 0.03 0.03 0.03 0.02 0.02 0.02 0.02 0.02 0.02 0.02 0.02 0.03 0.04 0.04 0.03 0.04 0.04 0.04 0.04 0.04 0.05 0.06 0.06 0.06 0.07 0.07 0.08 0.10 0.11 0.16 0.19 0.18 0.18 0.18 0.19 0.20 0.20 0.20 0.20 0.19 0.20 0.22
0.07 0.06 0.05 0.05 0.05 0.04 0.04 0.05 0.05 0.05 0.04 0.04 0.03 0.03 0.03 0.03 0.03 0.03 0.03 0.03 0.03 0.03 0.04 0.05 0.06 0.07 0.07 0.08 0.09 0.11 0.12 0.16 0.21 0.19 0.16 0.17 0.19 0.21 0.22 0.22 0.21 0.19 0.17 0.22
0.09 0.09 0.08 0.07 0.07 0.07 0.07 0.07 0.06 0.05 0.05 0.04 0.04 0.03 0.03 0.03 0.03 0.03 0.03 0.03 0.03 0.04 0.04 0.05 0.06 0.06 0.07 0.08 0.10 0.11 0.12 0.14 0.16 0.16 0.17 0.19 0.22 0.23 0.24 0.23 0.21 0.20 0.18 0.22
0.09 0.10 0.10 0.09 0.08 0.09 0.09 0.09 0.07 0.06 0.05 0.05 0.05 0.05 0.04 0.04 0.04 0.04 0.04 0.04 0.04 0.05 0.05 0.05 0.08 0.08 0.08 0.09 0.12 0.12 0.13 0.15 0.16 0.16 0.18 0.21 0.23 0.20 0.20 0.21 0.21 0.21 0.21 0.22
0.10 0.11 0.12 0.11 0.10 0.09 0.10 0.10 0.09 0.08 0.07 0.07 0.07 0.06 0.06 0.05 0.05 0.05 0.05 0.05 0.06 0.06 0.06 0.06 0.07 0.08 0.08 0.10 0.13 0.12 0.12 0.14 0.15 0.17 0.18 0.20 0.21 0.20 0.20 0.20 0.21 0.22 0.22 0.23
0.13 0.12 0.13 0.14 0.14 0.13 0.12 0.12 0.11 0.11 0.10 0.09 0.09 0.09 0.08 0.07 0.06 0.05 0.06 0.06 0.06 0.06 0.06 0.07 0.07 0.07 0.08 0.11 0.13 0.12 0.12 0.14 0.16 0.18 0.20 0.21 0.22 0.22 0.21 0.21 0.21 0.22 0.23 0.23
0.11 0.12 0.13 0.13 0.13 0.13 0.13 0.13 0.13 0.13 0.12 0.12 0.12 0.11 0.10 0.09 0.08 0.07 0.07 0.07 0.07 0.09 0.09 0.07 0.07 0.09 0.12 0.14 0.13 0.13 0.14 0.15 0.18 0.20 0.21 0.22 0.23 0.22 0.21 0.21 0.22 0.22 0.22 0.23
0.09 0.10 0.12 0.13 0.13 0.12 0.13 0.14 0.14 0.14 0.14 0.14 0.15 0.14 0.13 0.11 0.10 0.10 0.11 0.10 0.09 0.09 0.09 0.08 0.10 0.13 0.15 0.15 0.14 0.15 0.16 0.18 0.19 0.20 0.20 0.20 0.20 0.20 0.20 0.20 0.20 0.20 0.21 0.21
0.07 0.07 0.07 0.08 0.08 0.09 0.10 0.11 0.11 0.12 0.14 0.15 0.14 0.14 0.14 0.13 0.12 0.11 0.11 0.11 0.10 0.10 0.10 0.10 0.14 0.16 0.16 0.15 0.15 0.17 0.17 0.18 0.18 0.18 0.18 0.17 0.17 0.17 0.18 0.18 0.18 0.18 0.18 0.18
0.04 0.04 0.04 0.04 0.05 0.06 0.06 0.07 0.09 0.10 0.11 0.13 0.13 0.12 0.11 0.11 0.12 0.12 0.11 0.10 0.10 0.11 0.11 0.12 0.13 0.14 0.15 0.14 0.15 0.16 0.16 0.16 0.17 0.18 0.17 0.16 0.15 0.15 0.15 0.14 0.15 0.15 0.15 0.15
0.02 0.02 0.02 0.02 0.02 0.03 0.03 0.04 0.06 0.07 0.09 0.09 0.10 0.10 0.10 0.10 0.10 0.11 0.11 0.10 0.10 0.11 0.11 0.11 0.12 0.12 0.13 0.13 0.14 0.13 0.13 0.13 0.13 0.14 0.13 0.13 0.14 0.14 0.13 0.13 0.13 0.14 0.14 0.13
0.02 0.02 0.02 0.02 0.02 0.02 0.03 0.03 0.04 0.05 0.06 0.08 0.09 0.10 0.11 0.11 0.11 0.10 0.10 0.09 0.10 0.11 0.10 0.10 0.11 0.12 0.12 0.12 0.12 0.11 0.11 0.11 0.11 0.11 0.12 0.12 0.12 0.13 0.13 0.14 0.13 0.13 0.13 0.13

GEFSNGP_prec_meanprecacc_126.txt.gz
Total_Precipitation_Accumulation
0.60 0.50 0.56 0.53 0.42 0.49 0.71 0.58 0.47 0.34 0.32 0.36 0.34 0.36 0.36 0.31 0.26 0.20 0.18 0.18 0.17 0.17 0.18 0.20 0.22 0.26 0.30 0.35 0.39 0.43 0.44 0.43 0.44 0.45 0.47 0.48 0.48 0.47 0.48 0.50 0.52 0.53 0.52 0.52
0.62 0.36 0.37 0.39 0.31 0.37 0.44 0.37 0.31 0.24 0.28 0.25 0.26 0.30 0.32 0.25 0.19 0.14 0.13 0.11 0.10 0.10 0.11 0.14 0.15 0.17 0.22 0.27 0.32 0.35 0.38 0.39 0.40 0.40 0.40 0.40 0.40 0.39 0.37 0.39 0.42 0.46 0.50 0.54
0.64 0.34 0.36 0.38 0.28 0.30 0.35 0.28 0.24 0.26 0.23 0.17 0.19 0.26 0.31 0.24 0.16 0.11 0.09 0.08 0.08 0.08 0.08 0.08 0.10 0.15 0.21 0.25 0.26 0.27 0.29 0.29 0.30 0.31 0.34 0.35 0.37 0.40 0.45 0.49 0.50 0.54 0.59 0.63
0.57 0.47 0.52 0.36 0.22 0.21 0.23 0.20 0.16 0.15 0.11 0.11 0.16 0.17 0.19 0.19 0.16 0.11 0.06 0.05 0.04 0.04 0.05 0.06 0.08 0.12 0.20 0.27 0.30 0.32 0.35 0.33 0.30 0.31 0.37 0.43 0.49 0.55 0.64 0.71 0.74 0.78 0.81 0.82
0.40 0.34 0.24 0.15 0.12 0.14 0.17 0.16 0.09 0.08 0.06 0.05 0.07 0.14 0.16 0.14 0.15 0.12 0.07 0.05 0.04 0.04 0.05 0.06 0.08 0.10 0.16 0.25 0.31 0.36 0.41 0.44 0.44 0.47 0.54 0.60 0.69 0.77 0.80 0.86 0.86 0.83 0.80 0.79
0.28 0.20 0.10 0.07 0.04 0.04 0.09 0.13 0.05 0.04 0.04 0.03 0.03 0.08 0.12 0.15 0.18 0.19 0.15 0.09 0.06 0.06 0.07 0.09 0.12 0.16 0.22 0.30 0.39 0.46 0.50 0.57 0.58 0.60 0.63 0.65 0.66 0.68 0.68 0.67 0.65 0.59 0.55 0.52
0.21 0.16 0.03 0.02 0.01 0.01 0.06 0.08 0.03 0.04 0.04 0.03 0.04 0.04 0.05 0.09 0.15 0.18 0.20 0.19 0.17 0.17 0.18 0.21 0.24 0.31 0.39 0.46 0.55 0.59 0.60 0.64 0.65 0.62 0.59 0.55 0.49 0.42 0.40 0.37 0.33 0.30 0.27 0.25
0.08 0.12 0.04 0.02 0.01 0.02 0.02 0.01 0.01 0.02 0.03 0.04 0.03 0.03 0.03 0.05 0.09 0.11 0.15 0.19 0.24 0.27 0.28 0.29 0.34 0.41 0.48 0.53 0.56 0.52 0.46 0.43 0.39 0.34 0.30 0.27 0.24 0.21 0.20 0.18 0.17 0.16 0.14 0.13
0.04 0.05 0.03 0.02 0.02 0.01 0.02 0.02 0.02 0.02 0.03 0.03 0.04 0.04 0.04 0.04 0.04 0.05 0.06 0.08 0.12 0.17 0.20 0.20 0.22 0.24 0.26 0.25 0.23 0.20 0.17 0.14 0.13 0.12 0.11 0.11 0.11 0.11 0.10 0.10 0.10 0.10 0.10 0.09
0.04 0.03 0.03 0.02 0.01 0.02 0.02 0.02 0.03 0.02 0.02 0.02 0.03 0.04 0.04 0.04 0.05 0.05 0.06 0.05 0.05 0.06 0.06 0.06 0.06 0.06 0.06 0.06 0.06 0.06 0.06 0.06 0.07 0.07 0.07 0.07 0.07 0.07 0.07 0.08 0.08 0.09 0.10 0.11
0.06 0.05 0.03 0.03 0.02 0.02 0.02 0.02 0.03 0.03 0.03 0.03 0.03 0.03 0.04 0.04 0.04 0.05 0.05 0.06 0.06 0.07 0.07 0.07 0.07 0.06 0.06 0.06 0.06 0.06 0.06 0.07 0.08 0.09 0.10 0.11 0.11 0.11 0.12 0.12 0.14 0.15 0.14 0.15
0.07 0.04 0.03 0.03 0.02 0.02 0.02 0.02 0.02 0.02 0.03 0.03 0.03 0.04 0.04 0.04 0.04 0.04 0.04 0.05 0.06 0.07 0.09 0.09 0.08 0.08 0.08 0.08 0.08 0.08 0.09 0.09 0.10 0.11 0.12 0.12 0.13 0.13 0.15 0.15 0.17 0.18 0.18 0.18
0.02 0.01 0.01 0.01 0.01 0.01 0.01 0.01 0.02 0.02 0.02 0.03 0.03 0.03 0.03 0.03 0.04 0.04 0.04 0.04 0.05 0.06 0.07 0.08 0.08 0.08 0.09 0.09 0.10 0.10 0.11 0.13 0.14 0.15 0.15 0.16 0.17 0.17 0.17 0.19 0.21 0.21 0.20 0.20
0.01 0.01 0.01 0.01 0.01 0.01 0.01 0.01 0.02 0.03 0.03 0.03 0.02 0.02 0.02 0.03 0.03 0.03 0.04 0.05 0.05 0.06 0.06 0.06 0.06 0.07 0.08 0.09 0.10 0.11 0.12 0.14 0.16 0.15 0.16 0.18 0.19 0.19 0.19 0.20 0.20 0.18 0.20 0.25
0.02 0.02 0.02 0.02 0.01 0.01 0.01 0.01 0.01 0.01 0.01 0.01 0.02 0.02 0.03 0.03 0.03 0.03 0.03 0.04 0.05 0.05 0.05 0.05 0.05 0.06 0.07 0.08 0.09 0.10 0.12 0.13 0.15 0.15 0.16 0.18 0.19 0.21 0.20 0.20 0.20 0.20 0.21 0.24
0.03 0.03 0.03 0.03 0.03 0.02 0.02 0.02 0.02 0.02 0.02 0.02 0.02 0.03 0.04 0.04 0.03 0.04 0.04 0.04 0.04 0.04 0.05 0.06 0.06 0.06 0.07 0.07 0.08 0.10 0.11 0.16 0.19 0.18 0.18 0.19 0.19 0.20 0.20 0.20 0.20 0.19 0.20 0.22
0.07 0.06 0.05 0.05 0.05 0.04 0.04 0.05 0.05 0.05 0.04 0.04 0.03 0.03 0.03 0.03 0.03 0.03 0.03 0.03 0.03 0.03 0.04 0.05 0.06 0.07 0.07 0.08 0.09 0.11 0.12 0.16 0.21 0.19 0.16 0.17 0.19 0.21 0.22 0.22 0.21 0.19 0.17 0.22
0.09 0.09 0.08 0.07 0.07 0.07 0.07 0.07 0.06 0.05 0.05 0.04 0.04 0.03 0.03 0.03 0.03 0.03 0.03 0.03 0.03 0.04 0.04 0.05 0.06 0.06 0.07 0.08 0.10 0.11 0.12 0.14 0.16 0.17 0.17 0.19 0.23 0.23 0.24 0.23 0.21 0.20 0.18 0.22
0.09 0.10 0.10 0.09 0.08 0.09 0.09 0.09 0.07 0.06 0.05 0.05 0.05 0.05 0.04 0.04 0.04 0.04 0.04 0.04 0.04 0.05 0.05 0.05 0.08 0.08 0.08 0.09 0.12 0.12 0.13 0.15 0.16 0.16 0.18 0.21 0.23 0.20 0.21 0.21 0.21 0.21 0.21 0.22
0.10 0.11 0.12 0.11 0.10 0.09 0.10 0.10 0.09 0.08 0.07 0.07 0.07 0.06 0.06 0.05 0.05 0.05 0.05 0.05 0.06 0.06 0.06 0.06 0.07 0.08 0.08 0.10 0.13 0.12 0.12 0.14 0.16 0.17 0.19 0.20 0.21 0.20 0.20 0.20 0.21 0.22 0.22 0.23
0.13 0.12 0.13 0.14 0.14 0.13 0.12 0.12 0.11 0.11 0.10 0.09 0.09 0.09 0.08 0.07 0.06 0.06 0.06 0.06 0.07 0.06 0.06 0.07 0.07 0.07 0.08 0.11 0.13 0.12 0.12 0.14 0.17 0.19 0.21 0.22 0.23 0.22 0.21 0.21 0.22 0.22 0.23 0.23
0.11 0.12 0.13 0.13 0.13 0.13 0.13 0.13 0.13 0.13 0.12 0.12 0.12 0.11 0.10 0.09 0.08 0.07 0.07 0.07 0.07 0.09 0.09 0.07 0.07 0.09 0.12 0.14 0.14 0.13 0.14 0.16 0.19 0.21 0.22 0.23 0.23 0.22 0.21 0.22 0.23 0.22 0.23 0.23
0.09 0.10 0.12 0.13 0.13 0.12 0.13 0.14 0.14 0.14 0.14 0.14 0.15 0.14 0.13 0.12 0.11 0.10 0.11 0.10 0.09 0.09 0.09 0.08 0.10 0.13 0.15 0.15 0.14 0.15 0.17 0.18 0.19 0.20 0.20 0.20 0.21 0.20 0.21 0.20 0.20 0.21 0.21 0.22
0.07 0.07 0.07 0.08 0.08 0.09 0.10 0.11 0.11 0.12 0.14 0.15 0.14 0.14 0.14 0.13 0.12 0.11 0.11 0.11 0.10 0.10 0.10 0.11 0.14 0.16 0.17 0.16 0.15 0.17 0.18 0.18 0.18 0.18 0.18 0.17 0.17 0.17 0.18 0.18 0.18 0.18 0.18 0.18
0.04 0.04 0.04 0.04 0.05 0.06 0.06 0.07 0.09 0.10 0.11 0.13 0.13 0.12 0.11 0.11 0.12 0.12 0.11 0.10 0.10 0.11 0.11 0.12 0.14 0.14 0.15 0.14 0.15 0.16 0.16 0.16 0.17 0.18 0.17 0.16 0.15 0.15 0.15 0.15 0.15 0.15 0.15 0.15
0.03 0.02 0.02 0.02 0.02 0.03 0.03 0.04 0.06 0.08 0.09 0.10 0.11 0.11 0.10 0.10 0.11 0.12 0.12 0.11 0.11 0.12 0.12 0.12 0.12 0.12 0.13 0.13 0.14 0.13 0.13 0.13 0.13 0.14 0.13 0.13 0.14 0.14 0.13 0.13 0.13 0.14 0.14 0.14
0.02 0.02 0.02 0.02 0.02 0.02 0.03 0.03 0.04 0.05 0.06 0.08 0.10 0.10 0.11 0.12 0.12 0.11 0.10 0.10 0.11 0.11 0.11 0.11 0.11 0.12 0.12 0.12 0.12 0.11 0.11 0.11 0.11 0.12 0.12 0.12 0.12 0.13 0.13 0.14 0.14 0.13 0.13 0.13

GEFSNGP_prec_meanprecacc_132.txt.gz
Total_Precipitation_Accumulation
0.60 0.50 0.56 0.53 0.42 0.49 0.72 0.58 0.48 0.34 0.32 0.36 0.34 0.37 0.37 0.32 0.27 0.21 0.19 0.19 0.17 0.17 0.18 0.20 0.22 0.26 0.30 0.35 0.39 0.43 0.44 0.43 0.44 0.46 0.48 0.49 0.48 0.47 0.48 0.50 0.52 0.53 0.53 0.53
0.62 0.36 0.37 0.39 0.31 0.37 0.45 0.37 0.31 0.24 0.28 0.26 0.26 0.30 0.32 0.26 0.19 0.15 0.13 0.12 0.11 0.10 0.11 0.14 0.15 0.17 0.22 0.27 0.32 0.35 0.38 0.39 0.40 0.40 0.40 0.41 0.40 0.39 0.37 0.39 0.42 0.46 0.50 0.54
0.64 0.35 0.36 0.38 0.28 0.30 0.35 0.28 0.24 0.26 0.23 0.17 0.20 0.26 0.31 0.25 0.16 0.11 0.10 0.09 0.08 0.08 0.08 0.08 0.10 0.15 0.21 0.25 0.26 0.27 0.29 0.29 0.30 0.31 0.34 0.35 0.37 0.40 0.45 0.49 0.50 0.54 0.59 0.63
0.57 0.47 0.53 0.36 0.22 0.21 0.23 0.20 0.16 0.15 0.11 0.11 0.16 0.18 0.19 0.20 0.17 0.11 0.06 0.05 0.05 0.05 0.05 0.06 0.08 0.13 0.20 0.27 0.30 0.32 0.35 0.34 0.31 0.31 0.37 0.43 0.49 0.55 0.64 0.71 0.74 0.78 0.81 0.83
0.41 0.35 0.24 0.15 0.12 0.14 0.17 0.16 0.09 0.08 0.06 0.05 0.07 0.14 0.16 0.14 0.15 0.13 0.07 0.05 0.04 0.04 0.05 0.07 0.09 0.11 0.16 0.25 0.32 0.36 0.41 0.45 0.45 0.47 0.54 0.60 0.69 0.77 0.80 0.86 0.86 0.83 0.80 0.79
0.30 0.21 0.10 0.07 0.04 0.04 0.09 0.13 0.05 0.04 0.04 0.03 0.03 0.08 0.12 0.15 0.18 0.19 0.15 0.09 0.06 0.07 0.08 0.10 0.13 0.16 0.23 0.30 0.39 0.46 0.50 0.57 0.59 0.60 0.63 0.66 0.67 0.68 0.68 0.68 0.65 0.59 0.55 0.52
0.22 0.17 0.03 0.02 0.01 0.01 0.06 0.08 0.03 0.04 0.04 0.03 0.04 0.04 0.05 0.09 0.15 0.18 0.20 0.19 0.17 0.17 0.19 0.21 0.25 0.31 0.39 0.46 0.55 0.59 0.60 0.64 0.65 0.62 0.60 0.57 0.50 0.44 0.41 0.38 0.34 0.30 0.27 0.26
0.09 0.12 0.04 0.02 0.01 0.02 0.02 0.01 0.01 0.02 0.03 0.04 0.04 0.03 0.03 0.05 0.09 0.11 0.15 0.20 0.24 0.27 0.28 0.29 0.35 0.42 0.48 0.54 0.56 0.52 0.46 0.43 0.40 0.34 0.30 0.28 0.25 0.22 0.21 0.20 0.18 0.17 0.15 0.13
0.04 0.05 0.03 0.02 0.02 0.01 0.02 0.02 0.02 0.02 0.03 0.03 0.04 0.04 0.04 0.04 0.04 0.05 0.06 0.08 0.12 0.17 0.20 0.21 0.22 0.25 0.27 0.26 0.23 0.20 0.17 0.14 0.13 0.12 0.11 0.12 0.11 0.11 0.10 0.11 0.11 0.10 0.10 0.10
0.04 0.03 0.03 0.02 0.01 0.02 0.02 0.02 0.03 0.02 0.02 0.02 0.03 0.04 0.04 0.04 0.05 0.05 0.06 0.06 0.05 0.06 0.07 0.07 0.06 0.06 0.06 0.06 0.06 0.06 0.06 0.06 0.07 0.07 0.07 0.07 0.07 0.07 0.07 0.08 0.08 0.09 0.10 0.11
0.06 0.05 0.03 0.03 0.02 0.02 0.02 0.02 0.03 0.03 0.03 0.03 0.03 0.03 0.04 0.04 0.04 0.05 0.05 0.06 0.06 0.07 0.07 0.07 0.07 0.06 0.06 0.06 0.06 0.06 0.06 0.07 0.08 0.09 0.10 0.11 0.11 0.11 0.12 0.12 0.14 0.15 0.14 0.15
0.07 0.04 0.03 0.03 0.02 0.02 0.02 0.02 0.02 0.02 0.03 0.03 0.03 0.04 0.04 0.04 0.04 0.04 0.04 0.05 0.06 0.07 0.09 0.09 0.08 0.08 0.08 0.08 0.08 0.08 0.09 0.09 0.10 0.11 0.12 0.12 0.13 0.13 0.15 0.15 0.17 0.18 0.18 0.18
0.03 0.01 0.01 0.01 0.01 0.01 0.01 0.01 0.02 0.02 0.02 0.03 0.03 0.03 0.03 0.03 0.04 0.04 0.04 0.04 0.05 0.06 0.07 0.08 0.08 0.08 0.09 0.09 0.10 0.10 0.11 0.13 0.14 0.15 0.15 0.16 0.17 0.17 0.17 0.19 0.21 0.21 0.20 0.20
0.01 0.01 0.01 0.01 0.01 0.01 0.01 0.01 0.02 0.03 0.03 0.03 0.02 0.02 0.02 0.03 0.03 0.03 0.04 0.05 0.05 0.06 0.06 0.06 0.06 0.07 0.08 0.09 0.10 0.11 0.12 0.14 0.16 0.15 0.17 0.18 0.19 0.19 0.19 0.20 0.20 0.18 0.20 0.25
0.02 0.02 0.02 0.02 0.01 0.01 0.01 0.01 0.01 0.01 0.01 0.01 0.02 0.02 0.03 0.03 0.03 0.03 0.03 0.04 0.05 0.05 0.05 0.05 0.05 0.06 0.07 0.08 0.09 0.10 0.12 0.13 0.15 0.15 0.16 0.18 0.19 0.21 0.20 0.20 0.20 0.20 0.21 0.24
0.03 0.03 0.03 0.03 0.03 0.02 0.02 0.02 0.02 0.02 0.02 0.02 0.02 0.03 0.04 0.04 0.03 0.04 0.04 0.04 0.04 0.04 0.05 0.06 0.06 0.06 0.07 0.07 0.08 0.10 0.11 0.16 0.19 0.18 0.18 0.19 0.19 0.20 0.21 0.20 0.20 0.19 0.20 0.22
0.07 0.06 0.05 0.05 0.05 0.04 0.04 0.05 0.05 0.05 0.04 0.04 0.03 0.03 0.03 0.03 0.03 0.03 0.03 0.03 0.03 0.03 0.04 0.05 0.06 0.07 0.07 0.08 0.09 0.11 0.12 0.16 0.21 0.19 0.16 0.17 0.19 0.21 0.22 0.22 0.21 0.19 0.17 0.22
0.09 0.09 0.08 0.07 0.07 0.07 0.07 0.07 0.06 0.05 0.05 0.04 0.04 0.03 0.03 0.03 0.03 0.03 0.03 0.03 0.03 0.04 0.04 0.05 0.06 0.07 0.07 0.08 0.10 0.11 0.13 0.14 0.16 0.17 0.17 0.19 0.23 0.23 0.24 0.23 0.21 0.20 0.18 0.22
0.09 0.10 0.10 0.09 0.08 0.09 0.09 0.09 0.07 0.06 0.05 0.05 0.05 0.05 0.04 0.04 0.04 0.04 0.04 0.04 0.05 0.05 0.06 0.06 0.08 0.08 0.08 0.10 0.12 0.12 0.13 0.15 0.16 0.17 0.18 0.21 0.24 0.21 0.21 0.22 0.21 0.21 0.21 0.22
0.10 0.11 0.12 0.11 0.10 0.09 0.10 0.10 0.09 0.08 0.07 0.07 0.07 0.06 0.06 0.05 0.05 0.05 0.05 0.06 0.07 0.07 0.06 0.07 0.08 0.08 0.09 0.10 0.13 0.12 0.12 0.14 0.16 0.17 0.19 0.21 0.22 0.21 0.21 0.21 0.22 0.22 0.22 0.23
0.13 0.12 0.13 0.14 0.14 0.13 0.12 0.12 0.11 0.11 0.10 0.09 0.09 0.09 0.08 0.08 0.07 0.06 0.07 0.07 0.07 0.07 0.07 0.08 0.07 0.07 0.09 0.11 0.13 0.12 0.12 0.14 0.17 0.19 0.21 0.23 0.23 0.23 0.22 0.22 0.22 0.23 0.23 0.23
0.11 0.12 0.13 0.13 0.13 0.13 0.13 0.13 0.13 0.13 0.12 0.12 0.12 0.11 0.11 0.10 0.09 0.08 0.08 0.08 0.08 0.09 0.09 0.08 0.07 0.09 0.12 0.14 0.14 0.13 0.14 0.16 0.19 0.21 0.23 0.23 0.24 0.23 0.22 0.22 0.23 0.22 0.23 0.23
0.09 0.10 0.12 0.13 0.13 0.13 0.13 0.15 0.15 0.14 0.14 0.14 0.15 0.15 0.14 0.13 0.11 0.11 0.11 0.10 0.09 0.10 0.09 0.08 0.10 0.13 0.16 0.15 0.14 0.15 0.17 0.19 0.20 0.20 0.21 0.21 0.21 0.21 0.21 0.20 0.20 0.21 0.21 0.22
0.07 0.07 0.08 0.08 0.09 0.10 0.10 0.11 0.12 0.13 0.14 0.15 0.15 0.15 0.15 0.14 0.13 0.11 0.11 0.11 0.11 0.11 0.10 0.11 0.14 0.16 0.17 0.16 0.15 0.17 0.18 0.18 0.18 0.18 0.18 0.18 0.17 0.17 0.18 0.18 0.18 0.18 0.18 0.18
0.04 0.04 0.04 0.04 0.05 0.06 0.07 0.08 0.09 0.10 0.11 0.13 0.13 0.12 0.12 0.12 0.13 0.13 0.12 0.11 0.11 0.12 0.12 0.13 0.14 0.15 0.15 0.15 0.15 0.16 0.16 0.16 0.18 0.18 0.17 0.16 0.15 0.15 0.15 0.15 0.15 0.15 0.15 0.15
0.03 0.03 0.03 0.03 0.03 0.03 0.04 0.05 0.06 0.08 0.09 0.10 0.11 0.11 0.11 0.11 0.11 0.12 0.12 0.12 0.11 0.12 0.12 0.12 0.12 0.13 0.13 0.13 0.14 0.14 0.13 0.13 0.14 0.14 0.13 0.13 0.14 0.14 0.13 0.13 0.13 0.14 0.14 0.14
0.02 0.02 0.02 0.02 0.02 0.03 0.03 0.03 0.04 0.05 0.07 0.09 0.11 0.11 0.12 0.13 0.12 0.12 0.11 0.11 0.11 0.12 0.12 0.12 0.12 0.13 0.13 0.13 0.12 0.11 0.11 0.11 0.11 0.12 0.12 0.12 0.12 0.13 0.13 0.14 0.14 0.13 0.13 0.13

GEFSNGP_prec_meanprecacc_138.txt.gz
Total_Precipitation_Accumulation
0.60 0.50 0.56 0.53 0.42 0.50 0.72 0.59 0.48 0.34 0.32 0.36 0.34 0.37 0.37 0.32 0.27 0.21 0.19 0.19 0.17 0.17 0.18 0.20 0.22 0.26 0.30 0.35 0.39 0.43 0.44 0.43 0.45 0.46 0.49 0.51 0.49 0.48 0.48 0.50 0.53 0.53 0.53 0.53
0.62 0.37 0.38 0.39 0.31 0.37 0.45 0.37 0.31 0.24 0.28 0.26 0.26 0.30 0.32 0.26 0.19 0.15 0.13 0.12 0.11 0.10 0.11 0.14 0.15 0.17 0.22 0.27 0.32 0.35 0.38 0.40 0.41 0.41 0.41 0.42 0.42 0.40 0.38 0.39 0.42 0.46 0.50 0.55
0.65 0.35 0.36 0.38 0.28 0.30 0.35 0.28 0.24 0.26 0.23 0.17 0.20 0.27 0.31 0.25 0.16 0.11 0.10 0.09 0.09 0.08 0.08 0.08 0.10 0.15 0.21 0.25 0.26 0.27 0.30 0.30 0.30 0.31 0.34 0.35 0.37 0.41 0.46 0.50 0.51 0.55 0.59 0.64
0.59 0.48 0.53 0.36 0.22 0.21 0.23 0.20 0.16 0.15 0.11 0.11 0.16 0.18 0.19 0.20 0.17 0.11 0.06 0.05 0.05 0.05 0.05 0.06 0.08 0.13 0.20 0.28 0.30 0.32 0.36 0.34 0.31 0.32 0.37 0.43 0.49 0.55 0.64 0.72 0.75 0.78 0.82 0.83
0.43 0.36 0.25 0.15 0.12 0.14 0.17 0.16 0.09 0.08 0.06 0.05 0.07 0.14 0.16 0.14 0.15 0.13 0.07 0.05 0.04 0.05 0.06 0.07 0.09 0.11 0.16 0.25 0.32 0.36 0.41 0.45 0.45 0.47 0.55 0.60 0.69 0.78 0.81 0.87 0.86 0.83 0.81 0.79
0.30 0.22 0.10 0.07 0.04 0.04 0.09 0.13 0.05 0.04 0.04 0.03 0.03 0.08 0.12 0.15 0.18 0.19 0.15 0.09 0.06 0.07 0.08 0.11 0.14 0.17 0.23 0.31 0.40 0.46 0.51 0.57 0.59 0.61 0.64 0.66 0.67 0.69 0.69 0.69 0.66 0.60 0.56 0.52
0.22 0.17 0.03 0.02 0.01 0.01 0.06 0.08 0.03 0.04 0.04 0.03 0.04 0.05 0.06 0.09 0.15 0.18 0.20 0.19 0.17 0.17 0.19 0.22 0.25 0.32 0.40 0.46 0.55 0.60 0.61 0.64 0.65 0.63 0.62 0.58 0.50 0.44 0.42 0.39 0.34 0.31 0.28 0.26
0.09 0.13 0.04 0.02 0.01 0.02 0.02 0.01 0.01 0.02 0.03 0.04 0.04 0.03 0.03 0.05 0.09 0.11 0.15 0.20 0.24 0.27 0.28 0.29 0.35 0.43 0.49 0.54 0.56 0.52 0.47 0.43 0.40 0.35 0.31 0.29 0.26 0.23 0.22 0.20 0.19 0.17 0.15 0.13
0.04 0.05 0.03 0.02 0.02 0.01 0.02 0.02 0.02 0.02 0.03 0.03 0.04 0.04 0.04 0.04 0.04 0.05 0.06 0.08 0.12 0.17 0.20 0.21 0.22 0.25 0.27 0.26 0.24 0.20 0.17 0.15 0.14 0.13 0.13 0.13 0.13 0.12 0.11 0.12 0.11 0.11 0.10 0.10
0.04 0.03 0.03 0.02 0.01 0.02 0.02 0.02 0.03 0.02 0.02 0.02 0.03 0.04 0.04 0.04 0.05 0.05 0.06 0.06 0.05 0.06 0.07 0.07 0.06 0.06 0.06 0.06 0.06 0.06 0.06 0.07 0.07 0.07 0.08 0.08 0.08 0.07 0.07 0.08 0.08 0.09 0.10 0.11
0.06 0.05 0.03 0.03 0.02 0.02 0.02 0.02 0.03 0.03 0.03 0.03 0.03 0.03 0.04 0.04 0.04 0.05 0.05 0.06 0.06 0.07 0.07 0.07 0.07 0.06 0.06 0.06 0.06 0.06 0.07 0.07 0.08 0.09 0.10 0.11 0.11 0.11 0.12 0.12 0.14 0.15 0.14 0.15
0.08 0.04 0.03 0.03 0.02 0.02 0.02 0.02 0.02 0.02 0.03 0.03 0.03 0.04 0.04 0.04 0.04 0.04 0.04 0.05 0.06 0.07 0.09 0.09 0.08 0.08 0.08 0.08 0.08 0.08 0.09 0.09 0.10 0.11 0.12 0.12 0.13 0.13 0.15 0.16 0.17 0.18 0.18 0.18
0.03 0.01 0.01 0.01 0.01 0.01 0.01 0.01 0.02 0.02 0.02 0.03 0.03 0.03 0.03 0.03 0.04 0.04 0.04 0.04 0.05 0.06 0.07 0.08 0.08 0.08 0.09 0.09 0.10 0.10 0.11 0.13 0.14 0.15 0.15 0.16 0.17 0.17 0.18 0.19 0.21 0.21 0.20 0.20
0.01 0.01 0.01 0.01 0.01 0.01 0.01 0.01 0.02 0.03 0.03 0.03 0.02 0.02 0.02 0.03 0.03 0.03 0.04 0.05 0.05 0.06 0.06 0.06 0.06 0.07 0.08 0.09 0.10 0.11 0.12 0.14 0.16 0.15 0.17 0.18 0.19 0.19 0.19 0.20 0.20 0.19 0.20 0.25
0.02 0.02 0.02 0.02 0.01 0.01 0.01 0.01 0.01 0.01 0.01 0.01 0.02 0.02 0.03 0.03 0.03 0.03 0.03 0.04 0.05 0.05 0.05 0.05 0.05 0.06 0.07 0.08 0.09 0.10 0.12 0.14 0.15 0.16 0.17 0.18 0.19 0.21 0.20 0.20 0.20 0.20 0.21 0.25
0.03 0.03 0.03 0.03 0.03 0.02 0.02 0.02 0.02 0.02 0.02 0.02 0.02 0.03 0.04 0.04 0.03 0.04 0.04 0.04 0.04 0.04 0.05 0.06 0.06 0.07 0.07 0.07 0.09 0.10 0.12 0.17 0.19 0.18 0.18 0.19 0.19 0.20 0.21 0.20 0.20 0.19 0.20 0.22
0.07 0.06 0.05 0.05 0.05 0.04 0.05 0.05 0.05 0.05 0.04 0.04 0.03 0.03 0.03 0.03 0.03 0.03 0.03 0.03 0.03 0.03 0.04 0.05 0.06 0.07 0.07 0.08 0.10 0.11 0.13 0.16 0.22 0.19 0.17 0.17 0.19 0.21 0.22 0.22 0.21 0.19 0.18 0.22
0.09 0.09 0.08 0.07 0.07 0.07 0.07 0.07 0.06 0.05 0.05 0.04 0.04 0.03 0.03 0.03 0.03 0.03 0.03 0.03 0.03 0.04 0.04 0.05 0.06 0.07 0.07 0.09 0.10 0.12 0.13 0.14 0.16 0.17 0.17 0.19 0.23 0.23 0.24 0.23 0.22 0.20 0.19 0.22
0.09 0.10 0.10 0.09 0.08 0.09 0.09 0.09 0.08 0.06 0.05 0.05 0.05 0.05 0.05 0.04 0.04 0.04 0.04 0.04 0.05 0.05 0.06 0.06 0.08 0.09 0.09 0.10 0.13 0.13 0.14 0.15 0.16 0.17 0.18 0.21 0.24 0.21 0.21 0.22 0.22 0.21 0.21 0.23
0.10 0.11 0.12 0.11 0.10 0.09 0.10 0.10 0.09 0.08 0.07 0.07 0.07 0.06 0.06 0.05 0.05 0.05 0.05 0.06 0.07 0.07 0.06 0.07 0.08 0.08 0.09 0.10 0.13 0.12 0.13 0.14 0.16 0.17 0.19 0.21 0.22 0.21 0.21 0.21 0.22 0.22 0.23 0.23
0.13 0.12 0.13 0.14 0.14 0.13 0.12 0.12 0.12 0.11 0.10 0.09 0.09 0.09 0.09 0.08 0.07 0.07 0.07 0.08 0.07 0.07 0.07 0.08 0.08 0.08 0.09 0.12 0.14 0.13 0.13 0.15 0.17 0.19 0.22 0.23 0.24 0.23 0.22 0.22 0.22 0.23 0.24 0.24
0.11 0.12 0.13 0.13 0.13 0.13 0.13 0.13 0.13 0.13 0.13 0.13 0.12 0.12 0.11 0.10 0.10 0.09 0.09 0.09 0.09 0.10 0.10 0.08 0.08 0.10 0.13 0.15 0.14 0.14 0.15 0.17 0.19 0.22 0.23 0.23 0.24 0.23 0.22 0.22 0.23 0.23 0.23 0.23
0.09 0.10 0.12 0.13 0.13 0.13 0.13 0.15 0.15 0.15 0.14 0.15 0.15 0.15 0.14 0.13 0.12 0.12 0.12 0.11 0.10 0.11 0.10 0.09 0.11 0.15 0.17 0.16 0.15 0.16 0.18 0.19 0.20 0.21 0.21 0.21 0.21 0.21 0.21 0.21 0.20 0.21 0.22 0.22
0.07 0.07 0.08 0.08 0.09 0.10 0.10 0.11 0.12 0.13 0.14 0.16 0.15 0.15 0.15 0.15 0.13 0.12 0.12 0.12 0.12 0.12 0.11 0.12 0.15 0.17 0.18 0.17 0.16 0.18 0.18 0.18 0.19 0.19 0.18 0.18 0.17 0.18 0.18 0.18 0.18 0.18 0.18 0.18
0.04 0.04 0.04 0.04 0.05 0.06 0.07 0.08 0.09 0.10 0.11 0.13 0.13 0.12 0.12 0.12 0.13 0.14 0.13 0.12 0.12 0.13 0.13 0.14 0.15 0.16 0.16 0.15 0.16 0.17 0.16 0.16 0.18 0.19 0.17 0.17 0.16 0.16 0.15 0.15 0.16 0.16 0.15 0.15
0.03 0.03 0.03 0.03 0.03 0.03 0.04 0.05 0.07 0.08 0.09 0.10 0.11 0.11 0.11 0.11 0.12 0.13 0.13 0.13 0.12 0.14 0.14 0.14 0.14 0.14 0.15 0.14 0.15 0.14 0.14 0.13 0.14 0.14 0.14 0.14 0.14 0.14 0.14 0.13 0.13 0.14 0.14 0.14
0.02 0.02 0.02 0.02 0.02 0.03 0.03 0.04 0.04 0.05 0.07 0.09 0.11 0.11 0.12 0.13 0.13 0.12 0.12 0.11 0.12 0.13 0.13 0.13 0.13 0.14 0.14 0.13 0.13 0.12 0.11 0.11 0.12 0.12 0.12 0.12 0.13 0.13 0.13 0.14 0.14 0.13 0.13 0.13

GEFSNGP_prec_meanprecacc_144.txt.gz
Total_Precipitation_Accumulation
0.61 0.51 0.56 0.54 0.42 0.50 0.72 0.59 0.48 0.34 0.32 0.36 0.34 0.37 0.37 0.32 0.27 0.21 0.19 0.19 0.17 0.17 0.18 0.20 0.22 0.26 0.30 0.35 0.39 0.43 0.44 0.43 0.45 0.47 0.49 0.51 0.49 0.48 0.48 0.51 0.53 0.53 0.53 0.53
0.63 0.37 0.38 0.40 0.32 0.37 0.45 0.37 0.32 0.24 0.28 0.26 0.26 0.30 0.32 0.26 0.19 0.15 0.13 0.12 0.11 0.10 0.11 0.14 0.15 0.17 0.22 0.27 0.32 0.35 0.38 0.40 0.41 0.41 0.41 0.42 0.42 0.41 0.39 0.40 0.43 0.46 0.51 0.55
0.66 0.35 0.36 0.38 0.28 0.31 0.35 0.28 0.24 0.26 0.23 0.17 0.20 0.27 0.31 0.25 0.16 0.11 0.10 0.09 0.09 0.08 0.08 0.08 0.10 0.16 0.21 0.25 0.26 0.28 0.30 0.30 0.30 0.32 0.34 0.35 0.38 0.42 0.46 0.51 0.52 0.56 0.60 0.65
0.60 0.49 0.53 0.36 0.22 0.21 0.23 0.20 0.16 0.15 0.11 0.11 0.16 0.18 0.19 0.20 0.17 0.11 0.06 0.05 0.05 0.05 0.05 0.06 0.08 0.13 0.20 0.28 0.30 0.33 0.36 0.34 0.31 0.32 0.38 0.43 0.49 0.56 0.65 0.72 0.76 0.79 0.83 0.84
0.44 0.36 0.25 0.15 0.12 0.14 0.17 0.16 0.09 0.08 0.06 0.05 0.07 0.14 0.16 0.14 0.15 0.13 0.07 0.05 0.04 0.05 0.06 0.07 0.09 0.11 0.16 0.25 0.32 0.36 0.41 0.45 0.45 0.47 0.55 0.61 0.70 0.79 0.81 0.87 0.87 0.84 0.81 0.79
0.31 0.23 0.11 0.07 0.04 0.04 0.09 0.13 0.05 0.04 0.04 0.03 0.03 0.08 0.12 0.15 0.18 0.19 0.15 0.09 0.06 0.07 0.08 0.11 0.14 0.17 0.23 0.31 0.40 0.46 0.51 0.57 0.59 0.61 0.64 0.66 0.68 0.70 0.70 0.69 0.66 0.60 0.56 0.52
0.23 0.18 0.03 0.02 0.01 0.01 0.06 0.08 0.03 0.04 0.04 0.03 0.04 0.05 0.06 0.09 0.15 0.18 0.20 0.19 0.17 0.17 0.19 0.22 0.26 0.32 0.40 0.46 0.55 0.61 0.61 0.64 0.65 0.63 0.62 0.58 0.51 0.45 0.43 0.40 0.36 0.31 0.28 0.26
0.09 0.13 0.05 0.02 0.01 0.02 0.02 0.01 0.01 0.02 0.03 0.04 0.04 0.03 0.03 0.05 0.09 0.11 0.15 0.20 0.24 0.27 0.28 0.29 0.35 0.43 0.50 0.55 0.57 0.53 0.47 0.43 0.41 0.35 0.32 0.30 0.26 0.24 0.23 0.22 0.21 0.19 0.16 0.14
0.04 0.05 0.03 0.02 0.02 0.01 0.02 0.02 0.02 0.02 0.03 0.03 0.04 0.04 0.04 0.04 0.04 0.05 0.06 0.08 0.12 0.17 0.20 0.21 0.22 0.25 0.28 0.26 0.24 0.21 0.17 0.15 0.15 0.14 0.14 0.14 0.14 0.13 0.13 0.14 0.14 0.13 0.13 0.12
0.04 0.03 0.03 0.02 0.01 0.02 0.02 0.02 0.03 0.02 0.02 0.02 0.03 0.04 0.04 0.04 0.05 0.05 0.06 0.06 0.05 0.06 0.07 0.07 0.06 0.06 0.06 0.06 0.06 0.06 0.06 0.07 0.07 0.08 0.09 0.09 0.09 0.09 0.10 0.11 0.12 0.13 0.14 0.13
0.06 0.05 0.03 0.03 0.02 0.02 0.02 0.02 0.03 0.03 0.03 0.03 0.03 0.03 0.04 0.04 0.04 0.05 0.05 0.06 0.06 0.07 0.07 0.07 0.07 0.06 0.06 0.06 0.06 0.06 0.07 0.07 0.09 0.10 0.11 0.12 0.12 0.12 0.14 0.14 0.16 0.18 0.17 0.18
0.08 0.04 0.03 0.03 0.02 0.02 0.02 0.02 0.02 0.02 0.03 0.03 0.03 0.04 0.04 0.04 0.04 0.04 0.04 0.05 0.06 0.07 0.09 0.09 0.08 0.08 0.08 0.08 0.08 0.08 0.09 0.09 0.10 0.11 0.12 0.13 0.14 0.14 0.16 0.17 0.18 0.20 0.19 0.19
0.03 0.01 0.01 0.01 0.01 0.01 0.01 0.01 0.02 0.02 0.02 0.03 0.03 0.03 0.03 0.03 0.04 0.04 0.04 0.04 0.05 0.06 0.07 0.08 0.08 0.08 0.09 0.09 0.10 0.10 0.11 0.13 0.14 0.15 0.16 0.16 0.17 0.17 0.18 0.20 0.22 0.23 0.22 0.22
0.01 0.01 0.01 0.01 0.01 0.01 0.01 0.01 0.02 0.03 0.03 0.03 0.02 0.02 0.02 0.03 0.03 0.03 0.04 0.05 0.05 0.06 0.06 0.06 0.06 0.07 0.08 0.09 0.10 0.11 0.12 0.14 0.16 0.15 0.17 0.18 0.19 0.19 0.19 0.20 0.20 0.19 0.21 0.26
0.02 0.02 0.02 0.02 0.02 0.01 0.01 0.01 0.01 0.01 0.01 0.01 0.02 0.02 0.03 0.03 0.03 0.03 0.03 0.04 0.05 0.05 0.05 0.05 0.05 0.06 0.07 0.08 0.09 0.10 0.12 0.14 0.15 0.16 0.17 0.19 0.20 0.21 0.21 0.20 0.20 0.20 0.21 0.25
0.03 0.03 0.03 0.03 0.03 0.02 0.02 0.02 0.02 0.02 0.02 0.02 0.02 0.03 0.04 0.04 0.04 0.04 0.04 0.04 0.04 0.04 0.05 0.06 0.06 0.07 0.07 0.07 0.09 0.10 0.12 0.17 0.19 0.19 0.19 0.19 0.20 0.21 0.21 0.20 0.20 0.19 0.20 0.22
0.08 0.06 0.05 0.05 0.05 0.05 0.05 0.05 0.05 0.05 0.04 0.04 0.03 0.03 0.03 0.03 0.03 0.03 0.04 0.03 0.03 0.04 0.04 0.05 0.06 0.07 0.07 0.08 0.10 0.11 0.13 0.17 0.22 0.20 0.17 0.18 0.20 0.21 0.22 0.23 0.22 0.20 0.18 0.22
0.09 0.09 0.08 0.07 0.07 0.07 0.07 0.07 0.06 0.05 0.05 0.04 0.04 0.03 0.03 0.03 0.03 0.03 0.03 0.03 0.03 0.04 0.05 0.05 0.06 0.07 0.07 0.09 0.10 0.12 0.13 0.15 0.17 0.17 0.18 0.20 0.23 0.24 0.24 0.24 0.22 0.21 0.19 0.22
0.09 0.10 0.10 0.09 0.08 0.09 0.09 0.09 0.08 0.06 0.05 0.05 0.05 0.05 0.05 0.04 0.04 0.04 0.05 0.05 0.05 0.06 0.06 0.06 0.08 0.09 0.09 0.10 0.13 0.13 0.14 0.16 0.17 0.18 0.19 0.22 0.25 0.22 0.22 0.23 0.23 0.22 0.22 0.23
0.10 0.11 0.12 0.12 0.10 0.09 0.10 0.10 0.09 0.08 0.07 0.07 0.07 0.07 0.06 0.06 0.06 0.06 0.06 0.06 0.07 0.07 0.07 0.07 0.08 0.09 0.09 0.11 0.14 0.13 0.14 0.16 0.17 0.18 0.20 0.22 0.23 0.22 0.22 0.22 0.23 0.23 0.24 0.24
0.13 0.13 0.13 0.14 0.14 0.13 0.12 0.12 0.12 0.11 0.10 0.09 0.10 0.10 0.09 0.09 0.08 0.07 0.08 0.08 0.08 0.08 0.08 0.09 0.08 0.08 0.10 0.13 0.15 0.14 0.14 0.16 0.19 0.21 0.23 0.24 0.25 0.24 0.24 0.23 0.24 0.24 0.24 0.24
0.11 0.12 0.13 0.14 0.13 0.13 0.13 0.13 0.13 0.13 0.13 0.13 0.13 0.12 0.11 0.11 0.10 0.09 0.09 0.09 0.09 0.11 0.11 0.09 0.09 0.10 0.14 0.17 0.16 0.16 0.17 0.19 0.21 0.23 0.24 0.25 0.25 0.24 0.23 0.23 0.24 0.23 0.23 0.24
0.09 0.10 0.12 0.13 0.13 0.13 0.13 0.15 0.15 0.15 0.15 0.15 0.16 0.16 0.15 0.13 0.12 0.12 0.13 0.12 0.11 0.11 0.11 0.10 0.12 0.16 0.18 0.18 0.17 0.18 0.20 0.21 0.22 0.22 0.22 0.22 0.22 0.22 0.22 0.21 0.21 0.21 0.22 0.22
0.07 0.07 0.08 0.08 0.09 0.10 0.11 0.11 0.12 0.13 0.14 0.16 0.16 0.15 0.15 0.15 0.13 0.12 0.12 0.12 0.12 0.12 0.12 0.13 0.16 0.19 0.20 0.19 0.18 0.19 0.20 0.20 0.20 0.20 0.20 0.19 0.19 0.19 0.19 0.19 0.19 0.18 0.19 0.19
0.04 0.04 0.04 0.04 0.05 0.06 0.07 0.08 0.09 0.10 0.11 0.13 0.14 0.13 0.12 0.12 0.14 0.14 0.13 0.12 0.12 0.13 0.14 0.15 0.16 0.17 0.18 0.17 0.18 0.18 0.18 0.18 0.19 0.20 0.18 0.17 0.16 0.16 0.15 0.15 0.16 0.16 0.16 0.16
0.03 0.03 0.03 0.03 0.03 0.03 0.04 0.05 0.07 0.08 0.09 0.10 0.11 0.11 0.11 0.11 0.12 0.13 0.13 0.13 0.13 0.14 0.14 0.14 0.15 0.15 0.16 0.15 0.16 0.15 0.15 0.15 0.15 0.15 0.14 0.14 0.14 0.14 0.14 0.14 0.14 0.14 0.14 0.14
0.03 0.03 0.03 0.02 0.03 0.03 0.03 0.04 0.05 0.05 0.07 0.09 0.11 0.11 0.12 0.13 0.13 0.13 0.12 0.12 0.12 0.13 0.13 0.13 0.14 0.15 0.15 0.14 0.14 0.13 0.12 0.13 0.13 0.13 0.13 0.13 0.13 0.14 0.14 0.14 0.14 0.14 0.13 0.13

GEFSNGP_prec_meanprecacc_150.txt.gz
Total_Precipitation_Accumulation
0.61 0.51 0.57 0.54 0.42 0.50 0.72 0.59 0.48 0.34 0.32 0.36 0.34 0.37 0.37 0.32 0.27 0.21 0.19 0.19 0.17 0.17 0.18 0.20 0.22 0.26 0.30 0.35 0.39 0.43 0.44 0.43 0.45 0.47 0.49 0.51 0.49 0.48 0.48 0.51 0.53 0.53 0.53 0.53
0.64 0.37 0.38 0.40 0.32 0.37 0.45 0.37 0.32 0.24 0.28 0.26 0.26 0.30 0.32 0.26 0.19 0.15 0.13 0.12 0.11 0.10 0.11 0.14 0.15 0.17 0.22 0.27 0.32 0.35 0.38 0.40 0.41 0.41 0.41 0.42 0.42 0.41 0.39 0.40 0.43 0.46 0.51 0.55
0.67 0.35 0.37 0.39 0.28 0.31 0.35 0.28 0.24 0.26 0.24 0.17 0.20 0.27 0.31 0.25 0.16 0.11 0.10 0.09 0.09 0.08 0.08 0.08 0.10 0.16 0.21 0.25 0.26 0.28 0.30 0.30 0.30 0.32 0.34 0.35 0.38 0.42 0.46 0.51 0.52 0.56 0.60 0.65
0.61 0.49 0.54 0.36 0.22 0.21 0.23 0.20 0.16 0.16 0.11 0.11 0.16 0.18 0.19 0.20 0.17 0.11 0.06 0.05 0.05 0.05 0.05 0.06 0.08 0.13 0.20 0.28 0.30 0.33 0.36 0.34 0.31 0.32 0.38 0.43 0.49 0.56 0.65 0.72 0.76 0.80 0.83 0.84
0.45 0.37 0.25 0.15 0.12 0.14 0.17 0.16 0.09 0.08 0.06 0.05 0.07 0.14 0.16 0.14 0.15 0.13 0.07 0.05 0.04 0.05 0.06 0.07 0.09 0.11 0.16 0.25 0.32 0.36 0.41 0.45 0.45 0.47 0.55 0.61 0.70 0.79 0.81 0.87 0.87 0.84 0.82 0.80
0.32 0.24 0.11 0.07 0.04 0.04 0.09 0.13 0.05 0.04 0.04 0.03 0.03 0.09 0.12 0.15 0.18 0.19 0.15 0.09 0.06 0.07 0.08 0.11 0.14 0.17 0.23 0.31 0.40 0.46 0.51 0.57 0.59 0.61 0.64 0.66 0.68 0.70 0.70 0.69 0.66 0.60 0.57 0.53
0.24 0.19 0.04 0.02 0.01 0.01 0.06 0.08 0.03 0.04 0.04 0.03 0.04 0.05 0.06 0.10 0.15 0.18 0.20 0.19 0.17 0.17 0.19 0.22 0.26 0.32 0.40 0.46 0.55 0.61 0.61 0.64 0.65 0.63 0.62 0.58 0.51 0.45 0.43 0.40 0.36 0.32 0.29 0.27
0.10 0.14 0.05 0.02 0.01 0.02 0.03 0.01 0.01 0.02 0.03 0.04 0.04 0.03 0.03 0.05 0.09 0.11 0.15 0.20 0.24 0.27 0.28 0.29 0.35 0.43 0.50 0.55 0.57 0.53 0.47 0.43 0.41 0.35 0.32 0.30 0.26 0.24 0.23 0.22 0.21 0.19 0.17 0.15
0.05 0.05 0.03 0.02 0.02 0.02 0.02 0.02 0.02 0.02 0.03 0.03 0.04 0.04 0.04 0.04 0.04 0.05 0.06 0.08 0.12 0.17 0.20 0.21 0.22 0.25 0.28 0.26 0.24 0.21 0.17 0.15 0.15 0.14 0.14 0.15 0.14 0.13 0.14 0.14 0.14 0.14 0.13 0.12
0.04 0.04 0.03 0.02 0.01 0.02 0.02 0.02 0.03 0.02 0.02 0.02 0.03 0.04 0.04 0.04 0.05 0.05 0.06 0.06 0.05 0.06 0.07 0.07 0.06 0.06 0.06 0.06 0.06 0.06 0.06 0.07 0.07 0.08 0.09 0.09 0.09 0.09 0.10 0.11 0.12 0.14 0.14 0.14
0.07 0.05 0.03 0.03 0.02 0.02 0.02 0.02 0.03 0.03 0.03 0.03 0.03 0.03 0.04 0.04 0.04 0.05 0.05 0.06 0.06 0.07 0.07 0.07 0.07 0.06 0.06 0.06 0.06 0.06 0.07 0.07 0.09 0.10 0.11 0.12 0.12 0.13 0.15 0.16 0.18 0.19 0.19 0.19
0.08 0.04 0.04 0.03 0.02 0.02 0.02 0.02 0.02 0.02 0.03 0.03 0.03 0.04 0.04 0.04 0.04 0.04 0.04 0.05 0.06 0.07 0.09 0.09 0.08 0.08 0.08 0.08 0.08 0.08 0.09 0.09 0.10 0.11 0.12 0.13 0.14 0.14 0.17 0.19 0.21 0.22 0.22 0.22
0.03 0.02 0.02 0.01 0.01 0.01 0.01 0.01 0.02 0.02 0.02 0.03 0.03 0.03 0.03 0.03 0.04 0.04 0.04 0.04 0.05 0.06 0.07 0.08 0.08 0.08 0.09 0.09 0.10 0.10 0.11 0.13 0.14 0.15 0.16 0.16 0.17 0.18 0.19 0.21 0.24 0.25 0.24 0.23
0.01 0.01 0.01 0.01 0.01 0.01 0.01 0.01 0.02 0.03 0.03 0.03 0.02 0.02 0.02 0.03 0.03 0.03 0.04 0.05 0.05 0.06 0.06 0.06 0.06 0.07 0.09 0.10 0.10 0.11 0.12 0.14 0.16 0.16 0.17 0.19 0.19 0.20 0.20 0.21 0.21 0.20 0.22 0.26
0.02 0.02 0.02 0.02 0.02 0.01 0.01 0.01 0.01 0.01 0.01 0.01 0.02 0.02 0.03 0.03 0.03 0.03 0.03 0.04 0.05 0.05 0.05 0.06 0.05 0.06 0.07 0.08 0.09 0.10 0.12 0.14 0.15 0.16 0.17 0.19 0.20 0.21 0.21 0.21 0.21 0.21 0.22 0.25
0.03 0.03 0.03 0.03 0.03 0.02 0.02 0.02 0.02 0.02 0.02 0.02 0.02 0.03 0.04 0.04 0.04 0.04 0.04 0.04 0.04 0.05 0.06 0.06 0.06 0.07 0.07 0.07 0.09 0.10 0.12 0.17 0.19 0.19 0.19 0.19 0.20 0.21 0.22 0.22 0.21 0.20 0.21 0.23
0.08 0.06 0.05 0.05 0.05 0.05 0.05 0.05 0.05 0.05 0.04 0.04 0.03 0.03 0.03 0.03 0.03 0.04 0.04 0.04 0.04 0.04 0.04 0.05 0.06 0.07 0.08 0.08 0.10 0.11 0.13 0.17 0.22 0.20 0.17 0.18 0.21 0.23 0.24 0.25 0.24 0.21 0.19 0.23
0.09 0.09 0.08 0.07 0.07 0.07 0.07 0.07 0.06 0.06 0.05 0.05 0.04 0.03 0.03 0.04 0.04 0.04 0.04 0.03 0.04 0.04 0.05 0.06 0.06 0.07 0.07 0.09 0.11 0.12 0.13 0.15 0.17 0.18 0.18 0.21 0.25 0.26 0.27 0.26 0.24 0.23 0.20 0.24
0.09 0.10 0.10 0.09 0.09 0.09 0.09 0.09 0.08 0.07 0.06 0.05 0.05 0.05 0.05 0.05 0.04 0.05 0.05 0.05 0.05 0.06 0.06 0.06 0.09 0.09 0.09 0.11 0.14 0.13 0.14 0.16 0.17 0.18 0.20 0.24 0.27 0.25 0.25 0.25 0.25 0.24 0.24 0.25
0.11 0.11 0.12 0.12 0.10 0.10 0.10 0.10 0.09 0.08 0.07 0.07 0.07 0.07 0.06 0.06 0.06 0.06 0.06 0.06 0.07 0.07 0.07 0.08 0.09 0.09 0.10 0.11 0.15 0.14 0.14 0.16 0.18 0.19 0.22 0.24 0.25 0.24 0.24 0.25 0.25 0.25 0.26 0.26
0.13 0.13 0.13 0.14 0.14 0.13 0.13 0.12 0.12 0.11 0.10 0.09 0.10 0.10 0.10 0.09 0.08 0.08 0.08 0.08 0.08 0.08 0.08 0.10 0.09 0.09 0.11 0.14 0.16 0.15 0.15 0.17 0.20 0.23 0.25 0.26 0.27 0.26 0.25 0.25 0.25 0.26 0.26 0.26
0.11 0.12 0.13 0.14 0.13 0.13 0.13 0.13 0.13 0.13 0.13 0.13 0.13 0.12 0.12 0.11 0.10 0.10 0.10 0.10 0.09 0.11 0.11 0.10 0.10 0.11 0.15 0.18 0.17 0.17 0.18 0.20 0.23 0.25 0.26 0.26 0.27 0.26 0.25 0.25 0.25 0.25 0.25 0.25
0.09 0.11 0.12 0.13 0.13 0.13 0.13 0.15 0.15 0.15 0.15 0.15 0.16 0.16 0.15 0.13 0.12 0.12 0.13 0.12 0.11 0.12 0.11 0.11 0.13 0.17 0.19 0.19 0.18 0.19 0.21 0.22 0.23 0.24 0.24 0.24 0.24 0.24 0.24 0.23 0.23 0.23 0.23 0.23
0.07 0.07 0.08 0.08 0.09 0.10 0.11 0.11 0.12 0.13 0.14 0.16 0.16 0.16 0.16 0.15 0.14 0.12 0.12 0.13 0.12 0.13 0.12 0.13 0.17 0.19 0.21 0.19 0.19 0.20 0.21 0.21 0.21 0.21 0.21 0.20 0.20 0.20 0.21 0.21 0.20 0.20 0.20 0.20
0.05 0.04 0.04 0.04 0.05 0.06 0.07 0.08 0.09 0.10 0.12 0.14 0.14 0.13 0.12 0.13 0.14 0.14 0.14 0.13 0.13 0.14 0.14 0.15 0.16 0.17 0.18 0.17 0.18 0.19 0.19 0.19 0.20 0.21 0.20 0.19 0.18 0.18 0.17 0.17 0.18 0.17 0.17 0.17
0.03 0.03 0.03 0.03 0.03 0.03 0.04 0.05 0.07 0.08 0.09 0.10 0.12 0.12 0.11 0.12 0.13 0.14 0.14 0.14 0.13 0.15 0.15 0.15 0.15 0.16 0.16 0.16 0.16 0.16 0.16 0.16 0.17 0.17 0.16 0.16 0.17 0.16 0.16 0.15 0.15 0.15 0.15 0.15
0.03 0.03 0.03 0.03 0.03 0.03 0.04 0.04 0.05 0.06 0.07 0.09 0.11 0.12 0.13 0.14 0.14 0.14 0.13 0.13 0.13 0.14 0.14 0.14 0.14 0.15 0.15 0.15 0.14 0.14 0.13 0.14 0.14 0.14 0.14 0.15 0.15 0.15 0.15 0.15 0.15 0.15 0.14 0.14

GEFSNGP_prec_meanprecacc_156.txt.gz
Total_Precipitation_Accumulation
0.61 0.51 0.57 0.55 0.43 0.50 0.73 0.60 0.49 0.34 0.32 0.36 0.34 0.37 0.37 0.32 0.27 0.21 0.19 0.19 0.17 0.17 0.18 0.20 0.22 0.26 0.30 0.35 0.39 0.43 0.44 0.43 0.45 0.47 0.49 0.51 0.49 0.48 0.48 0.51 0.53 0.53 0.53 0.53
0.64 0.37 0.38 0.40 0.32 0.37 0.45 0.37 0.32 0.24 0.28 0.26 0.26 0.30 0.32 0.26 0.19 0.15 0.13 0.12 0.11 0.10 0.11 0.14 0.15 0.17 0.22 0.27 0.32 0.35 0.38 0.40 0.41 0.41 0.41 0.42 0.42 0.41 0.39 0.40 0.43 0.46 0.51 0.55
0.68 0.35 0.37 0.39 0.28 0.31 0.35 0.28 0.24 0.26 0.24 0.17 0.20 0.27 0.31 0.25 0.16 0.11 0.10 0.09 0.09 0.08 0.08 0.08 0.10 0.16 0.21 0.25 0.26 0.28 0.30 0.30 0.30 0.32 0.34 0.35 0.38 0.42 0.46 0.51 0.52 0.56 0.60 0.65
0.62 0.49 0.54 0.36 0.22 0.21 0.23 0.20 0.16 0.16 0.11 0.11 0.16 0.18 0.19 0.20 0.17 0.11 0.06 0.05 0.05 0.05 0.05 0.06 0.08 0.13 0.20 0.28 0.30 0.33 0.36 0.34 0.31 0.32 0.38 0.43 0.49 0.56 0.65 0.72 0.76 0.80 0.83 0.84
0.46 0.38 0.25 0.15 0.12 0.14 0.17 0.16 0.09 0.08 0.06 0.05 0.07 0.14 0.16 0.14 0.15 0.13 0.07 0.05 0.04 0.05 0.06 0.07 0.09 0.11 0.16 0.25 0.32 0.36 0.41 0.45 0.45 0.47 0.55 0.61 0.70 0.79 0.81 0.87 0.87 0.84 0.82 0.80
0.35 0.25 0.11 0.07 0.04 0.04 0.09 0.13 0.05 0.04 0.04 0.03 0.04 0.09 0.12 0.15 0.18 0.19 0.15 0.09 0.06 0.07 0.08 0.11 0.14 0.17 0.23 0.31 0.40 0.46 0.51 0.57 0.59 0.61 0.64 0.66 0.68 0.70 0.70 0.69 0.67 0.61 0.57 0.53
0.25 0.20 0.04 0.02 0.01 0.01 0.06 0.09 0.03 0.04 0.04 0.03 0.04 0.05 0.06 0.10 0.15 0.18 0.20 0.19 0.17 0.17 0.19 0.22 0.26 0.32 0.40 0.46 0.55 0.61 0.61 0.64 0.65 0.63 0.62 0.58 0.51 0.45 0.43 0.40 0.36 0.32 0.29 0.27
0.10 0.16 0.06 0.02 0.02 0.02 0.03 0.02 0.01 0.02 0.03 0.04 0.04 0.03 0.03 0.05 0.09 0.11 0.15 0.20 0.24 0.28 0.28 0.29 0.35 0.43 0.50 0.55 0.57 0.53 0.47 0.43 0.41 0.35 0.32 0.30 0.26 0.24 0.23 0.22 0.22 0.20 0.17 0.16
0.05 0.06 0.03 0.02 0.02 0.02 0.02 0.03 0.02 0.03 0.03 0.03 0.04 0.04 0.04 0.04 0.04 0.05 0.06 0.08 0.12 0.17 0.20 0.21 0.22 0.25 0.28 0.26 0.24 0.21 0.17 0.15 0.15 0.14 0.14 0.15 0.14 0.14 0.14 0.14 0.15 0.14 0.14 0.13
0.05 0.04 0.03 0.02 0.01 0.02 0.03 0.03 0.03 0.03 0.02 0.02 0.04 0.04 0.04 0.04 0.05 0.05 0.06 0.06 0.05 0.06 0.07 0.07 0.06 0.06 0.06 0.06 0.06 0.06 0.06 0.07 0.07 0.08 0.09 0.09 0.09 0.09 0.10 0.11 0.13 0.14 0.15 0.15
0.07 0.05 0.04 0.03 0.02 0.02 0.02 0.02 0.03 0.03 0.03 0.03 0.03 0.03 0.04 0.04 0.04 0.05 0.05 0.06 0.06 0.07 0.07 0.07 0.07 0.06 0.06 0.06 0.06 0.06 0.07 0.08 0.09 0.10 0.11 0.12 0.12 0.13 0.15 0.16 0.18 0.20 0.19 0.20
0.08 0.05 0.04 0.03 0.02 0.02 0.02 0.02 0.02 0.02 0.03 0.03 0.03 0.04 0.04 0.04 0.04 0.04 0.04 0.05 0.06 0.07 0.09 0.09 0.08 0.08 0.08 0.08 0.08 0.08 0.09 0.09 0.10 0.11 0.12 0.13 0.14 0.15 0.17 0.19 0.21 0.22 0.22 0.22
0.03 0.02 0.02 0.02 0.01 0.01 0.01 0.01 0.02 0.02 0.02 0.03 0.03 0.03 0.03 0.03 0.04 0.04 0.04 0.04 0.05 0.06 0.07 0.08 0.08 0.08 0.09 0.09 0.10 0.10 0.11 0.13 0.14 0.15 0.16 0.17 0.17 0.18 0.19 0.22 0.25 0.25 0.24 0.24
0.02 0.02 0.02 0.02 0.01 0.01 0.01 0.02 0.02 0.03 0.03 0.03 0.03 0.02 0.03 0.03 0.03 0.03 0.04 0.05 0.05 0.06 0.06 0.06 0.06 0.07 0.09 0.10 0.10 0.11 0.12 0.14 0.16 0.16 0.17 0.19 0.20 0.20 0.20 0.21 0.21 0.20 0.22 0.27
0.03 0.03 0.03 0.03 0.02 0.01 0.01 0.01 0.01 0.01 0.01 0.01 0.02 0.03 0.03 0.03 0.03 0.03 0.03 0.04 0.05 0.05 0.05 0.06 0.05 0.06 0.07 0.08 0.09 0.11 0.12 0.14 0.15 0.16 0.17 0.19 0.21 0.22 0.22 0.22 0.22 0.21 0.22 0.26
0.03 0.03 0.03 0.04 0.03 0.02 0.02 0.02 0.02 0.02 0.02 0.02 0.02 0.03 0.04 0.04 0.04 0.04 0.04 0.04 0.04 0.05 0.06 0.06 0.06 0.07 0.07 0.07 0.09 0.10 0.12 0.17 0.20 0.19 0.19 0.20 0.21 0.22 0.23 0.22 0.22 0.21 0.21 0.24
0.08 0.06 0.05 0.05 0.05 0.05 0.05 0.05 0.05 0.05 0.04 0.04 0.04 0.03 0.03 0.03 0.03 0.04 0.04 0.04 0.04 0.04 0.04 0.05 0.06 0.07 0.08 0.08 0.10 0.11 0.13 0.17 0.22 0.20 0.18 0.19 0.21 0.24 0.25 0.26 0.24 0.22 0.20 0.24
0.09 0.09 0.08 0.07 0.07 0.07 0.07 0.07 0.06 0.06 0.05 0.05 0.04 0.04 0.04 0.04 0.04 0.04 0.04 0.03 0.04 0.04 0.05 0.06 0.06 0.07 0.08 0.09 0.11 0.12 0.14 0.15 0.17 0.18 0.19 0.22 0.26 0.27 0.28 0.27 0.26 0.24 0.22 0.25
0.09 0.10 0.10 0.09 0.09 0.09 0.09 0.09 0.08 0.07 0.06 0.05 0.05 0.05 0.05 0.05 0.05 0.05 0.05 0.05 0.05 0.06 0.06 0.06 0.09 0.09 0.09 0.11 0.14 0.14 0.15 0.16 0.17 0.18 0.20 0.25 0.28 0.25 0.26 0.27 0.26 0.25 0.25 0.27
0.11 0.12 0.12 0.12 0.10 0.10 0.10 0.10 0.09 0.08 0.08 0.07 0.08 0.07 0.07 0.06 0.06 0.06 0.06 0.06 0.07 0.07 0.07 0.08 0.09 0.09 0.10 0.12 0.15 0.14 0.14 0.17 0.18 0.20 0.22 0.25 0.26 0.25 0.25 0.26 0.27 0.27 0.27 0.28
0.13 0.13 0.13 0.14 0.14 0.13 0.13 0.12 0.12 0.12 0.11 0.10 0.10 0.10 0.10 0.09 0.08 0.08 0.08 0.08 0.08 0.08 0.08 0.10 0.09 0.09 0.11 0.15 0.17 0.16 0.16 0.18 0.21 0.24 0.26 0.28 0.28 0.27 0.27 0.27 0.27 0.27 0.28 0.28
0.12 0.12 0.13 0.14 0.13 0.13 0.13 0.14 0.13 0.13 0.13 0.13 0.13 0.12 0.12 0.11 0.10 0.10 0.10 0.10 0.09 0.11 0.12 0.11 0.10 0.12 0.16 0.19 0.19 0.18 0.20 0.22 0.24 0.26 0.27 0.28 0.28 0.28 0.26 0.26 0.27 0.27 0.27 0.27
0.09 0.11 0.12 0.13 0.13 0.13 0.13 0.15 0.15 0.15 0.15 0.15 0.16 0.16 0.15 0.13 0.12 0.12 0.13 0.12 0.11 0.12 0.12 0.11 0.14 0.18 0.20 0.20 0.20 0.21 0.22 0.24 0.25 0.25 0.25 0.25 0.26 0.26 0.25 0.25 0.24 0.25 0.26 0.25
0.07 0.07 0.08 0.08 0.09 0.10 0.11 0.11 0.12 0.13 0.14 0.16 0.16 0.16 0.16 0.15 0.14 0.12 0.12 0.13 0.13 0.13 0.13 0.13 0.17 0.20 0.21 0.20 0.20 0.21 0.22 0.22 0.23 0.23 0.22 0.22 0.21 0.22 0.22 0.22 0.22 0.22 0.22 0.22
0.05 0.04 0.04 0.04 0.05 0.06 0.07 0.08 0.09 0.10 0.12 0.14 0.14 0.13 0.12 0.13 0.14 0.14 0.14 0.13 0.13 0.15 0.15 0.15 0.17 0.18 0.18 0.18 0.19 0.19 0.19 0.20 0.22 0.22 0.21 0.20 0.20 0.19 0.19 0.19 0.20 0.20 0.19 0.19
0.03 0.03 0.03 0.03 0.03 0.03 0.04 0.05 0.07 0.08 0.10 0.11 0.12 0.12 0.11 0.12 0.13 0.14 0.14 0.14 0.14 0.15 0.15 0.16 0.16 0.16 0.17 0.16 0.17 0.17 0.16 0.16 0.17 0.18 0.17 0.17 0.18 0.18 0.17 0.17 0.17 0.17 0.17 0.17
0.04 0.04 0.03 0.03 0.03 0.03 0.04 0.04 0.05 0.06 0.08 0.10 0.11 0.12 0.13 0.14 0.14 0.14 0.13 0.13 0.14 0.15 0.15 0.15 0.15 0.16 0.16 0.16 0.15 0.15 0.14 0.15 0.15 0.15 0.15 0.16 0.16 0.17 0.16 0.17 0.17 0.16 0.16 0.15

GEFSNGP_prec_meanprecacc_162.txt.gz
Total_Precipitation_Accumulation
0.61 0.51 0.57 0.55 0.43 0.50 0.73 0.60 0.49 0.34 0.32 0.36 0.34 0.37 0.37 0.32 0.27 0.21 0.19 0.19 0.17 0.17 0.18 0.20 0.22 0.26 0.30 0.35 0.39 0.43 0.44 0.43 0.45 0.47 0.49 0.51 0.49 0.48 0.48 0.51 0.53 0.53 0.53 0.53
0.64 0.37 0.39 0.40 0.32 0.37 0.45 0.37 0.32 0.25 0.28 0.26 0.26 0.30 0.32 0.26 0.19 0.15 0.13 0.12 0.11 0.10 0.11 0.14 0.15 0.17 0.22 0.27 0.32 0.35 0.38 0.40 0.41 0.41 0.41 0.42 0.42 0.41 0.39 0.40 0.43 0.46 0.51 0.55
0.68 0.35 0.37 0.39 0.28 0.31 0.35 0.28 0.24 0.26 0.24 0.17 0.20 0.27 0.31 0.25 0.16 0.11 0.10 0.09 0.09 0.08 0.08 0.08 0.10 0.16 0.21 0.25 0.26 0.28 0.30 0.30 0.30 0.32 0.34 0.35 0.38 0.42 0.46 0.51 0.52 0.56 0.60 0.65
0.63 0.49 0.54 0.36 0.22 0.21 0.23 0.20 0.16 0.16 0.11 0.11 0.16 0.18 0.19 0.20 0.17 0.11 0.06 0.05 0.05 0.05 0.05 0.06 0.08 0.13 0.20 0.28 0.30 0.33 0.36 0.34 0.31 0.32 0.38 0.43 0.49 0.56 0.65 0.72 0.76 0.80 0.83 0.84
0.48 0.39 0.25 0.15 0.12 0.14 0.17 0.16 0.09 0.08 0.06 0.05 0.07 0.14 0.16 0.14 0.15 0.13 0.07 0.05 0.04 0.05 0.06 0.07 0.09 0.11 0.16 0.25 0.32 0.36 0.41 0.45 0.45 0.47 0.55 0.61 0.70 0.79 0.81 0.87 0.87 0.84 0.82 0.80
0.36 0.27 0.12 0.08 0.04 0.04 0.09 0.13 0.05 0.04 0.04 0.03 0.04 0.09 0.12 0.15 0.18 0.19 0.15 0.09 0.06 0.07 0.08 0.11 0.14 0.17 0.23 0.31 0.40 0.46 0.51 0.57 0.59 0.61 0.64 0.66 0.68 0.70 0.70 0.69 0.67 0.61 0.57 0.53
0.27 0.22 0.05 0.02 0.01 0.01 0.06 0.09 0.03 0.04 0.04 0.04 0.04 0.05 0.06 0.10 0.15 0.18 0.20 0.19 0.17 0.17 0.19 0.22 0.26 0.32 0.40 0.46 0.55 0.61 0.61 0.64 0.65 0.63 0.62 0.58 0.51 0.45 0.43 0.40 0.36 0.32 0.29 0.27
0.11 0.17 0.06 0.02 0.02 0.03 0.03 0.02 0.02 0.03 0.04 0.04 0.04 0.03 0.03 0.05 0.09 0.12 0.15 0.20 0.24 0.28 0.28 0.29 0.35 0.43 0.50 0.55 0.57 0.53 0.47 0.43 0.41 0.35 0.32 0.30 0.26 0.24 0.23 0.23 0.22 0.20 0.17 0.16
0.06 0.06 0.04 0.03 0.02 0.02 0.03 0.03 0.03 0.03 0.03 0.03 0.04 0.04 0.04 0.04 0.04 0.06 0.07 0.09 0.12 0.18 0.20 0.21 0.22 0.25 0.28 0.26 0.24 0.21 0.17 0.15 0.15 0.14 0.14 0.15 0.14 0.14 0.14 0.15 0.15 0.14 0.14 0.13
0.06 0.04 0.03 0.02 0.02 0.02 0.03 0.03 0.03 0.03 0.02 0.03 0.04 0.04 0.04 0.04 0.05 0.05 0.06 0.06 0.06 0.06 0.07 0.07 0.06 0.07 0.07 0.06 0.06 0.06 0.06 0.07 0.07 0.08 0.09 0.09 0.09 0.09 0.10 0.12 0.13 0.14 0.15 0.15
0.08 0.05 0.04 0.03 0.02 0.03 0.03 0.02 0.03 0.03 0.03 0.03 0.03 0.03 0.04 0.04 0.04 0.05 0.05 0.06 0.06 0.07 0.07 0.07 0.07 0.06 0.06 0.06 0.06 0.06 0.07 0.08 0.09 0.10 0.11 0.12 0.12 0.13 0.15 0.16 0.18 0.20 0.19 0.20
0.09 0.05 0.04 0.03 0.02 0.02 0.02 0.02 0.02 0.02 0.03 0.03 0.03 0.04 0.04 0.04 0.04 0.04 0.04 0.05 0.06 0.07 0.09 0.09 0.08 0.08 0.08 0.08 0.08 0.08 0.09 0.09 0.10 0.11 0.12 0.13 0.14 0.15 0.17 0.19 0.21 0.23 0.22 0.22
0.04 0.02 0.02 0.02 0.02 0.01 0.01 0.01 0.02 0.02 0.02 0.03 0.03 0.03 0.03 0.03 0.04 0.04 0.04 0.04 0.05 0.07 0.07 0.08 0.08 0.08 0.09 0.09 0.10 0.10 0.11 0.13 0.14 0.15 0.16 0.17 0.17 0.18 0.19 0.22 0.25 0.25 0.24 0.24
0.03 0.03 0.03 0.02 0.02 0.01 0.01 0.02 0.03 0.03 0.04 0.03 0.03 0.02 0.03 0.03 0.03 0.03 0.05 0.06 0.06 0.06 0.06 0.07 0.07 0.08 0.09 0.10 0.10 0.11 0.12 0.14 0.16 0.16 0.17 0.19 0.20 0.20 0.20 0.21 0.22 0.21 0.23 0.27
0.04 0.04 0.03 0.03 0.02 0.02 0.01 0.01 0.01 0.01 0.01 0.01 0.02 0.03 0.03 0.04 0.04 0.04 0.04 0.05 0.05 0.06 0.06 0.06 0.06 0.06 0.07 0.08 0.09 0.11 0.12 0.14 0.15 0.16 0.18 0.20 0.21 0.22 0.22 0.22 0.22 0.21 0.22 0.26
0.03 0.03 0.03 0.04 0.04 0.03 0.02 0.02 0.02 0.02 0.02 0.02 0.03 0.03 0.04 0.04 0.04 0.04 0.04 0.04 0.04 0.05 0.06 0.06 0.07 0.07 0.07 0.07 0.09 0.10 0.12 0.17 0.20 0.19 0.19 0.20 0.21 0.23 0.23 0.23 0.22 0.21 0.22 0.24
0.08 0.07 0.05 0.06 0.05 0.05 0.05 0.05 0.05 0.05 0.05 0.04 0.04 0.04 0.04 0.04 0.03 0.04 0.04 0.04 0.04 0.04 0.04 0.05 0.06 0.07 0.08 0.08 0.10 0.11 0.13 0.17 0.22 0.20 0.18 0.19 0.21 0.24 0.25 0.26 0.25 0.22 0.20 0.24
0.10 0.10 0.09 0.08 0.07 0.07 0.07 0.07 0.06 0.06 0.05 0.05 0.04 0.04 0.04 0.04 0.04 0.04 0.04 0.04 0.04 0.04 0.05 0.06 0.06 0.07 0.08 0.09 0.11 0.13 0.14 0.15 0.17 0.18 0.19 0.22 0.26 0.27 0.28 0.28 0.26 0.25 0.22 0.26
0.09 0.10 0.10 0.09 0.09 0.09 0.09 0.09 0.08 0.07 0.06 0.06 0.05 0.05 0.05 0.05 0.05 0.05 0.05 0.05 0.06 0.06 0.06 0.06 0.09 0.09 0.09 0.11 0.14 0.14 0.15 0.16 0.18 0.19 0.21 0.25 0.28 0.26 0.26 0.27 0.27 0.26 0.26 0.28
0.11 0.12 0.12 0.12 0.10 0.10 0.10 0.10 0.09 0.08 0.08 0.07 0.08 0.07 0.07 0.06 0.06 0.06 0.06 0.07 0.07 0.07 0.07 0.08 0.09 0.09 0.10 0.12 0.16 0.15 0.15 0.17 0.18 0.20 0.23 0.26 0.27 0.26 0.26 0.27 0.27 0.28 0.28 0.28
0.14 0.13 0.13 0.14 0.14 0.13 0.13 0.12 0.12 0.12 0.11 0.10 0.10 0.11 0.10 0.09 0.08 0.08 0.08 0.08 0.08 0.08 0.08 0.10 0.09 0.09 0.11 0.15 0.18 0.16 0.16 0.19 0.21 0.24 0.27 0.28 0.29 0.28 0.27 0.27 0.28 0.29 0.29 0.29
0.12 0.12 0.13 0.14 0.13 0.13 0.13 0.14 0.13 0.13 0.13 0.13 0.13 0.13 0.12 0.11 0.10 0.10 0.10 0.10 0.10 0.12 0.12 0.11 0.10 0.12 0.17 0.20 0.20 0.19 0.21 0.23 0.25 0.27 0.28 0.29 0.29 0.29 0.27 0.28 0.28 0.28 0.28 0.28
0.09 0.11 0.12 0.13 0.13 0.13 0.14 0.15 0.15 0.15 0.15 0.15 0.16 0.16 0.15 0.14 0.13 0.13 0.13 0.12 0.11 0.12 0.12 0.11 0.14 0.18 0.21 0.21 0.20 0.22 0.23 0.25 0.25 0.26 0.26 0.26 0.27 0.26 0.26 0.26 0.25 0.26 0.27 0.27
0.07 0.07 0.08 0.08 0.09 0.10 0.11 0.11 0.12 0.13 0.15 0.16 0.16 0.16 0.16 0.15 0.14 0.13 0.13 0.13 0.13 0.13 0.13 0.13 0.18 0.21 0.22 0.21 0.21 0.22 0.23 0.23 0.24 0.24 0.24 0.23 0.22 0.23 0.23 0.23 0.23 0.23 0.23 0.24
0.05 0.04 0.04 0.05 0.05 0.06 0.07 0.08 0.09 0.10 0.12 0.14 0.14 0.13 0.13 0.13 0.15 0.15 0.14 0.13 0.13 0.15 0.15 0.16 0.17 0.19 0.19 0.18 0.19 0.20 0.20 0.21 0.23 0.24 0.22 0.22 0.21 0.21 0.20 0.20 0.21 0.21 0.21 0.21
0.03 0.03 0.03 0.03 0.03 0.03 0.04 0.05 0.07 0.08 0.10 0.11 0.12 0.12 0.12 0.12 0.13 0.15 0.15 0.14 0.14 0.15 0.16 0.16 0.16 0.17 0.17 0.17 0.17 0.17 0.17 0.17 0.18 0.19 0.18 0.19 0.19 0.19 0.18 0.18 0.18 0.19 0.19 0.19
0.04 0.04 0.03 0.03 0.03 0.04 0.04 0.05 0.05 0.07 0.08 0.10 0.12 0.12 0.13 0.14 0.14 0.14 0.14 0.14 0.14 0.15 0.15 0.15 0.16 0.16 0.16 0.16 0.16 0.15 0.15 0.15 0.16 0.16 0.16 0.17 0.17 0.18 0.17 0.18 0.18 0.18 0.18 0.17

GEFSNGP_prec_meanprecacc_168.txt.gz
Total_Precipitation_Accumulation
0.61 0.51 0.57 0.55 0.43 0.50 0.73 0.60 0.49 0.34 0.32 0.36 0.35 0.37 0.37 0.32 0.27 0.21 0.19 0.19 0.17 0.17 0.18 0.20 0.22 0.26 0.30 0.35 0.39 0.43 0.44 0.43 0.45 0.47 0.49 0.51 0.49 0.48 0.48 0.51 0.53 0.53 0.53 0.53
0.64 0.37 0.39 0.40 0.32 0.37 0.45 0.37 0.32 0.25 0.29 0.26 0.26 0.30 0.32 0.26 0.19 0.15 0.13 0.12 0.11 0.10 0.11 0.14 0.15 0.17 0.22 0.27 0.32 0.35 0.38 0.40 0.41 0.41 0.41 0.42 0.42 0.41 0.39 0.40 0.43 0.46 0.51 0.55
0.68 0.35 0.37 0.39 0.28 0.31 0.35 0.28 0.24 0.27 0.24 0.17 0.20 0.27 0.31 0.25 0.16 0.11 0.10 0.09 0.09 0.08 0.08 0.08 0.10 0.16 0.21 0.25 0.26 0.28 0.30 0.30 0.30 0.32 0.34 0.35 0.38 0.42 0.46 0.51 0.52 0.56 0.60 0.65
0.64 0.50 0.54 0.36 0.22 0.21 0.24 0.21 0.16 0.16 0.11 0.11 0.16 0.18 0.19 0.20 0.17 0.11 0.07 0.05 0.05 0.05 0.05 0.06 0.08 0.13 0.20 0.28 0.30 0.33 0.36 0.34 0.31 0.32 0.38 0.43 0.49 0.56 0.65 0.72 0.76 0.80 0.83 0.84
0.50 0.39 0.26 0.15 0.12 0.14 0.17 0.16 0.09 0.08 0.06 0.06 0.07 0.14 0.16 0.14 0.15 0.13 0.08 0.05 0.05 0.05 0.06 0.07 0.09 0.11 0.16 0.25 0.32 0.36 0.41 0.45 0.45 0.48 0.55 0.61 0.70 0.79 0.81 0.87 0.87 0.85 0.82 0.80
0.38 0.28 0.12 0.08 0.04 0.04 0.09 0.14 0.05 0.04 0.04 0.04 0.04 0.10 0.13 0.15 0.18 0.19 0.15 0.09 0.07 0.07 0.08 0.11 0.14 0.17 0.23 0.31 0.40 0.46 0.51 0.57 0.59 0.61 0.64 0.66 0.68 0.70 0.70 0.69 0.67 0.61 0.57 0.53
0.28 0.23 0.05 0.02 0.01 0.01 0.07 0.10 0.04 0.04 0.04 0.04 0.04 0.05 0.06 0.10 0.15 0.18 0.20 0.20 0.18 0.18 0.19 0.22 0.26 0.32 0.40 0.46 0.55 0.61 0.61 0.64 0.65 0.63 0.62 0.58 0.51 0.45 0.43 0.40 0.36 0.32 0.29 0.28
0.12 0.19 0.07 0.02 0.02 0.03 0.04 0.02 0.02 0.03 0.04 0.04 0.04 0.03 0.03 0.05 0.09 0.12 0.15 0.20 0.25 0.28 0.29 0.30 0.36 0.44 0.50 0.55 0.57 0.53 0.47 0.43 0.41 0.35 0.32 0.30 0.26 0.24 0.23 0.23 0.22 0.20 0.17 0.16
0.07 0.07 0.04 0.03 0.02 0.02 0.03 0.03 0.03 0.03 0.03 0.03 0.04 0.04 0.04 0.04 0.04 0.06 0.07 0.09 0.13 0.18 0.21 0.22 0.23 0.26 0.28 0.27 0.24 0.21 0.17 0.15 0.15 0.14 0.14 0.15 0.14 0.14 0.14 0.15 0.15 0.14 0.14 0.13
0.06 0.04 0.03 0.02 0.02 0.02 0.03 0.04 0.04 0.03 0.03 0.03 0.04 0.04 0.04 0.04 0.05 0.05 0.06 0.06 0.06 0.07 0.07 0.07 0.07 0.07 0.07 0.06 0.06 0.07 0.06 0.07 0.07 0.08 0.09 0.09 0.09 0.09 0.10 0.12 0.13 0.14 0.15 0.15
0.08 0.05 0.04 0.03 0.02 0.03 0.03 0.03 0.04 0.04 0.04 0.04 0.04 0.04 0.04 0.04 0.04 0.05 0.05 0.06 0.06 0.07 0.08 0.07 0.07 0.07 0.07 0.06 0.06 0.06 0.07 0.08 0.09 0.10 0.11 0.12 0.12 0.13 0.15 0.16 0.18 0.20 0.20 0.20
0.09 0.05 0.05 0.04 0.02 0.03 0.03 0.02 0.03 0.03 0.03 0.03 0.03 0.04 0.04 0.04 0.04 0.04 0.04 0.05 0.06 0.07 0.09 0.09 0.09 0.08 0.08 0.08 0.08 0.08 0.09 0.09 0.10 0.11 0.12 0.13 0.14 0.15 0.17 0.19 0.21 0.23 0.22 0.22
0.04 0.02 0.03 0.02 0.02 0.02 0.02 0.02 0.02 0.03 0.03 0.03 0.03 0.03 0.03 0.03 0.04 0.04 0.04 0.04 0.05 0.07 0.07 0.08 0.08 0.08 0.09 0.10 0.10 0.10 0.11 0.13 0.14 0.15 0.16 0.17 0.17 0.18 0.19 0.22 0.25 0.25 0.25 0.24
0.03 0.03 0.04 0.03 0.02 0.02 0.02 0.02 0.03 0.04 0.04 0.03 0.03 0.03 0.03 0.03 0.03 0.03 0.05 0.06 0.06 0.06 0.07 0.07 0.07 0.08 0.09 0.10 0.10 0.11 0.13 0.14 0.16 0.16 0.17 0.19 0.20 0.20 0.20 0.21 0.22 0.21 0.23 0.28
0.04 0.04 0.04 0.03 0.02 0.02 0.02 0.02 0.02 0.02 0.01 0.01 0.02 0.03 0.03 0.04 0.04 0.04 0.04 0.05 0.06 0.06 0.06 0.06 0.06 0.06 0.08 0.09 0.09 0.11 0.12 0.14 0.15 0.16 0.18 0.20 0.21 0.22 0.22 0.22 0.22 0.22 0.22 0.26
0.04 0.03 0.04 0.04 0.04 0.03 0.02 0.02 0.02 0.02 0.02 0.03 0.03 0.04 0.04 0.04 0.04 0.04 0.04 0.04 0.04 0.05 0.06 0.07 0.07 0.07 0.07 0.07 0.09 0.10 0.12 0.17 0.20 0.19 0.19 0.20 0.21 0.23 0.23 0.23 0.22 0.22 0.22 0.24
0.09 0.08 0.07 0.07 0.06 0.06 0.06 0.06 0.06 0.06 0.05 0.05 0.04 0.04 0.04 0.04 0.04 0.04 0.04 0.04 0.04 0.04 0.05 0.05 0.06 0.07 0.08 0.09 0.10 0.12 0.13 0.17 0.22 0.20 0.18 0.19 0.22 0.24 0.25 0.26 0.25 0.23 0.20 0.25
0.11 0.11 0.09 0.09 0.08 0.08 0.08 0.08 0.07 0.06 0.06 0.05 0.05 0.04 0.04 0.04 0.04 0.04 0.04 0.04 0.04 0.04 0.05 0.06 0.07 0.07 0.08 0.09 0.11 0.13 0.14 0.16 0.17 0.18 0.19 0.22 0.26 0.28 0.28 0.28 0.26 0.25 0.23 0.26
0.09 0.10 0.11 0.10 0.09 0.09 0.10 0.09 0.08 0.07 0.06 0.06 0.06 0.06 0.05 0.05 0.05 0.05 0.05 0.05 0.06 0.06 0.06 0.07 0.09 0.10 0.10 0.11 0.15 0.15 0.15 0.17 0.18 0.19 0.21 0.26 0.29 0.26 0.27 0.28 0.27 0.26 0.27 0.28
0.11 0.12 0.13 0.12 0.11 0.10 0.11 0.10 0.10 0.09 0.08 0.08 0.08 0.07 0.07 0.06 0.06 0.06 0.06 0.07 0.08 0.08 0.07 0.08 0.10 0.10 0.11 0.13 0.17 0.15 0.15 0.18 0.19 0.20 0.23 0.26 0.27 0.26 0.26 0.27 0.28 0.28 0.29 0.29
0.14 0.14 0.14 0.15 0.15 0.14 0.13 0.13 0.12 0.12 0.11 0.10 0.11 0.11 0.10 0.09 0.08 0.08 0.08 0.09 0.08 0.09 0.09 0.11 0.10 0.10 0.12 0.16 0.19 0.17 0.17 0.19 0.22 0.25 0.27 0.29 0.29 0.29 0.28 0.28 0.29 0.29 0.30 0.30
0.13 0.13 0.14 0.14 0.14 0.14 0.14 0.14 0.14 0.14 0.13 0.14 0.13 0.13 0.12 0.12 0.11 0.10 0.10 0.11 0.10 0.13 0.13 0.12 0.11 0.13 0.18 0.21 0.20 0.20 0.22 0.24 0.26 0.27 0.29 0.29 0.30 0.29 0.28 0.29 0.29 0.29 0.29 0.29
0.10 0.11 0.13 0.14 0.14 0.13 0.14 0.15 0.15 0.15 0.15 0.15 0.16 0.17 0.16 0.15 0.14 0.14 0.14 0.13 0.12 0.13 0.13 0.12 0.15 0.19 0.22 0.22 0.21 0.22 0.24 0.25 0.26 0.27 0.27 0.27 0.27 0.27 0.27 0.27 0.26 0.27 0.28 0.28
0.08 0.08 0.08 0.08 0.09 0.10 0.11 0.11 0.12 0.13 0.15 0.16 0.16 0.16 0.16 0.16 0.14 0.13 0.13 0.14 0.13 0.14 0.13 0.14 0.18 0.21 0.23 0.21 0.21 0.23 0.24 0.24 0.25 0.25 0.24 0.24 0.23 0.23 0.24 0.24 0.24 0.24 0.24 0.25
0.05 0.04 0.04 0.05 0.05 0.06 0.07 0.08 0.09 0.10 0.12 0.14 0.14 0.13 0.13 0.13 0.15 0.15 0.14 0.13 0.14 0.15 0.15 0.16 0.18 0.19 0.20 0.19 0.20 0.21 0.21 0.22 0.24 0.25 0.23 0.23 0.22 0.22 0.21 0.21 0.22 0.22 0.22 0.22
0.04 0.04 0.03 0.03 0.04 0.04 0.05 0.06 0.07 0.09 0.10 0.11 0.12 0.12 0.12 0.12 0.13 0.15 0.15 0.15 0.14 0.16 0.16 0.16 0.17 0.17 0.18 0.18 0.18 0.18 0.18 0.18 0.19 0.19 0.19 0.20 0.20 0.20 0.19 0.19 0.19 0.20 0.20 0.20
0.04 0.04 0.04 0.03 0.04 0.04 0.05 0.05 0.06 0.07 0.09 0.11 0.12 0.13 0.14 0.14 0.14 0.14 0.14 0.14 0.15 0.15 0.15 0.15 0.16 0.17 0.17 0.17 0.16 0.16 0.15 0.16 0.17 0.17 0.17 0.18 0.18 0.19 0.18 0.19 0.19 0.19 0.19 0.19

GEFSNGP_prec_meanprecacc_174.txt.gz
Total_Precipitation_Accumulation
0.61 0.51 0.57 0.55 0.43 0.50 0.74 0.60 0.50 0.35 0.33 0.37 0.35 0.37 0.37 0.32 0.27 0.21 0.19 0.19 0.17 0.17 0.18 0.20 0.22 0.26 0.30 0.35 0.40 0.44 0.45 0.44 0.45 0.47 0.49 0.51 0.49 0.48 0.48 0.51 0.53 0.53 0.53 0.53
0.64 0.37 0.39 0.40 0.32 0.37 0.45 0.37 0.32 0.25 0.29 0.26 0.26 0.30 0.32 0.26 0.19 0.15 0.14 0.12 0.11 0.10 0.11 0.14 0.15 0.18 0.22 0.27 0.32 0.35 0.39 0.40 0.41 0.41 0.41 0.42 0.42 0.41 0.39 0.40 0.43 0.46 0.51 0.55
0.68 0.35 0.37 0.39 0.28 0.31 0.35 0.28 0.24 0.27 0.24 0.17 0.20 0.27 0.31 0.25 0.16 0.12 0.10 0.09 0.09 0.09 0.08 0.09 0.10 0.16 0.22 0.25 0.26 0.28 0.30 0.30 0.31 0.32 0.34 0.35 0.38 0.42 0.46 0.51 0.52 0.56 0.60 0.65
0.64 0.50 0.55 0.36 0.22 0.21 0.24 0.21 0.16 0.16 0.11 0.11 0.16 0.18 0.19 0.20 0.17 0.11 0.07 0.06 0.05 0.06 0.06 0.06 0.09 0.13 0.20 0.28 0.30 0.33 0.36 0.34 0.31 0.32 0.38 0.43 0.50 0.56 0.65 0.72 0.76 0.80 0.83 0.85
0.50 0.40 0.26 0.15 0.13 0.14 0.17 0.16 0.09 0.08 0.06 0.06 0.07 0.14 0.16 0.15 0.16 0.13 0.08 0.05 0.05 0.05 0.06 0.08 0.10 0.12 0.17 0.26 0.32 0.37 0.42 0.45 0.45 0.48 0.55 0.61 0.70 0.79 0.81 0.87 0.87 0.85 0.82 0.80
0.39 0.28 0.12 0.08 0.04 0.04 0.09 0.14 0.05 0.04 0.04 0.04 0.04 0.10 0.13 0.15 0.18 0.19 0.15 0.10 0.07 0.07 0.08 0.11 0.14 0.17 0.23 0.31 0.40 0.47 0.51 0.57 0.59 0.61 0.64 0.66 0.68 0.70 0.70 0.69 0.67 0.61 0.57 0.53
0.29 0.25 0.06 0.02 0.01 0.01 0.07 0.10 0.04 0.04 0.04 0.04 0.05 0.06 0.06 0.10 0.15 0.18 0.20 0.20 0.18 0.18 0.19 0.22 0.26 0.33 0.40 0.47 0.56 0.61 0.61 0.64 0.66 0.63 0.62 0.58 0.51 0.45 0.43 0.40 0.36 0.32 0.30 0.28
0.14 0.22 0.09 0.02 0.02 0.03 0.04 0.02 0.02 0.03 0.04 0.04 0.04 0.04 0.04 0.05 0.09 0.12 0.15 0.20 0.25 0.28 0.29 0.30 0.36 0.44 0.50 0.55 0.57 0.54 0.48 0.44 0.41 0.35 0.32 0.30 0.26 0.24 0.24 0.23 0.22 0.20 0.18 0.16
0.08 0.08 0.04 0.03 0.03 0.02 0.03 0.03 0.03 0.03 0.03 0.04 0.04 0.05 0.05 0.04 0.04 0.06 0.07 0.09 0.13 0.18 0.21 0.22 0.23 0.26 0.28 0.27 0.24 0.21 0.17 0.15 0.15 0.14 0.14 0.15 0.14 0.14 0.14 0.15 0.15 0.14 0.14 0.13
0.06 0.05 0.04 0.03 0.02 0.02 0.03 0.04 0.04 0.03 0.03 0.03 0.04 0.04 0.04 0.04 0.05 0.05 0.07 0.06 0.06 0.07 0.07 0.07 0.07 0.07 0.07 0.07 0.06 0.07 0.07 0.07 0.08 0.08 0.09 0.10 0.10 0.09 0.11 0.12 0.13 0.14 0.15 0.15
0.08 0.05 0.04 0.04 0.02 0.03 0.03 0.03 0.04 0.04 0.04 0.04 0.04 0.04 0.04 0.04 0.04 0.05 0.05 0.06 0.06 0.07 0.08 0.07 0.07 0.07 0.07 0.06 0.06 0.06 0.07 0.08 0.09 0.10 0.11 0.12 0.13 0.13 0.15 0.16 0.18 0.20 0.20 0.20
0.10 0.05 0.05 0.04 0.02 0.03 0.03 0.03 0.03 0.04 0.04 0.04 0.04 0.04 0.04 0.04 0.04 0.04 0.04 0.05 0.06 0.07 0.09 0.09 0.09 0.08 0.08 0.08 0.08 0.09 0.09 0.09 0.10 0.11 0.12 0.14 0.14 0.15 0.18 0.19 0.21 0.23 0.22 0.23
0.04 0.03 0.03 0.03 0.02 0.02 0.03 0.04 0.04 0.04 0.04 0.04 0.04 0.03 0.03 0.04 0.04 0.04 0.04 0.04 0.05 0.07 0.07 0.08 0.08 0.08 0.09 0.10 0.10 0.11 0.12 0.13 0.14 0.15 0.16 0.17 0.18 0.18 0.19 0.22 0.25 0.26 0.25 0.25
0.03 0.03 0.04 0.04 0.03 0.03 0.04 0.04 0.04 0.05 0.04 0.04 0.03 0.03 0.03 0.03 0.03 0.03 0.05 0.06 0.06 0.06 0.07 0.07 0.07 0.08 0.10 0.10 0.11 0.12 0.13 0.15 0.16 0.16 0.18 0.19 0.20 0.20 0.20 0.22 0.22 0.21 0.23 0.28
0.04 0.04 0.05 0.05 0.04 0.03 0.03 0.03 0.03 0.02 0.02 0.02 0.02 0.03 0.04 0.04 0.04 0.04 0.05 0.05 0.06 0.06 0.06 0.06 0.06 0.07 0.08 0.09 0.10 0.11 0.13 0.14 0.16 0.16 0.18 0.20 0.21 0.22 0.22 0.22 0.22 0.22 0.23 0.27
0.04 0.05 0.05 0.05 0.05 0.04 0.03 0.03 0.03 0.03 0.03 0.04 0.04 0.05 0.05 0.05 0.05 0.05 0.05 0.05 0.05 0.05 0.06 0.07 0.07 0.07 0.07 0.07 0.09 0.11 0.12 0.17 0.20 0.20 0.20 0.20 0.21 0.23 0.23 0.23 0.23 0.22 0.22 0.25
0.11 0.09 0.07 0.08 0.07 0.07 0.07 0.07 0.07 0.07 0.06 0.06 0.05 0.05 0.05 0.05 0.05 0.05 0.05 0.04 0.04 0.05 0.05 0.06 0.07 0.07 0.08 0.09 0.10 0.12 0.14 0.18 0.23 0.21 0.18 0.19 0.22 0.24 0.26 0.27 0.26 0.24 0.21 0.25
0.12 0.11 0.10 0.10 0.09 0.09 0.09 0.08 0.07 0.07 0.06 0.06 0.05 0.05 0.05 0.05 0.05 0.05 0.05 0.05 0.05 0.05 0.06 0.06 0.07 0.08 0.08 0.10 0.12 0.14 0.15 0.16 0.18 0.19 0.20 0.23 0.27 0.28 0.29 0.29 0.27 0.26 0.23 0.27
0.10 0.11 0.11 0.11 0.10 0.10 0.10 0.10 0.09 0.08 0.07 0.06 0.06 0.06 0.06 0.06 0.06 0.07 0.07 0.07 0.07 0.07 0.07 0.07 0.10 0.10 0.10 0.12 0.16 0.16 0.17 0.18 0.19 0.20 0.22 0.27 0.30 0.27 0.28 0.29 0.28 0.27 0.27 0.28
0.12 0.13 0.14 0.14 0.12 0.11 0.11 0.11 0.10 0.09 0.08 0.08 0.09 0.09 0.08 0.08 0.08 0.09 0.08 0.09 0.09 0.09 0.08 0.09 0.10 0.11 0.12 0.14 0.18 0.18 0.17 0.19 0.21 0.22 0.25 0.28 0.29 0.28 0.27 0.28 0.29 0.29 0.29 0.30
0.15 0.15 0.15 0.16 0.15 0.14 0.14 0.13 0.13 0.13 0.12 0.11 0.12 0.12 0.12 0.11 0.10 0.10 0.10 0.10 0.09 0.09 0.09 0.11 0.11 0.11 0.13 0.18 0.21 0.19 0.19 0.21 0.24 0.27 0.29 0.31 0.31 0.30 0.29 0.29 0.30 0.30 0.31 0.30
0.14 0.14 0.15 0.15 0.15 0.15 0.15 0.15 0.15 0.15 0.15 0.15 0.15 0.14 0.14 0.13 0.12 0.11 0.11 0.11 0.11 0.13 0.13 0.12 0.12 0.14 0.19 0.22 0.22 0.22 0.23 0.25 0.27 0.29 0.30 0.30 0.31 0.31 0.29 0.29 0.30 0.30 0.30 0.30
0.11 0.12 0.14 0.14 0.15 0.14 0.15 0.16 0.16 0.16 0.16 0.17 0.18 0.18 0.17 0.16 0.15 0.15 0.15 0.13 0.12 0.13 0.13 0.13 0.16 0.20 0.23 0.23 0.22 0.24 0.25 0.27 0.27 0.28 0.28 0.28 0.28 0.28 0.28 0.28 0.27 0.28 0.29 0.29
0.09 0.08 0.09 0.09 0.10 0.11 0.11 0.12 0.12 0.13 0.15 0.17 0.17 0.17 0.17 0.16 0.15 0.13 0.14 0.14 0.13 0.14 0.13 0.14 0.19 0.22 0.23 0.22 0.22 0.24 0.24 0.25 0.25 0.25 0.25 0.24 0.24 0.24 0.25 0.25 0.25 0.25 0.25 0.26
0.05 0.05 0.05 0.05 0.06 0.07 0.08 0.09 0.10 0.11 0.12 0.14 0.14 0.13 0.13 0.13 0.15 0.15 0.14 0.13 0.14 0.15 0.16 0.16 0.18 0.20 0.20 0.19 0.20 0.21 0.21 0.22 0.24 0.25 0.24 0.23 0.22 0.22 0.22 0.22 0.23 0.23 0.23 0.23
0.04 0.04 0.04 0.04 0.04 0.05 0.05 0.07 0.08 0.09 0.10 0.11 0.13 0.13 0.12 0.13 0.14 0.15 0.16 0.15 0.15 0.16 0.17 0.17 0.17 0.18 0.18 0.18 0.18 0.18 0.18 0.19 0.20 0.20 0.20 0.20 0.21 0.21 0.20 0.20 0.20 0.21 0.21 0.21
0.04 0.04 0.04 0.04 0.04 0.04 0.05 0.06 0.07 0.08 0.10 0.11 0.13 0.13 0.14 0.15 0.15 0.15 0.15 0.15 0.15 0.16 0.16 0.16 0.16 0.17 0.17 0.17 0.17 0.16 0.16 0.16 0.17 0.18 0.18 0.18 0.19 0.19 0.19 0.20 0.20 0.20 0.20 0.20

GEFSNGP_prec_meanprecacc_180.txt.gz
Total_Precipitation_Accumulation
0.61 0.51 0.57 0.55 0.43 0.50 0.74 0.61 0.50 0.35 0.33 0.37 0.35 0.37 0.37 0.32 0.27 0.21 0.19 0.19 0.17 0.17 0.19 0.20 0.22 0.26 0.31 0.35 0.40 0.44 0.45 0.44 0.45 0.47 0.50 0.51 0.50 0.49 0.49 0.51 0.53 0.53 0.53 0.53
0.64 0.37 0.39 0.40 0.32 0.37 0.45 0.37 0.32 0.25 0.30 0.26 0.26 0.30 0.32 0.26 0.19 0.15 0.14 0.12 0.11 0.11 0.12 0.14 0.15 0.18 0.22 0.28 0.32 0.35 0.39 0.40 0.42 0.42 0.42 0.43 0.43 0.41 0.39 0.40 0.43 0.46 0.51 0.55
0.69 0.35 0.37 0.39 0.29 0.31 0.35 0.28 0.25 0.27 0.24 0.17 0.20 0.27 0.31 0.25 0.17 0.12 0.10 0.09 0.09 0.09 0.09 0.09 0.10 0.16 0.22 0.26 0.26 0.28 0.30 0.30 0.31 0.33 0.36 0.37 0.39 0.42 0.47 0.51 0.52 0.56 0.60 0.65
0.65 0.51 0.55 0.36 0.22 0.21 0.24 0.21 0.17 0.16 0.11 0.11 0.16 0.18 0.19 0.20 0.17 0.12 0.07 0.06 0.06 0.06 0.06 0.06 0.09 0.13 0.20 0.28 0.31 0.33 0.36 0.35 0.32 0.33 0.39 0.45 0.51 0.57 0.65 0.72 0.76 0.80 0.83 0.85
0.51 0.40 0.26 0.16 0.13 0.14 0.17 0.17 0.10 0.08 0.06 0.06 0.07 0.14 0.17 0.15 0.16 0.13 0.08 0.05 0.05 0.05 0.06 0.08 0.10 0.12 0.17 0.26 0.32 0.37 0.42 0.45 0.46 0.48 0.56 0.62 0.71 0.79 0.81 0.87 0.87 0.85 0.82 0.80
0.41 0.29 0.13 0.08 0.04 0.04 0.09 0.14 0.05 0.04 0.04 0.04 0.04 0.10 0.13 0.15 0.19 0.19 0.15 0.10 0.07 0.07 0.08 0.11 0.14 0.17 0.23 0.31 0.40 0.47 0.52 0.58 0.60 0.61 0.65 0.67 0.68 0.70 0.70 0.70 0.67 0.61 0.57 0.54
0.31 0.26 0.06 0.02 0.01 0.01 0.07 0.10 0.04 0.04 0.04 0.04 0.05 0.06 0.07 0.10 0.15 0.18 0.20 0.20 0.18 0.18 0.19 0.22 0.26 0.33 0.40 0.47 0.56 0.61 0.62 0.65 0.66 0.63 0.63 0.59 0.51 0.46 0.43 0.40 0.36 0.32 0.30 0.28
0.17 0.26 0.10 0.03 0.02 0.04 0.05 0.03 0.02 0.03 0.04 0.04 0.04 0.04 0.04 0.06 0.09 0.12 0.15 0.20 0.25 0.28 0.29 0.30 0.36 0.44 0.51 0.55 0.57 0.54 0.48 0.44 0.41 0.36 0.33 0.31 0.27 0.25 0.24 0.23 0.22 0.21 0.18 0.16
0.10 0.10 0.05 0.03 0.03 0.03 0.03 0.04 0.03 0.03 0.03 0.04 0.04 0.05 0.05 0.04 0.05 0.06 0.08 0.09 0.13 0.18 0.22 0.22 0.23 0.26 0.29 0.27 0.24 0.21 0.17 0.15 0.15 0.14 0.14 0.15 0.15 0.14 0.14 0.15 0.15 0.15 0.14 0.14
0.08 0.06 0.04 0.03 0.02 0.03 0.03 0.04 0.04 0.03 0.03 0.03 0.04 0.05 0.05 0.05 0.05 0.06 0.07 0.07 0.06 0.07 0.08 0.08 0.07 0.07 0.07 0.07 0.07 0.07 0.07 0.07 0.08 0.08 0.09 0.10 0.10 0.09 0.11 0.12 0.13 0.15 0.15 0.15
0.10 0.06 0.05 0.04 0.03 0.03 0.03 0.03 0.04 0.04 0.04 0.04 0.04 0.04 0.05 0.05 0.05 0.06 0.06 0.06 0.07 0.08 0.08 0.08 0.08 0.07 0.07 0.07 0.06 0.06 0.07 0.08 0.09 0.10 0.11 0.12 0.13 0.13 0.15 0.16 0.19 0.21 0.20 0.20
0.11 0.06 0.05 0.04 0.03 0.03 0.03 0.03 0.03 0.04 0.04 0.04 0.04 0.05 0.05 0.05 0.05 0.05 0.05 0.06 0.06 0.08 0.10 0.10 0.09 0.08 0.08 0.08 0.08 0.09 0.09 0.09 0.10 0.11 0.13 0.14 0.14 0.15 0.18 0.19 0.21 0.23 0.23 0.23
0.05 0.03 0.03 0.03 0.02 0.02 0.03 0.04 0.05 0.05 0.04 0.05 0.05 0.04 0.04 0.04 0.05 0.05 0.05 0.05 0.06 0.07 0.08 0.08 0.09 0.09 0.10 0.10 0.10 0.11 0.12 0.13 0.15 0.15 0.16 0.17 0.18 0.18 0.19 0.22 0.25 0.26 0.25 0.25
0.03 0.04 0.04 0.04 0.03 0.03 0.04 0.05 0.05 0.05 0.05 0.04 0.04 0.03 0.03 0.03 0.03 0.04 0.05 0.06 0.06 0.07 0.07 0.08 0.08 0.08 0.10 0.10 0.11 0.12 0.14 0.15 0.17 0.16 0.18 0.20 0.20 0.20 0.21 0.22 0.22 0.21 0.23 0.28
0.04 0.05 0.05 0.05 0.04 0.04 0.03 0.03 0.03 0.03 0.02 0.02 0.03 0.04 0.05 0.05 0.05 0.05 0.05 0.06 0.07 0.07 0.07 0.07 0.06 0.07 0.08 0.09 0.10 0.12 0.13 0.15 0.16 0.17 0.18 0.20 0.22 0.23 0.22 0.22 0.22 0.22 0.23 0.27
0.05 0.05 0.05 0.05 0.05 0.04 0.04 0.03 0.04 0.04 0.04 0.05 0.05 0.06 0.07 0.07 0.07 0.06 0.07 0.07 0.07 0.07 0.07 0.08 0.08 0.08 0.08 0.08 0.10 0.11 0.13 0.18 0.21 0.20 0.20 0.21 0.22 0.23 0.23 0.23 0.23 0.23 0.23 0.25
0.11 0.09 0.08 0.08 0.08 0.07 0.07 0.08 0.08 0.08 0.07 0.07 0.07 0.06 0.06 0.06 0.06 0.06 0.06 0.05 0.06 0.06 0.06 0.07 0.08 0.08 0.09 0.09 0.11 0.13 0.15 0.18 0.24 0.21 0.19 0.20 0.22 0.25 0.26 0.27 0.26 0.24 0.22 0.26
0.12 0.12 0.11 0.10 0.10 0.10 0.10 0.09 0.08 0.08 0.07 0.06 0.06 0.06 0.06 0.06 0.06 0.06 0.06 0.06 0.06 0.07 0.07 0.08 0.09 0.09 0.09 0.11 0.13 0.15 0.16 0.18 0.19 0.20 0.21 0.24 0.28 0.29 0.30 0.30 0.28 0.27 0.24 0.28
0.10 0.11 0.12 0.11 0.11 0.11 0.11 0.11 0.10 0.09 0.07 0.07 0.07 0.07 0.07 0.07 0.07 0.08 0.08 0.09 0.09 0.09 0.09 0.09 0.12 0.12 0.12 0.14 0.17 0.17 0.18 0.20 0.21 0.22 0.24 0.28 0.31 0.29 0.29 0.30 0.29 0.28 0.29 0.30
0.13 0.14 0.15 0.15 0.13 0.12 0.13 0.12 0.11 0.10 0.09 0.09 0.09 0.09 0.09 0.08 0.09 0.09 0.10 0.10 0.11 0.11 0.10 0.11 0.12 0.13 0.14 0.16 0.20 0.19 0.19 0.22 0.23 0.24 0.27 0.30 0.31 0.29 0.29 0.30 0.30 0.30 0.30 0.31
0.16 0.16 0.16 0.17 0.17 0.15 0.15 0.14 0.14 0.13 0.12 0.11 0.12 0.13 0.12 0.12 0.11 0.11 0.11 0.11 0.10 0.10 0.11 0.12 0.12 0.12 0.15 0.19 0.22 0.21 0.21 0.23 0.26 0.28 0.31 0.32 0.32 0.32 0.31 0.31 0.31 0.31 0.32 0.31
0.15 0.15 0.16 0.16 0.15 0.15 0.16 0.16 0.16 0.16 0.15 0.16 0.15 0.15 0.15 0.14 0.13 0.12 0.12 0.13 0.12 0.14 0.15 0.14 0.13 0.15 0.20 0.24 0.24 0.23 0.25 0.26 0.28 0.30 0.31 0.32 0.33 0.32 0.31 0.31 0.32 0.31 0.31 0.31
0.12 0.13 0.14 0.15 0.15 0.15 0.15 0.16 0.17 0.17 0.17 0.17 0.19 0.19 0.19 0.17 0.16 0.16 0.16 0.14 0.13 0.15 0.15 0.14 0.17 0.21 0.24 0.24 0.23 0.25 0.26 0.28 0.28 0.29 0.29 0.29 0.29 0.29 0.29 0.29 0.28 0.28 0.29 0.30
0.09 0.09 0.09 0.09 0.10 0.11 0.12 0.12 0.13 0.14 0.16 0.17 0.18 0.18 0.18 0.18 0.17 0.16 0.16 0.16 0.15 0.15 0.15 0.15 0.20 0.23 0.25 0.23 0.23 0.25 0.26 0.26 0.26 0.26 0.26 0.25 0.25 0.25 0.26 0.26 0.26 0.25 0.26 0.27
0.06 0.05 0.05 0.05 0.06 0.07 0.08 0.09 0.10 0.11 0.12 0.14 0.15 0.14 0.14 0.14 0.16 0.16 0.15 0.15 0.15 0.17 0.16 0.17 0.19 0.21 0.21 0.21 0.22 0.22 0.22 0.23 0.25 0.26 0.25 0.24 0.23 0.23 0.23 0.23 0.24 0.24 0.23 0.23
0.04 0.04 0.04 0.04 0.04 0.05 0.06 0.07 0.08 0.10 0.11 0.12 0.13 0.13 0.13 0.14 0.15 0.16 0.17 0.16 0.16 0.17 0.18 0.18 0.18 0.19 0.19 0.19 0.20 0.19 0.19 0.19 0.20 0.21 0.20 0.21 0.22 0.22 0.21 0.21 0.21 0.22 0.22 0.22
0.04 0.04 0.04 0.04 0.04 0.05 0.06 0.06 0.07 0.08 0.10 0.12 0.14 0.14 0.15 0.16 0.16 0.17 0.16 0.16 0.16 0.17 0.17 0.17 0.18 0.18 0.18 0.18 0.17 0.17 0.17 0.17 0.18 0.18 0.18 0.19 0.20 0.20 0.20 0.21 0.21 0.21 0.21 0.21

GEFSNGP_prec_meanprecacc_186.txt.gz
Total_Precipitation_Accumulation
0.61 0.51 0.58 0.55 0.44 0.51 0.75 0.62 0.51 0.35 0.33 0.37 0.35 0.37 0.37 0.32 0.28 0.23 0.20 0.20 0.18 0.18 0.19 0.21 0.22 0.27 0.33 0.37 0.42 0.47 0.47 0.46 0.47 0.48 0.51 0.52 0.51 0.50 0.51 0.53 0.54 0.55 0.54 0.53
0.65 0.38 0.39 0.41 0.32 0.38 0.46 0.38 0.33 0.26 0.30 0.26 0.26 0.30 0.32 0.26 0.20 0.15 0.14 0.13 0.12 0.11 0.13 0.15 0.16 0.19 0.23 0.29 0.34 0.37 0.41 0.42 0.43 0.43 0.43 0.43 0.43 0.42 0.41 0.43 0.45 0.49 0.52 0.56
0.70 0.36 0.38 0.40 0.29 0.31 0.36 0.29 0.26 0.28 0.25 0.17 0.20 0.27 0.31 0.25 0.17 0.12 0.10 0.10 0.09 0.09 0.09 0.09 0.11 0.16 0.22 0.26 0.27 0.29 0.31 0.32 0.33 0.34 0.37 0.38 0.40 0.43 0.48 0.52 0.54 0.58 0.63 0.66
0.67 0.52 0.57 0.38 0.23 0.22 0.24 0.21 0.17 0.17 0.12 0.12 0.16 0.18 0.19 0.20 0.18 0.12 0.07 0.06 0.06 0.06 0.06 0.06 0.09 0.13 0.21 0.28 0.31 0.34 0.37 0.35 0.32 0.33 0.39 0.45 0.51 0.58 0.66 0.74 0.77 0.81 0.85 0.86
0.54 0.42 0.28 0.17 0.13 0.15 0.18 0.18 0.11 0.09 0.07 0.07 0.08 0.15 0.17 0.15 0.16 0.14 0.08 0.05 0.05 0.05 0.06 0.08 0.10 0.12 0.17 0.26 0.33 0.38 0.42 0.46 0.46 0.48 0.56 0.62 0.71 0.80 0.82 0.88 0.89 0.85 0.83 0.81
0.45 0.32 0.14 0.09 0.05 0.05 0.10 0.15 0.07 0.05 0.05 0.04 0.05 0.11 0.14 0.16 0.19 0.20 0.15 0.10 0.07 0.07 0.08 0.11 0.14 0.17 0.23 0.32 0.41 0.48 0.52 0.58 0.60 0.61 0.65 0.67 0.69 0.71 0.71 0.71 0.68 0.62 0.58 0.54
0.35 0.30 0.08 0.04 0.02 0.03 0.09 0.12 0.05 0.06 0.06 0.05 0.06 0.07 0.07 0.11 0.16 0.19 0.20 0.20 0.18 0.18 0.19 0.22 0.26 0.33 0.41 0.47 0.56 0.62 0.62 0.66 0.67 0.64 0.63 0.59 0.52 0.46 0.44 0.42 0.38 0.33 0.30 0.28
0.20 0.30 0.13 0.04 0.04 0.06 0.08 0.04 0.04 0.04 0.05 0.05 0.05 0.04 0.04 0.06 0.10 0.12 0.15 0.20 0.25 0.28 0.29 0.30 0.36 0.44 0.51 0.56 0.58 0.55 0.49 0.45 0.43 0.37 0.34 0.31 0.27 0.25 0.24 0.24 0.23 0.22 0.19 0.17
0.12 0.13 0.07 0.05 0.04 0.04 0.04 0.05 0.04 0.04 0.04 0.05 0.05 0.06 0.05 0.04 0.05 0.06 0.08 0.09 0.13 0.18 0.22 0.22 0.23 0.26 0.29 0.28 0.25 0.23 0.19 0.17 0.16 0.15 0.15 0.15 0.15 0.14 0.14 0.15 0.16 0.15 0.15 0.15
0.11 0.09 0.06 0.05 0.03 0.03 0.04 0.04 0.04 0.04 0.03 0.03 0.04 0.05 0.05 0.05 0.05 0.06 0.07 0.07 0.06 0.07 0.08 0.08 0.07 0.07 0.07 0.07 0.07 0.08 0.08 0.09 0.09 0.09 0.10 0.10 0.10 0.10 0.11 0.12 0.14 0.15 0.16 0.16
0.12 0.08 0.06 0.05 0.03 0.04 0.04 0.03 0.04 0.04 0.04 0.04 0.04 0.05 0.05 0.05 0.05 0.06 0.06 0.06 0.07 0.08 0.08 0.08 0.08 0.08 0.07 0.07 0.07 0.07 0.08 0.09 0.10 0.11 0.12 0.13 0.13 0.13 0.15 0.16 0.19 0.21 0.21 0.21
0.12 0.07 0.06 0.05 0.03 0.03 0.03 0.03 0.03 0.04 0.04 0.04 0.04 0.06 0.06 0.06 0.05 0.05 0.05 0.06 0.07 0.08 0.10 0.10 0.09 0.08 0.09 0.09 0.09 0.10 0.10 0.10 0.11 0.12 0.13 0.14 0.15 0.15 0.18 0.19 0.21 0.23 0.23 0.24
0.05 0.03 0.03 0.03 0.03 0.03 0.03 0.04 0.05 0.05 0.05 0.05 0.05 0.05 0.04 0.05 0.05 0.05 0.05 0.05 0.06 0.07 0.08 0.09 0.09 0.10 0.10 0.11 0.11 0.12 0.12 0.14 0.15 0.16 0.16 0.17 0.18 0.19 0.20 0.23 0.26 0.26 0.25 0.25
0.04 0.04 0.05 0.05 0.04 0.04 0.04 0.05 0.05 0.05 0.05 0.05 0.04 0.04 0.03 0.03 0.03 0.04 0.05 0.06 0.07 0.07 0.08 0.08 0.08 0.09 0.11 0.11 0.11 0.12 0.14 0.15 0.17 0.16 0.18 0.20 0.21 0.21 0.22 0.23 0.23 0.22 0.24 0.29
0.06 0.06 0.07 0.06 0.05 0.04 0.04 0.03 0.03 0.03 0.03 0.02 0.03 0.04 0.05 0.05 0.05 0.05 0.06 0.06 0.07 0.08 0.08 0.08 0.08 0.08 0.09 0.10 0.10 0.12 0.13 0.15 0.16 0.17 0.19 0.21 0.22 0.24 0.24 0.24 0.24 0.23 0.24 0.28
0.06 0.06 0.07 0.07 0.07 0.05 0.04 0.04 0.04 0.05 0.04 0.05 0.05 0.06 0.07 0.07 0.07 0.07 0.07 0.07 0.07 0.08 0.08 0.08 0.08 0.08 0.08 0.09 0.10 0.12 0.13 0.19 0.22 0.21 0.21 0.22 0.23 0.25 0.25 0.25 0.25 0.24 0.24 0.26
0.11 0.10 0.08 0.09 0.09 0.08 0.08 0.08 0.08 0.08 0.08 0.07 0.07 0.07 0.07 0.07 0.06 0.06 0.06 0.06 0.06 0.06 0.06 0.07 0.08 0.09 0.09 0.10 0.12 0.14 0.16 0.19 0.25 0.23 0.20 0.21 0.24 0.26 0.28 0.29 0.28 0.26 0.23 0.27
0.12 0.12 0.11 0.11 0.10 0.10 0.10 0.09 0.09 0.08 0.07 0.07 0.06 0.06 0.06 0.06 0.06 0.06 0.07 0.07 0.07 0.07 0.08 0.08 0.09 0.09 0.10 0.11 0.14 0.16 0.17 0.19 0.20 0.21 0.22 0.26 0.30 0.31 0.32 0.32 0.30 0.29 0.26 0.29
0.11 0.12 0.12 0.12 0.11 0.12 0.12 0.12 0.11 0.09 0.08 0.07 0.07 0.07 0.07 0.08 0.08 0.09 0.09 0.09 0.10 0.10 0.09 0.09 0.12 0.12 0.13 0.14 0.18 0.19 0.20 0.22 0.23 0.24 0.26 0.31 0.35 0.32 0.32 0.33 0.32 0.30 0.30 0.31
0.13 0.14 0.15 0.15 0.14 0.13 0.14 0.13 0.12 0.11 0.10 0.10 0.10 0.10 0.10 0.09 0.10 0.10 0.10 0.11 0.11 0.11 0.10 0.12 0.13 0.13 0.14 0.17 0.21 0.21 0.21 0.23 0.25 0.27 0.30 0.33 0.34 0.32 0.31 0.32 0.32 0.32 0.32 0.32
0.17 0.17 0.17 0.18 0.18 0.17 0.16 0.15 0.15 0.14 0.13 0.13 0.13 0.14 0.13 0.12 0.11 0.11 0.12 0.12 0.11 0.11 0.11 0.13 0.13 0.13 0.15 0.21 0.24 0.23 0.23 0.25 0.29 0.32 0.34 0.35 0.35 0.34 0.33 0.33 0.33 0.33 0.33 0.33
0.17 0.17 0.18 0.18 0.17 0.17 0.16 0.16 0.16 0.16 0.16 0.16 0.16 0.15 0.15 0.14 0.13 0.13 0.13 0.13 0.13 0.15 0.15 0.14 0.14 0.16 0.21 0.25 0.26 0.26 0.28 0.30 0.32 0.33 0.34 0.35 0.35 0.35 0.33 0.33 0.33 0.32 0.32 0.33
0.14 0.15 0.16 0.16 0.16 0.15 0.15 0.16 0.17 0.17 0.17 0.18 0.19 0.20 0.19 0.18 0.17 0.17 0.17 0.15 0.14 0.16 0.16 0.15 0.18 0.22 0.26 0.26 0.26 0.27 0.29 0.31 0.31 0.32 0.32 0.32 0.32 0.32 0.32 0.31 0.30 0.30 0.31 0.31
0.10 0.09 0.09 0.10 0.10 0.11 0.12 0.12 0.13 0.14 0.16 0.18 0.18 0.18 0.19 0.18 0.17 0.16 0.17 0.17 0.16 0.17 0.16 0.17 0.21 0.24 0.26 0.25 0.24 0.27 0.27 0.28 0.28 0.28 0.28 0.27 0.27 0.27 0.28 0.28 0.28 0.27 0.28 0.28
0.06 0.05 0.05 0.06 0.06 0.07 0.08 0.09 0.10 0.11 0.13 0.15 0.15 0.14 0.14 0.15 0.17 0.17 0.16 0.16 0.16 0.17 0.17 0.18 0.20 0.22 0.23 0.22 0.23 0.24 0.24 0.25 0.27 0.28 0.26 0.26 0.25 0.25 0.25 0.25 0.26 0.25 0.25 0.25
0.05 0.04 0.04 0.04 0.04 0.05 0.06 0.07 0.09 0.10 0.11 0.13 0.14 0.14 0.14 0.15 0.16 0.17 0.17 0.17 0.17 0.18 0.19 0.19 0.20 0.20 0.21 0.20 0.21 0.20 0.20 0.21 0.22 0.22 0.22 0.22 0.23 0.23 0.23 0.22 0.23 0.23 0.23 0.23
0.05 0.05 0.05 0.05 0.05 0.06 0.06 0.07 0.08 0.09 0.11 0.13 0.14 0.15 0.16 0.16 0.17 0.17 0.17 0.17 0.17 0.18 0.18 0.18 0.19 0.19 0.19 0.19 0.19 0.18 0.18 0.18 0.19 0.20 0.20 0.21 0.21 0.22 0.22 0.22 0.22 0.22 0.22 0.22

GEFSNGP_prec_meanprecacc_192.txt.gz
Total_Precipitation_Accumulation
0.62 0.52 0.58 0.55 0.44 0.52 0.75 0.62 0.52 0.36 0.34 0.37 0.36 0.38 0.38 0.33 0.29 0.25 0.22 0.22 0.20 0.19 0.20 0.22 0.23 0.29 0.35 0.42 0.47 0.52 0.53 0.51 0.51 0.52 0.53 0.54 0.54 0.53 0.53 0.54 0.55 0.56 0.55 0.55
0.65 0.38 0.39 0.41 0.32 0.38 0.47 0.39 0.34 0.27 0.31 0.27 0.27 0.31 0.32 0.26 0.20 0.16 0.16 0.15 0.13 0.12 0.13 0.16 0.17 0.20 0.25 0.32 0.39 0.43 0.47 0.47 0.48 0.47 0.46 0.46 0.46 0.46 0.45 0.45 0.47 0.50 0.53 0.57
0.71 0.37 0.40 0.41 0.30 0.32 0.37 0.30 0.27 0.29 0.25 0.18 0.21 0.27 0.32 0.25 0.17 0.13 0.12 0.11 0.10 0.11 0.11 0.11 0.12 0.18 0.24 0.28 0.29 0.32 0.36 0.37 0.37 0.38 0.41 0.41 0.42 0.46 0.52 0.56 0.57 0.60 0.65 0.68
0.69 0.54 0.61 0.40 0.24 0.23 0.26 0.23 0.19 0.19 0.13 0.12 0.17 0.19 0.20 0.20 0.18 0.13 0.08 0.06 0.06 0.07 0.07 0.08 0.10 0.14 0.22 0.29 0.32 0.36 0.40 0.39 0.37 0.37 0.43 0.48 0.54 0.60 0.69 0.77 0.80 0.83 0.87 0.88
0.58 0.45 0.30 0.18 0.14 0.16 0.20 0.19 0.13 0.12 0.10 0.08 0.09 0.16 0.18 0.16 0.17 0.14 0.08 0.05 0.05 0.05 0.06 0.08 0.10 0.12 0.17 0.26 0.34 0.39 0.44 0.48 0.49 0.52 0.59 0.64 0.73 0.82 0.85 0.91 0.92 0.89 0.85 0.83
0.50 0.37 0.18 0.11 0.06 0.06 0.11 0.17 0.09 0.07 0.07 0.06 0.07 0.13 0.16 0.17 0.20 0.20 0.16 0.10 0.07 0.07 0.08 0.11 0.14 0.17 0.24 0.32 0.41 0.48 0.53 0.59 0.61 0.63 0.67 0.69 0.70 0.73 0.73 0.73 0.70 0.64 0.61 0.57
0.40 0.34 0.11 0.05 0.03 0.04 0.12 0.15 0.07 0.08 0.08 0.07 0.08 0.08 0.09 0.12 0.17 0.20 0.21 0.20 0.18 0.18 0.19 0.22 0.26 0.33 0.41 0.48 0.57 0.62 0.63 0.66 0.68 0.65 0.64 0.60 0.53 0.47 0.45 0.43 0.39 0.34 0.32 0.30
0.23 0.34 0.17 0.05 0.04 0.08 0.10 0.06 0.05 0.05 0.06 0.07 0.06 0.05 0.05 0.07 0.10 0.13 0.16 0.21 0.25 0.28 0.29 0.30 0.36 0.44 0.51 0.56 0.58 0.55 0.49 0.46 0.43 0.38 0.35 0.32 0.28 0.26 0.25 0.24 0.24 0.22 0.20 0.18
0.17 0.18 0.11 0.07 0.05 0.05 0.04 0.06 0.05 0.05 0.05 0.06 0.06 0.07 0.06 0.05 0.06 0.07 0.08 0.09 0.13 0.18 0.22 0.22 0.23 0.26 0.29 0.28 0.25 0.23 0.20 0.18 0.18 0.17 0.17 0.17 0.16 0.15 0.15 0.16 0.17 0.16 0.16 0.16
0.16 0.14 0.10 0.08 0.05 0.05 0.05 0.05 0.05 0.04 0.04 0.04 0.05 0.05 0.06 0.06 0.06 0.06 0.07 0.07 0.07 0.07 0.08 0.08 0.07 0.07 0.07 0.07 0.07 0.08 0.08 0.09 0.10 0.11 0.12 0.13 0.12 0.12 0.12 0.13 0.15 0.16 0.17 0.17
0.16 0.12 0.09 0.08 0.05 0.06 0.06 0.05 0.05 0.05 0.05 0.05 0.05 0.05 0.05 0.05 0.05 0.06 0.06 0.07 0.07 0.08 0.08 0.08 0.08 0.08 0.08 0.07 0.07 0.07 0.08 0.10 0.11 0.12 0.14 0.15 0.15 0.15 0.17 0.18 0.20 0.22 0.21 0.22
0.16 0.10 0.09 0.08 0.04 0.04 0.05 0.04 0.04 0.05 0.06 0.05 0.05 0.06 0.06 0.06 0.05 0.05 0.05 0.06 0.07 0.08 0.10 0.10 0.09 0.08 0.09 0.09 0.10 0.10 0.10 0.11 0.11 0.13 0.14 0.16 0.16 0.17 0.19 0.21 0.22 0.24 0.24 0.25
0.07 0.04 0.04 0.04 0.03 0.03 0.04 0.05 0.05 0.05 0.06 0.06 0.06 0.06 0.05 0.05 0.05 0.05 0.05 0.05 0.06 0.07 0.08 0.09 0.09 0.10 0.11 0.11 0.11 0.12 0.13 0.14 0.15 0.16 0.17 0.18 0.19 0.20 0.21 0.24 0.27 0.27 0.26 0.26
0.04 0.04 0.06 0.05 0.05 0.04 0.04 0.05 0.05 0.06 0.06 0.05 0.05 0.04 0.05 0.05 0.04 0.05 0.06 0.07 0.07 0.07 0.08 0.08 0.08 0.09 0.11 0.11 0.11 0.12 0.14 0.16 0.17 0.17 0.18 0.20 0.22 0.22 0.23 0.24 0.24 0.23 0.25 0.30
0.06 0.06 0.07 0.07 0.06 0.05 0.04 0.04 0.04 0.04 0.04 0.03 0.04 0.05 0.05 0.06 0.06 0.06 0.06 0.07 0.07 0.08 0.08 0.08 0.08 0.08 0.09 0.10 0.11 0.12 0.13 0.15 0.17 0.17 0.19 0.21 0.23 0.24 0.24 0.24 0.25 0.24 0.25 0.29
0.07 0.07 0.08 0.08 0.08 0.07 0.05 0.05 0.06 0.06 0.05 0.06 0.06 0.07 0.08 0.08 0.07 0.07 0.07 0.07 0.08 0.08 0.08 0.09 0.09 0.08 0.08 0.09 0.11 0.12 0.14 0.19 0.22 0.22 0.22 0.22 0.23 0.25 0.26 0.26 0.26 0.26 0.25 0.27
0.13 0.12 0.10 0.11 0.11 0.10 0.10 0.10 0.10 0.10 0.09 0.08 0.07 0.07 0.07 0.07 0.07 0.07 0.06 0.06 0.06 0.07 0.07 0.08 0.09 0.09 0.09 0.10 0.12 0.14 0.16 0.20 0.25 0.23 0.21 0.22 0.24 0.27 0.29 0.30 0.30 0.27 0.24 0.28
0.14 0.14 0.13 0.13 0.13 0.13 0.13 0.12 0.11 0.10 0.09 0.08 0.07 0.07 0.07 0.07 0.07 0.07 0.07 0.07 0.07 0.07 0.08 0.08 0.09 0.09 0.10 0.12 0.14 0.16 0.18 0.19 0.21 0.22 0.23 0.26 0.31 0.32 0.33 0.33 0.31 0.30 0.27 0.31
0.13 0.14 0.15 0.15 0.14 0.14 0.14 0.14 0.13 0.11 0.09 0.09 0.08 0.08 0.08 0.08 0.09 0.09 0.09 0.10 0.10 0.10 0.10 0.10 0.13 0.13 0.13 0.15 0.19 0.19 0.20 0.22 0.24 0.25 0.27 0.32 0.36 0.33 0.33 0.34 0.33 0.32 0.32 0.34
0.15 0.16 0.17 0.17 0.16 0.15 0.16 0.15 0.14 0.12 0.11 0.11 0.11 0.11 0.10 0.10 0.10 0.11 0.11 0.12 0.12 0.12 0.11 0.12 0.14 0.14 0.15 0.17 0.22 0.22 0.22 0.24 0.26 0.28 0.31 0.34 0.35 0.34 0.33 0.34 0.34 0.34 0.34 0.35
0.19 0.18 0.19 0.20 0.20 0.19 0.18 0.17 0.16 0.16 0.14 0.13 0.13 0.14 0.14 0.13 0.12 0.12 0.12 0.12 0.11 0.11 0.12 0.14 0.13 0.13 0.16 0.21 0.25 0.24 0.24 0.27 0.30 0.33 0.36 0.37 0.37 0.36 0.35 0.34 0.35 0.35 0.36 0.35
0.18 0.19 0.20 0.20 0.19 0.19 0.18 0.18 0.17 0.17 0.16 0.16 0.16 0.16 0.15 0.15 0.13 0.13 0.13 0.14 0.13 0.16 0.16 0.15 0.14 0.17 0.22 0.26 0.26 0.27 0.29 0.31 0.33 0.36 0.37 0.37 0.38 0.37 0.35 0.35 0.36 0.35 0.34 0.35
0.15 0.16 0.18 0.18 0.18 0.17 0.16 0.17 0.18 0.17 0.17 0.18 0.19 0.20 0.19 0.18 0.17 0.17 0.17 0.15 0.15 0.16 0.16 0.15 0.18 0.23 0.26 0.27 0.26 0.28 0.31 0.32 0.33 0.34 0.34 0.34 0.34 0.34 0.34 0.33 0.33 0.32 0.33 0.33
0.11 0.11 0.11 0.11 0.11 0.12 0.12 0.13 0.13 0.14 0.16 0.18 0.18 0.19 0.19 0.19 0.17 0.16 0.17 0.17 0.16 0.17 0.16 0.17 0.21 0.25 0.27 0.25 0.25 0.27 0.29 0.29 0.30 0.30 0.30 0.30 0.30 0.30 0.30 0.30 0.30 0.29 0.30 0.30
0.07 0.06 0.06 0.06 0.07 0.08 0.09 0.09 0.10 0.12 0.13 0.15 0.15 0.14 0.14 0.15 0.17 0.17 0.16 0.16 0.16 0.17 0.18 0.19 0.21 0.22 0.23 0.23 0.24 0.25 0.25 0.26 0.28 0.30 0.28 0.28 0.27 0.27 0.27 0.26 0.28 0.28 0.27 0.27
0.06 0.05 0.05 0.05 0.05 0.06 0.06 0.07 0.09 0.10 0.12 0.13 0.14 0.14 0.14 0.15 0.16 0.17 0.18 0.17 0.17 0.18 0.19 0.20 0.20 0.21 0.21 0.21 0.21 0.21 0.21 0.22 0.23 0.24 0.23 0.24 0.25 0.25 0.25 0.24 0.24 0.25 0.25 0.25
0.06 0.06 0.06 0.05 0.05 0.06 0.06 0.07 0.08 0.09 0.11 0.13 0.15 0.15 0.16 0.17 0.17 0.17 0.17 0.17 0.17 0.18 0.19 0.19 0.20 0.20 0.20 0.20 0.20 0.19 0.19 0.19 0.21 0.21 0.21 0.22 0.23 0.24 0.24 0.24 0.24 0.24 0.24 0.24

GEFSNGP_prec_meanprecacc_198.txt.gz
Total_Precipitation_Accumulation
0.62 0.52 0.58 0.56 0.44 0.52 0.76 0.63 0.53 0.36 0.34 0.38 0.36 0.38 0.39 0.35 0.30 0.27 0.26 0.25 0.22 0.21 0.22 0.23 0.25 0.30 0.37 0.44 0.49 0.56 0.59 0.60 0.60 0.60 0.60 0.61 0.60 0.57 0.56 0.57 0.60 0.60 0.58 0.56
0.66 0.38 0.40 0.42 0.33 0.39 0.47 0.40 0.35 0.27 0.31 0.27 0.27 0.31 0.33 0.27 0.21 0.18 0.18 0.18 0.16 0.15 0.15 0.17 0.19 0.21 0.26 0.34 0.41 0.46 0.52 0.55 0.55 0.55 0.54 0.53 0.52 0.51 0.48 0.49 0.51 0.56 0.58 0.60
0.72 0.37 0.40 0.43 0.31 0.33 0.38 0.30 0.28 0.30 0.26 0.18 0.21 0.28 0.32 0.25 0.18 0.14 0.14 0.13 0.13 0.14 0.14 0.13 0.14 0.19 0.25 0.29 0.31 0.35 0.40 0.42 0.44 0.46 0.48 0.48 0.49 0.52 0.57 0.61 0.61 0.65 0.70 0.73
0.71 0.55 0.62 0.41 0.24 0.23 0.27 0.24 0.20 0.20 0.15 0.15 0.19 0.20 0.21 0.22 0.19 0.14 0.09 0.07 0.08 0.10 0.11 0.11 0.12 0.16 0.24 0.31 0.34 0.38 0.42 0.43 0.43 0.45 0.50 0.54 0.60 0.67 0.76 0.84 0.86 0.88 0.92 0.93
0.62 0.48 0.31 0.18 0.15 0.17 0.21 0.20 0.14 0.13 0.11 0.10 0.12 0.17 0.19 0.18 0.18 0.16 0.09 0.06 0.06 0.07 0.10 0.12 0.14 0.15 0.20 0.28 0.35 0.41 0.46 0.50 0.52 0.56 0.65 0.70 0.78 0.87 0.91 0.98 0.98 0.94 0.90 0.88
0.55 0.41 0.20 0.12 0.06 0.07 0.12 0.19 0.10 0.08 0.08 0.08 0.09 0.15 0.18 0.19 0.21 0.22 0.17 0.11 0.08 0.08 0.10 0.15 0.18 0.21 0.26 0.34 0.43 0.50 0.55 0.61 0.65 0.67 0.71 0.74 0.75 0.77 0.77 0.78 0.75 0.69 0.65 0.61
0.45 0.38 0.13 0.06 0.03 0.04 0.14 0.17 0.09 0.09 0.09 0.08 0.09 0.11 0.11 0.13 0.18 0.21 0.22 0.21 0.19 0.18 0.20 0.24 0.29 0.37 0.43 0.49 0.58 0.63 0.64 0.67 0.70 0.67 0.67 0.64 0.56 0.50 0.47 0.45 0.42 0.38 0.36 0.34
0.28 0.40 0.21 0.07 0.06 0.11 0.13 0.08 0.06 0.06 0.07 0.08 0.08 0.07 0.06 0.08 0.12 0.14 0.17 0.21 0.25 0.29 0.29 0.31 0.38 0.47 0.53 0.58 0.59 0.55 0.50 0.47 0.44 0.39 0.36 0.34 0.30 0.28 0.27 0.27 0.27 0.24 0.22 0.21
0.24 0.27 0.17 0.11 0.10 0.09 0.06 0.07 0.06 0.06 0.06 0.07 0.07 0.08 0.08 0.07 0.07 0.08 0.08 0.10 0.13 0.19 0.22 0.22 0.24 0.27 0.30 0.29 0.26 0.23 0.20 0.18 0.18 0.17 0.18 0.18 0.17 0.16 0.16 0.18 0.19 0.18 0.18 0.17
0.23 0.22 0.15 0.12 0.09 0.09 0.08 0.08 0.07 0.06 0.05 0.05 0.06 0.07 0.07 0.06 0.06 0.07 0.08 0.07 0.07 0.08 0.08 0.08 0.08 0.08 0.08 0.07 0.08 0.08 0.09 0.10 0.11 0.12 0.12 0.13 0.13 0.12 0.13 0.14 0.16 0.17 0.18 0.18
0.22 0.17 0.12 0.11 0.08 0.09 0.09 0.08 0.08 0.07 0.06 0.06 0.06 0.06 0.06 0.06 0.06 0.06 0.06 0.07 0.07 0.08 0.09 0.08 0.08 0.08 0.08 0.07 0.07 0.07 0.09 0.10 0.11 0.13 0.14 0.15 0.16 0.16 0.18 0.19 0.21 0.23 0.23 0.23
0.21 0.14 0.13 0.11 0.07 0.06 0.06 0.07 0.07 0.08 0.08 0.07 0.07 0.08 0.08 0.07 0.06 0.05 0.05 0.06 0.07 0.08 0.10 0.10 0.09 0.09 0.09 0.09 0.10 0.10 0.11 0.11 0.11 0.13 0.14 0.16 0.17 0.17 0.20 0.21 0.23 0.25 0.25 0.26
0.10 0.07 0.07 0.06 0.05 0.04 0.05 0.06 0.07 0.07 0.08 0.09 0.08 0.08 0.07 0.07 0.07 0.07 0.06 0.07 0.08 0.09 0.09 0.10 0.11 0.11 0.12 0.12 0.12 0.12 0.13 0.14 0.15 0.16 0.17 0.18 0.19 0.20 0.22 0.24 0.27 0.27 0.27 0.27
0.05 0.06 0.07 0.07 0.06 0.06 0.06 0.07 0.07 0.07 0.07 0.08 0.08 0.07 0.07 0.07 0.06 0.07 0.08 0.09 0.09 0.10 0.10 0.10 0.10 0.10 0.11 0.12 0.11 0.12 0.14 0.16 0.17 0.17 0.18 0.21 0.22 0.22 0.23 0.25 0.25 0.24 0.26 0.31
0.08 0.08 0.09 0.08 0.08 0.07 0.06 0.06 0.06 0.05 0.05 0.05 0.06 0.07 0.07 0.08 0.08 0.08 0.08 0.09 0.09 0.10 0.10 0.09 0.09 0.09 0.09 0.10 0.11 0.12 0.14 0.15 0.17 0.18 0.19 0.21 0.23 0.25 0.25 0.25 0.25 0.25 0.26 0.29
0.10 0.10 0.10 0.11 0.10 0.08 0.07 0.06 0.07 0.07 0.06 0.07 0.07 0.08 0.09 0.09 0.09 0.09 0.09 0.09 0.09 0.09 0.10 0.09 0.09 0.09 0.09 0.09 0.11 0.13 0.14 0.20 0.23 0.22 0.22 0.23 0.24 0.26 0.26 0.27 0.27 0.26 0.26 0.28
0.16 0.15 0.13 0.14 0.13 0.12 0.12 0.12 0.12 0.12 0.11 0.09 0.09 0.09 0.09 0.09 0.08 0.08 0.08 0.07 0.07 0.08 0.08 0.08 0.09 0.10 0.10 0.11 0.12 0.14 0.16 0.20 0.25 0.23 0.21 0.22 0.25 0.28 0.30 0.31 0.30 0.28 0.25 0.29
0.19 0.19 0.18 0.18 0.17 0.16 0.16 0.15 0.13 0.12 0.11 0.10 0.09 0.09 0.09 0.09 0.08 0.08 0.08 0.08 0.08 0.09 0.09 0.09 0.10 0.10 0.10 0.12 0.14 0.16 0.18 0.19 0.21 0.22 0.23 0.27 0.31 0.33 0.34 0.34 0.32 0.31 0.28 0.32
0.19 0.20 0.20 0.19 0.18 0.17 0.18 0.18 0.17 0.15 0.13 0.12 0.11 0.11 0.11 0.10 0.11 0.11 0.11 0.11 0.11 0.11 0.11 0.10 0.13 0.13 0.13 0.15 0.19 0.19 0.21 0.23 0.24 0.25 0.27 0.33 0.36 0.33 0.34 0.35 0.34 0.33 0.33 0.35
0.20 0.20 0.21 0.21 0.19 0.18 0.19 0.19 0.18 0.16 0.15 0.13 0.13 0.13 0.13 0.12 0.12 0.12 0.12 0.12 0.13 0.12 0.11 0.13 0.14 0.14 0.15 0.17 0.22 0.22 0.22 0.25 0.27 0.29 0.32 0.35 0.36 0.34 0.34 0.35 0.35 0.35 0.36 0.36
0.22 0.21 0.21 0.22 0.22 0.21 0.20 0.19 0.18 0.18 0.17 0.15 0.15 0.15 0.15 0.14 0.12 0.12 0.12 0.13 0.11 0.12 0.12 0.14 0.13 0.13 0.16 0.21 0.25 0.24 0.24 0.27 0.31 0.34 0.37 0.38 0.38 0.37 0.36 0.35 0.36 0.36 0.37 0.37
0.19 0.20 0.21 0.21 0.20 0.20 0.19 0.19 0.19 0.18 0.18 0.18 0.18 0.17 0.16 0.15 0.14 0.13 0.13 0.14 0.13 0.16 0.16 0.15 0.15 0.17 0.22 0.27 0.27 0.27 0.29 0.32 0.34 0.36 0.37 0.38 0.39 0.38 0.36 0.36 0.37 0.36 0.36 0.36
0.16 0.18 0.19 0.20 0.19 0.18 0.18 0.19 0.19 0.19 0.19 0.19 0.20 0.21 0.20 0.18 0.17 0.17 0.18 0.15 0.15 0.16 0.16 0.15 0.18 0.23 0.26 0.27 0.27 0.29 0.31 0.33 0.34 0.34 0.35 0.35 0.35 0.35 0.35 0.35 0.34 0.34 0.34 0.35
0.12 0.11 0.12 0.12 0.12 0.12 0.13 0.13 0.14 0.15 0.17 0.18 0.19 0.19 0.19 0.19 0.17 0.16 0.17 0.17 0.16 0.17 0.16 0.17 0.21 0.25 0.27 0.26 0.26 0.28 0.29 0.30 0.31 0.31 0.31 0.31 0.31 0.31 0.32 0.32 0.32 0.31 0.32 0.32
0.08 0.07 0.07 0.07 0.08 0.09 0.10 0.10 0.11 0.12 0.13 0.15 0.16 0.15 0.14 0.15 0.17 0.17 0.16 0.16 0.16 0.18 0.18 0.19 0.21 0.22 0.23 0.23 0.24 0.25 0.26 0.27 0.29 0.30 0.29 0.29 0.28 0.28 0.28 0.28 0.29 0.29 0.29 0.29
0.07 0.06 0.06 0.06 0.06 0.07 0.08 0.09 0.10 0.11 0.12 0.13 0.14 0.14 0.14 0.15 0.16 0.17 0.18 0.17 0.17 0.18 0.19 0.20 0.20 0.21 0.22 0.21 0.22 0.22 0.22 0.23 0.24 0.24 0.24 0.25 0.26 0.26 0.26 0.26 0.26 0.27 0.27 0.27
0.06 0.06 0.06 0.06 0.06 0.07 0.07 0.08 0.09 0.10 0.11 0.13 0.15 0.15 0.16 0.17 0.17 0.17 0.17 0.17 0.17 0.18 0.19 0.19 0.20 0.20 0.21 0.21 0.20 0.19 0.19 0.20 0.21 0.22 0.22 0.23 0.24 0.25 0.25 0.26 0.26 0.26 0.26 0.26

GEFSNGP_prec_meanprecacc_204.txt.gz
Total_Precipitation_Accumulation
0.63 0.53 0.59 0.57 0.45 0.53 0.77 0.65 0.54 0.37 0.34 0.38 0.36 0.38 0.39 0.35 0.31 0.27 0.26 0.25 0.22 0.21 0.22 0.24 0.26 0.31 0.39 0.47 0.52 0.59 0.63 0.64 0.65 0.66 0.66 0.66 0.64 0.61 0.59 0.61 0.62 0.63 0.60 0.59
0.66 0.38 0.41 0.43 0.34 0.39 0.48 0.40 0.35 0.27 0.31 0.27 0.27 0.31 0.33 0.27 0.21 0.18 0.18 0.18 0.16 0.15 0.15 0.18 0.20 0.22 0.28 0.37 0.44 0.48 0.54 0.58 0.61 0.62 0.62 0.61 0.58 0.55 0.52 0.52 0.54 0.58 0.61 0.62
0.73 0.37 0.41 0.44 0.31 0.33 0.38 0.31 0.28 0.31 0.27 0.19 0.21 0.28 0.33 0.26 0.18 0.14 0.14 0.14 0.14 0.14 0.14 0.13 0.15 0.21 0.27 0.32 0.35 0.38 0.42 0.44 0.48 0.52 0.57 0.58 0.57 0.59 0.62 0.65 0.65 0.69 0.73 0.76
0.73 0.56 0.63 0.41 0.25 0.23 0.27 0.25 0.21 0.20 0.15 0.15 0.19 0.21 0.22 0.22 0.20 0.15 0.10 0.08 0.08 0.11 0.11 0.11 0.13 0.18 0.25 0.34 0.39 0.42 0.46 0.46 0.46 0.49 0.56 0.63 0.70 0.76 0.83 0.89 0.91 0.93 0.95 0.96
0.64 0.50 0.32 0.19 0.15 0.18 0.22 0.22 0.16 0.15 0.13 0.11 0.12 0.18 0.20 0.18 0.19 0.17 0.10 0.07 0.07 0.08 0.10 0.13 0.15 0.17 0.22 0.32 0.40 0.45 0.50 0.54 0.56 0.60 0.70 0.77 0.87 0.95 0.98 1.04 1.04 0.99 0.95 0.92
0.60 0.45 0.21 0.13 0.07 0.07 0.15 0.22 0.12 0.10 0.10 0.09 0.10 0.16 0.19 0.19 0.22 0.23 0.18 0.11 0.08 0.09 0.11 0.16 0.20 0.23 0.29 0.38 0.47 0.54 0.58 0.64 0.68 0.71 0.76 0.80 0.82 0.84 0.84 0.84 0.81 0.75 0.71 0.67
0.49 0.41 0.15 0.08 0.04 0.05 0.17 0.21 0.11 0.10 0.11 0.10 0.12 0.13 0.12 0.15 0.20 0.22 0.23 0.22 0.20 0.19 0.21 0.25 0.31 0.39 0.46 0.53 0.62 0.67 0.67 0.70 0.72 0.71 0.72 0.70 0.62 0.56 0.54 0.51 0.47 0.44 0.41 0.39
0.32 0.44 0.24 0.10 0.08 0.14 0.17 0.10 0.08 0.08 0.10 0.11 0.10 0.08 0.08 0.10 0.13 0.15 0.18 0.22 0.26 0.30 0.31 0.33 0.40 0.49 0.56 0.61 0.63 0.60 0.54 0.50 0.48 0.42 0.40 0.38 0.35 0.32 0.32 0.31 0.32 0.30 0.28 0.26
0.29 0.31 0.21 0.14 0.13 0.12 0.09 0.08 0.08 0.09 0.08 0.08 0.09 0.10 0.09 0.08 0.08 0.09 0.10 0.10 0.15 0.20 0.24 0.25 0.25 0.29 0.32 0.32 0.29 0.27 0.24 0.23 0.22 0.21 0.21 0.21 0.21 0.20 0.20 0.22 0.23 0.22 0.22 0.22
0.27 0.25 0.17 0.14 0.11 0.10 0.09 0.10 0.09 0.08 0.07 0.06 0.08 0.08 0.08 0.08 0.08 0.08 0.08 0.08 0.08 0.09 0.10 0.11 0.10 0.10 0.10 0.10 0.11 0.11 0.12 0.14 0.15 0.16 0.16 0.16 0.16 0.15 0.16 0.17 0.19 0.20 0.21 0.21
0.24 0.19 0.14 0.13 0.10 0.11 0.10 0.10 0.10 0.09 0.07 0.07 0.07 0.07 0.08 0.07 0.07 0.07 0.07 0.07 0.08 0.09 0.11 0.12 0.11 0.10 0.10 0.11 0.10 0.11 0.11 0.13 0.15 0.16 0.17 0.18 0.18 0.19 0.20 0.21 0.24 0.26 0.24 0.24
0.25 0.17 0.16 0.14 0.10 0.08 0.08 0.08 0.09 0.10 0.11 0.10 0.09 0.10 0.10 0.09 0.07 0.07 0.06 0.07 0.08 0.09 0.11 0.13 0.12 0.11 0.11 0.12 0.13 0.13 0.13 0.13 0.14 0.15 0.17 0.18 0.18 0.19 0.22 0.23 0.25 0.26 0.26 0.27
0.15 0.10 0.10 0.09 0.07 0.06 0.07 0.08 0.09 0.10 0.11 0.12 0.12 0.11 0.10 0.10 0.10 0.09 0.09 0.08 0.09 0.10 0.11 0.12 0.12 0.13 0.14 0.14 0.14 0.14 0.15 0.16 0.17 0.18 0.19 0.20 0.21 0.21 0.23 0.25 0.28 0.28 0.28 0.28
0.08 0.08 0.10 0.09 0.08 0.07 0.08 0.09 0.09 0.10 0.11 0.11 0.12 0.11 0.11 0.11 0.10 0.10 0.11 0.12 0.12 0.12 0.12 0.12 0.11 0.12 0.13 0.13 0.13 0.14 0.16 0.18 0.19 0.18 0.20 0.22 0.23 0.23 0.24 0.25 0.25 0.24 0.26 0.31
0.10 0.11 0.12 0.11 0.10 0.09 0.08 0.08 0.08 0.08 0.07 0.07 0.09 0.10 0.10 0.11 0.11 0.11 0.11 0.11 0.11 0.11 0.11 0.11 0.11 0.11 0.11 0.12 0.12 0.13 0.15 0.17 0.18 0.19 0.20 0.22 0.24 0.25 0.25 0.25 0.26 0.25 0.26 0.30
0.12 0.12 0.12 0.13 0.13 0.11 0.09 0.08 0.09 0.09 0.09 0.09 0.10 0.11 0.11 0.11 0.11 0.11 0.11 0.10 0.10 0.11 0.11 0.11 0.11 0.11 0.11 0.11 0.12 0.14 0.15 0.21 0.24 0.23 0.23 0.23 0.24 0.26 0.27 0.27 0.27 0.27 0.26 0.28
0.19 0.17 0.16 0.16 0.16 0.15 0.15 0.15 0.15 0.14 0.12 0.11 0.11 0.11 0.11 0.11 0.10 0.10 0.09 0.09 0.09 0.09 0.09 0.10 0.11 0.11 0.11 0.12 0.14 0.16 0.17 0.21 0.26 0.24 0.22 0.23 0.26 0.28 0.31 0.32 0.31 0.29 0.26 0.30
0.22 0.23 0.22 0.21 0.21 0.21 0.20 0.18 0.16 0.15 0.14 0.13 0.12 0.12 0.12 0.11 0.11 0.10 0.10 0.10 0.09 0.10 0.11 0.11 0.11 0.11 0.11 0.13 0.15 0.17 0.19 0.20 0.22 0.23 0.24 0.27 0.32 0.34 0.35 0.35 0.33 0.32 0.29 0.32
0.22 0.24 0.24 0.23 0.23 0.22 0.22 0.22 0.21 0.18 0.17 0.15 0.14 0.14 0.14 0.14 0.14 0.14 0.13 0.13 0.12 0.13 0.12 0.12 0.14 0.14 0.14 0.16 0.20 0.20 0.21 0.23 0.25 0.25 0.27 0.33 0.37 0.34 0.35 0.36 0.35 0.34 0.34 0.35
0.24 0.25 0.25 0.25 0.23 0.21 0.23 0.23 0.22 0.20 0.19 0.17 0.17 0.17 0.17 0.16 0.15 0.14 0.13 0.13 0.14 0.13 0.12 0.13 0.14 0.14 0.15 0.18 0.23 0.22 0.23 0.25 0.27 0.29 0.32 0.35 0.36 0.35 0.34 0.35 0.36 0.36 0.36 0.37
0.27 0.26 0.25 0.26 0.26 0.24 0.24 0.22 0.21 0.21 0.20 0.19 0.18 0.18 0.17 0.16 0.14 0.13 0.13 0.13 0.12 0.12 0.12 0.14 0.13 0.13 0.16 0.22 0.26 0.24 0.25 0.27 0.31 0.34 0.37 0.38 0.38 0.37 0.36 0.36 0.36 0.37 0.37 0.37
0.25 0.25 0.25 0.25 0.23 0.23 0.22 0.22 0.21 0.21 0.21 0.21 0.20 0.19 0.18 0.16 0.15 0.13 0.13 0.14 0.14 0.16 0.16 0.15 0.15 0.17 0.22 0.27 0.27 0.27 0.30 0.32 0.34 0.36 0.38 0.38 0.39 0.38 0.36 0.36 0.37 0.36 0.36 0.36
0.20 0.22 0.23 0.23 0.22 0.21 0.20 0.21 0.21 0.21 0.21 0.21 0.22 0.22 0.21 0.19 0.17 0.18 0.18 0.16 0.15 0.16 0.16 0.16 0.18 0.23 0.27 0.27 0.27 0.29 0.31 0.33 0.34 0.35 0.35 0.36 0.36 0.36 0.36 0.35 0.34 0.34 0.35 0.35
0.14 0.14 0.15 0.15 0.14 0.14 0.15 0.15 0.16 0.17 0.18 0.20 0.20 0.20 0.20 0.19 0.18 0.17 0.17 0.17 0.16 0.17 0.16 0.17 0.22 0.25 0.27 0.26 0.26 0.28 0.30 0.30 0.31 0.31 0.32 0.31 0.31 0.32 0.32 0.33 0.33 0.32 0.32 0.33
0.09 0.09 0.08 0.09 0.10 0.11 0.11 0.12 0.13 0.14 0.15 0.17 0.17 0.16 0.15 0.16 0.18 0.18 0.17 0.16 0.16 0.18 0.18 0.19 0.21 0.22 0.23 0.23 0.24 0.26 0.26 0.27 0.30 0.31 0.30 0.29 0.29 0.29 0.29 0.29 0.30 0.30 0.30 0.30
0.07 0.07 0.07 0.07 0.08 0.08 0.09 0.10 0.11 0.12 0.13 0.14 0.15 0.15 0.15 0.16 0.16 0.18 0.18 0.17 0.17 0.18 0.19 0.20 0.20 0.21 0.22 0.22 0.22 0.22 0.23 0.23 0.25 0.25 0.25 0.26 0.27 0.27 0.27 0.26 0.27 0.28 0.28 0.28
0.07 0.07 0.07 0.07 0.07 0.08 0.09 0.09 0.10 0.11 0.13 0.14 0.16 0.16 0.16 0.17 0.17 0.18 0.17 0.17 0.17 0.18 0.19 0.19 0.20 0.20 0.21 0.21 0.21 0.20 0.20 0.21 0.22 0.23 0.23 0.24 0.25 0.26 0.26 0.26 0.27 0.27 0.27 0.27

GEFSNGP_prec_meanprecacc_210.txt.gz
Total_Precipitation_Accumulation
0.64 0.53 0.60 0.58 0.46 0.54 0.80 0.67 0.56 0.37 0.35 0.38 0.36 0.38 0.39 0.35 0.31 0.27 0.26 0.25 0.22 0.21 0.22 0.24 0.26 0.32 0.41 0.49 0.56 0.63 0.68 0.70 0.70 0.70 0.70 0.69 0.67 0.64 0.62 0.64 0.67 0.66 0.65 0.64
0.67 0.38 0.41 0.43 0.34 0.40 0.48 0.41 0.37 0.28 0.32 0.28 0.28 0.32 0.33 0.27 0.21 0.18 0.18 0.18 0.16 0.15 0.16 0.18 0.20 0.23 0.29 0.39 0.47 0.52 0.59 0.64 0.66 0.67 0.66 0.64 0.61 0.59 0.55 0.56 0.58 0.62 0.65 0.66
0.74 0.37 0.41 0.44 0.32 0.34 0.39 0.33 0.30 0.33 0.28 0.19 0.22 0.28 0.33 0.26 0.18 0.14 0.14 0.14 0.14 0.15 0.14 0.13 0.15 0.21 0.29 0.35 0.39 0.42 0.46 0.50 0.54 0.57 0.61 0.62 0.61 0.62 0.66 0.68 0.69 0.73 0.77 0.80
0.75 0.57 0.65 0.42 0.26 0.25 0.29 0.27 0.24 0.23 0.18 0.16 0.20 0.21 0.22 0.23 0.20 0.16 0.10 0.09 0.09 0.11 0.12 0.12 0.14 0.19 0.27 0.36 0.43 0.47 0.51 0.52 0.52 0.54 0.61 0.67 0.73 0.79 0.86 0.93 0.94 0.96 0.99 1.00
0.68 0.52 0.33 0.20 0.16 0.20 0.25 0.25 0.18 0.17 0.14 0.12 0.13 0.19 0.21 0.20 0.20 0.18 0.11 0.08 0.07 0.08 0.11 0.14 0.16 0.18 0.24 0.34 0.43 0.50 0.55 0.58 0.60 0.65 0.74 0.82 0.91 0.99 1.02 1.08 1.07 1.02 0.99 0.96
0.66 0.50 0.25 0.16 0.08 0.08 0.17 0.26 0.14 0.12 0.11 0.10 0.11 0.18 0.21 0.22 0.24 0.24 0.19 0.12 0.09 0.09 0.12 0.17 0.21 0.24 0.31 0.41 0.51 0.58 0.63 0.69 0.73 0.75 0.80 0.84 0.86 0.88 0.87 0.87 0.84 0.79 0.74 0.70
0.53 0.46 0.19 0.11 0.05 0.06 0.20 0.25 0.13 0.12 0.13 0.12 0.14 0.16 0.15 0.17 0.22 0.24 0.24 0.23 0.21 0.20 0.22 0.26 0.32 0.40 0.49 0.56 0.67 0.71 0.71 0.76 0.78 0.75 0.76 0.74 0.66 0.60 0.57 0.54 0.50 0.47 0.44 0.42
0.35 0.48 0.29 0.12 0.09 0.16 0.21 0.12 0.10 0.10 0.12 0.13 0.12 0.10 0.10 0.12 0.16 0.17 0.19 0.23 0.27 0.31 0.32 0.33 0.41 0.51 0.58 0.64 0.68 0.65 0.59 0.56 0.54 0.47 0.44 0.43 0.38 0.36 0.35 0.34 0.34 0.33 0.30 0.29
0.33 0.36 0.25 0.17 0.16 0.16 0.13 0.12 0.11 0.12 0.11 0.10 0.11 0.12 0.11 0.10 0.11 0.11 0.11 0.12 0.16 0.21 0.25 0.25 0.27 0.31 0.34 0.34 0.32 0.31 0.30 0.28 0.28 0.27 0.26 0.26 0.25 0.24 0.24 0.25 0.26 0.25 0.25 0.26
0.30 0.28 0.20 0.16 0.13 0.13 0.12 0.13 0.12 0.11 0.09 0.08 0.10 0.10 0.10 0.10 0.10 0.10 0.10 0.10 0.10 0.10 0.12 0.12 0.11 0.12 0.12 0.12 0.13 0.15 0.18 0.19 0.20 0.21 0.20 0.21 0.21 0.19 0.20 0.21 0.22 0.23 0.24 0.24
0.28 0.22 0.16 0.15 0.13 0.14 0.13 0.11 0.11 0.10 0.09 0.09 0.09 0.09 0.09 0.10 0.10 0.10 0.09 0.10 0.10 0.11 0.12 0.14 0.13 0.13 0.13 0.14 0.15 0.16 0.18 0.18 0.20 0.21 0.21 0.21 0.22 0.22 0.24 0.25 0.27 0.29 0.28 0.28
0.31 0.21 0.20 0.18 0.13 0.11 0.10 0.10 0.11 0.11 0.11 0.11 0.11 0.12 0.12 0.12 0.12 0.11 0.11 0.11 0.11 0.12 0.14 0.17 0.16 0.15 0.14 0.16 0.18 0.19 0.18 0.18 0.19 0.20 0.20 0.21 0.21 0.22 0.26 0.27 0.30 0.31 0.31 0.31
0.22 0.14 0.13 0.12 0.10 0.09 0.10 0.11 0.11 0.11 0.12 0.13 0.14 0.14 0.14 0.14 0.14 0.14 0.13 0.13 0.13 0.14 0.14 0.16 0.17 0.17 0.17 0.18 0.18 0.19 0.20 0.21 0.22 0.22 0.22 0.23 0.23 0.23 0.26 0.29 0.32 0.33 0.31 0.31
0.12 0.11 0.13 0.12 0.12 0.11 0.11 0.12 0.11 0.12 0.13 0.13 0.14 0.14 0.14 0.14 0.14 0.14 0.16 0.17 0.16 0.15 0.15 0.15 0.15 0.15 0.17 0.17 0.16 0.17 0.19 0.22 0.23 0.21 0.23 0.25 0.25 0.25 0.26 0.28 0.29 0.28 0.29 0.34
0.13 0.14 0.16 0.15 0.13 0.12 0.11 0.10 0.10 0.10 0.09 0.09 0.11 0.12 0.13 0.13 0.14 0.15 0.15 0.15 0.14 0.14 0.14 0.13 0.13 0.13 0.14 0.14 0.14 0.16 0.18 0.20 0.22 0.21 0.23 0.25 0.27 0.28 0.28 0.28 0.28 0.27 0.28 0.32
0.15 0.14 0.14 0.14 0.15 0.13 0.11 0.11 0.12 0.12 0.12 0.12 0.12 0.13 0.14 0.13 0.13 0.13 0.14 0.13 0.12 0.13 0.13 0.13 0.13 0.13 0.13 0.13 0.15 0.17 0.18 0.24 0.27 0.26 0.26 0.27 0.27 0.29 0.29 0.29 0.29 0.28 0.28 0.30
0.21 0.19 0.17 0.18 0.18 0.18 0.17 0.18 0.18 0.18 0.16 0.15 0.15 0.14 0.14 0.13 0.13 0.13 0.12 0.11 0.10 0.11 0.11 0.12 0.13 0.13 0.13 0.13 0.15 0.18 0.20 0.23 0.29 0.27 0.25 0.25 0.28 0.30 0.32 0.33 0.32 0.30 0.27 0.31
0.25 0.26 0.24 0.24 0.24 0.23 0.22 0.21 0.20 0.19 0.18 0.17 0.16 0.16 0.15 0.15 0.15 0.15 0.14 0.13 0.12 0.12 0.13 0.14 0.13 0.12 0.13 0.14 0.17 0.19 0.20 0.22 0.24 0.25 0.26 0.29 0.33 0.35 0.36 0.36 0.34 0.33 0.29 0.33
0.24 0.26 0.26 0.26 0.26 0.25 0.26 0.26 0.24 0.22 0.21 0.19 0.18 0.19 0.19 0.19 0.19 0.19 0.18 0.16 0.15 0.16 0.15 0.14 0.15 0.15 0.15 0.17 0.21 0.21 0.22 0.25 0.26 0.26 0.29 0.34 0.37 0.34 0.35 0.36 0.36 0.34 0.34 0.35
0.26 0.27 0.27 0.28 0.26 0.25 0.26 0.26 0.24 0.23 0.22 0.21 0.21 0.21 0.21 0.20 0.19 0.18 0.17 0.17 0.17 0.16 0.14 0.14 0.15 0.15 0.16 0.18 0.23 0.23 0.23 0.26 0.28 0.29 0.32 0.36 0.37 0.35 0.35 0.36 0.36 0.36 0.36 0.37
0.30 0.29 0.28 0.29 0.29 0.27 0.27 0.25 0.24 0.24 0.24 0.22 0.22 0.22 0.22 0.20 0.18 0.16 0.16 0.16 0.14 0.13 0.13 0.15 0.14 0.14 0.17 0.22 0.26 0.25 0.25 0.28 0.31 0.34 0.37 0.38 0.39 0.37 0.36 0.36 0.37 0.37 0.38 0.37
0.28 0.28 0.29 0.28 0.27 0.26 0.26 0.25 0.25 0.24 0.24 0.25 0.24 0.23 0.22 0.20 0.18 0.16 0.15 0.16 0.15 0.16 0.16 0.15 0.15 0.17 0.23 0.28 0.28 0.28 0.30 0.32 0.35 0.37 0.38 0.39 0.40 0.39 0.36 0.36 0.37 0.36 0.36 0.37
0.24 0.25 0.27 0.28 0.27 0.25 0.24 0.25 0.25 0.25 0.25 0.26 0.27 0.26 0.24 0.22 0.20 0.19 0.19 0.17 0.15 0.17 0.17 0.16 0.19 0.24 0.28 0.28 0.28 0.30 0.32 0.33 0.34 0.35 0.36 0.36 0.36 0.36 0.36 0.35 0.35 0.35 0.35 0.36
0.17 0.17 0.18 0.18 0.17 0.17 0.18 0.19 0.19 0.20 0.21 0.23 0.23 0.23 0.22 0.21 0.20 0.18 0.18 0.18 0.18 0.18 0.17 0.18 0.22 0.26 0.28 0.26 0.26 0.29 0.30 0.31 0.31 0.32 0.32 0.32 0.32 0.32 0.33 0.33 0.33 0.32 0.33 0.33
0.11 0.11 0.10 0.10 0.11 0.13 0.14 0.14 0.15 0.16 0.17 0.18 0.19 0.18 0.17 0.17 0.19 0.19 0.18 0.17 0.17 0.18 0.18 0.19 0.21 0.23 0.24 0.23 0.25 0.26 0.26 0.27 0.30 0.32 0.30 0.30 0.29 0.30 0.29 0.29 0.31 0.31 0.30 0.30
0.08 0.07 0.07 0.08 0.09 0.10 0.11 0.11 0.13 0.14 0.15 0.16 0.17 0.17 0.17 0.17 0.18 0.19 0.19 0.19 0.18 0.19 0.20 0.20 0.20 0.21 0.22 0.22 0.22 0.23 0.23 0.24 0.25 0.26 0.25 0.26 0.27 0.28 0.27 0.27 0.27 0.28 0.29 0.29
0.07 0.07 0.07 0.07 0.08 0.09 0.10 0.10 0.11 0.13 0.14 0.16 0.17 0.17 0.18 0.19 0.19 0.19 0.18 0.18 0.18 0.19 0.19 0.19 0.20 0.20 0.21 0.21 0.21 0.20 0.20 0.21 0.23 0.23 0.24 0.25 0.26 0.26 0.27 0.27 0.27 0.27 0.28 0.27

GEFSNGP_prec_meanprecacc_216.txt.gz
Total_Precipitation_Accumulation
0.64 0.54 0.61 0.60 0.48 0.56 0.81 0.69 0.57 0.38 0.36 0.40 0.38 0.40 0.40 0.36 0.31 0.27 0.26 0.25 0.23 0.22 0.23 0.24 0.26 0.32 0.41 0.50 0.57 0.67 0.74 0.76 0.75 0.74 0.73 0.72 0.70 0.68 0.66 0.68 0.69 0.68 0.66 0.65
0.67 0.39 0.42 0.45 0.35 0.41 0.49 0.42 0.38 0.30 0.35 0.29 0.28 0.33 0.35 0.28 0.22 0.19 0.19 0.19 0.17 0.16 0.16 0.19 0.21 0.24 0.30 0.41 0.49 0.55 0.64 0.69 0.70 0.71 0.70 0.68 0.65 0.63 0.59 0.60 0.63 0.66 0.67 0.69
0.75 0.38 0.43 0.47 0.35 0.36 0.42 0.35 0.32 0.36 0.31 0.21 0.23 0.30 0.35 0.28 0.19 0.15 0.15 0.15 0.14 0.15 0.15 0.14 0.15 0.22 0.29 0.37 0.41 0.44 0.49 0.54 0.57 0.60 0.64 0.65 0.65 0.66 0.70 0.72 0.73 0.77 0.81 0.83
0.78 0.59 0.69 0.46 0.27 0.26 0.32 0.30 0.26 0.26 0.20 0.18 0.22 0.23 0.25 0.26 0.22 0.17 0.11 0.09 0.09 0.12 0.12 0.12 0.14 0.19 0.28 0.38 0.45 0.49 0.54 0.55 0.55 0.57 0.64 0.70 0.77 0.83 0.90 0.96 0.97 1.00 1.03 1.04
0.73 0.56 0.37 0.22 0.17 0.22 0.29 0.29 0.21 0.19 0.16 0.14 0.15 0.19 0.23 0.22 0.22 0.19 0.12 0.09 0.08 0.09 0.11 0.14 0.17 0.18 0.24 0.36 0.46 0.52 0.58 0.61 0.63 0.68 0.77 0.85 0.95 1.03 1.06 1.12 1.11 1.07 1.03 1.00
0.73 0.57 0.30 0.19 0.09 0.09 0.20 0.31 0.16 0.13 0.13 0.12 0.12 0.20 0.23 0.23 0.26 0.25 0.20 0.14 0.10 0.10 0.12 0.17 0.21 0.25 0.32 0.43 0.54 0.61 0.66 0.72 0.76 0.78 0.84 0.88 0.90 0.92 0.91 0.91 0.89 0.84 0.79 0.75
0.59 0.51 0.24 0.13 0.05 0.06 0.24 0.31 0.15 0.14 0.15 0.14 0.16 0.19 0.17 0.19 0.23 0.25 0.26 0.25 0.23 0.22 0.24 0.27 0.33 0.41 0.50 0.58 0.70 0.75 0.75 0.80 0.81 0.79 0.80 0.78 0.70 0.64 0.61 0.58 0.54 0.51 0.49 0.47
0.39 0.54 0.34 0.15 0.11 0.20 0.26 0.16 0.13 0.13 0.15 0.15 0.14 0.12 0.12 0.14 0.18 0.20 0.22 0.26 0.30 0.34 0.35 0.35 0.42 0.52 0.60 0.67 0.71 0.69 0.63 0.60 0.58 0.51 0.48 0.46 0.42 0.40 0.38 0.38 0.38 0.36 0.34 0.33
0.37 0.42 0.32 0.23 0.21 0.20 0.17 0.16 0.14 0.15 0.14 0.14 0.14 0.15 0.13 0.12 0.13 0.14 0.14 0.15 0.19 0.25 0.29 0.28 0.28 0.32 0.36 0.36 0.35 0.34 0.32 0.31 0.32 0.31 0.31 0.30 0.29 0.28 0.28 0.29 0.29 0.29 0.28 0.28
0.33 0.32 0.24 0.21 0.18 0.16 0.15 0.16 0.15 0.14 0.12 0.12 0.13 0.13 0.12 0.12 0.12 0.12 0.13 0.12 0.13 0.14 0.16 0.16 0.14 0.14 0.14 0.14 0.15 0.17 0.20 0.22 0.24 0.25 0.25 0.26 0.26 0.24 0.24 0.25 0.26 0.26 0.27 0.27
0.31 0.24 0.19 0.18 0.16 0.17 0.15 0.13 0.13 0.12 0.10 0.11 0.11 0.11 0.12 0.12 0.12 0.12 0.12 0.12 0.13 0.15 0.16 0.18 0.17 0.17 0.16 0.17 0.18 0.20 0.22 0.23 0.25 0.26 0.26 0.26 0.27 0.27 0.28 0.29 0.31 0.32 0.31 0.30
0.35 0.25 0.24 0.22 0.16 0.14 0.13 0.13 0.14 0.15 0.14 0.12 0.13 0.14 0.14 0.15 0.15 0.14 0.14 0.14 0.15 0.17 0.18 0.20 0.19 0.18 0.18 0.19 0.21 0.23 0.23 0.23 0.24 0.25 0.25 0.25 0.26 0.27 0.31 0.32 0.34 0.35 0.33 0.33
0.26 0.18 0.16 0.15 0.13 0.12 0.13 0.15 0.16 0.16 0.16 0.16 0.16 0.16 0.16 0.17 0.17 0.17 0.17 0.16 0.17 0.18 0.18 0.20 0.20 0.20 0.21 0.21 0.21 0.23 0.24 0.26 0.26 0.26 0.26 0.27 0.27 0.27 0.29 0.33 0.36 0.36 0.34 0.33
0.14 0.13 0.15 0.14 0.15 0.14 0.15 0.16 0.16 0.16 0.16 0.17 0.17 0.17 0.17 0.17 0.16 0.16 0.19 0.21 0.20 0.20 0.19 0.19 0.18 0.19 0.21 0.20 0.20 0.21 0.24 0.27 0.27 0.26 0.27 0.29 0.29 0.28 0.28 0.30 0.31 0.30 0.31 0.36
0.14 0.16 0.19 0.17 0.15 0.14 0.13 0.12 0.12 0.12 0.12 0.13 0.14 0.16 0.16 0.16 0.17 0.18 0.19 0.19 0.17 0.17 0.17 0.16 0.16 0.17 0.18 0.18 0.18 0.19 0.22 0.25 0.26 0.26 0.27 0.29 0.31 0.32 0.31 0.30 0.30 0.29 0.30 0.34
0.16 0.15 0.15 0.16 0.16 0.14 0.13 0.13 0.14 0.15 0.15 0.15 0.16 0.17 0.18 0.18 0.18 0.18 0.18 0.16 0.15 0.16 0.17 0.16 0.16 0.16 0.16 0.16 0.17 0.19 0.22 0.29 0.32 0.31 0.31 0.31 0.32 0.33 0.32 0.31 0.31 0.30 0.29 0.32
0.25 0.22 0.19 0.20 0.19 0.19 0.19 0.20 0.21 0.21 0.19 0.19 0.19 0.18 0.18 0.17 0.17 0.18 0.17 0.15 0.14 0.14 0.15 0.16 0.17 0.16 0.15 0.16 0.17 0.20 0.22 0.27 0.33 0.31 0.28 0.29 0.31 0.33 0.35 0.36 0.34 0.32 0.29 0.33
0.29 0.30 0.27 0.26 0.26 0.25 0.24 0.23 0.22 0.21 0.21 0.21 0.20 0.19 0.19 0.19 0.19 0.19 0.19 0.16 0.15 0.16 0.17 0.17 0.16 0.15 0.15 0.16 0.18 0.20 0.22 0.24 0.26 0.27 0.28 0.31 0.35 0.37 0.38 0.38 0.36 0.34 0.31 0.35
0.27 0.28 0.28 0.28 0.28 0.27 0.28 0.28 0.27 0.25 0.24 0.23 0.21 0.22 0.23 0.22 0.23 0.23 0.21 0.19 0.18 0.19 0.19 0.18 0.19 0.17 0.17 0.19 0.22 0.22 0.24 0.26 0.27 0.28 0.30 0.35 0.39 0.36 0.36 0.38 0.37 0.36 0.36 0.37
0.28 0.29 0.29 0.30 0.28 0.27 0.29 0.29 0.27 0.25 0.25 0.23 0.23 0.24 0.24 0.24 0.23 0.22 0.20 0.19 0.20 0.19 0.17 0.17 0.17 0.17 0.18 0.20 0.24 0.24 0.24 0.27 0.29 0.30 0.33 0.36 0.37 0.36 0.35 0.37 0.37 0.37 0.37 0.38
0.32 0.31 0.30 0.31 0.31 0.29 0.29 0.27 0.26 0.27 0.26 0.24 0.24 0.25 0.25 0.24 0.21 0.19 0.18 0.19 0.18 0.16 0.15 0.16 0.15 0.15 0.17 0.23 0.27 0.25 0.26 0.28 0.32 0.35 0.38 0.39 0.39 0.38 0.37 0.37 0.37 0.38 0.38 0.38
0.30 0.30 0.31 0.30 0.28 0.28 0.28 0.27 0.26 0.27 0.27 0.27 0.27 0.25 0.24 0.23 0.20 0.19 0.18 0.18 0.17 0.18 0.18 0.16 0.16 0.18 0.23 0.28 0.28 0.28 0.30 0.33 0.35 0.37 0.39 0.39 0.40 0.39 0.37 0.37 0.38 0.37 0.37 0.37
0.26 0.28 0.29 0.30 0.29 0.28 0.27 0.27 0.27 0.26 0.27 0.28 0.29 0.28 0.26 0.24 0.22 0.21 0.22 0.19 0.18 0.19 0.18 0.17 0.20 0.25 0.28 0.29 0.28 0.30 0.32 0.34 0.35 0.36 0.36 0.37 0.37 0.37 0.37 0.36 0.35 0.35 0.36 0.36
0.19 0.19 0.21 0.21 0.20 0.19 0.21 0.22 0.22 0.23 0.24 0.25 0.25 0.25 0.24 0.23 0.22 0.20 0.21 0.20 0.20 0.20 0.19 0.19 0.23 0.27 0.29 0.28 0.27 0.30 0.31 0.31 0.32 0.32 0.33 0.32 0.32 0.33 0.33 0.34 0.34 0.32 0.33 0.33
0.12 0.12 0.12 0.12 0.13 0.15 0.17 0.17 0.18 0.18 0.19 0.21 0.21 0.20 0.19 0.19 0.21 0.21 0.20 0.19 0.19 0.20 0.20 0.20 0.22 0.24 0.25 0.24 0.25 0.27 0.27 0.28 0.31 0.33 0.31 0.30 0.30 0.30 0.30 0.29 0.31 0.31 0.31 0.31
0.09 0.09 0.08 0.09 0.10 0.12 0.13 0.13 0.15 0.16 0.17 0.17 0.19 0.19 0.19 0.19 0.20 0.20 0.20 0.20 0.19 0.20 0.21 0.21 0.21 0.22 0.22 0.22 0.23 0.23 0.23 0.24 0.25 0.26 0.26 0.27 0.28 0.28 0.27 0.27 0.27 0.29 0.29 0.29
0.07 0.07 0.08 0.08 0.09 0.10 0.11 0.11 0.13 0.14 0.16 0.17 0.19 0.19 0.20 0.20 0.20 0.20 0.20 0.19 0.19 0.20 0.20 0.20 0.21 0.21 0.21 0.21 0.21 0.20 0.20 0.21 0.23 0.24 0.24 0.25 0.26 0.27 0.27 0.27 0.28 0.28 0.28 0.28

GEFSNGP_prec_meanprecacc_222.txt.gz
Total_Precipitation_Accumulation
0.64 0.54 0.62 0.61 0.49 0.57 0.83 0.72 0.61 0.43 0.41 0.46 0.43 0.44 0.43 0.39 0.34 0.29 0.28 0.27 0.24 0.23 0.23 0.25 0.27 0.33 0.42 0.51 0.58 0.67 0.75 0.77 0.75 0.74 0.73 0.72 0.71 0.68 0.66 0.68 0.70 0.70 0.68 0.67
0.68 0.40 0.43 0.46 0.36 0.42 0.51 0.44 0.40 0.33 0.38 0.33 0.31 0.35 0.37 0.30 0.24 0.20 0.20 0.20 0.18 0.17 0.17 0.19 0.21 0.24 0.31 0.41 0.49 0.56 0.65 0.70 0.70 0.71 0.70 0.68 0.65 0.63 0.60 0.60 0.64 0.67 0.69 0.71
0.77 0.38 0.45 0.49 0.38 0.39 0.44 0.38 0.35 0.39 0.35 0.24 0.25 0.31 0.37 0.31 0.21 0.16 0.17 0.16 0.16 0.16 0.16 0.15 0.16 0.22 0.30 0.37 0.41 0.44 0.50 0.55 0.58 0.61 0.65 0.66 0.65 0.67 0.70 0.73 0.74 0.79 0.83 0.86
0.80 0.61 0.72 0.50 0.30 0.29 0.36 0.35 0.30 0.30 0.23 0.21 0.25 0.25 0.27 0.29 0.23 0.18 0.12 0.11 0.11 0.13 0.13 0.13 0.15 0.19 0.28 0.38 0.45 0.49 0.54 0.56 0.56 0.58 0.64 0.71 0.78 0.84 0.91 0.97 0.99 1.02 1.06 1.07
0.76 0.59 0.40 0.24 0.19 0.25 0.33 0.35 0.25 0.23 0.19 0.16 0.18 0.22 0.25 0.23 0.23 0.20 0.13 0.10 0.09 0.10 0.13 0.15 0.17 0.19 0.25 0.36 0.46 0.52 0.59 0.62 0.64 0.69 0.78 0.86 0.95 1.04 1.07 1.13 1.12 1.09 1.06 1.04
0.77 0.61 0.34 0.23 0.11 0.12 0.24 0.38 0.20 0.16 0.16 0.14 0.15 0.23 0.26 0.25 0.27 0.27 0.21 0.15 0.12 0.11 0.14 0.19 0.22 0.26 0.32 0.43 0.54 0.62 0.67 0.73 0.77 0.80 0.85 0.89 0.91 0.93 0.93 0.93 0.90 0.85 0.82 0.78
0.62 0.57 0.29 0.19 0.08 0.08 0.29 0.38 0.20 0.18 0.18 0.17 0.20 0.24 0.22 0.22 0.25 0.27 0.28 0.27 0.24 0.23 0.25 0.29 0.35 0.42 0.51 0.60 0.71 0.76 0.77 0.81 0.83 0.80 0.81 0.78 0.71 0.65 0.63 0.60 0.56 0.53 0.51 0.50
0.42 0.58 0.40 0.19 0.13 0.25 0.34 0.21 0.18 0.17 0.18 0.19 0.18 0.16 0.15 0.16 0.20 0.22 0.24 0.28 0.32 0.36 0.36 0.37 0.44 0.54 0.62 0.69 0.73 0.70 0.64 0.62 0.59 0.53 0.49 0.47 0.44 0.42 0.41 0.40 0.40 0.39 0.37 0.36
0.41 0.47 0.37 0.27 0.26 0.26 0.22 0.20 0.18 0.19 0.18 0.17 0.17 0.17 0.16 0.15 0.15 0.16 0.16 0.17 0.22 0.28 0.32 0.31 0.31 0.35 0.38 0.38 0.37 0.36 0.35 0.34 0.34 0.33 0.33 0.32 0.31 0.31 0.32 0.32 0.33 0.32 0.32 0.33
0.36 0.35 0.27 0.23 0.20 0.18 0.17 0.19 0.18 0.17 0.15 0.14 0.16 0.15 0.14 0.13 0.13 0.14 0.15 0.15 0.16 0.17 0.20 0.20 0.18 0.18 0.17 0.17 0.17 0.20 0.23 0.25 0.27 0.29 0.30 0.31 0.31 0.29 0.30 0.31 0.31 0.31 0.31 0.31
0.33 0.27 0.21 0.19 0.17 0.18 0.16 0.14 0.14 0.14 0.13 0.13 0.13 0.13 0.13 0.13 0.14 0.14 0.14 0.14 0.16 0.19 0.21 0.23 0.21 0.20 0.19 0.20 0.21 0.23 0.26 0.26 0.29 0.30 0.30 0.31 0.32 0.32 0.33 0.34 0.35 0.37 0.35 0.34
0.39 0.28 0.28 0.25 0.18 0.15 0.15 0.15 0.16 0.16 0.16 0.15 0.15 0.17 0.16 0.16 0.16 0.15 0.15 0.16 0.17 0.19 0.22 0.25 0.23 0.22 0.21 0.22 0.24 0.26 0.27 0.27 0.28 0.29 0.29 0.29 0.30 0.31 0.35 0.36 0.38 0.38 0.37 0.37
0.29 0.20 0.18 0.17 0.14 0.13 0.15 0.17 0.18 0.19 0.19 0.19 0.19 0.19 0.19 0.20 0.19 0.19 0.18 0.19 0.20 0.21 0.22 0.25 0.25 0.25 0.26 0.25 0.25 0.26 0.27 0.29 0.30 0.30 0.30 0.31 0.30 0.29 0.33 0.37 0.41 0.40 0.39 0.38
0.15 0.14 0.16 0.15 0.16 0.15 0.16 0.18 0.18 0.18 0.19 0.20 0.20 0.20 0.20 0.19 0.18 0.19 0.22 0.24 0.24 0.24 0.23 0.23 0.22 0.23 0.26 0.25 0.25 0.26 0.27 0.31 0.31 0.29 0.31 0.34 0.34 0.32 0.31 0.33 0.35 0.34 0.36 0.40
0.15 0.17 0.21 0.18 0.16 0.15 0.14 0.14 0.14 0.14 0.15 0.16 0.17 0.19 0.19 0.20 0.21 0.22 0.23 0.23 0.22 0.21 0.21 0.20 0.19 0.21 0.23 0.23 0.23 0.25 0.27 0.29 0.30 0.30 0.32 0.35 0.37 0.37 0.35 0.34 0.33 0.33 0.33 0.37
0.17 0.16 0.16 0.17 0.17 0.15 0.14 0.14 0.15 0.17 0.17 0.17 0.18 0.21 0.22 0.22 0.22 0.23 0.23 0.22 0.21 0.22 0.22 0.20 0.20 0.21 0.20 0.21 0.22 0.24 0.27 0.34 0.37 0.36 0.36 0.37 0.38 0.38 0.37 0.35 0.35 0.33 0.32 0.35
0.26 0.24 0.21 0.21 0.20 0.20 0.20 0.22 0.23 0.23 0.21 0.21 0.21 0.22 0.21 0.20 0.20 0.21 0.22 0.21 0.21 0.21 0.21 0.20 0.21 0.20 0.20 0.20 0.22 0.24 0.27 0.31 0.37 0.34 0.32 0.33 0.36 0.38 0.39 0.39 0.38 0.35 0.32 0.36
0.31 0.32 0.29 0.28 0.27 0.26 0.25 0.24 0.23 0.23 0.23 0.23 0.22 0.21 0.22 0.21 0.22 0.23 0.23 0.21 0.20 0.21 0.23 0.23 0.21 0.19 0.18 0.20 0.22 0.24 0.26 0.27 0.29 0.30 0.31 0.35 0.39 0.40 0.40 0.40 0.39 0.37 0.35 0.38
0.28 0.30 0.30 0.30 0.29 0.28 0.29 0.30 0.29 0.27 0.26 0.24 0.23 0.25 0.25 0.25 0.26 0.27 0.24 0.22 0.22 0.23 0.24 0.22 0.23 0.21 0.21 0.23 0.26 0.26 0.27 0.29 0.30 0.30 0.32 0.38 0.41 0.38 0.39 0.40 0.39 0.38 0.38 0.39
0.29 0.30 0.31 0.31 0.29 0.28 0.30 0.30 0.28 0.27 0.26 0.25 0.25 0.26 0.27 0.27 0.26 0.25 0.23 0.23 0.24 0.24 0.21 0.21 0.21 0.21 0.22 0.23 0.27 0.27 0.27 0.29 0.31 0.32 0.35 0.38 0.39 0.37 0.37 0.38 0.38 0.38 0.39 0.39
0.33 0.32 0.31 0.32 0.33 0.31 0.30 0.28 0.27 0.28 0.28 0.26 0.26 0.27 0.27 0.27 0.24 0.22 0.21 0.22 0.22 0.19 0.18 0.19 0.18 0.18 0.21 0.26 0.30 0.28 0.28 0.30 0.33 0.36 0.39 0.40 0.40 0.39 0.38 0.37 0.38 0.38 0.39 0.39
0.31 0.32 0.32 0.32 0.30 0.30 0.30 0.29 0.28 0.28 0.28 0.29 0.29 0.27 0.27 0.26 0.23 0.21 0.20 0.21 0.20 0.21 0.20 0.19 0.19 0.21 0.26 0.31 0.31 0.30 0.32 0.34 0.36 0.38 0.39 0.40 0.41 0.40 0.38 0.37 0.39 0.38 0.37 0.38
0.27 0.29 0.30 0.32 0.31 0.30 0.29 0.29 0.29 0.28 0.29 0.30 0.31 0.31 0.28 0.26 0.24 0.24 0.25 0.22 0.20 0.21 0.20 0.19 0.23 0.28 0.32 0.32 0.31 0.32 0.34 0.35 0.36 0.37 0.37 0.37 0.38 0.38 0.37 0.37 0.36 0.36 0.36 0.37
0.20 0.20 0.22 0.23 0.21 0.21 0.23 0.24 0.24 0.24 0.25 0.27 0.27 0.27 0.26 0.25 0.24 0.23 0.23 0.23 0.22 0.22 0.21 0.21 0.26 0.30 0.32 0.30 0.29 0.31 0.32 0.33 0.33 0.33 0.33 0.33 0.33 0.34 0.34 0.34 0.34 0.33 0.34 0.34
0.13 0.13 0.13 0.13 0.14 0.16 0.18 0.19 0.19 0.20 0.20 0.22 0.23 0.22 0.21 0.22 0.23 0.23 0.22 0.22 0.21 0.22 0.22 0.23 0.25 0.26 0.27 0.26 0.27 0.28 0.29 0.30 0.32 0.34 0.32 0.31 0.30 0.31 0.30 0.30 0.31 0.31 0.31 0.31
0.09 0.09 0.09 0.10 0.12 0.13 0.14 0.14 0.16 0.17 0.18 0.19 0.20 0.21 0.21 0.21 0.22 0.23 0.23 0.22 0.21 0.22 0.23 0.23 0.23 0.23 0.24 0.23 0.24 0.24 0.24 0.25 0.26 0.27 0.27 0.28 0.28 0.29 0.28 0.28 0.28 0.29 0.29 0.29
0.08 0.08 0.08 0.08 0.09 0.11 0.12 0.12 0.14 0.15 0.17 0.19 0.21 0.21 0.22 0.22 0.22 0.23 0.22 0.21 0.21 0.22 0.22 0.22 0.22 0.23 0.23 0.23 0.22 0.21 0.21 0.22 0.24 0.24 0.25 0.26 0.27 0.27 0.27 0.28 0.28 0.28 0.29 0.28

GEFSNGP_prec_meanprecacc_228.txt.gz
Total_Precipitation_Accumulation
0.65 0.55 0.63 0.62 0.50 0.58 0.85 0.75 0.65 0.46 0.44 0.49 0.47 0.48 0.47 0.42 0.37 0.32 0.30 0.29 0.26 0.25 0.26 0.27 0.28 0.34 0.43 0.52 0.60 0.69 0.76 0.78 0.76 0.75 0.74 0.73 0.72 0.69 0.67 0.70 0.72 0.71 0.69 0.68
0.68 0.40 0.43 0.46 0.37 0.43 0.52 0.46 0.43 0.36 0.41 0.36 0.35 0.39 0.41 0.35 0.28 0.24 0.24 0.23 0.20 0.19 0.19 0.21 0.22 0.25 0.32 0.42 0.51 0.58 0.67 0.72 0.72 0.72 0.71 0.69 0.66 0.64 0.62 0.62 0.65 0.69 0.70 0.71
0.78 0.39 0.46 0.51 0.40 0.41 0.47 0.41 0.38 0.44 0.39 0.27 0.28 0.35 0.43 0.37 0.26 0.21 0.21 0.19 0.18 0.18 0.17 0.16 0.18 0.23 0.30 0.37 0.42 0.45 0.51 0.57 0.60 0.63 0.66 0.66 0.66 0.68 0.72 0.74 0.75 0.80 0.84 0.87
0.83 0.62 0.74 0.53 0.33 0.32 0.39 0.39 0.35 0.36 0.28 0.26 0.29 0.30 0.33 0.34 0.29 0.22 0.16 0.13 0.13 0.15 0.15 0.14 0.16 0.21 0.29 0.39 0.45 0.49 0.55 0.57 0.57 0.59 0.66 0.71 0.78 0.85 0.93 0.98 1.00 1.03 1.07 1.08
0.79 0.62 0.42 0.26 0.21 0.28 0.37 0.41 0.30 0.28 0.23 0.20 0.22 0.27 0.29 0.26 0.26 0.24 0.17 0.13 0.12 0.13 0.15 0.17 0.19 0.20 0.26 0.37 0.46 0.53 0.59 0.63 0.65 0.70 0.80 0.87 0.97 1.05 1.08 1.14 1.14 1.10 1.07 1.05
0.79 0.64 0.36 0.26 0.12 0.14 0.27 0.43 0.23 0.20 0.20 0.17 0.18 0.28 0.30 0.28 0.30 0.30 0.24 0.18 0.14 0.13 0.15 0.20 0.24 0.27 0.34 0.45 0.55 0.62 0.68 0.74 0.78 0.81 0.87 0.91 0.93 0.95 0.95 0.94 0.91 0.86 0.83 0.80
0.63 0.58 0.32 0.21 0.08 0.09 0.33 0.43 0.23 0.22 0.22 0.21 0.24 0.29 0.27 0.25 0.28 0.30 0.31 0.29 0.27 0.26 0.27 0.31 0.37 0.44 0.53 0.61 0.73 0.78 0.78 0.83 0.85 0.82 0.83 0.81 0.73 0.67 0.65 0.62 0.57 0.54 0.53 0.52
0.44 0.61 0.43 0.21 0.15 0.29 0.40 0.25 0.20 0.19 0.20 0.22 0.21 0.19 0.18 0.19 0.23 0.25 0.27 0.30 0.34 0.38 0.39 0.40 0.46 0.57 0.65 0.72 0.76 0.73 0.67 0.65 0.62 0.56 0.53 0.50 0.47 0.45 0.44 0.43 0.43 0.41 0.39 0.38
0.43 0.50 0.39 0.29 0.29 0.29 0.25 0.22 0.20 0.21 0.20 0.19 0.20 0.20 0.19 0.18 0.18 0.19 0.19 0.20 0.24 0.30 0.34 0.33 0.34 0.39 0.42 0.42 0.40 0.39 0.37 0.36 0.36 0.36 0.36 0.36 0.35 0.35 0.35 0.36 0.36 0.36 0.36 0.36
0.37 0.36 0.28 0.24 0.21 0.19 0.18 0.21 0.20 0.19 0.17 0.17 0.19 0.18 0.17 0.16 0.16 0.16 0.16 0.17 0.18 0.20 0.22 0.23 0.21 0.21 0.21 0.20 0.21 0.23 0.26 0.27 0.29 0.31 0.32 0.34 0.34 0.33 0.33 0.34 0.34 0.35 0.35 0.35
0.34 0.28 0.22 0.20 0.18 0.19 0.17 0.15 0.15 0.14 0.14 0.15 0.16 0.15 0.15 0.15 0.16 0.16 0.15 0.16 0.18 0.22 0.24 0.26 0.24 0.23 0.23 0.24 0.25 0.27 0.29 0.29 0.31 0.32 0.32 0.33 0.34 0.35 0.36 0.37 0.40 0.41 0.39 0.38
0.40 0.29 0.29 0.26 0.18 0.16 0.16 0.15 0.16 0.17 0.17 0.16 0.17 0.19 0.18 0.18 0.18 0.18 0.17 0.17 0.19 0.21 0.25 0.28 0.27 0.26 0.26 0.27 0.29 0.30 0.30 0.30 0.30 0.31 0.31 0.31 0.31 0.33 0.38 0.40 0.42 0.42 0.41 0.41
0.30 0.21 0.19 0.17 0.14 0.14 0.16 0.18 0.19 0.19 0.20 0.21 0.21 0.21 0.22 0.22 0.22 0.21 0.21 0.21 0.22 0.24 0.25 0.28 0.28 0.29 0.31 0.31 0.30 0.31 0.32 0.32 0.32 0.32 0.32 0.33 0.32 0.31 0.35 0.40 0.44 0.44 0.42 0.41
0.15 0.15 0.16 0.15 0.17 0.16 0.17 0.18 0.18 0.19 0.20 0.21 0.22 0.21 0.21 0.21 0.20 0.21 0.25 0.27 0.27 0.26 0.26 0.26 0.25 0.27 0.31 0.30 0.29 0.31 0.32 0.35 0.35 0.33 0.35 0.37 0.37 0.35 0.33 0.35 0.37 0.37 0.38 0.43
0.15 0.17 0.21 0.19 0.16 0.15 0.15 0.14 0.14 0.15 0.15 0.16 0.19 0.21 0.21 0.22 0.23 0.25 0.26 0.26 0.25 0.24 0.24 0.24 0.24 0.25 0.27 0.28 0.28 0.29 0.31 0.34 0.34 0.34 0.36 0.39 0.41 0.41 0.39 0.37 0.37 0.36 0.36 0.40
0.18 0.16 0.17 0.17 0.18 0.16 0.15 0.15 0.16 0.18 0.18 0.18 0.20 0.22 0.24 0.24 0.24 0.25 0.26 0.25 0.25 0.25 0.26 0.24 0.25 0.26 0.25 0.25 0.26 0.28 0.32 0.39 0.41 0.40 0.40 0.41 0.42 0.42 0.40 0.39 0.38 0.37 0.36 0.38
0.28 0.25 0.22 0.22 0.21 0.20 0.21 0.22 0.24 0.24 0.22 0.22 0.23 0.23 0.23 0.22 0.22 0.23 0.25 0.24 0.24 0.25 0.25 0.25 0.26 0.25 0.24 0.25 0.26 0.29 0.31 0.37 0.42 0.39 0.37 0.38 0.40 0.42 0.43 0.43 0.41 0.38 0.35 0.40
0.33 0.33 0.31 0.30 0.29 0.27 0.26 0.25 0.24 0.24 0.25 0.24 0.23 0.23 0.23 0.23 0.24 0.25 0.26 0.24 0.22 0.23 0.26 0.28 0.26 0.23 0.22 0.24 0.27 0.29 0.30 0.32 0.34 0.35 0.36 0.40 0.44 0.44 0.44 0.43 0.42 0.40 0.38 0.42
0.29 0.31 0.31 0.31 0.31 0.30 0.31 0.31 0.30 0.29 0.28 0.26 0.25 0.26 0.26 0.27 0.28 0.29 0.26 0.24 0.24 0.26 0.28 0.26 0.27 0.24 0.24 0.27 0.30 0.31 0.32 0.33 0.34 0.34 0.36 0.41 0.45 0.41 0.42 0.43 0.42 0.40 0.41 0.42
0.30 0.31 0.32 0.32 0.31 0.30 0.32 0.32 0.30 0.29 0.28 0.26 0.27 0.27 0.28 0.29 0.28 0.28 0.25 0.25 0.28 0.28 0.25 0.25 0.24 0.24 0.25 0.26 0.30 0.30 0.31 0.33 0.35 0.36 0.38 0.41 0.42 0.41 0.40 0.40 0.40 0.40 0.40 0.41
0.33 0.32 0.32 0.33 0.34 0.32 0.32 0.31 0.29 0.30 0.30 0.28 0.28 0.29 0.30 0.29 0.27 0.24 0.23 0.25 0.26 0.23 0.22 0.22 0.21 0.21 0.24 0.30 0.33 0.31 0.31 0.34 0.37 0.40 0.42 0.42 0.42 0.41 0.39 0.39 0.39 0.40 0.41 0.40
0.32 0.32 0.33 0.33 0.31 0.32 0.32 0.30 0.30 0.30 0.30 0.31 0.30 0.29 0.29 0.28 0.26 0.23 0.23 0.25 0.24 0.24 0.23 0.22 0.22 0.25 0.30 0.35 0.34 0.34 0.36 0.37 0.40 0.41 0.42 0.42 0.43 0.42 0.39 0.39 0.40 0.39 0.38 0.39
0.28 0.29 0.31 0.32 0.32 0.32 0.30 0.31 0.31 0.30 0.30 0.31 0.33 0.32 0.30 0.28 0.26 0.26 0.27 0.24 0.22 0.23 0.23 0.22 0.26 0.31 0.35 0.35 0.34 0.35 0.37 0.38 0.39 0.39 0.40 0.40 0.40 0.39 0.39 0.38 0.37 0.36 0.37 0.37
0.20 0.21 0.22 0.23 0.22 0.21 0.23 0.25 0.25 0.25 0.26 0.28 0.28 0.28 0.27 0.27 0.25 0.24 0.25 0.25 0.24 0.24 0.23 0.24 0.29 0.33 0.35 0.33 0.32 0.34 0.35 0.35 0.36 0.36 0.36 0.35 0.35 0.35 0.35 0.36 0.35 0.34 0.34 0.34
0.13 0.13 0.13 0.13 0.15 0.17 0.19 0.19 0.19 0.20 0.21 0.23 0.24 0.23 0.22 0.23 0.25 0.25 0.24 0.23 0.23 0.24 0.24 0.25 0.27 0.29 0.29 0.28 0.29 0.30 0.31 0.32 0.35 0.36 0.34 0.33 0.32 0.32 0.31 0.31 0.32 0.32 0.32 0.32
0.10 0.10 0.10 0.11 0.12 0.14 0.14 0.15 0.16 0.18 0.18 0.20 0.21 0.22 0.22 0.23 0.24 0.25 0.25 0.24 0.23 0.24 0.25 0.25 0.25 0.25 0.26 0.25 0.26 0.26 0.26 0.27 0.29 0.29 0.28 0.29 0.30 0.30 0.29 0.29 0.29 0.30 0.30 0.30
0.08 0.09 0.09 0.08 0.09 0.11 0.12 0.13 0.14 0.16 0.18 0.20 0.22 0.22 0.23 0.24 0.24 0.24 0.23 0.23 0.23 0.23 0.23 0.24 0.24 0.24 0.24 0.24 0.23 0.23 0.23 0.24 0.25 0.26 0.26 0.27 0.28 0.29 0.28 0.29 0.29 0.29 0.29 0.29

GEFSNGP_prec_meanprecacc_234.txt.gz
Total_Precipitation_Accumulation
0.66 0.56 0.64 0.63 0.51 0.59 0.87 0.77 0.68 0.49 0.46 0.52 0.50 0.51 0.50 0.45 0.40 0.35 0.34 0.32 0.30 0.30 0.31 0.32 0.34 0.39 0.48 0.57 0.64 0.73 0.80 0.82 0.79 0.76 0.76 0.75 0.74 0.72 0.70 0.72 0.74 0.74 0.72 0.70
0.69 0.41 0.44 0.47 0.38 0.44 0.53 0.47 0.45 0.37 0.43 0.39 0.38 0.41 0.43 0.38 0.32 0.27 0.27 0.26 0.23 0.22 0.23 0.25 0.28 0.30 0.35 0.46 0.55 0.62 0.71 0.76 0.75 0.75 0.73 0.71 0.68 0.66 0.64 0.64 0.67 0.71 0.73 0.74
0.79 0.40 0.46 0.52 0.41 0.42 0.48 0.43 0.41 0.48 0.44 0.30 0.31 0.38 0.46 0.40 0.30 0.25 0.25 0.23 0.22 0.21 0.21 0.21 0.22 0.28 0.34 0.41 0.46 0.49 0.54 0.60 0.63 0.65 0.67 0.68 0.67 0.69 0.73 0.76 0.77 0.81 0.86 0.89
0.84 0.63 0.75 0.55 0.34 0.33 0.41 0.42 0.38 0.39 0.32 0.28 0.32 0.33 0.36 0.38 0.33 0.26 0.20 0.17 0.17 0.19 0.18 0.18 0.19 0.24 0.33 0.42 0.49 0.53 0.57 0.59 0.59 0.62 0.67 0.73 0.79 0.86 0.93 0.99 1.01 1.05 1.08 1.10
0.81 0.63 0.43 0.27 0.22 0.30 0.39 0.43 0.33 0.30 0.25 0.21 0.23 0.29 0.31 0.29 0.29 0.26 0.20 0.17 0.16 0.17 0.19 0.20 0.22 0.24 0.30 0.41 0.49 0.55 0.61 0.64 0.67 0.72 0.81 0.88 0.98 1.06 1.09 1.15 1.14 1.11 1.08 1.06
0.81 0.66 0.37 0.27 0.13 0.14 0.28 0.46 0.26 0.22 0.22 0.19 0.20 0.30 0.32 0.30 0.32 0.31 0.26 0.20 0.17 0.17 0.18 0.23 0.27 0.30 0.37 0.48 0.58 0.65 0.70 0.76 0.79 0.82 0.88 0.92 0.94 0.96 0.96 0.96 0.92 0.87 0.84 0.81
0.64 0.60 0.33 0.22 0.09 0.09 0.34 0.46 0.25 0.23 0.24 0.23 0.27 0.33 0.29 0.27 0.30 0.32 0.32 0.31 0.29 0.28 0.29 0.33 0.39 0.47 0.57 0.65 0.76 0.81 0.81 0.85 0.86 0.83 0.84 0.82 0.75 0.69 0.67 0.65 0.60 0.56 0.54 0.54
0.45 0.63 0.45 0.22 0.15 0.30 0.42 0.26 0.21 0.20 0.22 0.23 0.23 0.21 0.20 0.21 0.24 0.26 0.28 0.32 0.36 0.40 0.41 0.42 0.49 0.60 0.69 0.76 0.79 0.76 0.69 0.67 0.64 0.57 0.54 0.52 0.49 0.47 0.46 0.47 0.47 0.45 0.42 0.42
0.45 0.51 0.41 0.30 0.30 0.31 0.26 0.23 0.21 0.22 0.21 0.21 0.22 0.22 0.21 0.20 0.20 0.21 0.21 0.22 0.26 0.33 0.37 0.36 0.36 0.41 0.46 0.46 0.44 0.43 0.41 0.39 0.38 0.37 0.37 0.37 0.37 0.37 0.38 0.39 0.41 0.41 0.40 0.41
0.38 0.37 0.29 0.24 0.21 0.19 0.19 0.21 0.20 0.20 0.18 0.18 0.21 0.20 0.19 0.18 0.19 0.19 0.19 0.19 0.20 0.22 0.25 0.25 0.23 0.23 0.24 0.24 0.24 0.27 0.29 0.30 0.31 0.33 0.34 0.35 0.36 0.35 0.37 0.39 0.39 0.40 0.40 0.40
0.34 0.28 0.22 0.20 0.18 0.19 0.17 0.15 0.15 0.15 0.14 0.16 0.17 0.16 0.17 0.18 0.18 0.19 0.18 0.18 0.20 0.25 0.27 0.29 0.27 0.26 0.25 0.26 0.27 0.29 0.32 0.33 0.34 0.36 0.34 0.34 0.36 0.37 0.39 0.42 0.45 0.47 0.45 0.43
0.40 0.29 0.30 0.26 0.19 0.16 0.16 0.15 0.17 0.18 0.17 0.16 0.18 0.21 0.20 0.20 0.21 0.20 0.20 0.20 0.21 0.24 0.27 0.31 0.30 0.28 0.28 0.30 0.31 0.32 0.33 0.33 0.34 0.35 0.34 0.33 0.33 0.35 0.40 0.42 0.45 0.47 0.46 0.45
0.31 0.21 0.19 0.18 0.14 0.14 0.16 0.18 0.20 0.20 0.21 0.21 0.22 0.23 0.24 0.24 0.24 0.23 0.22 0.23 0.25 0.27 0.28 0.31 0.31 0.32 0.34 0.33 0.33 0.33 0.35 0.35 0.36 0.36 0.35 0.35 0.34 0.33 0.37 0.42 0.46 0.46 0.45 0.45
0.15 0.15 0.17 0.15 0.17 0.16 0.17 0.19 0.19 0.19 0.21 0.22 0.23 0.23 0.23 0.23 0.22 0.23 0.27 0.29 0.29 0.29 0.29 0.29 0.28 0.30 0.33 0.33 0.32 0.34 0.35 0.38 0.38 0.36 0.38 0.40 0.39 0.37 0.36 0.38 0.40 0.40 0.41 0.46
0.15 0.18 0.22 0.20 0.17 0.16 0.16 0.15 0.15 0.16 0.16 0.17 0.19 0.22 0.22 0.23 0.25 0.27 0.29 0.28 0.27 0.26 0.26 0.26 0.26 0.28 0.30 0.31 0.31 0.32 0.34 0.37 0.38 0.37 0.39 0.42 0.44 0.45 0.43 0.41 0.41 0.40 0.40 0.44
0.18 0.17 0.17 0.18 0.19 0.17 0.16 0.16 0.17 0.19 0.19 0.19 0.21 0.23 0.25 0.26 0.26 0.27 0.28 0.27 0.27 0.28 0.28 0.27 0.28 0.29 0.28 0.29 0.30 0.32 0.35 0.43 0.45 0.44 0.44 0.45 0.46 0.46 0.44 0.43 0.43 0.41 0.40 0.42
0.29 0.26 0.23 0.23 0.22 0.21 0.22 0.24 0.25 0.25 0.23 0.22 0.24 0.24 0.24 0.23 0.23 0.24 0.26 0.26 0.26 0.28 0.27 0.27 0.29 0.28 0.27 0.28 0.30 0.32 0.35 0.40 0.46 0.43 0.41 0.43 0.45 0.47 0.47 0.47 0.45 0.42 0.40 0.44
0.34 0.35 0.32 0.32 0.30 0.29 0.27 0.26 0.25 0.25 0.26 0.26 0.24 0.24 0.24 0.24 0.26 0.27 0.28 0.26 0.24 0.25 0.28 0.30 0.28 0.25 0.24 0.27 0.30 0.32 0.34 0.36 0.38 0.39 0.41 0.44 0.48 0.48 0.49 0.48 0.46 0.44 0.42 0.45
0.30 0.32 0.32 0.32 0.32 0.32 0.32 0.32 0.32 0.30 0.29 0.28 0.26 0.28 0.28 0.28 0.30 0.31 0.28 0.26 0.25 0.27 0.30 0.29 0.30 0.26 0.27 0.29 0.33 0.33 0.35 0.37 0.38 0.38 0.40 0.45 0.49 0.45 0.46 0.47 0.46 0.44 0.44 0.45
0.31 0.32 0.32 0.33 0.32 0.31 0.34 0.34 0.32 0.30 0.30 0.28 0.29 0.29 0.30 0.31 0.30 0.29 0.27 0.27 0.31 0.31 0.29 0.28 0.27 0.27 0.28 0.29 0.33 0.33 0.34 0.37 0.38 0.40 0.42 0.45 0.46 0.44 0.44 0.44 0.44 0.44 0.43 0.44
0.34 0.33 0.33 0.34 0.35 0.33 0.33 0.32 0.31 0.32 0.33 0.30 0.30 0.31 0.32 0.32 0.29 0.26 0.25 0.27 0.29 0.26 0.24 0.25 0.23 0.24 0.27 0.33 0.36 0.34 0.34 0.37 0.41 0.43 0.45 0.46 0.46 0.44 0.43 0.42 0.43 0.43 0.43 0.43
0.33 0.33 0.34 0.34 0.32 0.32 0.33 0.32 0.32 0.33 0.32 0.33 0.33 0.31 0.31 0.30 0.28 0.25 0.25 0.27 0.27 0.27 0.25 0.24 0.24 0.28 0.34 0.39 0.38 0.37 0.39 0.41 0.43 0.45 0.46 0.46 0.46 0.45 0.42 0.42 0.42 0.41 0.41 0.41
0.28 0.30 0.32 0.33 0.33 0.32 0.31 0.32 0.32 0.31 0.32 0.33 0.34 0.34 0.32 0.30 0.28 0.28 0.29 0.27 0.25 0.25 0.25 0.25 0.29 0.35 0.39 0.39 0.37 0.39 0.41 0.42 0.42 0.42 0.43 0.42 0.42 0.42 0.42 0.40 0.39 0.39 0.39 0.39
0.21 0.21 0.23 0.24 0.22 0.21 0.24 0.25 0.25 0.26 0.27 0.29 0.29 0.29 0.29 0.28 0.27 0.26 0.28 0.28 0.27 0.27 0.26 0.27 0.32 0.36 0.38 0.36 0.35 0.37 0.38 0.38 0.38 0.38 0.38 0.37 0.36 0.37 0.37 0.38 0.37 0.36 0.36 0.36
0.14 0.14 0.13 0.13 0.15 0.17 0.19 0.19 0.19 0.20 0.21 0.23 0.24 0.23 0.23 0.25 0.27 0.27 0.26 0.26 0.25 0.26 0.26 0.27 0.29 0.31 0.31 0.30 0.31 0.32 0.33 0.34 0.37 0.39 0.36 0.35 0.34 0.34 0.33 0.32 0.34 0.34 0.33 0.33
0.10 0.10 0.10 0.11 0.13 0.14 0.15 0.15 0.16 0.18 0.19 0.20 0.22 0.23 0.23 0.24 0.25 0.26 0.26 0.26 0.24 0.25 0.26 0.27 0.27 0.27 0.27 0.27 0.27 0.28 0.28 0.29 0.31 0.31 0.31 0.31 0.32 0.32 0.31 0.30 0.30 0.31 0.32 0.32
0.09 0.09 0.09 0.08 0.09 0.11 0.12 0.13 0.15 0.16 0.18 0.20 0.23 0.23 0.24 0.25 0.25 0.25 0.24 0.24 0.23 0.24 0.25 0.25 0.25 0.25 0.26 0.26 0.25 0.24 0.24 0.25 0.27 0.28 0.28 0.29 0.30 0.30 0.30 0.30 0.31 0.31 0.31 0.30

GEFSNGP_prec_meanprecacc_240.txt.gz
Total_Precipitation_Accumulation
0.66 0.56 0.64 0.63 0.51 0.60 0.87 0.78 0.70 0.51 0.48 0.54 0.52 0.53 0.52 0.47 0.42 0.37 0.35 0.33 0.31 0.32 0.33 0.35 0.36 0.42 0.52 0.62 0.69 0.80 0.89 0.92 0.89 0.83 0.79 0.77 0.76 0.73 0.72 0.74 0.76 0.76 0.74 0.73
0.69 0.41 0.44 0.47 0.38 0.44 0.54 0.48 0.46 0.39 0.45 0.40 0.39 0.42 0.44 0.39 0.33 0.29 0.29 0.28 0.25 0.23 0.24 0.27 0.30 0.32 0.39 0.50 0.60 0.69 0.79 0.85 0.86 0.82 0.76 0.73 0.70 0.68 0.65 0.66 0.69 0.73 0.75 0.77
0.80 0.40 0.47 0.53 0.42 0.43 0.49 0.44 0.42 0.50 0.46 0.31 0.32 0.39 0.47 0.42 0.32 0.27 0.26 0.25 0.23 0.23 0.22 0.22 0.24 0.30 0.38 0.45 0.51 0.55 0.61 0.69 0.73 0.74 0.73 0.71 0.69 0.71 0.76 0.78 0.79 0.84 0.88 0.91
0.86 0.64 0.77 0.56 0.34 0.34 0.42 0.43 0.39 0.41 0.33 0.30 0.33 0.34 0.37 0.39 0.34 0.28 0.22 0.19 0.19 0.20 0.20 0.19 0.22 0.27 0.36 0.47 0.53 0.58 0.62 0.65 0.66 0.69 0.72 0.75 0.81 0.88 0.96 1.02 1.03 1.06 1.10 1.12
0.82 0.65 0.44 0.28 0.22 0.30 0.40 0.44 0.34 0.31 0.25 0.22 0.24 0.30 0.32 0.29 0.30 0.28 0.22 0.19 0.18 0.19 0.21 0.22 0.24 0.26 0.33 0.45 0.54 0.59 0.65 0.69 0.72 0.79 0.86 0.90 0.99 1.08 1.10 1.17 1.16 1.13 1.10 1.07
0.82 0.67 0.39 0.28 0.13 0.15 0.29 0.47 0.26 0.22 0.22 0.19 0.21 0.31 0.33 0.30 0.33 0.33 0.28 0.23 0.21 0.20 0.21 0.25 0.30 0.33 0.40 0.52 0.63 0.70 0.74 0.80 0.83 0.87 0.92 0.95 0.96 0.97 0.98 0.97 0.94 0.90 0.86 0.83
0.66 0.62 0.35 0.23 0.09 0.10 0.36 0.47 0.25 0.24 0.24 0.24 0.29 0.35 0.31 0.29 0.32 0.33 0.34 0.34 0.32 0.32 0.33 0.36 0.43 0.51 0.60 0.70 0.82 0.87 0.85 0.89 0.89 0.86 0.86 0.84 0.77 0.71 0.68 0.66 0.62 0.59 0.58 0.57
0.46 0.65 0.47 0.22 0.16 0.31 0.43 0.27 0.22 0.21 0.23 0.24 0.24 0.22 0.22 0.23 0.26 0.29 0.31 0.34 0.38 0.43 0.44 0.45 0.53 0.63 0.72 0.80 0.85 0.81 0.74 0.71 0.67 0.60 0.56 0.54 0.51 0.49 0.48 0.49 0.50 0.48 0.46 0.45
0.46 0.52 0.42 0.30 0.30 0.31 0.27 0.24 0.21 0.23 0.21 0.22 0.23 0.23 0.23 0.22 0.23 0.25 0.25 0.25 0.29 0.35 0.40 0.38 0.40 0.45 0.49 0.50 0.48 0.47 0.44 0.42 0.41 0.40 0.39 0.39 0.40 0.41 0.42 0.42 0.44 0.44 0.44 0.44
0.38 0.37 0.29 0.25 0.21 0.20 0.19 0.22 0.21 0.20 0.19 0.19 0.22 0.21 0.20 0.20 0.21 0.22 0.22 0.22 0.23 0.25 0.28 0.28 0.27 0.27 0.27 0.27 0.27 0.30 0.32 0.33 0.34 0.36 0.36 0.37 0.38 0.38 0.40 0.42 0.43 0.44 0.44 0.44
0.35 0.28 0.22 0.20 0.18 0.19 0.17 0.15 0.15 0.15 0.15 0.17 0.18 0.17 0.18 0.19 0.20 0.20 0.20 0.21 0.22 0.27 0.30 0.32 0.30 0.29 0.28 0.29 0.30 0.32 0.34 0.35 0.38 0.39 0.37 0.37 0.39 0.40 0.42 0.45 0.49 0.51 0.49 0.47
0.40 0.29 0.30 0.26 0.19 0.16 0.16 0.16 0.17 0.18 0.17 0.17 0.19 0.21 0.21 0.22 0.22 0.22 0.22 0.22 0.23 0.25 0.30 0.34 0.32 0.31 0.31 0.32 0.34 0.35 0.36 0.36 0.37 0.38 0.38 0.37 0.36 0.37 0.43 0.45 0.48 0.49 0.48 0.48
0.31 0.21 0.20 0.18 0.14 0.14 0.16 0.18 0.20 0.21 0.21 0.22 0.22 0.23 0.25 0.26 0.26 0.25 0.24 0.24 0.27 0.29 0.30 0.33 0.34 0.34 0.36 0.36 0.35 0.36 0.38 0.38 0.39 0.39 0.39 0.39 0.37 0.36 0.40 0.44 0.48 0.48 0.47 0.47
0.15 0.15 0.17 0.16 0.17 0.16 0.17 0.20 0.19 0.20 0.21 0.23 0.24 0.24 0.24 0.24 0.23 0.24 0.28 0.31 0.31 0.30 0.30 0.31 0.30 0.32 0.36 0.36 0.35 0.36 0.38 0.41 0.41 0.39 0.41 0.43 0.43 0.40 0.39 0.41 0.42 0.42 0.43 0.48
0.15 0.18 0.22 0.20 0.17 0.16 0.16 0.15 0.15 0.16 0.17 0.18 0.20 0.22 0.23 0.24 0.26 0.28 0.30 0.30 0.28 0.27 0.27 0.27 0.27 0.31 0.32 0.34 0.33 0.35 0.37 0.40 0.41 0.40 0.42 0.45 0.47 0.48 0.46 0.44 0.44 0.43 0.42 0.46
0.18 0.17 0.17 0.18 0.19 0.17 0.16 0.16 0.18 0.19 0.19 0.20 0.21 0.24 0.26 0.27 0.27 0.28 0.29 0.28 0.28 0.29 0.29 0.28 0.29 0.31 0.31 0.31 0.32 0.34 0.38 0.47 0.49 0.48 0.48 0.49 0.49 0.49 0.48 0.46 0.46 0.44 0.43 0.46
0.29 0.26 0.23 0.23 0.23 0.22 0.23 0.25 0.26 0.26 0.24 0.23 0.25 0.25 0.25 0.24 0.24 0.25 0.27 0.28 0.28 0.29 0.29 0.29 0.31 0.30 0.29 0.30 0.33 0.36 0.39 0.44 0.50 0.47 0.46 0.47 0.49 0.50 0.50 0.50 0.48 0.46 0.43 0.48
0.35 0.35 0.33 0.33 0.31 0.30 0.28 0.27 0.26 0.26 0.27 0.27 0.25 0.25 0.25 0.25 0.27 0.29 0.29 0.27 0.25 0.26 0.30 0.32 0.30 0.27 0.26 0.28 0.31 0.35 0.36 0.39 0.41 0.43 0.44 0.48 0.52 0.52 0.52 0.51 0.49 0.47 0.45 0.49
0.31 0.32 0.33 0.33 0.33 0.32 0.33 0.33 0.33 0.31 0.30 0.29 0.27 0.29 0.29 0.30 0.32 0.33 0.30 0.27 0.27 0.29 0.32 0.31 0.32 0.28 0.28 0.31 0.34 0.35 0.37 0.39 0.41 0.41 0.43 0.49 0.52 0.49 0.49 0.50 0.49 0.48 0.47 0.48
0.31 0.33 0.33 0.34 0.32 0.32 0.34 0.35 0.32 0.31 0.31 0.30 0.30 0.30 0.31 0.32 0.32 0.31 0.28 0.29 0.33 0.34 0.32 0.30 0.29 0.29 0.30 0.32 0.35 0.35 0.36 0.39 0.41 0.42 0.45 0.47 0.48 0.47 0.47 0.47 0.47 0.47 0.46 0.47
0.35 0.34 0.33 0.35 0.35 0.34 0.34 0.33 0.32 0.33 0.34 0.31 0.31 0.33 0.34 0.33 0.31 0.28 0.26 0.28 0.30 0.28 0.26 0.27 0.26 0.26 0.30 0.36 0.39 0.37 0.37 0.40 0.43 0.46 0.49 0.49 0.49 0.47 0.46 0.45 0.46 0.46 0.47 0.46
0.33 0.33 0.34 0.34 0.32 0.33 0.33 0.33 0.33 0.34 0.34 0.34 0.34 0.33 0.32 0.31 0.29 0.26 0.26 0.29 0.29 0.28 0.27 0.26 0.27 0.30 0.37 0.42 0.41 0.40 0.42 0.44 0.46 0.48 0.50 0.50 0.50 0.48 0.45 0.45 0.46 0.45 0.44 0.44
0.29 0.30 0.32 0.33 0.33 0.33 0.31 0.32 0.33 0.32 0.33 0.34 0.36 0.36 0.34 0.32 0.29 0.29 0.31 0.29 0.27 0.27 0.27 0.28 0.32 0.38 0.42 0.42 0.40 0.41 0.43 0.45 0.46 0.46 0.46 0.46 0.46 0.45 0.45 0.44 0.42 0.42 0.42 0.42
0.21 0.21 0.23 0.24 0.22 0.22 0.24 0.26 0.26 0.26 0.28 0.29 0.30 0.30 0.30 0.29 0.27 0.27 0.29 0.30 0.28 0.28 0.28 0.30 0.35 0.39 0.40 0.38 0.37 0.39 0.40 0.41 0.41 0.41 0.41 0.40 0.40 0.40 0.40 0.40 0.40 0.38 0.39 0.38
0.14 0.14 0.14 0.14 0.15 0.17 0.19 0.19 0.19 0.20 0.21 0.24 0.25 0.24 0.24 0.26 0.28 0.28 0.27 0.27 0.27 0.27 0.28 0.29 0.31 0.33 0.33 0.32 0.33 0.35 0.35 0.37 0.39 0.41 0.39 0.38 0.37 0.36 0.35 0.34 0.36 0.35 0.35 0.35
0.11 0.10 0.10 0.11 0.13 0.14 0.15 0.15 0.17 0.18 0.19 0.20 0.22 0.23 0.23 0.25 0.26 0.27 0.27 0.27 0.25 0.26 0.27 0.28 0.28 0.29 0.29 0.29 0.29 0.29 0.30 0.31 0.33 0.33 0.33 0.34 0.34 0.34 0.33 0.32 0.32 0.33 0.33 0.33
0.09 0.09 0.09 0.09 0.10 0.11 0.13 0.13 0.15 0.17 0.18 0.21 0.23 0.23 0.24 0.25 0.25 0.26 0.25 0.24 0.24 0.25 0.25 0.26 0.26 0.27 0.27 0.27 0.27 0.26 0.26 0.27 0.29 0.30 0.30 0.31 0.32 0.32 0.32 0.32 0.32 0.32 0.32 0.32